<?xml version="1.0" encoding="UTF-8" standalone="no" ?>
<gpx xmlns="http://www.topografix.com/GPX/1/1" xmlns:xsi="http://www.w3.org/2001/XMLSchema-instance" xsi:schemaLocation="http://www.topografix.com/GPX/1/1 http://www.topografix.com/GPX/1/1/gpx.xsd" version="1.1" creator="VisuGPX - https://www.visugpx.com">
  <metadata>
    <name>04 - Seyne : 3 circuits</name>
    <desc><![CDATA[Cet itinéraire fait partie de la collection de EquiLiberté : www.equiliberte.org Circuit NON ACCESSIBLE aux attelages
]]></desc>
  </metadata>
  <trk>
    <name><![CDATA[04 - Seyne sud : vers la station de Chabanon]]></name>
    <extensions>
      <line xmlns="http://www.topografix.com/GPX/gpx_style/0/2">
        <color>0000FF</color>
        <width>4</width>
      </line>
    </extensions>
    <trkseg>
      <trkpt lat="44.34612" lon="6.34531">
        <ele>1136.1999511719</ele>
        <time>2016-07-19T06:51:21.000Z</time>
      </trkpt>
      <trkpt lat="44.34612" lon="6.34531">
        <ele>1136.1999511719</ele>
        <time>2016-07-19T06:51:21.000Z</time>
      </trkpt>
      <trkpt lat="44.34606" lon="6.34545">
        <ele>1136.8000488281</ele>
        <time>2016-07-19T06:51:32.000Z</time>
      </trkpt>
      <trkpt lat="44.34604" lon="6.34551">
        <ele>1137</ele>
        <time>2016-07-19T06:51:36.000Z</time>
      </trkpt>
      <trkpt lat="44.34603" lon="6.34558">
        <ele>1137</ele>
        <time>2016-07-19T06:51:41.000Z</time>
      </trkpt>
      <trkpt lat="44.34602" lon="6.34562">
        <ele>1137.1999511719</ele>
        <time>2016-07-19T06:51:43.000Z</time>
      </trkpt>
      <trkpt lat="44.34596" lon="6.34566">
        <ele>1137.1999511719</ele>
        <time>2016-07-19T06:51:49.000Z</time>
      </trkpt>
      <trkpt lat="44.34584" lon="6.34564">
        <ele>1137.4000244141</ele>
        <time>2016-07-19T06:51:59.000Z</time>
      </trkpt>
      <trkpt lat="44.34574" lon="6.34562">
        <ele>1137.4000244141</ele>
        <time>2016-07-19T06:52:08.000Z</time>
      </trkpt>
      <trkpt lat="44.34561" lon="6.34562">
        <ele>1137.5999755859</ele>
        <time>2016-07-19T06:52:19.000Z</time>
      </trkpt>
      <trkpt lat="44.34556" lon="6.34556">
        <ele>1137.5999755859</ele>
        <time>2016-07-19T06:52:26.000Z</time>
      </trkpt>
      <trkpt lat="44.34555" lon="6.34556">
        <ele>1137.5999755859</ele>
        <time>2016-07-19T06:52:27.000Z</time>
      </trkpt>
      <trkpt lat="44.34551" lon="6.34555">
        <ele>1137.5999755859</ele>
        <time>2016-07-19T06:52:36.000Z</time>
      </trkpt>
      <trkpt lat="44.34549" lon="6.34556">
        <ele>1137.5999755859</ele>
        <time>2016-07-19T06:52:42.000Z</time>
      </trkpt>
      <trkpt lat="44.34548" lon="6.34553">
        <ele>1137.5999755859</ele>
        <time>2016-07-19T06:53:05.000Z</time>
      </trkpt>
      <trkpt lat="44.34546" lon="6.34554">
        <ele>1137.5999755859</ele>
        <time>2016-07-19T06:53:16.000Z</time>
      </trkpt>
      <trkpt lat="44.34541" lon="6.34557">
        <ele>1137.8000488281</ele>
        <time>2016-07-19T06:53:47.000Z</time>
      </trkpt>
      <trkpt lat="44.34536" lon="6.34557">
        <ele>1137.8000488281</ele>
        <time>2016-07-19T06:53:53.000Z</time>
      </trkpt>
      <trkpt lat="44.34538" lon="6.34557">
        <ele>1137.8000488281</ele>
        <time>2016-07-19T06:53:59.000Z</time>
      </trkpt>
      <trkpt lat="44.34538" lon="6.34553">
        <ele>1137.8000488281</ele>
        <time>2016-07-19T06:54:20.000Z</time>
      </trkpt>
      <trkpt lat="44.34539" lon="6.34551">
        <ele>1137.8000488281</ele>
        <time>2016-07-19T06:55:44.000Z</time>
      </trkpt>
      <trkpt lat="44.34538" lon="6.34553">
        <ele>1137.8000488281</ele>
        <time>2016-07-19T06:55:46.000Z</time>
      </trkpt>
      <trkpt lat="44.34535" lon="6.34561">
        <ele>1138</ele>
        <time>2016-07-19T06:55:54.000Z</time>
      </trkpt>
      <trkpt lat="44.34531" lon="6.3457">
        <ele>1138</ele>
        <time>2016-07-19T06:56:01.000Z</time>
      </trkpt>
      <trkpt lat="44.34528" lon="6.34582">
        <ele>1138</ele>
        <time>2016-07-19T06:56:08.000Z</time>
      </trkpt>
      <trkpt lat="44.34527" lon="6.34594">
        <ele>1138</ele>
        <time>2016-07-19T06:56:14.000Z</time>
      </trkpt>
      <trkpt lat="44.34527" lon="6.34597">
        <ele>1138</ele>
        <time>2016-07-19T06:56:16.000Z</time>
      </trkpt>
      <trkpt lat="44.34525" lon="6.34599">
        <ele>1138</ele>
        <time>2016-07-19T06:56:21.000Z</time>
      </trkpt>
      <trkpt lat="44.34526" lon="6.34599">
        <ele>1138</ele>
        <time>2016-07-19T06:56:29.000Z</time>
      </trkpt>
      <trkpt lat="44.34526" lon="6.34603">
        <ele>1138</ele>
        <time>2016-07-19T06:56:34.000Z</time>
      </trkpt>
      <trkpt lat="44.34524" lon="6.34608">
        <ele>1138</ele>
        <time>2016-07-19T06:56:40.000Z</time>
      </trkpt>
      <trkpt lat="44.34519" lon="6.34614">
        <ele>1138</ele>
        <time>2016-07-19T06:56:46.000Z</time>
      </trkpt>
      <trkpt lat="44.34513" lon="6.3462">
        <ele>1138</ele>
        <time>2016-07-19T06:56:53.000Z</time>
      </trkpt>
      <trkpt lat="44.34503" lon="6.34622">
        <ele>1138</ele>
        <time>2016-07-19T06:57:01.000Z</time>
      </trkpt>
      <trkpt lat="44.34494" lon="6.34623">
        <ele>1138.1999511719</ele>
        <time>2016-07-19T06:57:08.000Z</time>
      </trkpt>
      <trkpt lat="44.34487" lon="6.34624">
        <ele>1138.1999511719</ele>
        <time>2016-07-19T06:57:14.000Z</time>
      </trkpt>
      <trkpt lat="44.34478" lon="6.34626">
        <ele>1138.4000244141</ele>
        <time>2016-07-19T06:57:21.000Z</time>
      </trkpt>
      <trkpt lat="44.34473" lon="6.34635">
        <ele>1138.5999755859</ele>
        <time>2016-07-19T06:57:27.000Z</time>
      </trkpt>
      <trkpt lat="44.34473" lon="6.34647">
        <ele>1138.5999755859</ele>
        <time>2016-07-19T06:57:34.000Z</time>
      </trkpt>
      <trkpt lat="44.34478" lon="6.3466">
        <ele>1139</ele>
        <time>2016-07-19T06:57:42.000Z</time>
      </trkpt>
      <trkpt lat="44.34482" lon="6.34673">
        <ele>1139.1999511719</ele>
        <time>2016-07-19T06:57:49.000Z</time>
      </trkpt>
      <trkpt lat="44.34488" lon="6.34686">
        <ele>1139.4000244141</ele>
        <time>2016-07-19T06:57:57.000Z</time>
      </trkpt>
      <trkpt lat="44.34495" lon="6.34706">
        <ele>1139.4000244141</ele>
        <time>2016-07-19T06:58:09.000Z</time>
      </trkpt>
      <trkpt lat="44.34503" lon="6.34719">
        <ele>1139.4000244141</ele>
        <time>2016-07-19T06:58:18.000Z</time>
      </trkpt>
      <trkpt lat="44.34507" lon="6.3473">
        <ele>1139.4000244141</ele>
        <time>2016-07-19T06:58:25.000Z</time>
      </trkpt>
      <trkpt lat="44.34507" lon="6.34744">
        <ele>1140</ele>
        <time>2016-07-19T06:58:33.000Z</time>
      </trkpt>
      <trkpt lat="44.34503" lon="6.34751">
        <ele>1140</ele>
        <time>2016-07-19T06:58:39.000Z</time>
      </trkpt>
      <trkpt lat="44.34498" lon="6.34763">
        <ele>1140.4000244141</ele>
        <time>2016-07-19T06:58:47.000Z</time>
      </trkpt>
      <trkpt lat="44.34498" lon="6.34766">
        <ele>1140.4000244141</ele>
        <time>2016-07-19T06:58:49.000Z</time>
      </trkpt>
      <trkpt lat="44.34497" lon="6.34779">
        <ele>1141</ele>
        <time>2016-07-19T06:58:56.000Z</time>
      </trkpt>
      <trkpt lat="44.34497" lon="6.34781">
        <ele>1141</ele>
        <time>2016-07-19T06:58:57.000Z</time>
      </trkpt>
      <trkpt lat="44.34498" lon="6.34788">
        <ele>1141</ele>
        <time>2016-07-19T06:59:01.000Z</time>
      </trkpt>
      <trkpt lat="44.345" lon="6.34793">
        <ele>1141.1999511719</ele>
        <time>2016-07-19T06:59:04.000Z</time>
      </trkpt>
      <trkpt lat="44.345" lon="6.34803">
        <ele>1141.1999511719</ele>
        <time>2016-07-19T06:59:09.000Z</time>
      </trkpt>
      <trkpt lat="44.345" lon="6.34813">
        <ele>1141.1999511719</ele>
        <time>2016-07-19T06:59:15.000Z</time>
      </trkpt>
      <trkpt lat="44.34501" lon="6.34815">
        <ele>1141.1999511719</ele>
        <time>2016-07-19T06:59:16.000Z</time>
      </trkpt>
      <trkpt lat="44.34504" lon="6.34826">
        <ele>1141.5999755859</ele>
        <time>2016-07-19T06:59:23.000Z</time>
      </trkpt>
      <trkpt lat="44.34505" lon="6.34828">
        <ele>1141.5999755859</ele>
        <time>2016-07-19T06:59:24.000Z</time>
      </trkpt>
      <trkpt lat="44.34506" lon="6.34835">
        <ele>1141.8000488281</ele>
        <time>2016-07-19T06:59:28.000Z</time>
      </trkpt>
      <trkpt lat="44.34509" lon="6.34847">
        <ele>1142</ele>
        <time>2016-07-19T06:59:35.000Z</time>
      </trkpt>
      <trkpt lat="44.34511" lon="6.34852">
        <ele>1142.1999511719</ele>
        <time>2016-07-19T06:59:38.000Z</time>
      </trkpt>
      <trkpt lat="44.34515" lon="6.34859">
        <ele>1142.5999755859</ele>
        <time>2016-07-19T06:59:43.000Z</time>
      </trkpt>
      <trkpt lat="44.34517" lon="6.34873">
        <ele>1142.8000488281</ele>
        <time>2016-07-19T06:59:50.000Z</time>
      </trkpt>
      <trkpt lat="44.34516" lon="6.34886">
        <ele>1143</ele>
        <time>2016-07-19T06:59:57.000Z</time>
      </trkpt>
      <trkpt lat="44.34516" lon="6.34905">
        <ele>1143</ele>
        <time>2016-07-19T07:00:08.000Z</time>
      </trkpt>
      <trkpt lat="44.34512" lon="6.34921">
        <ele>1142.1999511719</ele>
        <time>2016-07-19T07:00:17.000Z</time>
      </trkpt>
      <trkpt lat="44.34509" lon="6.34933">
        <ele>1141.8000488281</ele>
        <time>2016-07-19T07:00:23.000Z</time>
      </trkpt>
      <trkpt lat="44.34507" lon="6.34951">
        <ele>1141.4000244141</ele>
        <time>2016-07-19T07:00:32.000Z</time>
      </trkpt>
      <trkpt lat="44.34509" lon="6.34962">
        <ele>1141.1999511719</ele>
        <time>2016-07-19T07:00:38.000Z</time>
      </trkpt>
      <trkpt lat="44.34509" lon="6.34977">
        <ele>1141.1999511719</ele>
        <time>2016-07-19T07:00:46.000Z</time>
      </trkpt>
      <trkpt lat="44.3451" lon="6.34993">
        <ele>1141.4000244141</ele>
        <time>2016-07-19T07:00:55.000Z</time>
      </trkpt>
      <trkpt lat="44.3451" lon="6.35006">
        <ele>1141.5999755859</ele>
        <time>2016-07-19T07:01:02.000Z</time>
      </trkpt>
      <trkpt lat="44.34509" lon="6.35027">
        <ele>1141.8000488281</ele>
        <time>2016-07-19T07:01:13.000Z</time>
      </trkpt>
      <trkpt lat="44.34504" lon="6.35039">
        <ele>1141.8000488281</ele>
        <time>2016-07-19T07:01:21.000Z</time>
      </trkpt>
      <trkpt lat="44.34501" lon="6.35049">
        <ele>1142</ele>
        <time>2016-07-19T07:01:27.000Z</time>
      </trkpt>
      <trkpt lat="44.34501" lon="6.35051">
        <ele>1142</ele>
        <time>2016-07-19T07:01:28.000Z</time>
      </trkpt>
      <trkpt lat="44.34498" lon="6.35057">
        <ele>1142</ele>
        <time>2016-07-19T07:01:32.000Z</time>
      </trkpt>
      <trkpt lat="44.34492" lon="6.35065">
        <ele>1142.1999511719</ele>
        <time>2016-07-19T07:01:39.000Z</time>
      </trkpt>
      <trkpt lat="44.34485" lon="6.35076">
        <ele>1142.4000244141</ele>
        <time>2016-07-19T07:01:47.000Z</time>
      </trkpt>
      <trkpt lat="44.34485" lon="6.35089">
        <ele>1142.8000488281</ele>
        <time>2016-07-19T07:01:54.000Z</time>
      </trkpt>
      <trkpt lat="44.34485" lon="6.35092">
        <ele>1143</ele>
        <time>2016-07-19T07:01:56.000Z</time>
      </trkpt>
      <trkpt lat="44.34489" lon="6.35106">
        <ele>1143.4000244141</ele>
        <time>2016-07-19T07:02:04.000Z</time>
      </trkpt>
      <trkpt lat="44.3449" lon="6.35119">
        <ele>1144</ele>
        <time>2016-07-19T07:02:11.000Z</time>
      </trkpt>
      <trkpt lat="44.34487" lon="6.35134">
        <ele>1144.4000244141</ele>
        <time>2016-07-19T07:02:20.000Z</time>
      </trkpt>
      <trkpt lat="44.34483" lon="6.35144">
        <ele>1144.8000488281</ele>
        <time>2016-07-19T07:02:27.000Z</time>
      </trkpt>
      <trkpt lat="44.34476" lon="6.35154">
        <ele>1145</ele>
        <time>2016-07-19T07:02:34.000Z</time>
      </trkpt>
      <trkpt lat="44.34472" lon="6.35165">
        <ele>1145.1999511719</ele>
        <time>2016-07-19T07:02:42.000Z</time>
      </trkpt>
      <trkpt lat="44.34463" lon="6.35177">
        <ele>1145.8000488281</ele>
        <time>2016-07-19T07:02:50.000Z</time>
      </trkpt>
      <trkpt lat="44.34457" lon="6.35188">
        <ele>1146.4000244141</ele>
        <time>2016-07-19T07:02:58.000Z</time>
      </trkpt>
      <trkpt lat="44.34452" lon="6.35201">
        <ele>1147.1999511719</ele>
        <time>2016-07-19T07:03:06.000Z</time>
      </trkpt>
      <trkpt lat="44.34453" lon="6.35217">
        <ele>1148.1999511719</ele>
        <time>2016-07-19T07:03:14.000Z</time>
      </trkpt>
      <trkpt lat="44.34455" lon="6.35225">
        <ele>1148.5999755859</ele>
        <time>2016-07-19T07:03:19.000Z</time>
      </trkpt>
      <trkpt lat="44.34453" lon="6.35237">
        <ele>1149</ele>
        <time>2016-07-19T07:03:26.000Z</time>
      </trkpt>
      <trkpt lat="44.34452" lon="6.35239">
        <ele>1149</ele>
        <time>2016-07-19T07:03:27.000Z</time>
      </trkpt>
      <trkpt lat="44.3445" lon="6.35248">
        <ele>1149.1999511719</ele>
        <time>2016-07-19T07:03:32.000Z</time>
      </trkpt>
      <trkpt lat="44.34448" lon="6.35259">
        <ele>1149.4000244141</ele>
        <time>2016-07-19T07:03:38.000Z</time>
      </trkpt>
      <trkpt lat="44.34445" lon="6.35272">
        <ele>1149.4000244141</ele>
        <time>2016-07-19T07:03:45.000Z</time>
      </trkpt>
      <trkpt lat="44.34443" lon="6.35283">
        <ele>1149.5999755859</ele>
        <time>2016-07-19T07:03:52.000Z</time>
      </trkpt>
      <trkpt lat="44.3444" lon="6.35292">
        <ele>1149.5999755859</ele>
        <time>2016-07-19T07:03:58.000Z</time>
      </trkpt>
      <trkpt lat="44.34437" lon="6.35314">
        <ele>1149.8000488281</ele>
        <time>2016-07-19T07:04:11.000Z</time>
      </trkpt>
      <trkpt lat="44.34439" lon="6.35326">
        <ele>1150.4000244141</ele>
        <time>2016-07-19T07:04:18.000Z</time>
      </trkpt>
      <trkpt lat="44.3444" lon="6.35333">
        <ele>1150.5999755859</ele>
        <time>2016-07-19T07:04:23.000Z</time>
      </trkpt>
      <trkpt lat="44.34444" lon="6.35336">
        <ele>1150.8000488281</ele>
        <time>2016-07-19T07:04:27.000Z</time>
      </trkpt>
      <trkpt lat="44.34448" lon="6.35346">
        <ele>1151.1999511719</ele>
        <time>2016-07-19T07:04:34.000Z</time>
      </trkpt>
      <trkpt lat="44.34449" lon="6.35346">
        <ele>1151.1999511719</ele>
        <time>2016-07-19T07:04:35.000Z</time>
      </trkpt>
      <trkpt lat="44.34447" lon="6.35349">
        <ele>1151.1999511719</ele>
        <time>2016-07-19T07:04:43.000Z</time>
      </trkpt>
      <trkpt lat="44.34446" lon="6.3535">
        <ele>1151.1999511719</ele>
        <time>2016-07-19T07:04:44.000Z</time>
      </trkpt>
      <trkpt lat="44.34444" lon="6.35355">
        <ele>1151.4000244141</ele>
        <time>2016-07-19T07:04:48.000Z</time>
      </trkpt>
      <trkpt lat="44.34443" lon="6.35364">
        <ele>1151.8000488281</ele>
        <time>2016-07-19T07:04:56.000Z</time>
      </trkpt>
      <trkpt lat="44.34443" lon="6.3537">
        <ele>1152</ele>
        <time>2016-07-19T07:04:59.000Z</time>
      </trkpt>
      <trkpt lat="44.34446" lon="6.35381">
        <ele>1152.4000244141</ele>
        <time>2016-07-19T07:05:06.000Z</time>
      </trkpt>
      <trkpt lat="44.34445" lon="6.35394">
        <ele>1152.8000488281</ele>
        <time>2016-07-19T07:05:13.000Z</time>
      </trkpt>
      <trkpt lat="44.34444" lon="6.35399">
        <ele>1152.8000488281</ele>
        <time>2016-07-19T07:05:16.000Z</time>
      </trkpt>
      <trkpt lat="44.34444" lon="6.35411">
        <ele>1152.8000488281</ele>
        <time>2016-07-19T07:05:22.000Z</time>
      </trkpt>
      <trkpt lat="44.34441" lon="6.35419">
        <ele>1152.5999755859</ele>
        <time>2016-07-19T07:05:27.000Z</time>
      </trkpt>
      <trkpt lat="44.34434" lon="6.35427">
        <ele>1152.1999511719</ele>
        <time>2016-07-19T07:05:33.000Z</time>
      </trkpt>
      <trkpt lat="44.34433" lon="6.35428">
        <ele>1152.1999511719</ele>
        <time>2016-07-19T07:05:34.000Z</time>
      </trkpt>
      <trkpt lat="44.34429" lon="6.35429">
        <ele>1152</ele>
        <time>2016-07-19T07:05:38.000Z</time>
      </trkpt>
      <trkpt lat="44.34423" lon="6.35438">
        <ele>1151.5999755859</ele>
        <time>2016-07-19T07:05:46.000Z</time>
      </trkpt>
      <trkpt lat="44.34419" lon="6.35453">
        <ele>1151.1999511719</ele>
        <time>2016-07-19T07:05:54.000Z</time>
      </trkpt>
      <trkpt lat="44.34419" lon="6.35464">
        <ele>1151.1999511719</ele>
        <time>2016-07-19T07:05:59.000Z</time>
      </trkpt>
      <trkpt lat="44.34419" lon="6.35477">
        <ele>1151</ele>
        <time>2016-07-19T07:06:06.000Z</time>
      </trkpt>
      <trkpt lat="44.34418" lon="6.35488">
        <ele>1150.8000488281</ele>
        <time>2016-07-19T07:06:13.000Z</time>
      </trkpt>
      <trkpt lat="44.34417" lon="6.35497">
        <ele>1150.8000488281</ele>
        <time>2016-07-19T07:06:19.000Z</time>
      </trkpt>
      <trkpt lat="44.34416" lon="6.35507">
        <ele>1150.8000488281</ele>
        <time>2016-07-19T07:06:24.000Z</time>
      </trkpt>
      <trkpt lat="44.34416" lon="6.35511">
        <ele>1150.8000488281</ele>
        <time>2016-07-19T07:06:26.000Z</time>
      </trkpt>
      <trkpt lat="44.34416" lon="6.35521">
        <ele>1150.8000488281</ele>
        <time>2016-07-19T07:06:31.000Z</time>
      </trkpt>
      <trkpt lat="44.34414" lon="6.35534">
        <ele>1150.8000488281</ele>
        <time>2016-07-19T07:06:38.000Z</time>
      </trkpt>
      <trkpt lat="44.34413" lon="6.35542">
        <ele>1151.1999511719</ele>
        <time>2016-07-19T07:06:42.000Z</time>
      </trkpt>
      <trkpt lat="44.34414" lon="6.35552">
        <ele>1151.5999755859</ele>
        <time>2016-07-19T07:06:48.000Z</time>
      </trkpt>
      <trkpt lat="44.34413" lon="6.35554">
        <ele>1151.5999755859</ele>
        <time>2016-07-19T07:06:49.000Z</time>
      </trkpt>
      <trkpt lat="44.34413" lon="6.35572">
        <ele>1152.1999511719</ele>
        <time>2016-07-19T07:06:58.000Z</time>
      </trkpt>
      <trkpt lat="44.34412" lon="6.35587">
        <ele>1152.1999511719</ele>
        <time>2016-07-19T07:07:06.000Z</time>
      </trkpt>
      <trkpt lat="44.34411" lon="6.35603">
        <ele>1152.1999511719</ele>
        <time>2016-07-19T07:07:14.000Z</time>
      </trkpt>
      <trkpt lat="44.34411" lon="6.35616">
        <ele>1152.1999511719</ele>
        <time>2016-07-19T07:07:21.000Z</time>
      </trkpt>
      <trkpt lat="44.34411" lon="6.35628">
        <ele>1152.1999511719</ele>
        <time>2016-07-19T07:07:27.000Z</time>
      </trkpt>
      <trkpt lat="44.34411" lon="6.35642">
        <ele>1152.1999511719</ele>
        <time>2016-07-19T07:07:34.000Z</time>
      </trkpt>
      <trkpt lat="44.34411" lon="6.35651">
        <ele>1152.1999511719</ele>
        <time>2016-07-19T07:07:40.000Z</time>
      </trkpt>
      <trkpt lat="44.34411" lon="6.35658">
        <ele>1152.4000244141</ele>
        <time>2016-07-19T07:07:43.000Z</time>
      </trkpt>
      <trkpt lat="44.34411" lon="6.35669">
        <ele>1152.5999755859</ele>
        <time>2016-07-19T07:07:49.000Z</time>
      </trkpt>
      <trkpt lat="44.34411" lon="6.35672">
        <ele>1152.5999755859</ele>
        <time>2016-07-19T07:07:50.000Z</time>
      </trkpt>
      <trkpt lat="44.3441" lon="6.35679">
        <ele>1152.8000488281</ele>
        <time>2016-07-19T07:07:55.000Z</time>
      </trkpt>
      <trkpt lat="44.3441" lon="6.35698">
        <ele>1153.4000244141</ele>
        <time>2016-07-19T07:08:05.000Z</time>
      </trkpt>
      <trkpt lat="44.3441" lon="6.35711">
        <ele>1153.5999755859</ele>
        <time>2016-07-19T07:08:12.000Z</time>
      </trkpt>
      <trkpt lat="44.34409" lon="6.35716">
        <ele>1153.8000488281</ele>
        <time>2016-07-19T07:08:15.000Z</time>
      </trkpt>
      <trkpt lat="44.34409" lon="6.35726">
        <ele>1154</ele>
        <time>2016-07-19T07:08:20.000Z</time>
      </trkpt>
      <trkpt lat="44.34409" lon="6.35728">
        <ele>1154</ele>
        <time>2016-07-19T07:08:21.000Z</time>
      </trkpt>
      <trkpt lat="44.34407" lon="6.35743">
        <ele>1154.1999511719</ele>
        <time>2016-07-19T07:08:29.000Z</time>
      </trkpt>
      <trkpt lat="44.34405" lon="6.35755">
        <ele>1154.1999511719</ele>
        <time>2016-07-19T07:08:35.000Z</time>
      </trkpt>
      <trkpt lat="44.34404" lon="6.35767">
        <ele>1154.4000244141</ele>
        <time>2016-07-19T07:08:41.000Z</time>
      </trkpt>
      <trkpt lat="44.34403" lon="6.35779">
        <ele>1154.8000488281</ele>
        <time>2016-07-19T07:08:48.000Z</time>
      </trkpt>
      <trkpt lat="44.34399" lon="6.35824">
        <ele>1156.4000244141</ele>
        <time>2016-07-19T07:09:12.000Z</time>
      </trkpt>
      <trkpt lat="44.34398" lon="6.35836">
        <ele>1156.8000488281</ele>
        <time>2016-07-19T07:09:18.000Z</time>
      </trkpt>
      <trkpt lat="44.34397" lon="6.35841">
        <ele>1157</ele>
        <time>2016-07-19T07:09:21.000Z</time>
      </trkpt>
      <trkpt lat="44.34398" lon="6.35855">
        <ele>1157.1999511719</ele>
        <time>2016-07-19T07:09:28.000Z</time>
      </trkpt>
      <trkpt lat="44.34397" lon="6.35857">
        <ele>1157.4000244141</ele>
        <time>2016-07-19T07:09:29.000Z</time>
      </trkpt>
      <trkpt lat="44.34396" lon="6.35877">
        <ele>1157.5999755859</ele>
        <time>2016-07-19T07:09:39.000Z</time>
      </trkpt>
      <trkpt lat="44.34393" lon="6.35891">
        <ele>1157.5999755859</ele>
        <time>2016-07-19T07:09:46.000Z</time>
      </trkpt>
      <trkpt lat="44.34389" lon="6.35911">
        <ele>1157.1999511719</ele>
        <time>2016-07-19T07:09:55.000Z</time>
      </trkpt>
      <trkpt lat="44.34387" lon="6.35925">
        <ele>1157</ele>
        <time>2016-07-19T07:10:02.000Z</time>
      </trkpt>
      <trkpt lat="44.34382" lon="6.35943">
        <ele>1157</ele>
        <time>2016-07-19T07:10:11.000Z</time>
      </trkpt>
      <trkpt lat="44.34377" lon="6.35957">
        <ele>1157</ele>
        <time>2016-07-19T07:10:18.000Z</time>
      </trkpt>
      <trkpt lat="44.3437" lon="6.35969">
        <ele>1157</ele>
        <time>2016-07-19T07:10:26.000Z</time>
      </trkpt>
      <trkpt lat="44.34361" lon="6.35973">
        <ele>1157</ele>
        <time>2016-07-19T07:10:33.000Z</time>
      </trkpt>
      <trkpt lat="44.34351" lon="6.35969">
        <ele>1157.4000244141</ele>
        <time>2016-07-19T07:10:41.000Z</time>
      </trkpt>
      <trkpt lat="44.34338" lon="6.35959">
        <ele>1157.8000488281</ele>
        <time>2016-07-19T07:10:52.000Z</time>
      </trkpt>
      <trkpt lat="44.34329" lon="6.35955">
        <ele>1158</ele>
        <time>2016-07-19T07:10:58.000Z</time>
      </trkpt>
      <trkpt lat="44.34302" lon="6.35954">
        <ele>1159.4000244141</ele>
        <time>2016-07-19T07:11:16.000Z</time>
      </trkpt>
      <trkpt lat="44.34288" lon="6.35954">
        <ele>1160</ele>
        <time>2016-07-19T07:11:26.000Z</time>
      </trkpt>
      <trkpt lat="44.34274" lon="6.35952">
        <ele>1160.8000488281</ele>
        <time>2016-07-19T07:11:35.000Z</time>
      </trkpt>
      <trkpt lat="44.34263" lon="6.35948">
        <ele>1161.4000244141</ele>
        <time>2016-07-19T07:11:42.000Z</time>
      </trkpt>
      <trkpt lat="44.34262" lon="6.35948">
        <ele>1161.5999755859</ele>
        <time>2016-07-19T07:11:43.000Z</time>
      </trkpt>
      <trkpt lat="44.34249" lon="6.35941">
        <ele>1162.4000244141</ele>
        <time>2016-07-19T07:11:52.000Z</time>
      </trkpt>
      <trkpt lat="44.34244" lon="6.35937">
        <ele>1162.5999755859</ele>
        <time>2016-07-19T07:11:56.000Z</time>
      </trkpt>
      <trkpt lat="44.34239" lon="6.35933">
        <ele>1162.8000488281</ele>
        <time>2016-07-19T07:12:01.000Z</time>
      </trkpt>
      <trkpt lat="44.34233" lon="6.35929">
        <ele>1163.1999511719</ele>
        <time>2016-07-19T07:12:07.000Z</time>
      </trkpt>
      <trkpt lat="44.34223" lon="6.35926">
        <ele>1164</ele>
        <time>2016-07-19T07:12:15.000Z</time>
      </trkpt>
      <trkpt lat="44.34209" lon="6.35922">
        <ele>1165.4000244141</ele>
        <time>2016-07-19T07:12:24.000Z</time>
      </trkpt>
      <trkpt lat="44.34198" lon="6.3592">
        <ele>1166.5999755859</ele>
        <time>2016-07-19T07:12:32.000Z</time>
      </trkpt>
      <trkpt lat="44.34189" lon="6.35916">
        <ele>1166</ele>
        <time>2016-07-19T07:12:38.000Z</time>
      </trkpt>
      <trkpt lat="44.34178" lon="6.35914">
        <ele>1165.4000244141</ele>
        <time>2016-07-19T07:12:46.000Z</time>
      </trkpt>
      <trkpt lat="44.3417" lon="6.35913">
        <ele>1165.1999511719</ele>
        <time>2016-07-19T07:12:52.000Z</time>
      </trkpt>
      <trkpt lat="44.34148" lon="6.35912">
        <ele>1164.1999511719</ele>
        <time>2016-07-19T07:13:09.000Z</time>
      </trkpt>
      <trkpt lat="44.34143" lon="6.35911">
        <ele>1164</ele>
        <time>2016-07-19T07:13:16.000Z</time>
      </trkpt>
      <trkpt lat="44.34142" lon="6.35912">
        <ele>1164</ele>
        <time>2016-07-19T07:13:23.000Z</time>
      </trkpt>
      <trkpt lat="44.34132" lon="6.35912">
        <ele>1163.5999755859</ele>
        <time>2016-07-19T07:13:31.000Z</time>
      </trkpt>
      <trkpt lat="44.34122" lon="6.35912">
        <ele>1164</ele>
        <time>2016-07-19T07:13:38.000Z</time>
      </trkpt>
      <trkpt lat="44.34109" lon="6.35916">
        <ele>1164.8000488281</ele>
        <time>2016-07-19T07:13:47.000Z</time>
      </trkpt>
      <trkpt lat="44.34098" lon="6.35919">
        <ele>1165</ele>
        <time>2016-07-19T07:13:55.000Z</time>
      </trkpt>
      <trkpt lat="44.34097" lon="6.35919">
        <ele>1165</ele>
        <time>2016-07-19T07:13:56.000Z</time>
      </trkpt>
      <trkpt lat="44.34088" lon="6.35921">
        <ele>1165</ele>
        <time>2016-07-19T07:14:02.000Z</time>
      </trkpt>
      <trkpt lat="44.34079" lon="6.35922">
        <ele>1164.8000488281</ele>
        <time>2016-07-19T07:14:08.000Z</time>
      </trkpt>
      <trkpt lat="44.34069" lon="6.35925">
        <ele>1165</ele>
        <time>2016-07-19T07:14:16.000Z</time>
      </trkpt>
      <trkpt lat="44.34061" lon="6.35925">
        <ele>1164.5999755859</ele>
        <time>2016-07-19T07:14:22.000Z</time>
      </trkpt>
      <trkpt lat="44.34058" lon="6.35925">
        <ele>1164.5999755859</ele>
        <time>2016-07-19T07:14:24.000Z</time>
      </trkpt>
      <trkpt lat="44.34051" lon="6.35925">
        <ele>1164</ele>
        <time>2016-07-19T07:14:30.000Z</time>
      </trkpt>
      <trkpt lat="44.34047" lon="6.35926">
        <ele>1163.5999755859</ele>
        <time>2016-07-19T07:14:34.000Z</time>
      </trkpt>
      <trkpt lat="44.34044" lon="6.35926">
        <ele>1163.4000244141</ele>
        <time>2016-07-19T07:14:37.000Z</time>
      </trkpt>
      <trkpt lat="44.34041" lon="6.35926">
        <ele>1163</ele>
        <time>2016-07-19T07:14:41.000Z</time>
      </trkpt>
      <trkpt lat="44.34029" lon="6.35924">
        <ele>1161.8000488281</ele>
        <time>2016-07-19T07:14:49.000Z</time>
      </trkpt>
      <trkpt lat="44.34021" lon="6.3592">
        <ele>1161.1999511719</ele>
        <time>2016-07-19T07:14:54.000Z</time>
      </trkpt>
      <trkpt lat="44.34011" lon="6.35913">
        <ele>1160.4000244141</ele>
        <time>2016-07-19T07:15:01.000Z</time>
      </trkpt>
      <trkpt lat="44.34002" lon="6.35902">
        <ele>1159</ele>
        <time>2016-07-19T07:15:09.000Z</time>
      </trkpt>
      <trkpt lat="44.33997" lon="6.35889">
        <ele>1158.1999511719</ele>
        <time>2016-07-19T07:15:16.000Z</time>
      </trkpt>
      <trkpt lat="44.33991" lon="6.35878">
        <ele>1157.8000488281</ele>
        <time>2016-07-19T07:15:22.000Z</time>
      </trkpt>
      <trkpt lat="44.33985" lon="6.35869">
        <ele>1157.4000244141</ele>
        <time>2016-07-19T07:15:28.000Z</time>
      </trkpt>
      <trkpt lat="44.33977" lon="6.35864">
        <ele>1157.1999511719</ele>
        <time>2016-07-19T07:15:34.000Z</time>
      </trkpt>
      <trkpt lat="44.33966" lon="6.35858">
        <ele>1156.8000488281</ele>
        <time>2016-07-19T07:15:43.000Z</time>
      </trkpt>
      <trkpt lat="44.33958" lon="6.35854">
        <ele>1156.5999755859</ele>
        <time>2016-07-19T07:15:49.000Z</time>
      </trkpt>
      <trkpt lat="44.33957" lon="6.35854">
        <ele>1156.5999755859</ele>
        <time>2016-07-19T07:15:50.000Z</time>
      </trkpt>
      <trkpt lat="44.33953" lon="6.35853">
        <ele>1156.4000244141</ele>
        <time>2016-07-19T07:15:53.000Z</time>
      </trkpt>
      <trkpt lat="44.33942" lon="6.35851">
        <ele>1156.5999755859</ele>
        <time>2016-07-19T07:16:00.000Z</time>
      </trkpt>
      <trkpt lat="44.33932" lon="6.35848">
        <ele>1157.4000244141</ele>
        <time>2016-07-19T07:16:07.000Z</time>
      </trkpt>
      <trkpt lat="44.33924" lon="6.35847">
        <ele>1157.8000488281</ele>
        <time>2016-07-19T07:16:13.000Z</time>
      </trkpt>
      <trkpt lat="44.33918" lon="6.35844">
        <ele>1158.1999511719</ele>
        <time>2016-07-19T07:16:18.000Z</time>
      </trkpt>
      <trkpt lat="44.33907" lon="6.3584">
        <ele>1158.8000488281</ele>
        <time>2016-07-19T07:16:26.000Z</time>
      </trkpt>
      <trkpt lat="44.33897" lon="6.3584">
        <ele>1159.5999755859</ele>
        <time>2016-07-19T07:16:33.000Z</time>
      </trkpt>
      <trkpt lat="44.33885" lon="6.35839">
        <ele>1160.4000244141</ele>
        <time>2016-07-19T07:16:42.000Z</time>
      </trkpt>
      <trkpt lat="44.33882" lon="6.35838">
        <ele>1160.5999755859</ele>
        <time>2016-07-19T07:16:45.000Z</time>
      </trkpt>
      <trkpt lat="44.33873" lon="6.35835">
        <ele>1161</ele>
        <time>2016-07-19T07:16:51.000Z</time>
      </trkpt>
      <trkpt lat="44.33864" lon="6.35834">
        <ele>1161.8000488281</ele>
        <time>2016-07-19T07:16:58.000Z</time>
      </trkpt>
      <trkpt lat="44.33859" lon="6.35832">
        <ele>1161.8000488281</ele>
        <time>2016-07-19T07:17:02.000Z</time>
      </trkpt>
      <trkpt lat="44.33847" lon="6.35828">
        <ele>1162</ele>
        <time>2016-07-19T07:17:10.000Z</time>
      </trkpt>
      <trkpt lat="44.3384" lon="6.35828">
        <ele>1162</ele>
        <time>2016-07-19T07:17:15.000Z</time>
      </trkpt>
      <trkpt lat="44.33836" lon="6.35828">
        <ele>1162.1999511719</ele>
        <time>2016-07-19T07:17:18.000Z</time>
      </trkpt>
      <trkpt lat="44.33826" lon="6.35827">
        <ele>1162.4000244141</ele>
        <time>2016-07-19T07:17:24.000Z</time>
      </trkpt>
      <trkpt lat="44.33819" lon="6.35825">
        <ele>1162.4000244141</ele>
        <time>2016-07-19T07:17:30.000Z</time>
      </trkpt>
      <trkpt lat="44.33809" lon="6.35824">
        <ele>1162.5999755859</ele>
        <time>2016-07-19T07:17:38.000Z</time>
      </trkpt>
      <trkpt lat="44.33803" lon="6.35823">
        <ele>1162.8000488281</ele>
        <time>2016-07-19T07:17:42.000Z</time>
      </trkpt>
      <trkpt lat="44.33795" lon="6.35822">
        <ele>1163</ele>
        <time>2016-07-19T07:17:48.000Z</time>
      </trkpt>
      <trkpt lat="44.33787" lon="6.35822">
        <ele>1163.1999511719</ele>
        <time>2016-07-19T07:17:53.000Z</time>
      </trkpt>
      <trkpt lat="44.33786" lon="6.35822">
        <ele>1163.4000244141</ele>
        <time>2016-07-19T07:17:54.000Z</time>
      </trkpt>
      <trkpt lat="44.33773" lon="6.35821">
        <ele>1164.1999511719</ele>
        <time>2016-07-19T07:18:03.000Z</time>
      </trkpt>
      <trkpt lat="44.33764" lon="6.3582">
        <ele>1164.1999511719</ele>
        <time>2016-07-19T07:18:10.000Z</time>
      </trkpt>
      <trkpt lat="44.33753" lon="6.35817">
        <ele>1164</ele>
        <time>2016-07-19T07:18:18.000Z</time>
      </trkpt>
      <trkpt lat="44.33745" lon="6.35816">
        <ele>1164.1999511719</ele>
        <time>2016-07-19T07:18:24.000Z</time>
      </trkpt>
      <trkpt lat="44.33738" lon="6.35814">
        <ele>1164</ele>
        <time>2016-07-19T07:18:30.000Z</time>
      </trkpt>
      <trkpt lat="44.3373" lon="6.35811">
        <ele>1164</ele>
        <time>2016-07-19T07:18:38.000Z</time>
      </trkpt>
      <trkpt lat="44.33729" lon="6.3581">
        <ele>1164</ele>
        <time>2016-07-19T07:18:39.000Z</time>
      </trkpt>
      <trkpt lat="44.33726" lon="6.35808">
        <ele>1164</ele>
        <time>2016-07-19T07:18:43.000Z</time>
      </trkpt>
      <trkpt lat="44.33719" lon="6.35806">
        <ele>1164</ele>
        <time>2016-07-19T07:18:48.000Z</time>
      </trkpt>
      <trkpt lat="44.33714" lon="6.35805">
        <ele>1164</ele>
        <time>2016-07-19T07:18:51.000Z</time>
      </trkpt>
      <trkpt lat="44.33707" lon="6.35803">
        <ele>1164.1999511719</ele>
        <time>2016-07-19T07:18:57.000Z</time>
      </trkpt>
      <trkpt lat="44.33703" lon="6.35803">
        <ele>1164.1999511719</ele>
        <time>2016-07-19T07:19:00.000Z</time>
      </trkpt>
      <trkpt lat="44.33687" lon="6.35801">
        <ele>1164.8000488281</ele>
        <time>2016-07-19T07:19:09.000Z</time>
      </trkpt>
      <trkpt lat="44.33678" lon="6.35798">
        <ele>1165.1999511719</ele>
        <time>2016-07-19T07:19:15.000Z</time>
      </trkpt>
      <trkpt lat="44.33672" lon="6.35798">
        <ele>1165.4000244141</ele>
        <time>2016-07-19T07:19:19.000Z</time>
      </trkpt>
      <trkpt lat="44.33659" lon="6.35795">
        <ele>1165.5999755859</ele>
        <time>2016-07-19T07:19:27.000Z</time>
      </trkpt>
      <trkpt lat="44.33647" lon="6.35795">
        <ele>1166.1999511719</ele>
        <time>2016-07-19T07:19:35.000Z</time>
      </trkpt>
      <trkpt lat="44.33638" lon="6.35795">
        <ele>1166.4000244141</ele>
        <time>2016-07-19T07:19:41.000Z</time>
      </trkpt>
      <trkpt lat="44.33634" lon="6.35795">
        <ele>1166.5999755859</ele>
        <time>2016-07-19T07:19:44.000Z</time>
      </trkpt>
      <trkpt lat="44.3362" lon="6.3579">
        <ele>1166.8000488281</ele>
        <time>2016-07-19T07:19:54.000Z</time>
      </trkpt>
      <trkpt lat="44.33609" lon="6.35786">
        <ele>1167.1999511719</ele>
        <time>2016-07-19T07:20:02.000Z</time>
      </trkpt>
      <trkpt lat="44.33597" lon="6.3578">
        <ele>1167.4000244141</ele>
        <time>2016-07-19T07:20:11.000Z</time>
      </trkpt>
      <trkpt lat="44.33592" lon="6.35779">
        <ele>1167.5999755859</ele>
        <time>2016-07-19T07:20:18.000Z</time>
      </trkpt>
      <trkpt lat="44.33584" lon="6.35777">
        <ele>1167.8000488281</ele>
        <time>2016-07-19T07:20:25.000Z</time>
      </trkpt>
      <trkpt lat="44.33579" lon="6.35776">
        <ele>1167.8000488281</ele>
        <time>2016-07-19T07:20:29.000Z</time>
      </trkpt>
      <trkpt lat="44.3357" lon="6.35774">
        <ele>1168.1999511719</ele>
        <time>2016-07-19T07:20:35.000Z</time>
      </trkpt>
      <trkpt lat="44.3356" lon="6.3577">
        <ele>1168.4000244141</ele>
        <time>2016-07-19T07:20:42.000Z</time>
      </trkpt>
      <trkpt lat="44.33551" lon="6.35766">
        <ele>1168.5999755859</ele>
        <time>2016-07-19T07:20:49.000Z</time>
      </trkpt>
      <trkpt lat="44.33538" lon="6.35762">
        <ele>1168.8000488281</ele>
        <time>2016-07-19T07:20:58.000Z</time>
      </trkpt>
      <trkpt lat="44.33526" lon="6.35762">
        <ele>1169.4000244141</ele>
        <time>2016-07-19T07:21:07.000Z</time>
      </trkpt>
      <trkpt lat="44.33514" lon="6.35761">
        <ele>1170.1999511719</ele>
        <time>2016-07-19T07:21:15.000Z</time>
      </trkpt>
      <trkpt lat="44.33506" lon="6.35761">
        <ele>1170.8000488281</ele>
        <time>2016-07-19T07:21:21.000Z</time>
      </trkpt>
      <trkpt lat="44.33494" lon="6.35758">
        <ele>1171.5999755859</ele>
        <time>2016-07-19T07:21:29.000Z</time>
      </trkpt>
      <trkpt lat="44.33485" lon="6.35757">
        <ele>1172.1999511719</ele>
        <time>2016-07-19T07:21:36.000Z</time>
      </trkpt>
      <trkpt lat="44.33473" lon="6.35755">
        <ele>1173</ele>
        <time>2016-07-19T07:21:45.000Z</time>
      </trkpt>
      <trkpt lat="44.33457" lon="6.35753">
        <ele>1173.8000488281</ele>
        <time>2016-07-19T07:21:56.000Z</time>
      </trkpt>
      <trkpt lat="44.33446" lon="6.3575">
        <ele>1174.1999511719</ele>
        <time>2016-07-19T07:22:04.000Z</time>
      </trkpt>
      <trkpt lat="44.3344" lon="6.35741">
        <ele>1174.4000244141</ele>
        <time>2016-07-19T07:22:11.000Z</time>
      </trkpt>
      <trkpt lat="44.33435" lon="6.35732">
        <ele>1174.5999755859</ele>
        <time>2016-07-19T07:22:18.000Z</time>
      </trkpt>
      <trkpt lat="44.33426" lon="6.35719">
        <ele>1175</ele>
        <time>2016-07-19T07:22:27.000Z</time>
      </trkpt>
      <trkpt lat="44.33418" lon="6.35707">
        <ele>1175.4000244141</ele>
        <time>2016-07-19T07:22:35.000Z</time>
      </trkpt>
      <trkpt lat="44.3341" lon="6.35693">
        <ele>1175.8000488281</ele>
        <time>2016-07-19T07:22:44.000Z</time>
      </trkpt>
      <trkpt lat="44.33406" lon="6.35683">
        <ele>1175.8000488281</ele>
        <time>2016-07-19T07:22:50.000Z</time>
      </trkpt>
      <trkpt lat="44.33393" lon="6.35668">
        <ele>1176.5999755859</ele>
        <time>2016-07-19T07:23:02.000Z</time>
      </trkpt>
      <trkpt lat="44.33383" lon="6.3566">
        <ele>1177</ele>
        <time>2016-07-19T07:23:10.000Z</time>
      </trkpt>
      <trkpt lat="44.3337" lon="6.35654">
        <ele>1177.8000488281</ele>
        <time>2016-07-19T07:23:20.000Z</time>
      </trkpt>
      <trkpt lat="44.33358" lon="6.35653">
        <ele>1178.5999755859</ele>
        <time>2016-07-19T07:23:29.000Z</time>
      </trkpt>
      <trkpt lat="44.33346" lon="6.3565">
        <ele>1179.8000488281</ele>
        <time>2016-07-19T07:23:38.000Z</time>
      </trkpt>
      <trkpt lat="44.33339" lon="6.3565">
        <ele>1180.8000488281</ele>
        <time>2016-07-19T07:23:45.000Z</time>
      </trkpt>
      <trkpt lat="44.33335" lon="6.3565">
        <ele>1181.1999511719</ele>
        <time>2016-07-19T07:23:49.000Z</time>
      </trkpt>
      <trkpt lat="44.3333" lon="6.3565">
        <ele>1181.5999755859</ele>
        <time>2016-07-19T07:23:53.000Z</time>
      </trkpt>
      <trkpt lat="44.3332" lon="6.3565">
        <ele>1182.8000488281</ele>
        <time>2016-07-19T07:24:03.000Z</time>
      </trkpt>
      <trkpt lat="44.33319" lon="6.3565">
        <ele>1182.8000488281</ele>
        <time>2016-07-19T07:24:04.000Z</time>
      </trkpt>
      <trkpt lat="44.33304" lon="6.35647">
        <ele>1184.4000244141</ele>
        <time>2016-07-19T07:24:14.000Z</time>
      </trkpt>
      <trkpt lat="44.33303" lon="6.35647">
        <ele>1184.5999755859</ele>
        <time>2016-07-19T07:24:15.000Z</time>
      </trkpt>
      <trkpt lat="44.33298" lon="6.35646">
        <ele>1185.1999511719</ele>
        <time>2016-07-19T07:24:19.000Z</time>
      </trkpt>
      <trkpt lat="44.33297" lon="6.35646">
        <ele>1185.1999511719</ele>
        <time>2016-07-19T07:24:20.000Z</time>
      </trkpt>
      <trkpt lat="44.33288" lon="6.35645">
        <ele>1186.1999511719</ele>
        <time>2016-07-19T07:24:26.000Z</time>
      </trkpt>
      <trkpt lat="44.33281" lon="6.35643">
        <ele>1187.1999511719</ele>
        <time>2016-07-19T07:24:32.000Z</time>
      </trkpt>
      <trkpt lat="44.33271" lon="6.35641">
        <ele>1188.5999755859</ele>
        <time>2016-07-19T07:24:40.000Z</time>
      </trkpt>
      <trkpt lat="44.33264" lon="6.35638">
        <ele>1190</ele>
        <time>2016-07-19T07:24:46.000Z</time>
      </trkpt>
      <trkpt lat="44.33256" lon="6.35633">
        <ele>1191.4000244141</ele>
        <time>2016-07-19T07:24:53.000Z</time>
      </trkpt>
      <trkpt lat="44.33241" lon="6.35629">
        <ele>1193.4000244141</ele>
        <time>2016-07-19T07:25:03.000Z</time>
      </trkpt>
      <trkpt lat="44.33238" lon="6.35631">
        <ele>1193.8000488281</ele>
        <time>2016-07-19T07:25:06.000Z</time>
      </trkpt>
      <trkpt lat="44.33231" lon="6.35632">
        <ele>1194.5999755859</ele>
        <time>2016-07-19T07:25:12.000Z</time>
      </trkpt>
      <trkpt lat="44.33227" lon="6.35634">
        <ele>1195</ele>
        <time>2016-07-19T07:25:15.000Z</time>
      </trkpt>
      <trkpt lat="44.33219" lon="6.3564">
        <ele>1195.5999755859</ele>
        <time>2016-07-19T07:25:22.000Z</time>
      </trkpt>
      <trkpt lat="44.33211" lon="6.35647">
        <ele>1196.1999511719</ele>
        <time>2016-07-19T07:25:29.000Z</time>
      </trkpt>
      <trkpt lat="44.332" lon="6.35653">
        <ele>1197.5999755859</ele>
        <time>2016-07-19T07:25:37.000Z</time>
      </trkpt>
      <trkpt lat="44.33193" lon="6.35656">
        <ele>1198.5999755859</ele>
        <time>2016-07-19T07:25:43.000Z</time>
      </trkpt>
      <trkpt lat="44.33181" lon="6.3566">
        <ele>1200.5999755859</ele>
        <time>2016-07-19T07:25:52.000Z</time>
      </trkpt>
      <trkpt lat="44.33169" lon="6.35663">
        <ele>1202.4000244141</ele>
        <time>2016-07-19T07:26:01.000Z</time>
      </trkpt>
      <trkpt lat="44.33159" lon="6.35666">
        <ele>1204</ele>
        <time>2016-07-19T07:26:08.000Z</time>
      </trkpt>
      <trkpt lat="44.33148" lon="6.35668">
        <ele>1205.8000488281</ele>
        <time>2016-07-19T07:26:17.000Z</time>
      </trkpt>
      <trkpt lat="44.33139" lon="6.35665">
        <ele>1207.4000244141</ele>
        <time>2016-07-19T07:26:23.000Z</time>
      </trkpt>
      <trkpt lat="44.33128" lon="6.3566">
        <ele>1209.4000244141</ele>
        <time>2016-07-19T07:26:32.000Z</time>
      </trkpt>
      <trkpt lat="44.3312" lon="6.35658">
        <ele>1210.4000244141</ele>
        <time>2016-07-19T07:26:38.000Z</time>
      </trkpt>
      <trkpt lat="44.3311" lon="6.35656">
        <ele>1212</ele>
        <time>2016-07-19T07:26:47.000Z</time>
      </trkpt>
      <trkpt lat="44.3309" lon="6.35654">
        <ele>1215.8000488281</ele>
        <time>2016-07-19T07:27:05.000Z</time>
      </trkpt>
      <trkpt lat="44.33081" lon="6.35659">
        <ele>1217.1999511719</ele>
        <time>2016-07-19T07:27:13.000Z</time>
      </trkpt>
      <trkpt lat="44.33078" lon="6.3566">
        <ele>1217.5999755859</ele>
        <time>2016-07-19T07:27:16.000Z</time>
      </trkpt>
      <trkpt lat="44.33069" lon="6.35665">
        <ele>1218.8000488281</ele>
        <time>2016-07-19T07:27:24.000Z</time>
      </trkpt>
      <trkpt lat="44.33064" lon="6.35669">
        <ele>1219.4000244141</ele>
        <time>2016-07-19T07:27:28.000Z</time>
      </trkpt>
      <trkpt lat="44.33056" lon="6.35672">
        <ele>1220.8000488281</ele>
        <time>2016-07-19T07:27:34.000Z</time>
      </trkpt>
      <trkpt lat="44.33047" lon="6.35675">
        <ele>1222.5999755859</ele>
        <time>2016-07-19T07:27:40.000Z</time>
      </trkpt>
      <trkpt lat="44.3304" lon="6.35676">
        <ele>1224.1999511719</ele>
        <time>2016-07-19T07:27:45.000Z</time>
      </trkpt>
      <trkpt lat="44.3303" lon="6.35677">
        <ele>1226.4000244141</ele>
        <time>2016-07-19T07:27:53.000Z</time>
      </trkpt>
      <trkpt lat="44.33022" lon="6.3568">
        <ele>1226.5999755859</ele>
        <time>2016-07-19T07:27:59.000Z</time>
      </trkpt>
      <trkpt lat="44.33014" lon="6.35682">
        <ele>1226.8000488281</ele>
        <time>2016-07-19T07:28:06.000Z</time>
      </trkpt>
      <trkpt lat="44.33012" lon="6.35682">
        <ele>1226.8000488281</ele>
        <time>2016-07-19T07:28:08.000Z</time>
      </trkpt>
      <trkpt lat="44.33001" lon="6.35687">
        <ele>1227.1999511719</ele>
        <time>2016-07-19T07:28:16.000Z</time>
      </trkpt>
      <trkpt lat="44.32994" lon="6.35688">
        <ele>1227.4000244141</ele>
        <time>2016-07-19T07:28:21.000Z</time>
      </trkpt>
      <trkpt lat="44.32987" lon="6.35688">
        <ele>1227.5999755859</ele>
        <time>2016-07-19T07:28:26.000Z</time>
      </trkpt>
      <trkpt lat="44.32985" lon="6.35687">
        <ele>1228.1999511719</ele>
        <time>2016-07-19T07:28:28.000Z</time>
      </trkpt>
      <trkpt lat="44.32977" lon="6.35687">
        <ele>1230.4000244141</ele>
        <time>2016-07-19T07:28:34.000Z</time>
      </trkpt>
      <trkpt lat="44.32967" lon="6.35688">
        <ele>1233.5999755859</ele>
        <time>2016-07-19T07:28:42.000Z</time>
      </trkpt>
      <trkpt lat="44.32957" lon="6.3569">
        <ele>1237</ele>
        <time>2016-07-19T07:28:49.000Z</time>
      </trkpt>
      <trkpt lat="44.32944" lon="6.3569">
        <ele>1239.5999755859</ele>
        <time>2016-07-19T07:28:57.000Z</time>
      </trkpt>
      <trkpt lat="44.32918" lon="6.35689">
        <ele>1240.1999511719</ele>
        <time>2016-07-19T07:29:07.000Z</time>
      </trkpt>
      <trkpt lat="44.32905" lon="6.35691">
        <ele>1241</ele>
        <time>2016-07-19T07:29:14.000Z</time>
      </trkpt>
      <trkpt lat="44.32898" lon="6.35694">
        <ele>1242.5999755859</ele>
        <time>2016-07-19T07:29:19.000Z</time>
      </trkpt>
      <trkpt lat="44.32888" lon="6.35702">
        <ele>1245.5999755859</ele>
        <time>2016-07-19T07:29:27.000Z</time>
      </trkpt>
      <trkpt lat="44.32875" lon="6.35709">
        <ele>1248.8000488281</ele>
        <time>2016-07-19T07:29:36.000Z</time>
      </trkpt>
      <trkpt lat="44.32866" lon="6.35712">
        <ele>1250.4000244141</ele>
        <time>2016-07-19T07:29:43.000Z</time>
      </trkpt>
      <trkpt lat="44.32852" lon="6.35714">
        <ele>1251.8000488281</ele>
        <time>2016-07-19T07:29:53.000Z</time>
      </trkpt>
      <trkpt lat="44.3285" lon="6.35714">
        <ele>1251.8000488281</ele>
        <time>2016-07-19T07:29:54.000Z</time>
      </trkpt>
      <trkpt lat="44.32841" lon="6.35717">
        <ele>1252.5999755859</ele>
        <time>2016-07-19T07:30:01.000Z</time>
      </trkpt>
      <trkpt lat="44.32831" lon="6.35721">
        <ele>1253.4000244141</ele>
        <time>2016-07-19T07:30:08.000Z</time>
      </trkpt>
      <trkpt lat="44.32822" lon="6.35723">
        <ele>1253.8000488281</ele>
        <time>2016-07-19T07:30:15.000Z</time>
      </trkpt>
      <trkpt lat="44.32809" lon="6.3573">
        <ele>1255</ele>
        <time>2016-07-19T07:30:26.000Z</time>
      </trkpt>
      <trkpt lat="44.32803" lon="6.35732">
        <ele>1255.5999755859</ele>
        <time>2016-07-19T07:30:30.000Z</time>
      </trkpt>
      <trkpt lat="44.32791" lon="6.35739">
        <ele>1257.8000488281</ele>
        <time>2016-07-19T07:30:39.000Z</time>
      </trkpt>
      <trkpt lat="44.32781" lon="6.3574">
        <ele>1258</ele>
        <time>2016-07-19T07:30:46.000Z</time>
      </trkpt>
      <trkpt lat="44.32774" lon="6.35734">
        <ele>1255.5999755859</ele>
        <time>2016-07-19T07:30:52.000Z</time>
      </trkpt>
      <trkpt lat="44.32762" lon="6.35725">
        <ele>1252.4000244141</ele>
        <time>2016-07-19T07:31:01.000Z</time>
      </trkpt>
      <trkpt lat="44.32753" lon="6.35717">
        <ele>1250.1999511719</ele>
        <time>2016-07-19T07:31:09.000Z</time>
      </trkpt>
      <trkpt lat="44.32743" lon="6.35708">
        <ele>1247.5999755859</ele>
        <time>2016-07-19T07:31:17.000Z</time>
      </trkpt>
      <trkpt lat="44.32734" lon="6.35703">
        <ele>1246.1999511719</ele>
        <time>2016-07-19T07:31:23.000Z</time>
      </trkpt>
      <trkpt lat="44.32726" lon="6.35699">
        <ele>1244.8000488281</ele>
        <time>2016-07-19T07:31:29.000Z</time>
      </trkpt>
      <trkpt lat="44.32714" lon="6.357">
        <ele>1243.8000488281</ele>
        <time>2016-07-19T07:31:38.000Z</time>
      </trkpt>
      <trkpt lat="44.32713" lon="6.35699">
        <ele>1243.5999755859</ele>
        <time>2016-07-19T07:31:39.000Z</time>
      </trkpt>
      <trkpt lat="44.32707" lon="6.35706">
        <ele>1244.4000244141</ele>
        <time>2016-07-19T07:31:45.000Z</time>
      </trkpt>
      <trkpt lat="44.32701" lon="6.35712">
        <ele>1245</ele>
        <time>2016-07-19T07:31:50.000Z</time>
      </trkpt>
      <trkpt lat="44.32695" lon="6.35716">
        <ele>1245.5999755859</ele>
        <time>2016-07-19T07:31:55.000Z</time>
      </trkpt>
      <trkpt lat="44.3269" lon="6.35725">
        <ele>1247.4000244141</ele>
        <time>2016-07-19T07:32:09.000Z</time>
      </trkpt>
      <trkpt lat="44.32687" lon="6.35729">
        <ele>1247.1999511719</ele>
        <time>2016-07-19T07:32:12.000Z</time>
      </trkpt>
      <trkpt lat="44.32681" lon="6.35738">
        <ele>1248.4000244141</ele>
        <time>2016-07-19T07:32:19.000Z</time>
      </trkpt>
      <trkpt lat="44.32675" lon="6.35745">
        <ele>1250</ele>
        <time>2016-07-19T07:32:26.000Z</time>
      </trkpt>
      <trkpt lat="44.32671" lon="6.3575">
        <ele>1251.1999511719</ele>
        <time>2016-07-19T07:32:30.000Z</time>
      </trkpt>
      <trkpt lat="44.32665" lon="6.35761">
        <ele>1254</ele>
        <time>2016-07-19T07:32:37.000Z</time>
      </trkpt>
      <trkpt lat="44.32657" lon="6.35768">
        <ele>1255.1999511719</ele>
        <time>2016-07-19T07:32:44.000Z</time>
      </trkpt>
      <trkpt lat="44.32645" lon="6.35768">
        <ele>1253.8000488281</ele>
        <time>2016-07-19T07:32:52.000Z</time>
      </trkpt>
      <trkpt lat="44.32631" lon="6.35771">
        <ele>1251.8000488281</ele>
        <time>2016-07-19T07:33:02.000Z</time>
      </trkpt>
      <trkpt lat="44.32626" lon="6.35772">
        <ele>1251.5999755859</ele>
        <time>2016-07-19T07:33:05.000Z</time>
      </trkpt>
      <trkpt lat="44.32619" lon="6.35774">
        <ele>1250.5999755859</ele>
        <time>2016-07-19T07:33:10.000Z</time>
      </trkpt>
      <trkpt lat="44.32605" lon="6.3578">
        <ele>1253.1999511719</ele>
        <time>2016-07-19T07:33:20.000Z</time>
      </trkpt>
      <trkpt lat="44.32591" lon="6.35788">
        <ele>1258.1999511719</ele>
        <time>2016-07-19T07:33:30.000Z</time>
      </trkpt>
      <trkpt lat="44.32577" lon="6.35796">
        <ele>1257</ele>
        <time>2016-07-19T07:33:40.000Z</time>
      </trkpt>
      <trkpt lat="44.32568" lon="6.35802">
        <ele>1255.4000244141</ele>
        <time>2016-07-19T07:33:47.000Z</time>
      </trkpt>
      <trkpt lat="44.32556" lon="6.35814">
        <ele>1252.8000488281</ele>
        <time>2016-07-19T07:33:57.000Z</time>
      </trkpt>
      <trkpt lat="44.32551" lon="6.35824">
        <ele>1256</ele>
        <time>2016-07-19T07:34:04.000Z</time>
      </trkpt>
      <trkpt lat="44.32544" lon="6.35834">
        <ele>1258</ele>
        <time>2016-07-19T07:34:12.000Z</time>
      </trkpt>
      <trkpt lat="44.32535" lon="6.35842">
        <ele>1257.4000244141</ele>
        <time>2016-07-19T07:34:20.000Z</time>
      </trkpt>
      <trkpt lat="44.32525" lon="6.35852">
        <ele>1259</ele>
        <time>2016-07-19T07:34:29.000Z</time>
      </trkpt>
      <trkpt lat="44.32513" lon="6.35863">
        <ele>1262.4000244141</ele>
        <time>2016-07-19T07:34:39.000Z</time>
      </trkpt>
      <trkpt lat="44.32502" lon="6.35869">
        <ele>1264.5999755859</ele>
        <time>2016-07-19T07:34:47.000Z</time>
      </trkpt>
      <trkpt lat="44.32491" lon="6.35872">
        <ele>1263.5999755859</ele>
        <time>2016-07-19T07:34:55.000Z</time>
      </trkpt>
      <trkpt lat="44.32478" lon="6.35873">
        <ele>1262.1999511719</ele>
        <time>2016-07-19T07:35:04.000Z</time>
      </trkpt>
      <trkpt lat="44.32473" lon="6.35873">
        <ele>1261.5999755859</ele>
        <time>2016-07-19T07:35:08.000Z</time>
      </trkpt>
      <trkpt lat="44.3246" lon="6.35871">
        <ele>1260</ele>
        <time>2016-07-19T07:35:17.000Z</time>
      </trkpt>
      <trkpt lat="44.3245" lon="6.35871">
        <ele>1259</ele>
        <time>2016-07-19T07:35:25.000Z</time>
      </trkpt>
      <trkpt lat="44.32438" lon="6.35872">
        <ele>1261.5999755859</ele>
        <time>2016-07-19T07:35:32.000Z</time>
      </trkpt>
      <trkpt lat="44.32427" lon="6.35868">
        <ele>1265</ele>
        <time>2016-07-19T07:35:40.000Z</time>
      </trkpt>
      <trkpt lat="44.32419" lon="6.35872">
        <ele>1267</ele>
        <time>2016-07-19T07:35:48.000Z</time>
      </trkpt>
      <trkpt lat="44.32413" lon="6.35879">
        <ele>1266.5999755859</ele>
        <time>2016-07-19T07:35:55.000Z</time>
      </trkpt>
      <trkpt lat="44.32411" lon="6.35882">
        <ele>1266.1999511719</ele>
        <time>2016-07-19T07:35:58.000Z</time>
      </trkpt>
      <trkpt lat="44.32404" lon="6.35899">
        <ele>1265.1999511719</ele>
        <time>2016-07-19T07:36:10.000Z</time>
      </trkpt>
      <trkpt lat="44.32398" lon="6.35906">
        <ele>1267.8000488281</ele>
        <time>2016-07-19T07:36:17.000Z</time>
      </trkpt>
      <trkpt lat="44.32393" lon="6.35912">
        <ele>1270</ele>
        <time>2016-07-19T07:36:23.000Z</time>
      </trkpt>
      <trkpt lat="44.32382" lon="6.3592">
        <ele>1272.5999755859</ele>
        <time>2016-07-19T07:36:32.000Z</time>
      </trkpt>
      <trkpt lat="44.3237" lon="6.35926">
        <ele>1272.1999511719</ele>
        <time>2016-07-19T07:36:40.000Z</time>
      </trkpt>
      <trkpt lat="44.32369" lon="6.35926">
        <ele>1272.1999511719</ele>
        <time>2016-07-19T07:36:42.000Z</time>
      </trkpt>
      <trkpt lat="44.32362" lon="6.35929">
        <ele>1272.4000244141</ele>
        <time>2016-07-19T07:36:48.000Z</time>
      </trkpt>
      <trkpt lat="44.32353" lon="6.3593">
        <ele>1275.5999755859</ele>
        <time>2016-07-19T07:36:55.000Z</time>
      </trkpt>
      <trkpt lat="44.32331" lon="6.3594">
        <ele>1283.4000244141</ele>
        <time>2016-07-19T07:37:13.000Z</time>
      </trkpt>
      <trkpt lat="44.3233" lon="6.35941">
        <ele>1284</ele>
        <time>2016-07-19T07:37:14.000Z</time>
      </trkpt>
      <trkpt lat="44.32321" lon="6.35942">
        <ele>1286.4000244141</ele>
        <time>2016-07-19T07:37:20.000Z</time>
      </trkpt>
      <trkpt lat="44.32319" lon="6.35941">
        <ele>1286.5999755859</ele>
        <time>2016-07-19T07:37:22.000Z</time>
      </trkpt>
      <trkpt lat="44.32316" lon="6.35929">
        <ele>1287.5999755859</ele>
        <time>2016-07-19T07:37:29.000Z</time>
      </trkpt>
      <trkpt lat="44.3232" lon="6.35917">
        <ele>1285</ele>
        <time>2016-07-19T07:37:37.000Z</time>
      </trkpt>
      <trkpt lat="44.3233" lon="6.35906">
        <ele>1280.5999755859</ele>
        <time>2016-07-19T07:37:47.000Z</time>
      </trkpt>
      <trkpt lat="44.32333" lon="6.35904">
        <ele>1279.5999755859</ele>
        <time>2016-07-19T07:37:52.000Z</time>
      </trkpt>
      <trkpt lat="44.32341" lon="6.35902">
        <ele>1277</ele>
        <time>2016-07-19T07:37:58.000Z</time>
      </trkpt>
      <trkpt lat="44.32345" lon="6.35901">
        <ele>1275.4000244141</ele>
        <time>2016-07-19T07:38:02.000Z</time>
      </trkpt>
      <trkpt lat="44.32353" lon="6.35895">
        <ele>1273</ele>
        <time>2016-07-19T07:38:09.000Z</time>
      </trkpt>
      <trkpt lat="44.32356" lon="6.35892">
        <ele>1272.8000488281</ele>
        <time>2016-07-19T07:38:12.000Z</time>
      </trkpt>
      <trkpt lat="44.32358" lon="6.35887">
        <ele>1272.5999755859</ele>
        <time>2016-07-19T07:38:15.000Z</time>
      </trkpt>
      <trkpt lat="44.32361" lon="6.35878">
        <ele>1273</ele>
        <time>2016-07-19T07:38:23.000Z</time>
      </trkpt>
      <trkpt lat="44.32364" lon="6.35865">
        <ele>1274</ele>
        <time>2016-07-19T07:38:30.000Z</time>
      </trkpt>
      <trkpt lat="44.32367" lon="6.35849">
        <ele>1276.1999511719</ele>
        <time>2016-07-19T07:38:38.000Z</time>
      </trkpt>
      <trkpt lat="44.32372" lon="6.35831">
        <ele>1278.5999755859</ele>
        <time>2016-07-19T07:38:48.000Z</time>
      </trkpt>
      <trkpt lat="44.32372" lon="6.35829">
        <ele>1278.8000488281</ele>
        <time>2016-07-19T07:38:49.000Z</time>
      </trkpt>
      <trkpt lat="44.3237" lon="6.35804">
        <ele>1279.5999755859</ele>
        <time>2016-07-19T07:39:02.000Z</time>
      </trkpt>
      <trkpt lat="44.32366" lon="6.35792">
        <ele>1280.8000488281</ele>
        <time>2016-07-19T07:39:10.000Z</time>
      </trkpt>
      <trkpt lat="44.32365" lon="6.35791">
        <ele>1281.1999511719</ele>
        <time>2016-07-19T07:39:12.000Z</time>
      </trkpt>
      <trkpt lat="44.32358" lon="6.35785">
        <ele>1283</ele>
        <time>2016-07-19T07:39:18.000Z</time>
      </trkpt>
      <trkpt lat="44.32352" lon="6.35777">
        <ele>1284.5999755859</ele>
        <time>2016-07-19T07:39:24.000Z</time>
      </trkpt>
      <trkpt lat="44.32351" lon="6.35775">
        <ele>1284.8000488281</ele>
        <time>2016-07-19T07:39:25.000Z</time>
      </trkpt>
      <trkpt lat="44.32345" lon="6.35767">
        <ele>1286.5999755859</ele>
        <time>2016-07-19T07:39:31.000Z</time>
      </trkpt>
      <trkpt lat="44.32335" lon="6.35761">
        <ele>1289.8000488281</ele>
        <time>2016-07-19T07:39:39.000Z</time>
      </trkpt>
      <trkpt lat="44.32326" lon="6.35756">
        <ele>1292.4000244141</ele>
        <time>2016-07-19T07:39:48.000Z</time>
      </trkpt>
      <trkpt lat="44.32317" lon="6.35752">
        <ele>1295</ele>
        <time>2016-07-19T07:39:54.000Z</time>
      </trkpt>
      <trkpt lat="44.32309" lon="6.35749">
        <ele>1297.5999755859</ele>
        <time>2016-07-19T07:40:00.000Z</time>
      </trkpt>
      <trkpt lat="44.323" lon="6.35746">
        <ele>1300.4000244141</ele>
        <time>2016-07-19T07:40:07.000Z</time>
      </trkpt>
      <trkpt lat="44.32291" lon="6.35739">
        <ele>1303</ele>
        <time>2016-07-19T07:40:14.000Z</time>
      </trkpt>
      <trkpt lat="44.32284" lon="6.3573">
        <ele>1304.8000488281</ele>
        <time>2016-07-19T07:40:21.000Z</time>
      </trkpt>
      <trkpt lat="44.32279" lon="6.35724">
        <ele>1305.5999755859</ele>
        <time>2016-07-19T07:40:27.000Z</time>
      </trkpt>
      <trkpt lat="44.32274" lon="6.35715">
        <ele>1305.8000488281</ele>
        <time>2016-07-19T07:40:35.000Z</time>
      </trkpt>
      <trkpt lat="44.32267" lon="6.35703">
        <ele>1306.4000244141</ele>
        <time>2016-07-19T07:40:44.000Z</time>
      </trkpt>
      <trkpt lat="44.32258" lon="6.3569">
        <ele>1306.8000488281</ele>
        <time>2016-07-19T07:40:55.000Z</time>
      </trkpt>
      <trkpt lat="44.32249" lon="6.35681">
        <ele>1308</ele>
        <time>2016-07-19T07:41:03.000Z</time>
      </trkpt>
      <trkpt lat="44.32239" lon="6.35674">
        <ele>1309.5999755859</ele>
        <time>2016-07-19T07:41:11.000Z</time>
      </trkpt>
      <trkpt lat="44.32228" lon="6.35667">
        <ele>1311.5999755859</ele>
        <time>2016-07-19T07:41:20.000Z</time>
      </trkpt>
      <trkpt lat="44.32217" lon="6.35655">
        <ele>1313</ele>
        <time>2016-07-19T07:41:30.000Z</time>
      </trkpt>
      <trkpt lat="44.32212" lon="6.35644">
        <ele>1313.5999755859</ele>
        <time>2016-07-19T07:41:38.000Z</time>
      </trkpt>
      <trkpt lat="44.32211" lon="6.35642">
        <ele>1313.5999755859</ele>
        <time>2016-07-19T07:41:39.000Z</time>
      </trkpt>
      <trkpt lat="44.32201" lon="6.35633">
        <ele>1316.1999511719</ele>
        <time>2016-07-19T07:41:49.000Z</time>
      </trkpt>
      <trkpt lat="44.32197" lon="6.35636">
        <ele>1317.1999511719</ele>
        <time>2016-07-19T07:41:53.000Z</time>
      </trkpt>
      <trkpt lat="44.32198" lon="6.35648">
        <ele>1316.8000488281</ele>
        <time>2016-07-19T07:42:00.000Z</time>
      </trkpt>
      <trkpt lat="44.32205" lon="6.35661">
        <ele>1317</ele>
        <time>2016-07-19T07:42:10.000Z</time>
      </trkpt>
      <trkpt lat="44.32207" lon="6.35664">
        <ele>1316.8000488281</ele>
        <time>2016-07-19T07:42:14.000Z</time>
      </trkpt>
      <trkpt lat="44.3221" lon="6.35669">
        <ele>1316.8000488281</ele>
        <time>2016-07-19T07:42:18.000Z</time>
      </trkpt>
      <trkpt lat="44.32215" lon="6.35677">
        <ele>1316.5999755859</ele>
        <time>2016-07-19T07:42:23.000Z</time>
      </trkpt>
      <trkpt lat="44.32226" lon="6.35688">
        <ele>1315.1999511719</ele>
        <time>2016-07-19T07:42:33.000Z</time>
      </trkpt>
      <trkpt lat="44.32235" lon="6.35698">
        <ele>1314.1999511719</ele>
        <time>2016-07-19T07:42:41.000Z</time>
      </trkpt>
      <trkpt lat="44.3224" lon="6.35705">
        <ele>1313.8000488281</ele>
        <time>2016-07-19T07:42:47.000Z</time>
      </trkpt>
      <trkpt lat="44.32248" lon="6.35728">
        <ele>1315.5999755859</ele>
        <time>2016-07-19T07:43:01.000Z</time>
      </trkpt>
      <trkpt lat="44.32254" lon="6.35741">
        <ele>1315</ele>
        <time>2016-07-19T07:43:10.000Z</time>
      </trkpt>
      <trkpt lat="44.32256" lon="6.35748">
        <ele>1314.8000488281</ele>
        <time>2016-07-19T07:43:14.000Z</time>
      </trkpt>
      <trkpt lat="44.32259" lon="6.35753">
        <ele>1314.1999511719</ele>
        <time>2016-07-19T07:43:18.000Z</time>
      </trkpt>
      <trkpt lat="44.32263" lon="6.35761">
        <ele>1313.4000244141</ele>
        <time>2016-07-19T07:43:24.000Z</time>
      </trkpt>
      <trkpt lat="44.32269" lon="6.35769">
        <ele>1312.1999511719</ele>
        <time>2016-07-19T07:43:30.000Z</time>
      </trkpt>
      <trkpt lat="44.32274" lon="6.35773">
        <ele>1311</ele>
        <time>2016-07-19T07:43:35.000Z</time>
      </trkpt>
      <trkpt lat="44.32278" lon="6.35777">
        <ele>1310.1999511719</ele>
        <time>2016-07-19T07:43:40.000Z</time>
      </trkpt>
      <trkpt lat="44.32281" lon="6.35781">
        <ele>1309.4000244141</ele>
        <time>2016-07-19T07:43:44.000Z</time>
      </trkpt>
      <trkpt lat="44.32286" lon="6.35786">
        <ele>1308</ele>
        <time>2016-07-19T07:43:50.000Z</time>
      </trkpt>
      <trkpt lat="44.32294" lon="6.35791">
        <ele>1305.5999755859</ele>
        <time>2016-07-19T07:43:57.000Z</time>
      </trkpt>
      <trkpt lat="44.32298" lon="6.35799">
        <ele>1304.4000244141</ele>
        <time>2016-07-19T07:44:03.000Z</time>
      </trkpt>
      <trkpt lat="44.32292" lon="6.35816">
        <ele>1307.4000244141</ele>
        <time>2016-07-19T07:44:14.000Z</time>
      </trkpt>
      <trkpt lat="44.32282" lon="6.35822">
        <ele>1310</ele>
        <time>2016-07-19T07:44:21.000Z</time>
      </trkpt>
      <trkpt lat="44.32272" lon="6.35825">
        <ele>1312.5999755859</ele>
        <time>2016-07-19T07:44:29.000Z</time>
      </trkpt>
      <trkpt lat="44.32261" lon="6.35829">
        <ele>1315.8000488281</ele>
        <time>2016-07-19T07:44:38.000Z</time>
      </trkpt>
      <trkpt lat="44.3225" lon="6.35838">
        <ele>1318.1999511719</ele>
        <time>2016-07-19T07:44:48.000Z</time>
      </trkpt>
      <trkpt lat="44.3224" lon="6.35844">
        <ele>1320.1999511719</ele>
        <time>2016-07-19T07:44:55.000Z</time>
      </trkpt>
      <trkpt lat="44.32233" lon="6.35846">
        <ele>1322.5999755859</ele>
        <time>2016-07-19T07:45:02.000Z</time>
      </trkpt>
      <trkpt lat="44.32226" lon="6.35848">
        <ele>1324.5999755859</ele>
        <time>2016-07-19T07:45:08.000Z</time>
      </trkpt>
      <trkpt lat="44.32225" lon="6.35848">
        <ele>1325</ele>
        <time>2016-07-19T07:45:10.000Z</time>
      </trkpt>
      <trkpt lat="44.32218" lon="6.3585">
        <ele>1328</ele>
        <time>2016-07-19T07:45:15.000Z</time>
      </trkpt>
      <trkpt lat="44.32213" lon="6.35853">
        <ele>1329.4000244141</ele>
        <time>2016-07-19T07:45:20.000Z</time>
      </trkpt>
      <trkpt lat="44.32206" lon="6.35861">
        <ele>1331.8000488281</ele>
        <time>2016-07-19T07:45:26.000Z</time>
      </trkpt>
      <trkpt lat="44.32205" lon="6.35862">
        <ele>1332</ele>
        <time>2016-07-19T07:45:28.000Z</time>
      </trkpt>
      <trkpt lat="44.322" lon="6.35873">
        <ele>1332.8000488281</ele>
        <time>2016-07-19T07:45:35.000Z</time>
      </trkpt>
      <trkpt lat="44.32196" lon="6.35877">
        <ele>1333.8000488281</ele>
        <time>2016-07-19T07:45:40.000Z</time>
      </trkpt>
      <trkpt lat="44.32191" lon="6.3589">
        <ele>1333.4000244141</ele>
        <time>2016-07-19T07:45:48.000Z</time>
      </trkpt>
      <trkpt lat="44.32188" lon="6.35898">
        <ele>1333.4000244141</ele>
        <time>2016-07-19T07:45:53.000Z</time>
      </trkpt>
      <trkpt lat="44.32181" lon="6.35907">
        <ele>1332.1999511719</ele>
        <time>2016-07-19T07:45:59.000Z</time>
      </trkpt>
      <trkpt lat="44.32171" lon="6.35915">
        <ele>1332.1999511719</ele>
        <time>2016-07-19T07:46:07.000Z</time>
      </trkpt>
      <trkpt lat="44.32162" lon="6.3592">
        <ele>1333.1999511719</ele>
        <time>2016-07-19T07:46:15.000Z</time>
      </trkpt>
      <trkpt lat="44.32151" lon="6.35929">
        <ele>1333</ele>
        <time>2016-07-19T07:46:24.000Z</time>
      </trkpt>
      <trkpt lat="44.32142" lon="6.35941">
        <ele>1334</ele>
        <time>2016-07-19T07:46:29.000Z</time>
      </trkpt>
      <trkpt lat="44.32128" lon="6.35956">
        <ele>1337.4000244141</ele>
        <time>2016-07-19T07:46:36.000Z</time>
      </trkpt>
      <trkpt lat="44.3212" lon="6.35968">
        <ele>1338.4000244141</ele>
        <time>2016-07-19T07:46:40.000Z</time>
      </trkpt>
      <trkpt lat="44.32111" lon="6.35983">
        <ele>1339.1999511719</ele>
        <time>2016-07-19T07:46:45.000Z</time>
      </trkpt>
      <trkpt lat="44.32104" lon="6.35993">
        <ele>1339</ele>
        <time>2016-07-19T07:46:50.000Z</time>
      </trkpt>
      <trkpt lat="44.32103" lon="6.35995">
        <ele>1339</ele>
        <time>2016-07-19T07:46:51.000Z</time>
      </trkpt>
      <trkpt lat="44.32091" lon="6.35998">
        <ele>1340.8000488281</ele>
        <time>2016-07-19T07:47:00.000Z</time>
      </trkpt>
      <trkpt lat="44.32081" lon="6.36002">
        <ele>1342.1999511719</ele>
        <time>2016-07-19T07:47:07.000Z</time>
      </trkpt>
      <trkpt lat="44.32076" lon="6.36005">
        <ele>1342.5999755859</ele>
        <time>2016-07-19T07:47:12.000Z</time>
      </trkpt>
      <trkpt lat="44.32068" lon="6.36007">
        <ele>1344</ele>
        <time>2016-07-19T07:47:18.000Z</time>
      </trkpt>
      <trkpt lat="44.32061" lon="6.36009">
        <ele>1345</ele>
        <time>2016-07-19T07:47:24.000Z</time>
      </trkpt>
      <trkpt lat="44.32056" lon="6.36012">
        <ele>1345.8000488281</ele>
        <time>2016-07-19T07:47:28.000Z</time>
      </trkpt>
      <trkpt lat="44.32052" lon="6.36016">
        <ele>1346.1999511719</ele>
        <time>2016-07-19T07:47:35.000Z</time>
      </trkpt>
      <trkpt lat="44.32051" lon="6.36019">
        <ele>1346.4000244141</ele>
        <time>2016-07-19T07:47:36.000Z</time>
      </trkpt>
      <trkpt lat="44.32044" lon="6.36026">
        <ele>1347.1999511719</ele>
        <time>2016-07-19T07:47:42.000Z</time>
      </trkpt>
      <trkpt lat="44.3204" lon="6.36033">
        <ele>1347.4000244141</ele>
        <time>2016-07-19T07:47:48.000Z</time>
      </trkpt>
      <trkpt lat="44.32033" lon="6.36046">
        <ele>1347.4000244141</ele>
        <time>2016-07-19T07:47:56.000Z</time>
      </trkpt>
      <trkpt lat="44.32032" lon="6.36048">
        <ele>1347.5999755859</ele>
        <time>2016-07-19T07:47:57.000Z</time>
      </trkpt>
      <trkpt lat="44.32025" lon="6.36054">
        <ele>1348.4000244141</ele>
        <time>2016-07-19T07:48:04.000Z</time>
      </trkpt>
      <trkpt lat="44.32017" lon="6.36059">
        <ele>1349.1999511719</ele>
        <time>2016-07-19T07:48:11.000Z</time>
      </trkpt>
      <trkpt lat="44.32008" lon="6.36064">
        <ele>1350</ele>
        <time>2016-07-19T07:48:19.000Z</time>
      </trkpt>
      <trkpt lat="44.32006" lon="6.36066">
        <ele>1350.1999511719</ele>
        <time>2016-07-19T07:48:27.000Z</time>
      </trkpt>
      <trkpt lat="44.32004" lon="6.36067">
        <ele>1350.5999755859</ele>
        <time>2016-07-19T07:48:37.000Z</time>
      </trkpt>
      <trkpt lat="44.32002" lon="6.36067">
        <ele>1350.8000488281</ele>
        <time>2016-07-19T07:48:46.000Z</time>
      </trkpt>
      <trkpt lat="44.32001" lon="6.36066">
        <ele>1351.1999511719</ele>
        <time>2016-07-19T07:48:56.000Z</time>
      </trkpt>
      <trkpt lat="44.32001" lon="6.36069">
        <ele>1351</ele>
        <time>2016-07-19T07:49:09.000Z</time>
      </trkpt>
      <trkpt lat="44.31998" lon="6.36079">
        <ele>1350.8000488281</ele>
        <time>2016-07-19T07:49:15.000Z</time>
      </trkpt>
      <trkpt lat="44.31996" lon="6.36083">
        <ele>1351</ele>
        <time>2016-07-19T07:49:18.000Z</time>
      </trkpt>
      <trkpt lat="44.31992" lon="6.36089">
        <ele>1351.1999511719</ele>
        <time>2016-07-19T07:49:23.000Z</time>
      </trkpt>
      <trkpt lat="44.31985" lon="6.36095">
        <ele>1352</ele>
        <time>2016-07-19T07:49:30.000Z</time>
      </trkpt>
      <trkpt lat="44.31976" lon="6.36099">
        <ele>1353.1999511719</ele>
        <time>2016-07-19T07:49:38.000Z</time>
      </trkpt>
      <trkpt lat="44.31968" lon="6.36102">
        <ele>1354.4000244141</ele>
        <time>2016-07-19T07:49:44.000Z</time>
      </trkpt>
      <trkpt lat="44.31953" lon="6.36097">
        <ele>1357.1999511719</ele>
        <time>2016-07-19T07:49:55.000Z</time>
      </trkpt>
      <trkpt lat="44.31946" lon="6.36095">
        <ele>1358.5999755859</ele>
        <time>2016-07-19T07:50:00.000Z</time>
      </trkpt>
      <trkpt lat="44.31929" lon="6.361">
        <ele>1361.4000244141</ele>
        <time>2016-07-19T07:50:13.000Z</time>
      </trkpt>
      <trkpt lat="44.31924" lon="6.36101">
        <ele>1362.4000244141</ele>
        <time>2016-07-19T07:50:17.000Z</time>
      </trkpt>
      <trkpt lat="44.31921" lon="6.36103">
        <ele>1362.8000488281</ele>
        <time>2016-07-19T07:50:20.000Z</time>
      </trkpt>
      <trkpt lat="44.3191" lon="6.36102">
        <ele>1364.8000488281</ele>
        <time>2016-07-19T07:50:29.000Z</time>
      </trkpt>
      <trkpt lat="44.31903" lon="6.36103">
        <ele>1366.1999511719</ele>
        <time>2016-07-19T07:50:34.000Z</time>
      </trkpt>
      <trkpt lat="44.31898" lon="6.36111">
        <ele>1366.5999755859</ele>
        <time>2016-07-19T07:50:40.000Z</time>
      </trkpt>
      <trkpt lat="44.31891" lon="6.3612">
        <ele>1367.1999511719</ele>
        <time>2016-07-19T07:50:48.000Z</time>
      </trkpt>
      <trkpt lat="44.3189" lon="6.36122">
        <ele>1367</ele>
        <time>2016-07-19T07:50:49.000Z</time>
      </trkpt>
      <trkpt lat="44.31888" lon="6.36124">
        <ele>1367.4000244141</ele>
        <time>2016-07-19T07:50:54.000Z</time>
      </trkpt>
      <trkpt lat="44.31881" lon="6.36137">
        <ele>1367.5999755859</ele>
        <time>2016-07-19T07:51:01.000Z</time>
      </trkpt>
      <trkpt lat="44.31875" lon="6.3615">
        <ele>1367.8000488281</ele>
        <time>2016-07-19T07:51:10.000Z</time>
      </trkpt>
      <trkpt lat="44.31873" lon="6.36154">
        <ele>1368.1999511719</ele>
        <time>2016-07-19T07:51:14.000Z</time>
      </trkpt>
      <trkpt lat="44.31872" lon="6.36157">
        <ele>1368.4000244141</ele>
        <time>2016-07-19T07:51:15.000Z</time>
      </trkpt>
      <trkpt lat="44.31867" lon="6.36168">
        <ele>1368</ele>
        <time>2016-07-19T07:51:24.000Z</time>
      </trkpt>
      <trkpt lat="44.31867" lon="6.36169">
        <ele>1367.8000488281</ele>
        <time>2016-07-19T07:51:25.000Z</time>
      </trkpt>
      <trkpt lat="44.31864" lon="6.36175">
        <ele>1367.5999755859</ele>
        <time>2016-07-19T07:51:30.000Z</time>
      </trkpt>
      <trkpt lat="44.31863" lon="6.36176">
        <ele>1367.5999755859</ele>
        <time>2016-07-19T07:51:32.000Z</time>
      </trkpt>
      <trkpt lat="44.31857" lon="6.36185">
        <ele>1367.8000488281</ele>
        <time>2016-07-19T07:51:38.000Z</time>
      </trkpt>
      <trkpt lat="44.31847" lon="6.36191">
        <ele>1368.8000488281</ele>
        <time>2016-07-19T07:51:47.000Z</time>
      </trkpt>
      <trkpt lat="44.31838" lon="6.36191">
        <ele>1370.1999511719</ele>
        <time>2016-07-19T07:51:54.000Z</time>
      </trkpt>
      <trkpt lat="44.31828" lon="6.36193">
        <ele>1371.4000244141</ele>
        <time>2016-07-19T07:52:02.000Z</time>
      </trkpt>
      <trkpt lat="44.31818" lon="6.36195">
        <ele>1372.1999511719</ele>
        <time>2016-07-19T07:52:10.000Z</time>
      </trkpt>
      <trkpt lat="44.31806" lon="6.36195">
        <ele>1373.1999511719</ele>
        <time>2016-07-19T07:52:20.000Z</time>
      </trkpt>
      <trkpt lat="44.318" lon="6.36197">
        <ele>1373.5999755859</ele>
        <time>2016-07-19T07:52:25.000Z</time>
      </trkpt>
      <trkpt lat="44.31791" lon="6.36205">
        <ele>1373.4000244141</ele>
        <time>2016-07-19T07:52:32.000Z</time>
      </trkpt>
      <trkpt lat="44.31788" lon="6.36207">
        <ele>1373.4000244141</ele>
        <time>2016-07-19T07:52:35.000Z</time>
      </trkpt>
      <trkpt lat="44.31786" lon="6.36208">
        <ele>1373.4000244141</ele>
        <time>2016-07-19T07:52:37.000Z</time>
      </trkpt>
      <trkpt lat="44.31782" lon="6.36211">
        <ele>1373.4000244141</ele>
        <time>2016-07-19T07:52:40.000Z</time>
      </trkpt>
      <trkpt lat="44.31774" lon="6.36213">
        <ele>1374.1999511719</ele>
        <time>2016-07-19T07:52:47.000Z</time>
      </trkpt>
      <trkpt lat="44.3177" lon="6.36212">
        <ele>1374.8000488281</ele>
        <time>2016-07-19T07:52:50.000Z</time>
      </trkpt>
      <trkpt lat="44.31767" lon="6.3621">
        <ele>1375.4000244141</ele>
        <time>2016-07-19T07:52:54.000Z</time>
      </trkpt>
      <trkpt lat="44.31763" lon="6.36206">
        <ele>1376.4000244141</ele>
        <time>2016-07-19T07:52:57.000Z</time>
      </trkpt>
      <trkpt lat="44.31762" lon="6.36196">
        <ele>1377.8000488281</ele>
        <time>2016-07-19T07:53:04.000Z</time>
      </trkpt>
      <trkpt lat="44.31761" lon="6.36196">
        <ele>1378</ele>
        <time>2016-07-19T07:53:05.000Z</time>
      </trkpt>
      <trkpt lat="44.31762" lon="6.36187">
        <ele>1379</ele>
        <time>2016-07-19T07:53:10.000Z</time>
      </trkpt>
      <trkpt lat="44.31763" lon="6.36177">
        <ele>1380.1999511719</ele>
        <time>2016-07-19T07:53:15.000Z</time>
      </trkpt>
      <trkpt lat="44.31763" lon="6.36166">
        <ele>1381.8000488281</ele>
        <time>2016-07-19T07:53:22.000Z</time>
      </trkpt>
      <trkpt lat="44.31762" lon="6.36164">
        <ele>1382</ele>
        <time>2016-07-19T07:53:23.000Z</time>
      </trkpt>
      <trkpt lat="44.31764" lon="6.36152">
        <ele>1383.4000244141</ele>
        <time>2016-07-19T07:53:30.000Z</time>
      </trkpt>
      <trkpt lat="44.31766" lon="6.36147">
        <ele>1383.8000488281</ele>
        <time>2016-07-19T07:53:33.000Z</time>
      </trkpt>
      <trkpt lat="44.31771" lon="6.3613">
        <ele>1384.5999755859</ele>
        <time>2016-07-19T07:53:43.000Z</time>
      </trkpt>
      <trkpt lat="44.31774" lon="6.36121">
        <ele>1385.1999511719</ele>
        <time>2016-07-19T07:53:49.000Z</time>
      </trkpt>
      <trkpt lat="44.31778" lon="6.36097">
        <ele>1387.1999511719</ele>
        <time>2016-07-19T07:54:04.000Z</time>
      </trkpt>
      <trkpt lat="44.31771" lon="6.36097">
        <ele>1387.8000488281</ele>
        <time>2016-07-19T07:54:10.000Z</time>
      </trkpt>
      <trkpt lat="44.31765" lon="6.36106">
        <ele>1387.5999755859</ele>
        <time>2016-07-19T07:54:18.000Z</time>
      </trkpt>
      <trkpt lat="44.31754" lon="6.36113">
        <ele>1388.1999511719</ele>
        <time>2016-07-19T07:54:27.000Z</time>
      </trkpt>
      <trkpt lat="44.31744" lon="6.36117">
        <ele>1388.8000488281</ele>
        <time>2016-07-19T07:54:35.000Z</time>
      </trkpt>
      <trkpt lat="44.31738" lon="6.3612">
        <ele>1389.4000244141</ele>
        <time>2016-07-19T07:54:40.000Z</time>
      </trkpt>
      <trkpt lat="44.31729" lon="6.36121">
        <ele>1390.4000244141</ele>
        <time>2016-07-19T07:54:49.000Z</time>
      </trkpt>
      <trkpt lat="44.31723" lon="6.36121">
        <ele>1391.1999511719</ele>
        <time>2016-07-19T07:54:55.000Z</time>
      </trkpt>
      <trkpt lat="44.31716" lon="6.36122">
        <ele>1391.8000488281</ele>
        <time>2016-07-19T07:55:00.000Z</time>
      </trkpt>
      <trkpt lat="44.31708" lon="6.36123">
        <ele>1392.8000488281</ele>
        <time>2016-07-19T07:55:08.000Z</time>
      </trkpt>
      <trkpt lat="44.31707" lon="6.36123">
        <ele>1393</ele>
        <time>2016-07-19T07:55:09.000Z</time>
      </trkpt>
      <trkpt lat="44.317" lon="6.36123">
        <ele>1393.8000488281</ele>
        <time>2016-07-19T07:55:15.000Z</time>
      </trkpt>
      <trkpt lat="44.31696" lon="6.36122">
        <ele>1394.4000244141</ele>
        <time>2016-07-19T07:55:17.000Z</time>
      </trkpt>
      <trkpt lat="44.31687" lon="6.3612">
        <ele>1396</ele>
        <time>2016-07-19T07:55:23.000Z</time>
      </trkpt>
      <trkpt lat="44.31678" lon="6.36119">
        <ele>1397.5999755859</ele>
        <time>2016-07-19T07:55:29.000Z</time>
      </trkpt>
      <trkpt lat="44.31671" lon="6.36117">
        <ele>1399</ele>
        <time>2016-07-19T07:55:35.000Z</time>
      </trkpt>
      <trkpt lat="44.31665" lon="6.36117">
        <ele>1399.8000488281</ele>
        <time>2016-07-19T07:55:40.000Z</time>
      </trkpt>
      <trkpt lat="44.31658" lon="6.36113">
        <ele>1401.4000244141</ele>
        <time>2016-07-19T07:55:47.000Z</time>
      </trkpt>
      <trkpt lat="44.31645" lon="6.3611">
        <ele>1403.5999755859</ele>
        <time>2016-07-19T07:55:56.000Z</time>
      </trkpt>
      <trkpt lat="44.3162" lon="6.36112">
        <ele>1407</ele>
        <time>2016-07-19T07:56:12.000Z</time>
      </trkpt>
      <trkpt lat="44.31608" lon="6.36119">
        <ele>1407.4000244141</ele>
        <time>2016-07-19T07:56:21.000Z</time>
      </trkpt>
      <trkpt lat="44.31602" lon="6.36131">
        <ele>1406.4000244141</ele>
        <time>2016-07-19T07:56:30.000Z</time>
      </trkpt>
      <trkpt lat="44.31598" lon="6.36142">
        <ele>1406.1999511719</ele>
        <time>2016-07-19T07:56:37.000Z</time>
      </trkpt>
      <trkpt lat="44.31595" lon="6.36147">
        <ele>1406.4000244141</ele>
        <time>2016-07-19T07:56:41.000Z</time>
      </trkpt>
      <trkpt lat="44.31592" lon="6.36152">
        <ele>1406.4000244141</ele>
        <time>2016-07-19T07:56:45.000Z</time>
      </trkpt>
      <trkpt lat="44.31588" lon="6.36162">
        <ele>1406.1999511719</ele>
        <time>2016-07-19T07:56:52.000Z</time>
      </trkpt>
      <trkpt lat="44.31581" lon="6.36168">
        <ele>1406.5999755859</ele>
        <time>2016-07-19T07:56:59.000Z</time>
      </trkpt>
      <trkpt lat="44.31571" lon="6.36175">
        <ele>1407.4000244141</ele>
        <time>2016-07-19T07:57:08.000Z</time>
      </trkpt>
      <trkpt lat="44.31559" lon="6.36178">
        <ele>1408.8000488281</ele>
        <time>2016-07-19T07:57:16.000Z</time>
      </trkpt>
      <trkpt lat="44.31554" lon="6.36179">
        <ele>1409.8000488281</ele>
        <time>2016-07-19T07:57:20.000Z</time>
      </trkpt>
      <trkpt lat="44.31552" lon="6.3617">
        <ele>1410.4000244141</ele>
        <time>2016-07-19T07:57:27.000Z</time>
      </trkpt>
      <trkpt lat="44.31554" lon="6.36168">
        <ele>1410.1999511719</ele>
        <time>2016-07-19T07:57:29.000Z</time>
      </trkpt>
      <trkpt lat="44.31562" lon="6.36163">
        <ele>1409.5999755859</ele>
        <time>2016-07-19T07:57:37.000Z</time>
      </trkpt>
      <trkpt lat="44.31562" lon="6.3615">
        <ele>1410.5999755859</ele>
        <time>2016-07-19T07:57:44.000Z</time>
      </trkpt>
      <trkpt lat="44.31559" lon="6.36146">
        <ele>1411.1999511719</ele>
        <time>2016-07-19T07:57:47.000Z</time>
      </trkpt>
      <trkpt lat="44.31552" lon="6.36136">
        <ele>1412.4000244141</ele>
        <time>2016-07-19T07:57:55.000Z</time>
      </trkpt>
      <trkpt lat="44.31549" lon="6.36121">
        <ele>1413.1999511719</ele>
        <time>2016-07-19T07:58:04.000Z</time>
      </trkpt>
      <trkpt lat="44.31548" lon="6.36108">
        <ele>1413.5999755859</ele>
        <time>2016-07-19T07:58:11.000Z</time>
      </trkpt>
      <trkpt lat="44.31549" lon="6.36099">
        <ele>1413.8000488281</ele>
        <time>2016-07-19T07:58:16.000Z</time>
      </trkpt>
      <trkpt lat="44.3155" lon="6.36095">
        <ele>1413.5999755859</ele>
        <time>2016-07-19T07:58:18.000Z</time>
      </trkpt>
      <trkpt lat="44.31551" lon="6.36086">
        <ele>1413.8000488281</ele>
        <time>2016-07-19T07:58:24.000Z</time>
      </trkpt>
      <trkpt lat="44.31552" lon="6.36084">
        <ele>1413.8000488281</ele>
        <time>2016-07-19T07:58:25.000Z</time>
      </trkpt>
      <trkpt lat="44.31553" lon="6.36077">
        <ele>1414.5999755859</ele>
        <time>2016-07-19T07:58:29.000Z</time>
      </trkpt>
      <trkpt lat="44.31557" lon="6.36069">
        <ele>1415.1999511719</ele>
        <time>2016-07-19T07:58:35.000Z</time>
      </trkpt>
      <trkpt lat="44.31559" lon="6.36061">
        <ele>1415.8000488281</ele>
        <time>2016-07-19T07:58:40.000Z</time>
      </trkpt>
      <trkpt lat="44.3156" lon="6.36053">
        <ele>1416</ele>
        <time>2016-07-19T07:58:43.000Z</time>
      </trkpt>
      <trkpt lat="44.31565" lon="6.36039">
        <ele>1416.1999511719</ele>
        <time>2016-07-19T07:58:51.000Z</time>
      </trkpt>
      <trkpt lat="44.31568" lon="6.36032">
        <ele>1416.4000244141</ele>
        <time>2016-07-19T07:58:55.000Z</time>
      </trkpt>
      <trkpt lat="44.31571" lon="6.36022">
        <ele>1416.5999755859</ele>
        <time>2016-07-19T07:59:01.000Z</time>
      </trkpt>
      <trkpt lat="44.3158" lon="6.36009">
        <ele>1417.8000488281</ele>
        <time>2016-07-19T07:59:10.000Z</time>
      </trkpt>
      <trkpt lat="44.31581" lon="6.36008">
        <ele>1418</ele>
        <time>2016-07-19T07:59:12.000Z</time>
      </trkpt>
      <trkpt lat="44.31588" lon="6.35999">
        <ele>1419</ele>
        <time>2016-07-19T07:59:18.000Z</time>
      </trkpt>
      <trkpt lat="44.31593" lon="6.35987">
        <ele>1420.1999511719</ele>
        <time>2016-07-19T07:59:25.000Z</time>
      </trkpt>
      <trkpt lat="44.31598" lon="6.35975">
        <ele>1421.1999511719</ele>
        <time>2016-07-19T07:59:32.000Z</time>
      </trkpt>
      <trkpt lat="44.31601" lon="6.35963">
        <ele>1422</ele>
        <time>2016-07-19T07:59:40.000Z</time>
      </trkpt>
      <trkpt lat="44.316" lon="6.35951">
        <ele>1422.5999755859</ele>
        <time>2016-07-19T07:59:47.000Z</time>
      </trkpt>
      <trkpt lat="44.31596" lon="6.35937">
        <ele>1423.4000244141</ele>
        <time>2016-07-19T07:59:55.000Z</time>
      </trkpt>
      <trkpt lat="44.31591" lon="6.35921">
        <ele>1424.4000244141</ele>
        <time>2016-07-19T08:00:03.000Z</time>
      </trkpt>
      <trkpt lat="44.3159" lon="6.35915">
        <ele>1424.5999755859</ele>
        <time>2016-07-19T08:00:09.000Z</time>
      </trkpt>
      <trkpt lat="44.31587" lon="6.35908">
        <ele>1425</ele>
        <time>2016-07-19T08:00:14.000Z</time>
      </trkpt>
      <trkpt lat="44.31581" lon="6.35892">
        <ele>1426.8000488281</ele>
        <time>2016-07-19T08:00:23.000Z</time>
      </trkpt>
      <trkpt lat="44.31578" lon="6.35879">
        <ele>1429.4000244141</ele>
        <time>2016-07-19T08:00:29.000Z</time>
      </trkpt>
      <trkpt lat="44.31575" lon="6.35866">
        <ele>1432.4000244141</ele>
        <time>2016-07-19T08:00:37.000Z</time>
      </trkpt>
      <trkpt lat="44.31575" lon="6.35853">
        <ele>1434.5999755859</ele>
        <time>2016-07-19T08:00:43.000Z</time>
      </trkpt>
      <trkpt lat="44.31575" lon="6.35838">
        <ele>1436.4000244141</ele>
        <time>2016-07-19T08:00:50.000Z</time>
      </trkpt>
      <trkpt lat="44.31576" lon="6.35824">
        <ele>1438</ele>
        <time>2016-07-19T08:00:57.000Z</time>
      </trkpt>
      <trkpt lat="44.3158" lon="6.35803">
        <ele>1441.8000488281</ele>
        <time>2016-07-19T08:01:08.000Z</time>
      </trkpt>
      <trkpt lat="44.31582" lon="6.35794">
        <ele>1444</ele>
        <time>2016-07-19T08:01:13.000Z</time>
      </trkpt>
      <trkpt lat="44.3159" lon="6.35779">
        <ele>1447.5999755859</ele>
        <time>2016-07-19T08:01:23.000Z</time>
      </trkpt>
      <trkpt lat="44.31596" lon="6.3577">
        <ele>1449.8000488281</ele>
        <time>2016-07-19T08:01:29.000Z</time>
      </trkpt>
      <trkpt lat="44.31598" lon="6.35765">
        <ele>1451</ele>
        <time>2016-07-19T08:01:32.000Z</time>
      </trkpt>
      <trkpt lat="44.31604" lon="6.35751">
        <ele>1454.8000488281</ele>
        <time>2016-07-19T08:01:40.000Z</time>
      </trkpt>
      <trkpt lat="44.31605" lon="6.3575">
        <ele>1455</ele>
        <time>2016-07-19T08:01:42.000Z</time>
      </trkpt>
      <trkpt lat="44.31611" lon="6.35738">
        <ele>1458</ele>
        <time>2016-07-19T08:01:50.000Z</time>
      </trkpt>
      <trkpt lat="44.31612" lon="6.35736">
        <ele>1458.8000488281</ele>
        <time>2016-07-19T08:01:52.000Z</time>
      </trkpt>
      <trkpt lat="44.31618" lon="6.35724">
        <ele>1460.5999755859</ele>
        <time>2016-07-19T08:02:00.000Z</time>
      </trkpt>
      <trkpt lat="44.31622" lon="6.35714">
        <ele>1462.4000244141</ele>
        <time>2016-07-19T08:02:07.000Z</time>
      </trkpt>
      <trkpt lat="44.31627" lon="6.35704">
        <ele>1463.5999755859</ele>
        <time>2016-07-19T08:02:14.000Z</time>
      </trkpt>
      <trkpt lat="44.31628" lon="6.35702">
        <ele>1463.8000488281</ele>
        <time>2016-07-19T08:02:15.000Z</time>
      </trkpt>
      <trkpt lat="44.3163" lon="6.357">
        <ele>1463.8000488281</ele>
        <time>2016-07-19T08:02:17.000Z</time>
      </trkpt>
      <trkpt lat="44.31633" lon="6.3569">
        <ele>1465.5999755859</ele>
        <time>2016-07-19T08:02:23.000Z</time>
      </trkpt>
      <trkpt lat="44.31634" lon="6.35687">
        <ele>1466.1999511719</ele>
        <time>2016-07-19T08:02:25.000Z</time>
      </trkpt>
      <trkpt lat="44.31635" lon="6.35685">
        <ele>1466.4000244141</ele>
        <time>2016-07-19T08:02:26.000Z</time>
      </trkpt>
      <trkpt lat="44.31636" lon="6.35682">
        <ele>1466.8000488281</ele>
        <time>2016-07-19T08:02:29.000Z</time>
      </trkpt>
      <trkpt lat="44.3164" lon="6.35674">
        <ele>1468</ele>
        <time>2016-07-19T08:02:35.000Z</time>
      </trkpt>
      <trkpt lat="44.31645" lon="6.35665">
        <ele>1470.1999511719</ele>
        <time>2016-07-19T08:02:42.000Z</time>
      </trkpt>
      <trkpt lat="44.31647" lon="6.35652">
        <ele>1474.1999511719</ele>
        <time>2016-07-19T08:02:49.000Z</time>
      </trkpt>
      <trkpt lat="44.31649" lon="6.35642">
        <ele>1475.5999755859</ele>
        <time>2016-07-19T08:02:55.000Z</time>
      </trkpt>
      <trkpt lat="44.31651" lon="6.35624">
        <ele>1475.8000488281</ele>
        <time>2016-07-19T08:03:05.000Z</time>
      </trkpt>
      <trkpt lat="44.31649" lon="6.35613">
        <ele>1476.1999511719</ele>
        <time>2016-07-19T08:03:10.000Z</time>
      </trkpt>
      <trkpt lat="44.31649" lon="6.35612">
        <ele>1476.4000244141</ele>
        <time>2016-07-19T08:03:11.000Z</time>
      </trkpt>
      <trkpt lat="44.31642" lon="6.35601">
        <ele>1477.5999755859</ele>
        <time>2016-07-19T08:03:20.000Z</time>
      </trkpt>
      <trkpt lat="44.31638" lon="6.35595">
        <ele>1478.4000244141</ele>
        <time>2016-07-19T08:03:25.000Z</time>
      </trkpt>
      <trkpt lat="44.31633" lon="6.35587">
        <ele>1479.4000244141</ele>
        <time>2016-07-19T08:03:32.000Z</time>
      </trkpt>
      <trkpt lat="44.31626" lon="6.35579">
        <ele>1480.8000488281</ele>
        <time>2016-07-19T08:03:40.000Z</time>
      </trkpt>
      <trkpt lat="44.31624" lon="6.35576">
        <ele>1481.1999511719</ele>
        <time>2016-07-19T08:03:42.000Z</time>
      </trkpt>
      <trkpt lat="44.31618" lon="6.35568">
        <ele>1482.1999511719</ele>
        <time>2016-07-19T08:03:49.000Z</time>
      </trkpt>
      <trkpt lat="44.31617" lon="6.35567">
        <ele>1482.4000244141</ele>
        <time>2016-07-19T08:03:50.000Z</time>
      </trkpt>
      <trkpt lat="44.31608" lon="6.35554">
        <ele>1481.8000488281</ele>
        <time>2016-07-19T08:04:00.000Z</time>
      </trkpt>
      <trkpt lat="44.31599" lon="6.35539">
        <ele>1480.4000244141</ele>
        <time>2016-07-19T08:04:10.000Z</time>
      </trkpt>
      <trkpt lat="44.31593" lon="6.35528">
        <ele>1479.1999511719</ele>
        <time>2016-07-19T08:04:18.000Z</time>
      </trkpt>
      <trkpt lat="44.3159" lon="6.3552">
        <ele>1478.5999755859</ele>
        <time>2016-07-19T08:04:24.000Z</time>
      </trkpt>
      <trkpt lat="44.3159" lon="6.35518">
        <ele>1478.4000244141</ele>
        <time>2016-07-19T08:04:25.000Z</time>
      </trkpt>
      <trkpt lat="44.31586" lon="6.35509">
        <ele>1477.8000488281</ele>
        <time>2016-07-19T08:04:30.000Z</time>
      </trkpt>
      <trkpt lat="44.31586" lon="6.35507">
        <ele>1477.5999755859</ele>
        <time>2016-07-19T08:04:32.000Z</time>
      </trkpt>
      <trkpt lat="44.31579" lon="6.35489">
        <ele>1476.1999511719</ele>
        <time>2016-07-19T08:04:42.000Z</time>
      </trkpt>
      <trkpt lat="44.31577" lon="6.35486">
        <ele>1475.8000488281</ele>
        <time>2016-07-19T08:04:44.000Z</time>
      </trkpt>
      <trkpt lat="44.31571" lon="6.35479">
        <ele>1475</ele>
        <time>2016-07-19T08:04:50.000Z</time>
      </trkpt>
      <trkpt lat="44.31564" lon="6.35473">
        <ele>1474.5999755859</ele>
        <time>2016-07-19T08:04:56.000Z</time>
      </trkpt>
      <trkpt lat="44.31561" lon="6.35469">
        <ele>1474.5999755859</ele>
        <time>2016-07-19T08:05:04.000Z</time>
      </trkpt>
      <trkpt lat="44.31563" lon="6.35468">
        <ele>1475</ele>
        <time>2016-07-19T08:05:23.000Z</time>
      </trkpt>
      <trkpt lat="44.31556" lon="6.35461">
        <ele>1474.8000488281</ele>
        <time>2016-07-19T08:05:30.000Z</time>
      </trkpt>
      <trkpt lat="44.3155" lon="6.35453">
        <ele>1474.5999755859</ele>
        <time>2016-07-19T08:05:38.000Z</time>
      </trkpt>
      <trkpt lat="44.31542" lon="6.35444">
        <ele>1474.5999755859</ele>
        <time>2016-07-19T08:05:45.000Z</time>
      </trkpt>
      <trkpt lat="44.31536" lon="6.35441">
        <ele>1474.1999511719</ele>
        <time>2016-07-19T08:05:52.000Z</time>
      </trkpt>
      <trkpt lat="44.31533" lon="6.35436">
        <ele>1474</ele>
        <time>2016-07-19T08:05:55.000Z</time>
      </trkpt>
      <trkpt lat="44.31523" lon="6.35429">
        <ele>1474</ele>
        <time>2016-07-19T08:06:07.000Z</time>
      </trkpt>
      <trkpt lat="44.31519" lon="6.35424">
        <ele>1474.1999511719</ele>
        <time>2016-07-19T08:06:14.000Z</time>
      </trkpt>
      <trkpt lat="44.31514" lon="6.35422">
        <ele>1474.1999511719</ele>
        <time>2016-07-19T08:06:19.000Z</time>
      </trkpt>
      <trkpt lat="44.31511" lon="6.3542">
        <ele>1474.1999511719</ele>
        <time>2016-07-19T08:06:22.000Z</time>
      </trkpt>
      <trkpt lat="44.315" lon="6.3541">
        <ele>1474.4000244141</ele>
        <time>2016-07-19T08:06:32.000Z</time>
      </trkpt>
      <trkpt lat="44.31488" lon="6.35401">
        <ele>1474.8000488281</ele>
        <time>2016-07-19T08:06:42.000Z</time>
      </trkpt>
      <trkpt lat="44.31485" lon="6.35398">
        <ele>1474.8000488281</ele>
        <time>2016-07-19T08:06:44.000Z</time>
      </trkpt>
      <trkpt lat="44.31477" lon="6.35394">
        <ele>1475</ele>
        <time>2016-07-19T08:06:50.000Z</time>
      </trkpt>
      <trkpt lat="44.31469" lon="6.35387">
        <ele>1475.5999755859</ele>
        <time>2016-07-19T08:06:57.000Z</time>
      </trkpt>
      <trkpt lat="44.31456" lon="6.35381">
        <ele>1476</ele>
        <time>2016-07-19T08:07:06.000Z</time>
      </trkpt>
      <trkpt lat="44.31442" lon="6.35379">
        <ele>1475.8000488281</ele>
        <time>2016-07-19T08:07:17.000Z</time>
      </trkpt>
      <trkpt lat="44.31432" lon="6.35375">
        <ele>1475.5999755859</ele>
        <time>2016-07-19T08:07:25.000Z</time>
      </trkpt>
      <trkpt lat="44.31422" lon="6.35369">
        <ele>1476</ele>
        <time>2016-07-19T08:07:32.000Z</time>
      </trkpt>
      <trkpt lat="44.31418" lon="6.35364">
        <ele>1476.5999755859</ele>
        <time>2016-07-19T08:07:37.000Z</time>
      </trkpt>
      <trkpt lat="44.31413" lon="6.35358">
        <ele>1477.1999511719</ele>
        <time>2016-07-19T08:07:42.000Z</time>
      </trkpt>
      <trkpt lat="44.31406" lon="6.3535">
        <ele>1478</ele>
        <time>2016-07-19T08:07:48.000Z</time>
      </trkpt>
      <trkpt lat="44.314" lon="6.35341">
        <ele>1479</ele>
        <time>2016-07-19T08:07:55.000Z</time>
      </trkpt>
      <trkpt lat="44.31392" lon="6.35329">
        <ele>1480.4000244141</ele>
        <time>2016-07-19T08:08:02.000Z</time>
      </trkpt>
      <trkpt lat="44.31385" lon="6.35317">
        <ele>1481.8000488281</ele>
        <time>2016-07-19T08:08:11.000Z</time>
      </trkpt>
      <trkpt lat="44.31383" lon="6.35315">
        <ele>1482.1999511719</ele>
        <time>2016-07-19T08:08:13.000Z</time>
      </trkpt>
      <trkpt lat="44.31383" lon="6.35302">
        <ele>1482.1999511719</ele>
        <time>2016-07-19T08:08:20.000Z</time>
      </trkpt>
      <trkpt lat="44.31392" lon="6.35293">
        <ele>1482.8000488281</ele>
        <time>2016-07-19T08:08:26.000Z</time>
      </trkpt>
      <trkpt lat="44.31404" lon="6.35284">
        <ele>1483.4000244141</ele>
        <time>2016-07-19T08:08:37.000Z</time>
      </trkpt>
      <trkpt lat="44.31416" lon="6.35271">
        <ele>1484.1999511719</ele>
        <time>2016-07-19T08:08:47.000Z</time>
      </trkpt>
      <trkpt lat="44.31427" lon="6.35265">
        <ele>1484.8000488281</ele>
        <time>2016-07-19T08:08:55.000Z</time>
      </trkpt>
      <trkpt lat="44.31448" lon="6.35243">
        <ele>1486</ele>
        <time>2016-07-19T08:09:14.000Z</time>
      </trkpt>
      <trkpt lat="44.31451" lon="6.35239">
        <ele>1486</ele>
        <time>2016-07-19T08:09:18.000Z</time>
      </trkpt>
      <trkpt lat="44.31457" lon="6.35231">
        <ele>1486.8000488281</ele>
        <time>2016-07-19T08:09:24.000Z</time>
      </trkpt>
      <trkpt lat="44.31463" lon="6.35222">
        <ele>1487.5999755859</ele>
        <time>2016-07-19T08:09:32.000Z</time>
      </trkpt>
      <trkpt lat="44.31465" lon="6.3522">
        <ele>1487.8000488281</ele>
        <time>2016-07-19T08:09:33.000Z</time>
      </trkpt>
      <trkpt lat="44.3147" lon="6.35205">
        <ele>1488.5999755859</ele>
        <time>2016-07-19T08:09:43.000Z</time>
      </trkpt>
      <trkpt lat="44.31474" lon="6.35187">
        <ele>1489.1999511719</ele>
        <time>2016-07-19T08:09:52.000Z</time>
      </trkpt>
      <trkpt lat="44.3148" lon="6.3517">
        <ele>1489.5999755859</ele>
        <time>2016-07-19T08:10:02.000Z</time>
      </trkpt>
      <trkpt lat="44.31485" lon="6.35162">
        <ele>1490</ele>
        <time>2016-07-19T08:10:08.000Z</time>
      </trkpt>
      <trkpt lat="44.31489" lon="6.35149">
        <ele>1490</ele>
        <time>2016-07-19T08:10:15.000Z</time>
      </trkpt>
      <trkpt lat="44.3149" lon="6.35136">
        <ele>1491</ele>
        <time>2016-07-19T08:10:22.000Z</time>
      </trkpt>
      <trkpt lat="44.31492" lon="6.3512">
        <ele>1492.1999511719</ele>
        <time>2016-07-19T08:10:30.000Z</time>
      </trkpt>
      <trkpt lat="44.31488" lon="6.35108">
        <ele>1492.8000488281</ele>
        <time>2016-07-19T08:10:35.000Z</time>
      </trkpt>
      <trkpt lat="44.31481" lon="6.35105">
        <ele>1492.5999755859</ele>
        <time>2016-07-19T08:10:42.000Z</time>
      </trkpt>
      <trkpt lat="44.31468" lon="6.35107">
        <ele>1491.4000244141</ele>
        <time>2016-07-19T08:10:53.000Z</time>
      </trkpt>
      <trkpt lat="44.31454" lon="6.35108">
        <ele>1490.4000244141</ele>
        <time>2016-07-19T08:11:04.000Z</time>
      </trkpt>
      <trkpt lat="44.31433" lon="6.35105">
        <ele>1490</ele>
        <time>2016-07-19T08:11:20.000Z</time>
      </trkpt>
      <trkpt lat="44.31422" lon="6.35105">
        <ele>1490</ele>
        <time>2016-07-19T08:11:28.000Z</time>
      </trkpt>
      <trkpt lat="44.31412" lon="6.35104">
        <ele>1490.1999511719</ele>
        <time>2016-07-19T08:11:35.000Z</time>
      </trkpt>
      <trkpt lat="44.31401" lon="6.35101">
        <ele>1490.4000244141</ele>
        <time>2016-07-19T08:11:44.000Z</time>
      </trkpt>
      <trkpt lat="44.31374" lon="6.35098">
        <ele>1490</ele>
        <time>2016-07-19T08:12:03.000Z</time>
      </trkpt>
      <trkpt lat="44.31366" lon="6.35096">
        <ele>1490</ele>
        <time>2016-07-19T08:12:10.000Z</time>
      </trkpt>
      <trkpt lat="44.31354" lon="6.35096">
        <ele>1489.8000488281</ele>
        <time>2016-07-19T08:12:19.000Z</time>
      </trkpt>
      <trkpt lat="44.31343" lon="6.35099">
        <ele>1489.1999511719</ele>
        <time>2016-07-19T08:12:27.000Z</time>
      </trkpt>
      <trkpt lat="44.31332" lon="6.35105">
        <ele>1488.4000244141</ele>
        <time>2016-07-19T08:12:35.000Z</time>
      </trkpt>
      <trkpt lat="44.3132" lon="6.35113">
        <ele>1486.8000488281</ele>
        <time>2016-07-19T08:12:44.000Z</time>
      </trkpt>
      <trkpt lat="44.31309" lon="6.35117">
        <ele>1485.1999511719</ele>
        <time>2016-07-19T08:12:52.000Z</time>
      </trkpt>
      <trkpt lat="44.31295" lon="6.35117">
        <ele>1484</ele>
        <time>2016-07-19T08:13:02.000Z</time>
      </trkpt>
      <trkpt lat="44.31285" lon="6.35116">
        <ele>1483.1999511719</ele>
        <time>2016-07-19T08:13:09.000Z</time>
      </trkpt>
      <trkpt lat="44.31281" lon="6.35117">
        <ele>1482.8000488281</ele>
        <time>2016-07-19T08:13:15.000Z</time>
      </trkpt>
      <trkpt lat="44.3128" lon="6.35117">
        <ele>1482.8000488281</ele>
        <time>2016-07-19T08:13:16.000Z</time>
      </trkpt>
      <trkpt lat="44.31277" lon="6.35118">
        <ele>1482.1999511719</ele>
        <time>2016-07-19T08:13:19.000Z</time>
      </trkpt>
      <trkpt lat="44.31264" lon="6.35117">
        <ele>1481.5999755859</ele>
        <time>2016-07-19T08:13:28.000Z</time>
      </trkpt>
      <trkpt lat="44.31257" lon="6.35113">
        <ele>1481.8000488281</ele>
        <time>2016-07-19T08:13:35.000Z</time>
      </trkpt>
      <trkpt lat="44.31252" lon="6.35112">
        <ele>1481.5999755859</ele>
        <time>2016-07-19T08:13:48.000Z</time>
      </trkpt>
      <trkpt lat="44.31243" lon="6.3511">
        <ele>1481.1999511719</ele>
        <time>2016-07-19T08:13:55.000Z</time>
      </trkpt>
      <trkpt lat="44.31226" lon="6.35106">
        <ele>1480</ele>
        <time>2016-07-19T08:14:06.000Z</time>
      </trkpt>
      <trkpt lat="44.31213" lon="6.35104">
        <ele>1479</ele>
        <time>2016-07-19T08:14:15.000Z</time>
      </trkpt>
      <trkpt lat="44.31202" lon="6.35103">
        <ele>1478.1999511719</ele>
        <time>2016-07-19T08:14:22.000Z</time>
      </trkpt>
      <trkpt lat="44.3119" lon="6.35101">
        <ele>1477.1999511719</ele>
        <time>2016-07-19T08:14:30.000Z</time>
      </trkpt>
      <trkpt lat="44.31188" lon="6.351">
        <ele>1477</ele>
        <time>2016-07-19T08:14:32.000Z</time>
      </trkpt>
      <trkpt lat="44.31176" lon="6.35101">
        <ele>1475.5999755859</ele>
        <time>2016-07-19T08:14:40.000Z</time>
      </trkpt>
      <trkpt lat="44.31166" lon="6.35102">
        <ele>1474.4000244141</ele>
        <time>2016-07-19T08:14:47.000Z</time>
      </trkpt>
      <trkpt lat="44.31161" lon="6.35102">
        <ele>1473.8000488281</ele>
        <time>2016-07-19T08:14:52.000Z</time>
      </trkpt>
      <trkpt lat="44.31152" lon="6.35107">
        <ele>1472.1999511719</ele>
        <time>2016-07-19T08:14:59.000Z</time>
      </trkpt>
      <trkpt lat="44.31151" lon="6.35107">
        <ele>1472.1999511719</ele>
        <time>2016-07-19T08:15:00.000Z</time>
      </trkpt>
      <trkpt lat="44.3115" lon="6.35108">
        <ele>1472</ele>
        <time>2016-07-19T08:15:02.000Z</time>
      </trkpt>
      <trkpt lat="44.3114" lon="6.35111">
        <ele>1471.1999511719</ele>
        <time>2016-07-19T08:15:09.000Z</time>
      </trkpt>
      <trkpt lat="44.31129" lon="6.35115">
        <ele>1470</ele>
        <time>2016-07-19T08:15:16.000Z</time>
      </trkpt>
      <trkpt lat="44.31118" lon="6.35117">
        <ele>1469.1999511719</ele>
        <time>2016-07-19T08:15:24.000Z</time>
      </trkpt>
      <trkpt lat="44.31108" lon="6.35116">
        <ele>1469.5999755859</ele>
        <time>2016-07-19T08:15:31.000Z</time>
      </trkpt>
      <trkpt lat="44.31099" lon="6.35113">
        <ele>1470.8000488281</ele>
        <time>2016-07-19T08:15:37.000Z</time>
      </trkpt>
      <trkpt lat="44.31091" lon="6.35109">
        <ele>1472.1999511719</ele>
        <time>2016-07-19T08:15:44.000Z</time>
      </trkpt>
      <trkpt lat="44.31082" lon="6.35099">
        <ele>1474.4000244141</ele>
        <time>2016-07-19T08:15:53.000Z</time>
      </trkpt>
      <trkpt lat="44.31078" lon="6.35091">
        <ele>1475.8000488281</ele>
        <time>2016-07-19T08:15:58.000Z</time>
      </trkpt>
      <trkpt lat="44.31075" lon="6.35083">
        <ele>1477.1999511719</ele>
        <time>2016-07-19T08:16:03.000Z</time>
      </trkpt>
      <trkpt lat="44.31067" lon="6.35078">
        <ele>1478.5999755859</ele>
        <time>2016-07-19T08:16:10.000Z</time>
      </trkpt>
      <trkpt lat="44.31065" lon="6.35078">
        <ele>1478.8000488281</ele>
        <time>2016-07-19T08:16:12.000Z</time>
      </trkpt>
      <trkpt lat="44.31059" lon="6.35087">
        <ele>1478.1999511719</ele>
        <time>2016-07-19T08:16:19.000Z</time>
      </trkpt>
      <trkpt lat="44.31055" lon="6.35097">
        <ele>1476.8000488281</ele>
        <time>2016-07-19T08:16:26.000Z</time>
      </trkpt>
      <trkpt lat="44.31051" lon="6.35106">
        <ele>1475.1999511719</ele>
        <time>2016-07-19T08:16:31.000Z</time>
      </trkpt>
      <trkpt lat="44.31049" lon="6.35108">
        <ele>1474.8000488281</ele>
        <time>2016-07-19T08:16:33.000Z</time>
      </trkpt>
      <trkpt lat="44.31044" lon="6.35113">
        <ele>1474</ele>
        <time>2016-07-19T08:16:38.000Z</time>
      </trkpt>
      <trkpt lat="44.31042" lon="6.35114">
        <ele>1474</ele>
        <time>2016-07-19T08:16:40.000Z</time>
      </trkpt>
      <trkpt lat="44.31037" lon="6.3512">
        <ele>1473.1999511719</ele>
        <time>2016-07-19T08:16:46.000Z</time>
      </trkpt>
      <trkpt lat="44.31031" lon="6.35124">
        <ele>1472.5999755859</ele>
        <time>2016-07-19T08:16:52.000Z</time>
      </trkpt>
      <trkpt lat="44.31028" lon="6.35126">
        <ele>1472.4000244141</ele>
        <time>2016-07-19T08:16:57.000Z</time>
      </trkpt>
      <trkpt lat="44.31019" lon="6.35131">
        <ele>1472.1999511719</ele>
        <time>2016-07-19T08:17:04.000Z</time>
      </trkpt>
      <trkpt lat="44.31016" lon="6.35134">
        <ele>1472</ele>
        <time>2016-07-19T08:17:08.000Z</time>
      </trkpt>
      <trkpt lat="44.31004" lon="6.3514">
        <ele>1470</ele>
        <time>2016-07-19T08:17:16.000Z</time>
      </trkpt>
      <trkpt lat="44.30992" lon="6.35145">
        <ele>1468.8000488281</ele>
        <time>2016-07-19T08:17:24.000Z</time>
      </trkpt>
      <trkpt lat="44.3098" lon="6.35148">
        <ele>1468</ele>
        <time>2016-07-19T08:17:33.000Z</time>
      </trkpt>
      <trkpt lat="44.30973" lon="6.35147">
        <ele>1468</ele>
        <time>2016-07-19T08:17:38.000Z</time>
      </trkpt>
      <trkpt lat="44.30968" lon="6.35149">
        <ele>1467.8000488281</ele>
        <time>2016-07-19T08:17:42.000Z</time>
      </trkpt>
      <trkpt lat="44.30965" lon="6.35151">
        <ele>1467.5999755859</ele>
        <time>2016-07-19T08:17:50.000Z</time>
      </trkpt>
      <trkpt lat="44.3096" lon="6.35156">
        <ele>1467.1999511719</ele>
        <time>2016-07-19T08:17:59.000Z</time>
      </trkpt>
      <trkpt lat="44.30958" lon="6.35157">
        <ele>1467.1999511719</ele>
        <time>2016-07-19T08:18:00.000Z</time>
      </trkpt>
      <trkpt lat="44.30948" lon="6.35162">
        <ele>1465.4000244141</ele>
        <time>2016-07-19T08:18:09.000Z</time>
      </trkpt>
      <trkpt lat="44.30937" lon="6.35163">
        <ele>1465</ele>
        <time>2016-07-19T08:18:16.000Z</time>
      </trkpt>
      <trkpt lat="44.30928" lon="6.35163">
        <ele>1465.1999511719</ele>
        <time>2016-07-19T08:18:22.000Z</time>
      </trkpt>
      <trkpt lat="44.30916" lon="6.35163">
        <ele>1465.4000244141</ele>
        <time>2016-07-19T08:18:30.000Z</time>
      </trkpt>
      <trkpt lat="44.30907" lon="6.35163">
        <ele>1465.4000244141</ele>
        <time>2016-07-19T08:18:36.000Z</time>
      </trkpt>
      <trkpt lat="44.30901" lon="6.35163">
        <ele>1465.5999755859</ele>
        <time>2016-07-19T08:18:41.000Z</time>
      </trkpt>
      <trkpt lat="44.30896" lon="6.35163">
        <ele>1465.5999755859</ele>
        <time>2016-07-19T08:18:49.000Z</time>
      </trkpt>
      <trkpt lat="44.30888" lon="6.35164">
        <ele>1465.5999755859</ele>
        <time>2016-07-19T08:18:56.000Z</time>
      </trkpt>
      <trkpt lat="44.30874" lon="6.3516">
        <ele>1466.5999755859</ele>
        <time>2016-07-19T08:19:06.000Z</time>
      </trkpt>
      <trkpt lat="44.3087" lon="6.35158">
        <ele>1467</ele>
        <time>2016-07-19T08:19:09.000Z</time>
      </trkpt>
      <trkpt lat="44.30865" lon="6.35156">
        <ele>1467.4000244141</ele>
        <time>2016-07-19T08:19:13.000Z</time>
      </trkpt>
      <trkpt lat="44.30855" lon="6.35151">
        <ele>1469</ele>
        <time>2016-07-19T08:19:21.000Z</time>
      </trkpt>
      <trkpt lat="44.30849" lon="6.3515">
        <ele>1469.5999755859</ele>
        <time>2016-07-19T08:19:26.000Z</time>
      </trkpt>
      <trkpt lat="44.3084" lon="6.35154">
        <ele>1469.5999755859</ele>
        <time>2016-07-19T08:19:33.000Z</time>
      </trkpt>
      <trkpt lat="44.30833" lon="6.35157">
        <ele>1469.4000244141</ele>
        <time>2016-07-19T08:19:39.000Z</time>
      </trkpt>
      <trkpt lat="44.30831" lon="6.35158">
        <ele>1469.4000244141</ele>
        <time>2016-07-19T08:19:40.000Z</time>
      </trkpt>
      <trkpt lat="44.30821" lon="6.35159">
        <ele>1470</ele>
        <time>2016-07-19T08:19:48.000Z</time>
      </trkpt>
      <trkpt lat="44.3081" lon="6.35161">
        <ele>1470.4000244141</ele>
        <time>2016-07-19T08:19:56.000Z</time>
      </trkpt>
      <trkpt lat="44.30798" lon="6.35167">
        <ele>1470.1999511719</ele>
        <time>2016-07-19T08:20:05.000Z</time>
      </trkpt>
      <trkpt lat="44.30788" lon="6.35175">
        <ele>1469</ele>
        <time>2016-07-19T08:20:13.000Z</time>
      </trkpt>
      <trkpt lat="44.30782" lon="6.35179">
        <ele>1468.4000244141</ele>
        <time>2016-07-19T08:20:18.000Z</time>
      </trkpt>
      <trkpt lat="44.30775" lon="6.35186">
        <ele>1467.1999511719</ele>
        <time>2016-07-19T08:20:25.000Z</time>
      </trkpt>
      <trkpt lat="44.30765" lon="6.35193">
        <ele>1465.5999755859</ele>
        <time>2016-07-19T08:20:33.000Z</time>
      </trkpt>
      <trkpt lat="44.30757" lon="6.35195">
        <ele>1465.1999511719</ele>
        <time>2016-07-19T08:20:39.000Z</time>
      </trkpt>
      <trkpt lat="44.30756" lon="6.35195">
        <ele>1465.1999511719</ele>
        <time>2016-07-19T08:20:40.000Z</time>
      </trkpt>
      <trkpt lat="44.30751" lon="6.35196">
        <ele>1465</ele>
        <time>2016-07-19T08:20:44.000Z</time>
      </trkpt>
      <trkpt lat="44.30748" lon="6.35194">
        <ele>1465.4000244141</ele>
        <time>2016-07-19T08:20:50.000Z</time>
      </trkpt>
      <trkpt lat="44.30743" lon="6.3519">
        <ele>1466.4000244141</ele>
        <time>2016-07-19T08:21:02.000Z</time>
      </trkpt>
      <trkpt lat="44.30733" lon="6.3519">
        <ele>1467.1999511719</ele>
        <time>2016-07-19T08:21:10.000Z</time>
      </trkpt>
      <trkpt lat="44.30723" lon="6.35191">
        <ele>1468.4000244141</ele>
        <time>2016-07-19T08:21:18.000Z</time>
      </trkpt>
      <trkpt lat="44.30712" lon="6.35191">
        <ele>1469.8000488281</ele>
        <time>2016-07-19T08:21:26.000Z</time>
      </trkpt>
      <trkpt lat="44.30695" lon="6.35187">
        <ele>1472.1999511719</ele>
        <time>2016-07-19T08:21:37.000Z</time>
      </trkpt>
      <trkpt lat="44.30681" lon="6.35178">
        <ele>1473.4000244141</ele>
        <time>2016-07-19T08:21:48.000Z</time>
      </trkpt>
      <trkpt lat="44.30674" lon="6.35168">
        <ele>1474.4000244141</ele>
        <time>2016-07-19T08:22:08.000Z</time>
      </trkpt>
      <trkpt lat="44.3067" lon="6.35163">
        <ele>1474.8000488281</ele>
        <time>2016-07-19T08:22:18.000Z</time>
      </trkpt>
      <trkpt lat="44.3067" lon="6.35162">
        <ele>1475</ele>
        <time>2016-07-19T08:22:26.000Z</time>
      </trkpt>
      <trkpt lat="44.30672" lon="6.35166">
        <ele>1474.5999755859</ele>
        <time>2016-07-19T08:22:43.000Z</time>
      </trkpt>
      <trkpt lat="44.30677" lon="6.35167">
        <ele>1474.4000244141</ele>
        <time>2016-07-19T08:22:48.000Z</time>
      </trkpt>
      <trkpt lat="44.30678" lon="6.35166">
        <ele>1474.4000244141</ele>
        <time>2016-07-19T08:22:58.000Z</time>
      </trkpt>
      <trkpt lat="44.30677" lon="6.35163">
        <ele>1474.5999755859</ele>
        <time>2016-07-19T08:23:07.000Z</time>
      </trkpt>
      <trkpt lat="44.30676" lon="6.35164">
        <ele>1474.5999755859</ele>
        <time>2016-07-19T08:23:21.000Z</time>
      </trkpt>
      <trkpt lat="44.3068" lon="6.35163">
        <ele>1474.5999755859</ele>
        <time>2016-07-19T08:24:57.000Z</time>
      </trkpt>
      <trkpt lat="44.3068" lon="6.35151">
        <ele>1475.4000244141</ele>
        <time>2016-07-19T08:25:04.000Z</time>
      </trkpt>
      <trkpt lat="44.30679" lon="6.35149">
        <ele>1475.5999755859</ele>
        <time>2016-07-19T08:25:11.000Z</time>
      </trkpt>
      <trkpt lat="44.30679" lon="6.3515">
        <ele>1475.4000244141</ele>
        <time>2016-07-19T08:25:35.000Z</time>
      </trkpt>
      <trkpt lat="44.30679" lon="6.35155">
        <ele>1475.1999511719</ele>
        <time>2016-07-19T08:25:59.000Z</time>
      </trkpt>
      <trkpt lat="44.30679" lon="6.35156">
        <ele>1475</ele>
        <time>2016-07-19T08:26:00.000Z</time>
      </trkpt>
      <trkpt lat="44.30677" lon="6.35165">
        <ele>1474.4000244141</ele>
        <time>2016-07-19T08:26:08.000Z</time>
      </trkpt>
      <trkpt lat="44.30676" lon="6.35168">
        <ele>1474.4000244141</ele>
        <time>2016-07-19T08:26:18.000Z</time>
      </trkpt>
      <trkpt lat="44.30672" lon="6.35168">
        <ele>1474.4000244141</ele>
        <time>2016-07-19T08:26:22.000Z</time>
      </trkpt>
      <trkpt lat="44.30676" lon="6.35172">
        <ele>1474</ele>
        <time>2016-07-19T08:26:29.000Z</time>
      </trkpt>
      <trkpt lat="44.30678" lon="6.35177">
        <ele>1473.5999755859</ele>
        <time>2016-07-19T08:26:35.000Z</time>
      </trkpt>
      <trkpt lat="44.30677" lon="6.35171">
        <ele>1474</ele>
        <time>2016-07-19T08:26:53.000Z</time>
      </trkpt>
      <trkpt lat="44.30676" lon="6.3517">
        <ele>1474.1999511719</ele>
        <time>2016-07-19T08:26:54.000Z</time>
      </trkpt>
      <trkpt lat="44.30675" lon="6.35163">
        <ele>1474.5999755859</ele>
        <time>2016-07-19T08:27:01.000Z</time>
      </trkpt>
      <trkpt lat="44.30674" lon="6.35161">
        <ele>1474.8000488281</ele>
        <time>2016-07-19T08:27:06.000Z</time>
      </trkpt>
      <trkpt lat="44.30672" lon="6.35165">
        <ele>1474.5999755859</ele>
        <time>2016-07-19T08:27:16.000Z</time>
      </trkpt>
      <trkpt lat="44.30671" lon="6.35166">
        <ele>1474.5999755859</ele>
        <time>2016-07-19T08:27:23.000Z</time>
      </trkpt>
      <trkpt lat="44.30673" lon="6.35163">
        <ele>1474.8000488281</ele>
        <time>2016-07-19T08:27:55.000Z</time>
      </trkpt>
      <trkpt lat="44.30675" lon="6.35161">
        <ele>1474.8000488281</ele>
        <time>2016-07-19T08:27:57.000Z</time>
      </trkpt>
      <trkpt lat="44.30676" lon="6.35161">
        <ele>1474.8000488281</ele>
        <time>2016-07-19T08:28:04.000Z</time>
      </trkpt>
      <trkpt lat="44.30679" lon="6.3516">
        <ele>1474.8000488281</ele>
        <time>2016-07-19T08:28:27.000Z</time>
      </trkpt>
      <trkpt lat="44.30677" lon="6.35164">
        <ele>1474.5999755859</ele>
        <time>2016-07-19T08:28:31.000Z</time>
      </trkpt>
      <trkpt lat="44.30668" lon="6.35159">
        <ele>1475.1999511719</ele>
        <time>2016-07-19T08:28:39.000Z</time>
      </trkpt>
      <trkpt lat="44.30667" lon="6.35157">
        <ele>1475.4000244141</ele>
        <time>2016-07-19T08:28:40.000Z</time>
      </trkpt>
      <trkpt lat="44.30661" lon="6.35145">
        <ele>1476.4000244141</ele>
        <time>2016-07-19T08:28:48.000Z</time>
      </trkpt>
      <trkpt lat="44.30651" lon="6.3513">
        <ele>1476.8000488281</ele>
        <time>2016-07-19T08:28:58.000Z</time>
      </trkpt>
      <trkpt lat="44.3064" lon="6.35115">
        <ele>1477.4000244141</ele>
        <time>2016-07-19T08:29:09.000Z</time>
      </trkpt>
      <trkpt lat="44.30631" lon="6.35111">
        <ele>1477.8000488281</ele>
        <time>2016-07-19T08:29:15.000Z</time>
      </trkpt>
      <trkpt lat="44.3062" lon="6.35108">
        <ele>1478.1999511719</ele>
        <time>2016-07-19T08:29:23.000Z</time>
      </trkpt>
      <trkpt lat="44.30609" lon="6.35105">
        <ele>1477.8000488281</ele>
        <time>2016-07-19T08:29:31.000Z</time>
      </trkpt>
      <trkpt lat="44.30605" lon="6.35106">
        <ele>1477.1999511719</ele>
        <time>2016-07-19T08:29:34.000Z</time>
      </trkpt>
      <trkpt lat="44.30596" lon="6.35106">
        <ele>1475.5999755859</ele>
        <time>2016-07-19T08:29:41.000Z</time>
      </trkpt>
      <trkpt lat="44.30586" lon="6.35105">
        <ele>1473.8000488281</ele>
        <time>2016-07-19T08:29:49.000Z</time>
      </trkpt>
      <trkpt lat="44.30573" lon="6.35102">
        <ele>1471.5999755859</ele>
        <time>2016-07-19T08:29:57.000Z</time>
      </trkpt>
      <trkpt lat="44.30563" lon="6.35099">
        <ele>1470.4000244141</ele>
        <time>2016-07-19T08:30:04.000Z</time>
      </trkpt>
      <trkpt lat="44.30552" lon="6.35094">
        <ele>1469.4000244141</ele>
        <time>2016-07-19T08:30:12.000Z</time>
      </trkpt>
      <trkpt lat="44.30541" lon="6.35093">
        <ele>1469</ele>
        <time>2016-07-19T08:30:19.000Z</time>
      </trkpt>
      <trkpt lat="44.30525" lon="6.3509">
        <ele>1468.4000244141</ele>
        <time>2016-07-19T08:30:29.000Z</time>
      </trkpt>
      <trkpt lat="44.30512" lon="6.35083">
        <ele>1468</ele>
        <time>2016-07-19T08:30:37.000Z</time>
      </trkpt>
      <trkpt lat="44.30504" lon="6.35079">
        <ele>1467.5999755859</ele>
        <time>2016-07-19T08:30:43.000Z</time>
      </trkpt>
      <trkpt lat="44.30495" lon="6.35071">
        <ele>1466.8000488281</ele>
        <time>2016-07-19T08:30:50.000Z</time>
      </trkpt>
      <trkpt lat="44.30486" lon="6.35063">
        <ele>1466.4000244141</ele>
        <time>2016-07-19T08:30:59.000Z</time>
      </trkpt>
      <trkpt lat="44.3048" lon="6.35053">
        <ele>1470</ele>
        <time>2016-07-19T08:31:06.000Z</time>
      </trkpt>
      <trkpt lat="44.30474" lon="6.35044">
        <ele>1473.1999511719</ele>
        <time>2016-07-19T08:31:14.000Z</time>
      </trkpt>
      <trkpt lat="44.30468" lon="6.35048">
        <ele>1471.8000488281</ele>
        <time>2016-07-19T08:31:20.000Z</time>
      </trkpt>
      <trkpt lat="44.30459" lon="6.3506">
        <ele>1468</ele>
        <time>2016-07-19T08:31:29.000Z</time>
      </trkpt>
      <trkpt lat="44.30455" lon="6.35066">
        <ele>1467</ele>
        <time>2016-07-19T08:31:34.000Z</time>
      </trkpt>
      <trkpt lat="44.30451" lon="6.3507">
        <ele>1467.1999511719</ele>
        <time>2016-07-19T08:31:40.000Z</time>
      </trkpt>
      <trkpt lat="44.30444" lon="6.35076">
        <ele>1465.8000488281</ele>
        <time>2016-07-19T08:31:46.000Z</time>
      </trkpt>
      <trkpt lat="44.30436" lon="6.35083">
        <ele>1466.5999755859</ele>
        <time>2016-07-19T08:31:53.000Z</time>
      </trkpt>
      <trkpt lat="44.30429" lon="6.35087">
        <ele>1467.5999755859</ele>
        <time>2016-07-19T08:32:00.000Z</time>
      </trkpt>
      <trkpt lat="44.3042" lon="6.35095">
        <ele>1468.1999511719</ele>
        <time>2016-07-19T08:32:08.000Z</time>
      </trkpt>
      <trkpt lat="44.30408" lon="6.35105">
        <ele>1469.4000244141</ele>
        <time>2016-07-19T08:32:18.000Z</time>
      </trkpt>
      <trkpt lat="44.304" lon="6.3511">
        <ele>1468.5999755859</ele>
        <time>2016-07-19T08:32:25.000Z</time>
      </trkpt>
      <trkpt lat="44.30389" lon="6.35117">
        <ele>1466.5999755859</ele>
        <time>2016-07-19T08:32:34.000Z</time>
      </trkpt>
      <trkpt lat="44.30379" lon="6.35123">
        <ele>1464.8000488281</ele>
        <time>2016-07-19T08:32:42.000Z</time>
      </trkpt>
      <trkpt lat="44.30368" lon="6.3513">
        <ele>1463</ele>
        <time>2016-07-19T08:32:51.000Z</time>
      </trkpt>
      <trkpt lat="44.30357" lon="6.35135">
        <ele>1462</ele>
        <time>2016-07-19T08:33:00.000Z</time>
      </trkpt>
      <trkpt lat="44.3035" lon="6.35138">
        <ele>1461.8000488281</ele>
        <time>2016-07-19T08:33:06.000Z</time>
      </trkpt>
      <trkpt lat="44.3034" lon="6.35147">
        <ele>1461</ele>
        <time>2016-07-19T08:33:16.000Z</time>
      </trkpt>
      <trkpt lat="44.30327" lon="6.35158">
        <ele>1459.4000244141</ele>
        <time>2016-07-19T08:33:27.000Z</time>
      </trkpt>
      <trkpt lat="44.30312" lon="6.35168">
        <ele>1458.8000488281</ele>
        <time>2016-07-19T08:33:38.000Z</time>
      </trkpt>
      <trkpt lat="44.30303" lon="6.35173">
        <ele>1458.8000488281</ele>
        <time>2016-07-19T08:33:46.000Z</time>
      </trkpt>
      <trkpt lat="44.30298" lon="6.35174">
        <ele>1458.1999511719</ele>
        <time>2016-07-19T08:33:51.000Z</time>
      </trkpt>
      <trkpt lat="44.30288" lon="6.35179">
        <ele>1457</ele>
        <time>2016-07-19T08:34:00.000Z</time>
      </trkpt>
      <trkpt lat="44.30277" lon="6.35182">
        <ele>1456</ele>
        <time>2016-07-19T08:34:08.000Z</time>
      </trkpt>
      <trkpt lat="44.30267" lon="6.35184">
        <ele>1454.8000488281</ele>
        <time>2016-07-19T08:34:16.000Z</time>
      </trkpt>
      <trkpt lat="44.30255" lon="6.35187">
        <ele>1452.5999755859</ele>
        <time>2016-07-19T08:34:24.000Z</time>
      </trkpt>
      <trkpt lat="44.30247" lon="6.35188">
        <ele>1451.4000244141</ele>
        <time>2016-07-19T08:34:31.000Z</time>
      </trkpt>
      <trkpt lat="44.30237" lon="6.35188">
        <ele>1450.8000488281</ele>
        <time>2016-07-19T08:34:38.000Z</time>
      </trkpt>
      <trkpt lat="44.30221" lon="6.35189">
        <ele>1451</ele>
        <time>2016-07-19T08:34:49.000Z</time>
      </trkpt>
      <trkpt lat="44.30208" lon="6.35187">
        <ele>1451.8000488281</ele>
        <time>2016-07-19T08:34:59.000Z</time>
      </trkpt>
      <trkpt lat="44.30198" lon="6.35184">
        <ele>1453</ele>
        <time>2016-07-19T08:35:06.000Z</time>
      </trkpt>
      <trkpt lat="44.30185" lon="6.35176">
        <ele>1453</ele>
        <time>2016-07-19T08:35:16.000Z</time>
      </trkpt>
      <trkpt lat="44.30172" lon="6.35169">
        <ele>1452.1999511719</ele>
        <time>2016-07-19T08:35:26.000Z</time>
      </trkpt>
      <trkpt lat="44.30161" lon="6.3516">
        <ele>1452.4000244141</ele>
        <time>2016-07-19T08:35:35.000Z</time>
      </trkpt>
      <trkpt lat="44.30152" lon="6.35147">
        <ele>1454.8000488281</ele>
        <time>2016-07-19T08:35:44.000Z</time>
      </trkpt>
      <trkpt lat="44.30145" lon="6.35128">
        <ele>1458.8000488281</ele>
        <time>2016-07-19T08:35:55.000Z</time>
      </trkpt>
      <trkpt lat="44.30134" lon="6.35113">
        <ele>1461.4000244141</ele>
        <time>2016-07-19T08:36:06.000Z</time>
      </trkpt>
      <trkpt lat="44.30121" lon="6.35107">
        <ele>1460.4000244141</ele>
        <time>2016-07-19T08:36:16.000Z</time>
      </trkpt>
      <trkpt lat="44.3011" lon="6.35103">
        <ele>1459</ele>
        <time>2016-07-19T08:36:24.000Z</time>
      </trkpt>
      <trkpt lat="44.301" lon="6.35096">
        <ele>1458.1999511719</ele>
        <time>2016-07-19T08:36:32.000Z</time>
      </trkpt>
      <trkpt lat="44.3009" lon="6.35086">
        <ele>1458.5999755859</ele>
        <time>2016-07-19T08:36:41.000Z</time>
      </trkpt>
      <trkpt lat="44.30081" lon="6.35072">
        <ele>1460.4000244141</ele>
        <time>2016-07-19T08:36:51.000Z</time>
      </trkpt>
      <trkpt lat="44.30076" lon="6.35063">
        <ele>1461.5999755859</ele>
        <time>2016-07-19T08:36:57.000Z</time>
      </trkpt>
      <trkpt lat="44.30068" lon="6.3505">
        <ele>1463.1999511719</ele>
        <time>2016-07-19T08:37:11.000Z</time>
      </trkpt>
      <trkpt lat="44.30066" lon="6.35045">
        <ele>1464.4000244141</ele>
        <time>2016-07-19T08:37:14.000Z</time>
      </trkpt>
      <trkpt lat="44.30064" lon="6.35026">
        <ele>1469.4000244141</ele>
        <time>2016-07-19T08:37:24.000Z</time>
      </trkpt>
      <trkpt lat="44.30064" lon="6.35022">
        <ele>1470.1999511719</ele>
        <time>2016-07-19T08:37:28.000Z</time>
      </trkpt>
      <trkpt lat="44.3006" lon="6.35013">
        <ele>1472.1999511719</ele>
        <time>2016-07-19T08:37:34.000Z</time>
      </trkpt>
      <trkpt lat="44.30048" lon="6.35004">
        <ele>1471.4000244141</ele>
        <time>2016-07-19T08:37:44.000Z</time>
      </trkpt>
      <trkpt lat="44.30039" lon="6.34997">
        <ele>1470.8000488281</ele>
        <time>2016-07-19T08:37:53.000Z</time>
      </trkpt>
      <trkpt lat="44.30035" lon="6.34991">
        <ele>1471.4000244141</ele>
        <time>2016-07-19T08:38:00.000Z</time>
      </trkpt>
      <trkpt lat="44.30028" lon="6.34981">
        <ele>1472.1999511719</ele>
        <time>2016-07-19T08:38:08.000Z</time>
      </trkpt>
      <trkpt lat="44.30021" lon="6.34975">
        <ele>1471</ele>
        <time>2016-07-19T08:38:14.000Z</time>
      </trkpt>
      <trkpt lat="44.3001" lon="6.34968">
        <ele>1468.8000488281</ele>
        <time>2016-07-19T08:38:22.000Z</time>
      </trkpt>
      <trkpt lat="44.30003" lon="6.34958">
        <ele>1468</ele>
        <time>2016-07-19T08:38:30.000Z</time>
      </trkpt>
      <trkpt lat="44.29997" lon="6.34945">
        <ele>1468.8000488281</ele>
        <time>2016-07-19T08:38:38.000Z</time>
      </trkpt>
      <trkpt lat="44.29991" lon="6.34932">
        <ele>1469.4000244141</ele>
        <time>2016-07-19T08:38:46.000Z</time>
      </trkpt>
      <trkpt lat="44.29982" lon="6.34923">
        <ele>1467.8000488281</ele>
        <time>2016-07-19T08:38:54.000Z</time>
      </trkpt>
      <trkpt lat="44.29971" lon="6.34913">
        <ele>1465.8000488281</ele>
        <time>2016-07-19T08:39:03.000Z</time>
      </trkpt>
      <trkpt lat="44.29965" lon="6.34899">
        <ele>1467.1999511719</ele>
        <time>2016-07-19T08:39:11.000Z</time>
      </trkpt>
      <trkpt lat="44.29966" lon="6.34882">
        <ele>1470.1999511719</ele>
        <time>2016-07-19T08:39:20.000Z</time>
      </trkpt>
      <trkpt lat="44.29969" lon="6.34872">
        <ele>1473</ele>
        <time>2016-07-19T08:39:26.000Z</time>
      </trkpt>
      <trkpt lat="44.29977" lon="6.34855">
        <ele>1479</ele>
        <time>2016-07-19T08:39:36.000Z</time>
      </trkpt>
      <trkpt lat="44.29983" lon="6.34839">
        <ele>1483.4000244141</ele>
        <time>2016-07-19T08:39:45.000Z</time>
      </trkpt>
      <trkpt lat="44.2998" lon="6.34826">
        <ele>1484</ele>
        <time>2016-07-19T08:39:52.000Z</time>
      </trkpt>
      <trkpt lat="44.29957" lon="6.34811">
        <ele>1477.1999511719</ele>
        <time>2016-07-19T08:40:10.000Z</time>
      </trkpt>
      <trkpt lat="44.29946" lon="6.34802">
        <ele>1474.8000488281</ele>
        <time>2016-07-19T08:40:19.000Z</time>
      </trkpt>
      <trkpt lat="44.29937" lon="6.34793">
        <ele>1472.5999755859</ele>
        <time>2016-07-19T08:40:27.000Z</time>
      </trkpt>
      <trkpt lat="44.29927" lon="6.34783">
        <ele>1470</ele>
        <time>2016-07-19T08:40:36.000Z</time>
      </trkpt>
      <trkpt lat="44.29917" lon="6.34776">
        <ele>1467.1999511719</ele>
        <time>2016-07-19T08:40:44.000Z</time>
      </trkpt>
      <trkpt lat="44.29908" lon="6.34766">
        <ele>1465.1999511719</ele>
        <time>2016-07-19T08:40:52.000Z</time>
      </trkpt>
      <trkpt lat="44.29906" lon="6.34752">
        <ele>1466.8000488281</ele>
        <time>2016-07-19T08:40:59.000Z</time>
      </trkpt>
      <trkpt lat="44.29913" lon="6.34733">
        <ele>1472.5999755859</ele>
        <time>2016-07-19T08:41:09.000Z</time>
      </trkpt>
      <trkpt lat="44.29925" lon="6.34724">
        <ele>1476.8000488281</ele>
        <time>2016-07-19T08:41:18.000Z</time>
      </trkpt>
      <trkpt lat="44.29938" lon="6.34717">
        <ele>1481.1999511719</ele>
        <time>2016-07-19T08:41:28.000Z</time>
      </trkpt>
      <trkpt lat="44.29948" lon="6.34713">
        <ele>1483.1999511719</ele>
        <time>2016-07-19T08:41:35.000Z</time>
      </trkpt>
      <trkpt lat="44.29949" lon="6.34712">
        <ele>1483.1999511719</ele>
        <time>2016-07-19T08:41:43.000Z</time>
      </trkpt>
      <trkpt lat="44.29948" lon="6.3471">
        <ele>1482.5999755859</ele>
        <time>2016-07-19T08:41:49.000Z</time>
      </trkpt>
      <trkpt lat="44.29948" lon="6.34711">
        <ele>1482.8000488281</ele>
        <time>2016-07-19T08:41:53.000Z</time>
      </trkpt>
      <trkpt lat="44.29947" lon="6.3471">
        <ele>1482.4000244141</ele>
        <time>2016-07-19T08:42:05.000Z</time>
      </trkpt>
      <trkpt lat="44.29947" lon="6.34709">
        <ele>1482.1999511719</ele>
        <time>2016-07-19T08:42:18.000Z</time>
      </trkpt>
      <trkpt lat="44.29948" lon="6.34709">
        <ele>1482.5999755859</ele>
        <time>2016-07-19T08:42:25.000Z</time>
      </trkpt>
      <trkpt lat="44.29946" lon="6.34707">
        <ele>1481.8000488281</ele>
        <time>2016-07-19T08:42:29.000Z</time>
      </trkpt>
      <trkpt lat="44.29947" lon="6.34704">
        <ele>1481.1999511719</ele>
        <time>2016-07-19T08:43:16.000Z</time>
      </trkpt>
      <trkpt lat="44.29948" lon="6.34702">
        <ele>1481.1999511719</ele>
        <time>2016-07-19T08:43:22.000Z</time>
      </trkpt>
      <trkpt lat="44.29946" lon="6.34705">
        <ele>1481</ele>
        <time>2016-07-19T08:43:45.000Z</time>
      </trkpt>
      <trkpt lat="44.29945" lon="6.34706">
        <ele>1481.1999511719</ele>
        <time>2016-07-19T08:43:55.000Z</time>
      </trkpt>
      <trkpt lat="44.29944" lon="6.34707">
        <ele>1480.8000488281</ele>
        <time>2016-07-19T08:44:03.000Z</time>
      </trkpt>
      <trkpt lat="44.29943" lon="6.34708">
        <ele>1481</ele>
        <time>2016-07-19T08:44:26.000Z</time>
      </trkpt>
      <trkpt lat="44.29943" lon="6.34705">
        <ele>1480.1999511719</ele>
        <time>2016-07-19T08:44:40.000Z</time>
      </trkpt>
      <trkpt lat="44.29943" lon="6.347">
        <ele>1479.4000244141</ele>
        <time>2016-07-19T08:46:29.000Z</time>
      </trkpt>
      <trkpt lat="44.29943" lon="6.34702">
        <ele>1479.8000488281</ele>
        <time>2016-07-19T08:46:43.000Z</time>
      </trkpt>
      <trkpt lat="44.29942" lon="6.34701">
        <ele>1479.1999511719</ele>
        <time>2016-07-19T08:46:59.000Z</time>
      </trkpt>
      <trkpt lat="44.29941" lon="6.34702">
        <ele>1479.1999511719</ele>
        <time>2016-07-19T08:47:13.000Z</time>
      </trkpt>
      <trkpt lat="44.29941" lon="6.34701">
        <ele>1478.8000488281</ele>
        <time>2016-07-19T08:47:45.000Z</time>
      </trkpt>
      <trkpt lat="44.29943" lon="6.34701">
        <ele>1479.5999755859</ele>
        <time>2016-07-19T08:48:04.000Z</time>
      </trkpt>
      <trkpt lat="44.29946" lon="6.34701">
        <ele>1480.4000244141</ele>
        <time>2016-07-19T08:48:12.000Z</time>
      </trkpt>
      <trkpt lat="44.29945" lon="6.34702">
        <ele>1480.5999755859</ele>
        <time>2016-07-19T08:48:21.000Z</time>
      </trkpt>
      <trkpt lat="44.29946" lon="6.34706">
        <ele>1481.4000244141</ele>
        <time>2016-07-19T08:48:31.000Z</time>
      </trkpt>
      <trkpt lat="44.29947" lon="6.34706">
        <ele>1481.8000488281</ele>
        <time>2016-07-19T08:48:42.000Z</time>
      </trkpt>
      <trkpt lat="44.29958" lon="6.34705">
        <ele>1484.4000244141</ele>
        <time>2016-07-19T08:48:51.000Z</time>
      </trkpt>
      <trkpt lat="44.29966" lon="6.34708">
        <ele>1487.1999511719</ele>
        <time>2016-07-19T08:48:57.000Z</time>
      </trkpt>
      <trkpt lat="44.29973" lon="6.34712">
        <ele>1490</ele>
        <time>2016-07-19T08:49:03.000Z</time>
      </trkpt>
      <trkpt lat="44.29989" lon="6.34717">
        <ele>1495.1999511719</ele>
        <time>2016-07-19T08:49:15.000Z</time>
      </trkpt>
      <trkpt lat="44.29998" lon="6.34716">
        <ele>1497.5999755859</ele>
        <time>2016-07-19T08:49:22.000Z</time>
      </trkpt>
      <trkpt lat="44.30005" lon="6.34709">
        <ele>1498.1999511719</ele>
        <time>2016-07-19T08:49:29.000Z</time>
      </trkpt>
      <trkpt lat="44.30009" lon="6.34695">
        <ele>1498</ele>
        <time>2016-07-19T08:49:37.000Z</time>
      </trkpt>
      <trkpt lat="44.30009" lon="6.34685">
        <ele>1496.8000488281</ele>
        <time>2016-07-19T08:49:43.000Z</time>
      </trkpt>
      <trkpt lat="44.30005" lon="6.34671">
        <ele>1493.8000488281</ele>
        <time>2016-07-19T08:49:51.000Z</time>
      </trkpt>
      <trkpt lat="44.30006" lon="6.34658">
        <ele>1492.5999755859</ele>
        <time>2016-07-19T08:49:59.000Z</time>
      </trkpt>
      <trkpt lat="44.30002" lon="6.34648">
        <ele>1490.4000244141</ele>
        <time>2016-07-19T08:50:05.000Z</time>
      </trkpt>
      <trkpt lat="44.29998" lon="6.34632">
        <ele>1490.1999511719</ele>
        <time>2016-07-19T08:50:14.000Z</time>
      </trkpt>
      <trkpt lat="44.29997" lon="6.34614">
        <ele>1491.1999511719</ele>
        <time>2016-07-19T08:50:23.000Z</time>
      </trkpt>
      <trkpt lat="44.30002" lon="6.34601">
        <ele>1493.5999755859</ele>
        <time>2016-07-19T08:50:31.000Z</time>
      </trkpt>
      <trkpt lat="44.30002" lon="6.34598">
        <ele>1494</ele>
        <time>2016-07-19T08:50:38.000Z</time>
      </trkpt>
      <trkpt lat="44.30002" lon="6.34597">
        <ele>1494</ele>
        <time>2016-07-19T08:50:47.000Z</time>
      </trkpt>
      <trkpt lat="44.30001" lon="6.34596">
        <ele>1493.5999755859</ele>
        <time>2016-07-19T08:50:52.000Z</time>
      </trkpt>
      <trkpt lat="44.30002" lon="6.34596">
        <ele>1494</ele>
        <time>2016-07-19T08:50:58.000Z</time>
      </trkpt>
      <trkpt lat="44.30001" lon="6.34597">
        <ele>1493.8000488281</ele>
        <time>2016-07-19T08:51:03.000Z</time>
      </trkpt>
      <trkpt lat="44.30002" lon="6.34594">
        <ele>1494</ele>
        <time>2016-07-19T08:51:07.000Z</time>
      </trkpt>
      <trkpt lat="44.30003" lon="6.34592">
        <ele>1494.5999755859</ele>
        <time>2016-07-19T08:51:20.000Z</time>
      </trkpt>
      <trkpt lat="44.30002" lon="6.34595">
        <ele>1494.1999511719</ele>
        <time>2016-07-19T08:51:23.000Z</time>
      </trkpt>
      <trkpt lat="44.30002" lon="6.34594">
        <ele>1494</ele>
        <time>2016-07-19T08:51:29.000Z</time>
      </trkpt>
      <trkpt lat="44.30002" lon="6.34593">
        <ele>1494.1999511719</ele>
        <time>2016-07-19T08:51:34.000Z</time>
      </trkpt>
      <trkpt lat="44.30002" lon="6.3459">
        <ele>1494.5999755859</ele>
        <time>2016-07-19T08:51:45.000Z</time>
      </trkpt>
      <trkpt lat="44.30003" lon="6.34589">
        <ele>1494.8000488281</ele>
        <time>2016-07-19T08:51:46.000Z</time>
      </trkpt>
      <trkpt lat="44.30005" lon="6.34592">
        <ele>1495.1999511719</ele>
        <time>2016-07-19T08:51:49.000Z</time>
      </trkpt>
      <trkpt lat="44.30005" lon="6.34591">
        <ele>1495.1999511719</ele>
        <time>2016-07-19T08:51:54.000Z</time>
      </trkpt>
      <trkpt lat="44.3001" lon="6.34588">
        <ele>1497</ele>
        <time>2016-07-19T08:51:59.000Z</time>
      </trkpt>
      <trkpt lat="44.30016" lon="6.34572">
        <ele>1499.8000488281</ele>
        <time>2016-07-19T08:52:09.000Z</time>
      </trkpt>
      <trkpt lat="44.3001" lon="6.34557">
        <ele>1500.4000244141</ele>
        <time>2016-07-19T08:52:17.000Z</time>
      </trkpt>
      <trkpt lat="44.29998" lon="6.34552">
        <ele>1497.8000488281</ele>
        <time>2016-07-19T08:52:26.000Z</time>
      </trkpt>
      <trkpt lat="44.29985" lon="6.34551">
        <ele>1493.8000488281</ele>
        <time>2016-07-19T08:52:35.000Z</time>
      </trkpt>
      <trkpt lat="44.29973" lon="6.34554">
        <ele>1489.4000244141</ele>
        <time>2016-07-19T08:52:43.000Z</time>
      </trkpt>
      <trkpt lat="44.29962" lon="6.34554">
        <ele>1485.8000488281</ele>
        <time>2016-07-19T08:52:51.000Z</time>
      </trkpt>
      <trkpt lat="44.29951" lon="6.34547">
        <ele>1484.1999511719</ele>
        <time>2016-07-19T08:53:00.000Z</time>
      </trkpt>
      <trkpt lat="44.29944" lon="6.34534">
        <ele>1485.4000244141</ele>
        <time>2016-07-19T08:53:08.000Z</time>
      </trkpt>
      <trkpt lat="44.29939" lon="6.34513">
        <ele>1490.1999511719</ele>
        <time>2016-07-19T08:53:19.000Z</time>
      </trkpt>
      <trkpt lat="44.29934" lon="6.34498">
        <ele>1492.8000488281</ele>
        <time>2016-07-19T08:53:28.000Z</time>
      </trkpt>
      <trkpt lat="44.29925" lon="6.34482">
        <ele>1494.8000488281</ele>
        <time>2016-07-19T08:53:38.000Z</time>
      </trkpt>
      <trkpt lat="44.29926" lon="6.34468">
        <ele>1499.5999755859</ele>
        <time>2016-07-19T08:53:45.000Z</time>
      </trkpt>
      <trkpt lat="44.29931" lon="6.34448">
        <ele>1505.5999755859</ele>
        <time>2016-07-19T08:53:55.000Z</time>
      </trkpt>
      <trkpt lat="44.29931" lon="6.34428">
        <ele>1509.8000488281</ele>
        <time>2016-07-19T08:54:05.000Z</time>
      </trkpt>
      <trkpt lat="44.29927" lon="6.34412">
        <ele>1512.8000488281</ele>
        <time>2016-07-19T08:54:14.000Z</time>
      </trkpt>
      <trkpt lat="44.29919" lon="6.34401">
        <ele>1514</ele>
        <time>2016-07-19T08:54:22.000Z</time>
      </trkpt>
      <trkpt lat="44.29921" lon="6.34397">
        <ele>1515.1999511719</ele>
        <time>2016-07-19T08:54:27.000Z</time>
      </trkpt>
      <trkpt lat="44.29922" lon="6.34397">
        <ele>1515.4000244141</ele>
        <time>2016-07-19T08:54:28.000Z</time>
      </trkpt>
      <trkpt lat="44.29923" lon="6.34398">
        <ele>1515.1999511719</ele>
        <time>2016-07-19T08:54:34.000Z</time>
      </trkpt>
      <trkpt lat="44.2992" lon="6.34398">
        <ele>1514.5999755859</ele>
        <time>2016-07-19T08:54:37.000Z</time>
      </trkpt>
      <trkpt lat="44.29906" lon="6.34392">
        <ele>1514.5999755859</ele>
        <time>2016-07-19T08:54:47.000Z</time>
      </trkpt>
      <trkpt lat="44.29891" lon="6.34391">
        <ele>1512.5999755859</ele>
        <time>2016-07-19T08:54:58.000Z</time>
      </trkpt>
      <trkpt lat="44.29875" lon="6.34393">
        <ele>1509.4000244141</ele>
        <time>2016-07-19T08:55:10.000Z</time>
      </trkpt>
      <trkpt lat="44.29867" lon="6.34392">
        <ele>1508.5999755859</ele>
        <time>2016-07-19T08:55:18.000Z</time>
      </trkpt>
      <trkpt lat="44.29862" lon="6.3439">
        <ele>1508.5999755859</ele>
        <time>2016-07-19T08:55:22.000Z</time>
      </trkpt>
      <trkpt lat="44.29855" lon="6.34388">
        <ele>1509.4000244141</ele>
        <time>2016-07-19T08:55:28.000Z</time>
      </trkpt>
      <trkpt lat="44.29846" lon="6.34385">
        <ele>1510.4000244141</ele>
        <time>2016-07-19T08:55:35.000Z</time>
      </trkpt>
      <trkpt lat="44.29839" lon="6.34375">
        <ele>1514.1999511719</ele>
        <time>2016-07-19T08:55:43.000Z</time>
      </trkpt>
      <trkpt lat="44.29834" lon="6.34356">
        <ele>1520.8000488281</ele>
        <time>2016-07-19T08:55:53.000Z</time>
      </trkpt>
      <trkpt lat="44.29827" lon="6.34345">
        <ele>1524.8000488281</ele>
        <time>2016-07-19T08:56:01.000Z</time>
      </trkpt>
      <trkpt lat="44.29817" lon="6.34335">
        <ele>1528.8000488281</ele>
        <time>2016-07-19T08:56:10.000Z</time>
      </trkpt>
      <trkpt lat="44.29807" lon="6.3433">
        <ele>1530.5999755859</ele>
        <time>2016-07-19T08:56:18.000Z</time>
      </trkpt>
      <trkpt lat="44.29794" lon="6.3433">
        <ele>1530.4000244141</ele>
        <time>2016-07-19T08:56:28.000Z</time>
      </trkpt>
      <trkpt lat="44.29781" lon="6.34333">
        <ele>1529</ele>
        <time>2016-07-19T08:56:37.000Z</time>
      </trkpt>
      <trkpt lat="44.29773" lon="6.34339">
        <ele>1527.5999755859</ele>
        <time>2016-07-19T08:56:44.000Z</time>
      </trkpt>
      <trkpt lat="44.29761" lon="6.3434">
        <ele>1528.5999755859</ele>
        <time>2016-07-19T08:56:53.000Z</time>
      </trkpt>
      <trkpt lat="44.29749" lon="6.34337">
        <ele>1531.1999511719</ele>
        <time>2016-07-19T08:57:02.000Z</time>
      </trkpt>
      <trkpt lat="44.29736" lon="6.34332">
        <ele>1534.5999755859</ele>
        <time>2016-07-19T08:57:12.000Z</time>
      </trkpt>
      <trkpt lat="44.29726" lon="6.34336">
        <ele>1534.5999755859</ele>
        <time>2016-07-19T08:57:20.000Z</time>
      </trkpt>
      <trkpt lat="44.29717" lon="6.3434">
        <ele>1533.5999755859</ele>
        <time>2016-07-19T08:57:27.000Z</time>
      </trkpt>
      <trkpt lat="44.29705" lon="6.34346">
        <ele>1533</ele>
        <time>2016-07-19T08:57:36.000Z</time>
      </trkpt>
      <trkpt lat="44.29697" lon="6.34346">
        <ele>1533.8000488281</ele>
        <time>2016-07-19T08:57:42.000Z</time>
      </trkpt>
      <trkpt lat="44.29696" lon="6.34343">
        <ele>1535</ele>
        <time>2016-07-19T08:57:44.000Z</time>
      </trkpt>
      <trkpt lat="44.29695" lon="6.3434">
        <ele>1536.5999755859</ele>
        <time>2016-07-19T08:57:46.000Z</time>
      </trkpt>
      <trkpt lat="44.29697" lon="6.34335">
        <ele>1537.8000488281</ele>
        <time>2016-07-19T08:57:48.000Z</time>
      </trkpt>
      <trkpt lat="44.29711" lon="6.34325">
        <ele>1540.1999511719</ele>
        <time>2016-07-19T08:58:00.000Z</time>
      </trkpt>
      <trkpt lat="44.2972" lon="6.34317">
        <ele>1542</ele>
        <time>2016-07-19T08:58:08.000Z</time>
      </trkpt>
      <trkpt lat="44.2973" lon="6.3431">
        <ele>1543.8000488281</ele>
        <time>2016-07-19T08:58:16.000Z</time>
      </trkpt>
      <trkpt lat="44.29742" lon="6.34307">
        <ele>1543.5999755859</ele>
        <time>2016-07-19T08:58:25.000Z</time>
      </trkpt>
      <trkpt lat="44.29752" lon="6.34306">
        <ele>1543.1999511719</ele>
        <time>2016-07-19T08:58:34.000Z</time>
      </trkpt>
      <trkpt lat="44.2976" lon="6.34303">
        <ele>1543.5999755859</ele>
        <time>2016-07-19T08:58:41.000Z</time>
      </trkpt>
      <trkpt lat="44.29769" lon="6.34296">
        <ele>1545.4000244141</ele>
        <time>2016-07-19T08:58:49.000Z</time>
      </trkpt>
      <trkpt lat="44.29774" lon="6.3429">
        <ele>1546.8000488281</ele>
        <time>2016-07-19T08:58:56.000Z</time>
      </trkpt>
      <trkpt lat="44.29784" lon="6.34283">
        <ele>1548.8000488281</ele>
        <time>2016-07-19T08:59:04.000Z</time>
      </trkpt>
      <trkpt lat="44.29793" lon="6.34279">
        <ele>1550.5999755859</ele>
        <time>2016-07-19T08:59:11.000Z</time>
      </trkpt>
      <trkpt lat="44.29802" lon="6.34272">
        <ele>1553.5999755859</ele>
        <time>2016-07-19T08:59:18.000Z</time>
      </trkpt>
      <trkpt lat="44.29811" lon="6.34268">
        <ele>1555.4000244141</ele>
        <time>2016-07-19T08:59:25.000Z</time>
      </trkpt>
      <trkpt lat="44.29824" lon="6.34269">
        <ele>1554.4000244141</ele>
        <time>2016-07-19T08:59:34.000Z</time>
      </trkpt>
      <trkpt lat="44.29835" lon="6.34265">
        <ele>1555.8000488281</ele>
        <time>2016-07-19T08:59:42.000Z</time>
      </trkpt>
      <trkpt lat="44.2985" lon="6.34264">
        <ele>1555.4000244141</ele>
        <time>2016-07-19T08:59:52.000Z</time>
      </trkpt>
      <trkpt lat="44.2986" lon="6.34274">
        <ele>1551.5999755859</ele>
        <time>2016-07-19T09:00:01.000Z</time>
      </trkpt>
      <trkpt lat="44.29872" lon="6.3428">
        <ele>1550</ele>
        <time>2016-07-19T09:00:10.000Z</time>
      </trkpt>
      <trkpt lat="44.29882" lon="6.3428">
        <ele>1550.4000244141</ele>
        <time>2016-07-19T09:00:17.000Z</time>
      </trkpt>
      <trkpt lat="44.29894" lon="6.34281">
        <ele>1551</ele>
        <time>2016-07-19T09:00:25.000Z</time>
      </trkpt>
      <trkpt lat="44.29906" lon="6.34282">
        <ele>1551.5999755859</ele>
        <time>2016-07-19T09:00:34.000Z</time>
      </trkpt>
      <trkpt lat="44.29912" lon="6.34279">
        <ele>1553</ele>
        <time>2016-07-19T09:00:39.000Z</time>
      </trkpt>
      <trkpt lat="44.29919" lon="6.34274">
        <ele>1555.4000244141</ele>
        <time>2016-07-19T09:00:45.000Z</time>
      </trkpt>
      <trkpt lat="44.2993" lon="6.34269">
        <ele>1558</ele>
        <time>2016-07-19T09:00:53.000Z</time>
      </trkpt>
      <trkpt lat="44.29935" lon="6.34265">
        <ele>1559.8000488281</ele>
        <time>2016-07-19T09:00:58.000Z</time>
      </trkpt>
      <trkpt lat="44.29936" lon="6.34265">
        <ele>1560</ele>
        <time>2016-07-19T09:00:59.000Z</time>
      </trkpt>
      <trkpt lat="44.29943" lon="6.34263">
        <ele>1561</ele>
        <time>2016-07-19T09:01:05.000Z</time>
      </trkpt>
      <trkpt lat="44.29949" lon="6.34262">
        <ele>1561.8000488281</ele>
        <time>2016-07-19T09:01:11.000Z</time>
      </trkpt>
      <trkpt lat="44.29953" lon="6.34261">
        <ele>1562.8000488281</ele>
        <time>2016-07-19T09:01:15.000Z</time>
      </trkpt>
      <trkpt lat="44.29963" lon="6.34254">
        <ele>1565.8000488281</ele>
        <time>2016-07-19T09:01:23.000Z</time>
      </trkpt>
      <trkpt lat="44.29967" lon="6.34249">
        <ele>1568</ele>
        <time>2016-07-19T09:01:28.000Z</time>
      </trkpt>
      <trkpt lat="44.2997" lon="6.34246">
        <ele>1568.8000488281</ele>
        <time>2016-07-19T09:01:30.000Z</time>
      </trkpt>
      <trkpt lat="44.29976" lon="6.3424">
        <ele>1570.5999755859</ele>
        <time>2016-07-19T09:01:35.000Z</time>
      </trkpt>
      <trkpt lat="44.2998" lon="6.34238">
        <ele>1571.4000244141</ele>
        <time>2016-07-19T09:01:38.000Z</time>
      </trkpt>
      <trkpt lat="44.29995" lon="6.34235">
        <ele>1572.1999511719</ele>
        <time>2016-07-19T09:01:45.000Z</time>
      </trkpt>
      <trkpt lat="44.30003" lon="6.34231">
        <ele>1573.4000244141</ele>
        <time>2016-07-19T09:01:51.000Z</time>
      </trkpt>
      <trkpt lat="44.30007" lon="6.34227">
        <ele>1574.8000488281</ele>
        <time>2016-07-19T09:01:57.000Z</time>
      </trkpt>
      <trkpt lat="44.30014" lon="6.34218">
        <ele>1577.8000488281</ele>
        <time>2016-07-19T09:02:05.000Z</time>
      </trkpt>
      <trkpt lat="44.30017" lon="6.34215">
        <ele>1578.5999755859</ele>
        <time>2016-07-19T09:02:08.000Z</time>
      </trkpt>
      <trkpt lat="44.30023" lon="6.34208">
        <ele>1579.5999755859</ele>
        <time>2016-07-19T09:02:14.000Z</time>
      </trkpt>
      <trkpt lat="44.30028" lon="6.34203">
        <ele>1580.5999755859</ele>
        <time>2016-07-19T09:02:19.000Z</time>
      </trkpt>
      <trkpt lat="44.30032" lon="6.34198">
        <ele>1581.5999755859</ele>
        <time>2016-07-19T09:02:23.000Z</time>
      </trkpt>
      <trkpt lat="44.30039" lon="6.3419">
        <ele>1584.1999511719</ele>
        <time>2016-07-19T09:02:31.000Z</time>
      </trkpt>
      <trkpt lat="44.3004" lon="6.34189">
        <ele>1584.4000244141</ele>
        <time>2016-07-19T09:02:32.000Z</time>
      </trkpt>
      <trkpt lat="44.30043" lon="6.34184">
        <ele>1586</ele>
        <time>2016-07-19T09:02:36.000Z</time>
      </trkpt>
      <trkpt lat="44.30045" lon="6.34183">
        <ele>1586.4000244141</ele>
        <time>2016-07-19T09:02:37.000Z</time>
      </trkpt>
      <trkpt lat="44.30047" lon="6.34178">
        <ele>1587.5999755859</ele>
        <time>2016-07-19T09:02:40.000Z</time>
      </trkpt>
      <trkpt lat="44.30048" lon="6.34176">
        <ele>1588</ele>
        <time>2016-07-19T09:02:41.000Z</time>
      </trkpt>
      <trkpt lat="44.30049" lon="6.34173">
        <ele>1589</ele>
        <time>2016-07-19T09:02:43.000Z</time>
      </trkpt>
      <trkpt lat="44.30055" lon="6.34165">
        <ele>1590.4000244141</ele>
        <time>2016-07-19T09:02:49.000Z</time>
      </trkpt>
      <trkpt lat="44.30068" lon="6.34156">
        <ele>1591.1999511719</ele>
        <time>2016-07-19T09:02:59.000Z</time>
      </trkpt>
      <trkpt lat="44.3008" lon="6.34152">
        <ele>1591.4000244141</ele>
        <time>2016-07-19T09:03:08.000Z</time>
      </trkpt>
      <trkpt lat="44.30086" lon="6.34148">
        <ele>1591.5999755859</ele>
        <time>2016-07-19T09:03:13.000Z</time>
      </trkpt>
      <trkpt lat="44.30095" lon="6.3414">
        <ele>1592.4000244141</ele>
        <time>2016-07-19T09:03:20.000Z</time>
      </trkpt>
      <trkpt lat="44.30105" lon="6.34132">
        <ele>1592.4000244141</ele>
        <time>2016-07-19T09:03:28.000Z</time>
      </trkpt>
      <trkpt lat="44.30118" lon="6.34124">
        <ele>1592.1999511719</ele>
        <time>2016-07-19T09:03:38.000Z</time>
      </trkpt>
      <trkpt lat="44.30121" lon="6.3412">
        <ele>1592.5999755859</ele>
        <time>2016-07-19T09:03:41.000Z</time>
      </trkpt>
      <trkpt lat="44.30126" lon="6.34103">
        <ele>1593.5999755859</ele>
        <time>2016-07-19T09:03:50.000Z</time>
      </trkpt>
      <trkpt lat="44.30128" lon="6.34091">
        <ele>1594.1999511719</ele>
        <time>2016-07-19T09:03:57.000Z</time>
      </trkpt>
      <trkpt lat="44.30128" lon="6.34089">
        <ele>1594.4000244141</ele>
        <time>2016-07-19T09:03:58.000Z</time>
      </trkpt>
      <trkpt lat="44.30129" lon="6.34079">
        <ele>1594.8000488281</ele>
        <time>2016-07-19T09:04:04.000Z</time>
      </trkpt>
      <trkpt lat="44.30128" lon="6.34075">
        <ele>1594</ele>
        <time>2016-07-19T09:04:06.000Z</time>
      </trkpt>
      <trkpt lat="44.30126" lon="6.34052">
        <ele>1591.5999755859</ele>
        <time>2016-07-19T09:04:18.000Z</time>
      </trkpt>
      <trkpt lat="44.30125" lon="6.34034">
        <ele>1590.5999755859</ele>
        <time>2016-07-19T09:04:27.000Z</time>
      </trkpt>
      <trkpt lat="44.30125" lon="6.34021">
        <ele>1589.8000488281</ele>
        <time>2016-07-19T09:04:34.000Z</time>
      </trkpt>
      <trkpt lat="44.3012" lon="6.34009">
        <ele>1589.8000488281</ele>
        <time>2016-07-19T09:04:42.000Z</time>
      </trkpt>
      <trkpt lat="44.30116" lon="6.33999">
        <ele>1589.8000488281</ele>
        <time>2016-07-19T09:04:49.000Z</time>
      </trkpt>
      <trkpt lat="44.3011" lon="6.33984">
        <ele>1589.5999755859</ele>
        <time>2016-07-19T09:04:58.000Z</time>
      </trkpt>
      <trkpt lat="44.30109" lon="6.3398">
        <ele>1589.1999511719</ele>
        <time>2016-07-19T09:05:01.000Z</time>
      </trkpt>
      <trkpt lat="44.30105" lon="6.3397">
        <ele>1587.8000488281</ele>
        <time>2016-07-19T09:05:07.000Z</time>
      </trkpt>
      <trkpt lat="44.30098" lon="6.33957">
        <ele>1586.4000244141</ele>
        <time>2016-07-19T09:05:15.000Z</time>
      </trkpt>
      <trkpt lat="44.30092" lon="6.33948">
        <ele>1585.4000244141</ele>
        <time>2016-07-19T09:05:21.000Z</time>
      </trkpt>
      <trkpt lat="44.30088" lon="6.33941">
        <ele>1584.4000244141</ele>
        <time>2016-07-19T09:05:25.000Z</time>
      </trkpt>
      <trkpt lat="44.30084" lon="6.33929">
        <ele>1583</ele>
        <time>2016-07-19T09:05:32.000Z</time>
      </trkpt>
      <trkpt lat="44.30083" lon="6.33925">
        <ele>1582.4000244141</ele>
        <time>2016-07-19T09:05:34.000Z</time>
      </trkpt>
      <trkpt lat="44.30082" lon="6.33917">
        <ele>1581.1999511719</ele>
        <time>2016-07-19T09:05:39.000Z</time>
      </trkpt>
      <trkpt lat="44.30076" lon="6.33903">
        <ele>1579.5999755859</ele>
        <time>2016-07-19T09:05:47.000Z</time>
      </trkpt>
      <trkpt lat="44.30065" lon="6.33897">
        <ele>1579.1999511719</ele>
        <time>2016-07-19T09:05:56.000Z</time>
      </trkpt>
      <trkpt lat="44.30048" lon="6.33885">
        <ele>1577.1999511719</ele>
        <time>2016-07-19T09:06:10.000Z</time>
      </trkpt>
      <trkpt lat="44.30055" lon="6.33877">
        <ele>1575</ele>
        <time>2016-07-19T09:06:17.000Z</time>
      </trkpt>
      <trkpt lat="44.30058" lon="6.33877">
        <ele>1574.8000488281</ele>
        <time>2016-07-19T09:06:19.000Z</time>
      </trkpt>
      <trkpt lat="44.30067" lon="6.33872">
        <ele>1573</ele>
        <time>2016-07-19T09:06:27.000Z</time>
      </trkpt>
      <trkpt lat="44.30076" lon="6.33863">
        <ele>1570.4000244141</ele>
        <time>2016-07-19T09:06:35.000Z</time>
      </trkpt>
      <trkpt lat="44.30087" lon="6.33852">
        <ele>1568.1999511719</ele>
        <time>2016-07-19T09:06:44.000Z</time>
      </trkpt>
      <trkpt lat="44.30096" lon="6.33839">
        <ele>1565.8000488281</ele>
        <time>2016-07-19T09:06:53.000Z</time>
      </trkpt>
      <trkpt lat="44.30104" lon="6.33828">
        <ele>1563.8000488281</ele>
        <time>2016-07-19T09:07:01.000Z</time>
      </trkpt>
      <trkpt lat="44.30117" lon="6.33824">
        <ele>1562</ele>
        <time>2016-07-19T09:07:10.000Z</time>
      </trkpt>
      <trkpt lat="44.30128" lon="6.33831">
        <ele>1560.8000488281</ele>
        <time>2016-07-19T09:07:18.000Z</time>
      </trkpt>
      <trkpt lat="44.30129" lon="6.33833">
        <ele>1560.8000488281</ele>
        <time>2016-07-19T09:07:19.000Z</time>
      </trkpt>
      <trkpt lat="44.30132" lon="6.33837">
        <ele>1561</ele>
        <time>2016-07-19T09:07:23.000Z</time>
      </trkpt>
      <trkpt lat="44.30132" lon="6.33838">
        <ele>1561.1999511719</ele>
        <time>2016-07-19T09:07:24.000Z</time>
      </trkpt>
      <trkpt lat="44.30135" lon="6.33848">
        <ele>1562.1999511719</ele>
        <time>2016-07-19T09:07:39.000Z</time>
      </trkpt>
      <trkpt lat="44.30135" lon="6.33849">
        <ele>1562.4000244141</ele>
        <time>2016-07-19T09:07:40.000Z</time>
      </trkpt>
      <trkpt lat="44.30136" lon="6.33855">
        <ele>1563.4000244141</ele>
        <time>2016-07-19T09:07:44.000Z</time>
      </trkpt>
      <trkpt lat="44.30137" lon="6.33865">
        <ele>1565.1999511719</ele>
        <time>2016-07-19T09:07:49.000Z</time>
      </trkpt>
      <trkpt lat="44.30137" lon="6.33867">
        <ele>1565.4000244141</ele>
        <time>2016-07-19T09:07:50.000Z</time>
      </trkpt>
      <trkpt lat="44.30138" lon="6.33872">
        <ele>1566.1999511719</ele>
        <time>2016-07-19T09:07:53.000Z</time>
      </trkpt>
      <trkpt lat="44.3014" lon="6.33881">
        <ele>1567.5999755859</ele>
        <time>2016-07-19T09:07:58.000Z</time>
      </trkpt>
      <trkpt lat="44.30155" lon="6.33893">
        <ele>1566.4000244141</ele>
        <time>2016-07-19T09:08:11.000Z</time>
      </trkpt>
      <trkpt lat="44.30159" lon="6.33899">
        <ele>1566.1999511719</ele>
        <time>2016-07-19T09:08:15.000Z</time>
      </trkpt>
      <trkpt lat="44.3016" lon="6.339">
        <ele>1566.1999511719</ele>
        <time>2016-07-19T09:08:16.000Z</time>
      </trkpt>
      <trkpt lat="44.30168" lon="6.33913">
        <ele>1566.5999755859</ele>
        <time>2016-07-19T09:08:23.000Z</time>
      </trkpt>
      <trkpt lat="44.30181" lon="6.33924">
        <ele>1565.4000244141</ele>
        <time>2016-07-19T09:08:29.000Z</time>
      </trkpt>
      <trkpt lat="44.30191" lon="6.33932">
        <ele>1564.1999511719</ele>
        <time>2016-07-19T09:08:35.000Z</time>
      </trkpt>
      <trkpt lat="44.30202" lon="6.33941">
        <ele>1564</ele>
        <time>2016-07-19T09:08:42.000Z</time>
      </trkpt>
      <trkpt lat="44.30209" lon="6.33951">
        <ele>1565.1999511719</ele>
        <time>2016-07-19T09:08:49.000Z</time>
      </trkpt>
      <trkpt lat="44.30211" lon="6.33956">
        <ele>1565.8000488281</ele>
        <time>2016-07-19T09:08:52.000Z</time>
      </trkpt>
      <trkpt lat="44.30216" lon="6.33967">
        <ele>1567.1999511719</ele>
        <time>2016-07-19T09:08:59.000Z</time>
      </trkpt>
      <trkpt lat="44.30218" lon="6.33968">
        <ele>1567.1999511719</ele>
        <time>2016-07-19T09:09:00.000Z</time>
      </trkpt>
      <trkpt lat="44.30242" lon="6.33962">
        <ele>1564.5999755859</ele>
        <time>2016-07-19T09:09:09.000Z</time>
      </trkpt>
      <trkpt lat="44.30247" lon="6.33957">
        <ele>1563.4000244141</ele>
        <time>2016-07-19T09:09:11.000Z</time>
      </trkpt>
      <trkpt lat="44.30251" lon="6.33933">
        <ele>1557.5999755859</ele>
        <time>2016-07-19T09:09:18.000Z</time>
      </trkpt>
      <trkpt lat="44.30259" lon="6.33918">
        <ele>1552.5999755859</ele>
        <time>2016-07-19T09:09:27.000Z</time>
      </trkpt>
      <trkpt lat="44.3027" lon="6.33907">
        <ele>1547.8000488281</ele>
        <time>2016-07-19T09:09:37.000Z</time>
      </trkpt>
      <trkpt lat="44.30282" lon="6.33902">
        <ele>1545</ele>
        <time>2016-07-19T09:09:46.000Z</time>
      </trkpt>
      <trkpt lat="44.30293" lon="6.33902">
        <ele>1544.5999755859</ele>
        <time>2016-07-19T09:09:54.000Z</time>
      </trkpt>
      <trkpt lat="44.30301" lon="6.33905">
        <ele>1544.8000488281</ele>
        <time>2016-07-19T09:10:00.000Z</time>
      </trkpt>
      <trkpt lat="44.30312" lon="6.33911">
        <ele>1545.8000488281</ele>
        <time>2016-07-19T09:10:08.000Z</time>
      </trkpt>
      <trkpt lat="44.30319" lon="6.33917">
        <ele>1546.8000488281</ele>
        <time>2016-07-19T09:10:14.000Z</time>
      </trkpt>
      <trkpt lat="44.30331" lon="6.33924">
        <ele>1548</ele>
        <time>2016-07-19T09:10:23.000Z</time>
      </trkpt>
      <trkpt lat="44.30343" lon="6.33935">
        <ele>1550.1999511719</ele>
        <time>2016-07-19T09:10:34.000Z</time>
      </trkpt>
      <trkpt lat="44.30358" lon="6.3395">
        <ele>1553.4000244141</ele>
        <time>2016-07-19T09:10:46.000Z</time>
      </trkpt>
      <trkpt lat="44.30368" lon="6.33964">
        <ele>1556.1999511719</ele>
        <time>2016-07-19T09:10:55.000Z</time>
      </trkpt>
      <trkpt lat="44.3037" lon="6.33966">
        <ele>1556.5999755859</ele>
        <time>2016-07-19T09:10:57.000Z</time>
      </trkpt>
      <trkpt lat="44.30374" lon="6.33965">
        <ele>1556.1999511719</ele>
        <time>2016-07-19T09:11:03.000Z</time>
      </trkpt>
      <trkpt lat="44.30379" lon="6.33967">
        <ele>1556.4000244141</ele>
        <time>2016-07-19T09:11:23.000Z</time>
      </trkpt>
      <trkpt lat="44.30387" lon="6.33969">
        <ele>1556.5999755859</ele>
        <time>2016-07-19T09:11:30.000Z</time>
      </trkpt>
      <trkpt lat="44.304" lon="6.3397">
        <ele>1555.8000488281</ele>
        <time>2016-07-19T09:11:39.000Z</time>
      </trkpt>
      <trkpt lat="44.30407" lon="6.33964">
        <ele>1554</ele>
        <time>2016-07-19T09:11:45.000Z</time>
      </trkpt>
      <trkpt lat="44.30405" lon="6.33953">
        <ele>1551.1999511719</ele>
        <time>2016-07-19T09:11:52.000Z</time>
      </trkpt>
      <trkpt lat="44.30399" lon="6.3394">
        <ele>1548.1999511719</ele>
        <time>2016-07-19T09:12:01.000Z</time>
      </trkpt>
      <trkpt lat="44.304" lon="6.33925">
        <ele>1545.1999511719</ele>
        <time>2016-07-19T09:12:09.000Z</time>
      </trkpt>
      <trkpt lat="44.30405" lon="6.33908">
        <ele>1543</ele>
        <time>2016-07-19T09:12:19.000Z</time>
      </trkpt>
      <trkpt lat="44.30405" lon="6.33893">
        <ele>1540.4000244141</ele>
        <time>2016-07-19T09:12:27.000Z</time>
      </trkpt>
      <trkpt lat="44.30403" lon="6.3388">
        <ele>1537.5999755859</ele>
        <time>2016-07-19T09:12:34.000Z</time>
      </trkpt>
      <trkpt lat="44.30407" lon="6.3387">
        <ele>1535.8000488281</ele>
        <time>2016-07-19T09:12:40.000Z</time>
      </trkpt>
      <trkpt lat="44.30409" lon="6.33867">
        <ele>1535.1999511719</ele>
        <time>2016-07-19T09:12:42.000Z</time>
      </trkpt>
      <trkpt lat="44.30414" lon="6.33863">
        <ele>1534.8000488281</ele>
        <time>2016-07-19T09:12:46.000Z</time>
      </trkpt>
      <trkpt lat="44.30419" lon="6.33861">
        <ele>1535.4000244141</ele>
        <time>2016-07-19T09:12:50.000Z</time>
      </trkpt>
      <trkpt lat="44.30433" lon="6.33866">
        <ele>1538.1999511719</ele>
        <time>2016-07-19T09:13:00.000Z</time>
      </trkpt>
      <trkpt lat="44.30443" lon="6.33874">
        <ele>1540.8000488281</ele>
        <time>2016-07-19T09:13:08.000Z</time>
      </trkpt>
      <trkpt lat="44.30455" lon="6.33884">
        <ele>1544.4000244141</ele>
        <time>2016-07-19T09:13:18.000Z</time>
      </trkpt>
      <trkpt lat="44.30464" lon="6.3389">
        <ele>1547</ele>
        <time>2016-07-19T09:13:25.000Z</time>
      </trkpt>
      <trkpt lat="44.30468" lon="6.33894">
        <ele>1548.1999511719</ele>
        <time>2016-07-19T09:13:28.000Z</time>
      </trkpt>
      <trkpt lat="44.30472" lon="6.33897">
        <ele>1549.4000244141</ele>
        <time>2016-07-19T09:13:32.000Z</time>
      </trkpt>
      <trkpt lat="44.30485" lon="6.33896">
        <ele>1552</ele>
        <time>2016-07-19T09:13:41.000Z</time>
      </trkpt>
      <trkpt lat="44.30492" lon="6.33885">
        <ele>1552.4000244141</ele>
        <time>2016-07-19T09:13:48.000Z</time>
      </trkpt>
      <trkpt lat="44.30499" lon="6.33871">
        <ele>1552.4000244141</ele>
        <time>2016-07-19T09:13:57.000Z</time>
      </trkpt>
      <trkpt lat="44.30507" lon="6.33865">
        <ele>1553.1999511719</ele>
        <time>2016-07-19T09:14:04.000Z</time>
      </trkpt>
      <trkpt lat="44.30518" lon="6.33862">
        <ele>1555</ele>
        <time>2016-07-19T09:14:12.000Z</time>
      </trkpt>
      <trkpt lat="44.30523" lon="6.33861">
        <ele>1555.8000488281</ele>
        <time>2016-07-19T09:14:15.000Z</time>
      </trkpt>
      <trkpt lat="44.30527" lon="6.3385">
        <ele>1555.1999511719</ele>
        <time>2016-07-19T09:14:22.000Z</time>
      </trkpt>
      <trkpt lat="44.30526" lon="6.33847">
        <ele>1554.5999755859</ele>
        <time>2016-07-19T09:14:24.000Z</time>
      </trkpt>
      <trkpt lat="44.30516" lon="6.33831">
        <ele>1550.4000244141</ele>
        <time>2016-07-19T09:14:35.000Z</time>
      </trkpt>
      <trkpt lat="44.30504" lon="6.3382">
        <ele>1546.8000488281</ele>
        <time>2016-07-19T09:14:45.000Z</time>
      </trkpt>
      <trkpt lat="44.30494" lon="6.33811">
        <ele>1543.5999755859</ele>
        <time>2016-07-19T09:14:53.000Z</time>
      </trkpt>
      <trkpt lat="44.30489" lon="6.33797">
        <ele>1540.8000488281</ele>
        <time>2016-07-19T09:15:01.000Z</time>
      </trkpt>
      <trkpt lat="44.30486" lon="6.33777">
        <ele>1537.5999755859</ele>
        <time>2016-07-19T09:15:12.000Z</time>
      </trkpt>
      <trkpt lat="44.30483" lon="6.33763">
        <ele>1535.5999755859</ele>
        <time>2016-07-19T09:15:20.000Z</time>
      </trkpt>
      <trkpt lat="44.30482" lon="6.33745">
        <ele>1535</ele>
        <time>2016-07-19T09:15:29.000Z</time>
      </trkpt>
      <trkpt lat="44.30484" lon="6.33727">
        <ele>1534.4000244141</ele>
        <time>2016-07-19T09:15:38.000Z</time>
      </trkpt>
      <trkpt lat="44.30489" lon="6.33713">
        <ele>1533.1999511719</ele>
        <time>2016-07-19T09:15:45.000Z</time>
      </trkpt>
      <trkpt lat="44.30492" lon="6.33706">
        <ele>1533</ele>
        <time>2016-07-19T09:15:49.000Z</time>
      </trkpt>
      <trkpt lat="44.30502" lon="6.33691">
        <ele>1533</ele>
        <time>2016-07-19T09:15:58.000Z</time>
      </trkpt>
      <trkpt lat="44.30513" lon="6.33679">
        <ele>1534</ele>
        <time>2016-07-19T09:16:07.000Z</time>
      </trkpt>
      <trkpt lat="44.30518" lon="6.33674">
        <ele>1534.5999755859</ele>
        <time>2016-07-19T09:16:11.000Z</time>
      </trkpt>
      <trkpt lat="44.30529" lon="6.33666">
        <ele>1536.4000244141</ele>
        <time>2016-07-19T09:16:19.000Z</time>
      </trkpt>
      <trkpt lat="44.30537" lon="6.3366">
        <ele>1536.4000244141</ele>
        <time>2016-07-19T09:16:25.000Z</time>
      </trkpt>
      <trkpt lat="44.3055" lon="6.33653">
        <ele>1537.1999511719</ele>
        <time>2016-07-19T09:16:34.000Z</time>
      </trkpt>
      <trkpt lat="44.30561" lon="6.3365">
        <ele>1538.4000244141</ele>
        <time>2016-07-19T09:16:41.000Z</time>
      </trkpt>
      <trkpt lat="44.30572" lon="6.33649">
        <ele>1540</ele>
        <time>2016-07-19T09:16:48.000Z</time>
      </trkpt>
      <trkpt lat="44.30585" lon="6.33651">
        <ele>1542.1999511719</ele>
        <time>2016-07-19T09:16:57.000Z</time>
      </trkpt>
      <trkpt lat="44.30587" lon="6.33651">
        <ele>1542.5999755859</ele>
        <time>2016-07-19T09:16:59.000Z</time>
      </trkpt>
      <trkpt lat="44.30593" lon="6.33642">
        <ele>1542</ele>
        <time>2016-07-19T09:17:05.000Z</time>
      </trkpt>
      <trkpt lat="44.30593" lon="6.33637">
        <ele>1541.4000244141</ele>
        <time>2016-07-19T09:17:13.000Z</time>
      </trkpt>
      <trkpt lat="44.30588" lon="6.33626">
        <ele>1539</ele>
        <time>2016-07-19T09:17:20.000Z</time>
      </trkpt>
      <trkpt lat="44.30581" lon="6.33614">
        <ele>1536.4000244141</ele>
        <time>2016-07-19T09:17:29.000Z</time>
      </trkpt>
      <trkpt lat="44.3058" lon="6.33612">
        <ele>1536</ele>
        <time>2016-07-19T09:17:34.000Z</time>
      </trkpt>
      <trkpt lat="44.3057" lon="6.336">
        <ele>1533.1999511719</ele>
        <time>2016-07-19T09:17:43.000Z</time>
      </trkpt>
      <trkpt lat="44.30562" lon="6.33592">
        <ele>1530.8000488281</ele>
        <time>2016-07-19T09:17:51.000Z</time>
      </trkpt>
      <trkpt lat="44.30553" lon="6.33582">
        <ele>1528</ele>
        <time>2016-07-19T09:17:59.000Z</time>
      </trkpt>
      <trkpt lat="44.30541" lon="6.33571">
        <ele>1524.5999755859</ele>
        <time>2016-07-19T09:18:09.000Z</time>
      </trkpt>
      <trkpt lat="44.30536" lon="6.33566">
        <ele>1523</ele>
        <time>2016-07-19T09:18:14.000Z</time>
      </trkpt>
      <trkpt lat="44.30524" lon="6.33552">
        <ele>1520.4000244141</ele>
        <time>2016-07-19T09:18:25.000Z</time>
      </trkpt>
      <trkpt lat="44.30513" lon="6.33538">
        <ele>1518</ele>
        <time>2016-07-19T09:18:35.000Z</time>
      </trkpt>
      <trkpt lat="44.30502" lon="6.3352">
        <ele>1516.1999511719</ele>
        <time>2016-07-19T09:18:47.000Z</time>
      </trkpt>
      <trkpt lat="44.30493" lon="6.33498">
        <ele>1516</ele>
        <time>2016-07-19T09:18:59.000Z</time>
      </trkpt>
      <trkpt lat="44.30487" lon="6.33482">
        <ele>1516.8000488281</ele>
        <time>2016-07-19T09:19:06.000Z</time>
      </trkpt>
      <trkpt lat="44.30481" lon="6.33456">
        <ele>1518.4000244141</ele>
        <time>2016-07-19T09:19:13.000Z</time>
      </trkpt>
      <trkpt lat="44.30475" lon="6.33428">
        <ele>1520.8000488281</ele>
        <time>2016-07-19T09:19:20.000Z</time>
      </trkpt>
      <trkpt lat="44.30465" lon="6.33407">
        <ele>1520.4000244141</ele>
        <time>2016-07-19T09:19:26.000Z</time>
      </trkpt>
      <trkpt lat="44.30455" lon="6.33382">
        <ele>1519.5999755859</ele>
        <time>2016-07-19T09:19:33.000Z</time>
      </trkpt>
      <trkpt lat="44.30448" lon="6.33355">
        <ele>1520</ele>
        <time>2016-07-19T09:19:39.000Z</time>
      </trkpt>
      <trkpt lat="44.30442" lon="6.33327">
        <ele>1522</ele>
        <time>2016-07-19T09:19:46.000Z</time>
      </trkpt>
      <trkpt lat="44.3044" lon="6.33318">
        <ele>1522.1999511719</ele>
        <time>2016-07-19T09:19:50.000Z</time>
      </trkpt>
      <trkpt lat="44.30435" lon="6.33303">
        <ele>1523.4000244141</ele>
        <time>2016-07-19T09:19:58.000Z</time>
      </trkpt>
      <trkpt lat="44.30428" lon="6.33287">
        <ele>1523.4000244141</ele>
        <time>2016-07-19T09:20:07.000Z</time>
      </trkpt>
      <trkpt lat="44.3042" lon="6.33268">
        <ele>1523</ele>
        <time>2016-07-19T09:20:17.000Z</time>
      </trkpt>
      <trkpt lat="44.30416" lon="6.33259">
        <ele>1522.5999755859</ele>
        <time>2016-07-19T09:20:23.000Z</time>
      </trkpt>
      <trkpt lat="44.30409" lon="6.33245">
        <ele>1522.1999511719</ele>
        <time>2016-07-19T09:20:32.000Z</time>
      </trkpt>
      <trkpt lat="44.30402" lon="6.3323">
        <ele>1521.8000488281</ele>
        <time>2016-07-19T09:20:41.000Z</time>
      </trkpt>
      <trkpt lat="44.30397" lon="6.33215">
        <ele>1523.4000244141</ele>
        <time>2016-07-19T09:20:49.000Z</time>
      </trkpt>
      <trkpt lat="44.30399" lon="6.33203">
        <ele>1526.4000244141</ele>
        <time>2016-07-19T09:20:56.000Z</time>
      </trkpt>
      <trkpt lat="44.30402" lon="6.33199">
        <ele>1528.1999511719</ele>
        <time>2016-07-19T09:20:59.000Z</time>
      </trkpt>
      <trkpt lat="44.30416" lon="6.33198">
        <ele>1531.5999755859</ele>
        <time>2016-07-19T09:21:11.000Z</time>
      </trkpt>
      <trkpt lat="44.30424" lon="6.33199">
        <ele>1531.4000244141</ele>
        <time>2016-07-19T09:21:17.000Z</time>
      </trkpt>
      <trkpt lat="44.30433" lon="6.33201">
        <ele>1531.4000244141</ele>
        <time>2016-07-19T09:21:24.000Z</time>
      </trkpt>
      <trkpt lat="44.30442" lon="6.33201">
        <ele>1531</ele>
        <time>2016-07-19T09:21:30.000Z</time>
      </trkpt>
      <trkpt lat="44.30452" lon="6.33202">
        <ele>1531.4000244141</ele>
        <time>2016-07-19T09:21:36.000Z</time>
      </trkpt>
      <trkpt lat="44.30462" lon="6.33203">
        <ele>1532</ele>
        <time>2016-07-19T09:21:41.000Z</time>
      </trkpt>
      <trkpt lat="44.30472" lon="6.33205">
        <ele>1533</ele>
        <time>2016-07-19T09:21:48.000Z</time>
      </trkpt>
      <trkpt lat="44.30483" lon="6.33206">
        <ele>1534</ele>
        <time>2016-07-19T09:21:56.000Z</time>
      </trkpt>
      <trkpt lat="44.30495" lon="6.33206">
        <ele>1534.8000488281</ele>
        <time>2016-07-19T09:22:04.000Z</time>
      </trkpt>
      <trkpt lat="44.30508" lon="6.33204">
        <ele>1534.4000244141</ele>
        <time>2016-07-19T09:22:12.000Z</time>
      </trkpt>
      <trkpt lat="44.30523" lon="6.33202">
        <ele>1530.4000244141</ele>
        <time>2016-07-19T09:22:22.000Z</time>
      </trkpt>
      <trkpt lat="44.30531" lon="6.33201">
        <ele>1528.8000488281</ele>
        <time>2016-07-19T09:22:27.000Z</time>
      </trkpt>
      <trkpt lat="44.30537" lon="6.33199">
        <ele>1528.4000244141</ele>
        <time>2016-07-19T09:22:31.000Z</time>
      </trkpt>
      <trkpt lat="44.30551" lon="6.33194">
        <ele>1527.1999511719</ele>
        <time>2016-07-19T09:22:41.000Z</time>
      </trkpt>
      <trkpt lat="44.30554" lon="6.33193">
        <ele>1526.8000488281</ele>
        <time>2016-07-19T09:22:45.000Z</time>
      </trkpt>
      <trkpt lat="44.30561" lon="6.3319">
        <ele>1526</ele>
        <time>2016-07-19T09:22:51.000Z</time>
      </trkpt>
      <trkpt lat="44.30568" lon="6.33188">
        <ele>1525.1999511719</ele>
        <time>2016-07-19T09:22:57.000Z</time>
      </trkpt>
      <trkpt lat="44.30581" lon="6.33182">
        <ele>1523.4000244141</ele>
        <time>2016-07-19T09:23:06.000Z</time>
      </trkpt>
      <trkpt lat="44.30596" lon="6.33177">
        <ele>1521.5999755859</ele>
        <time>2016-07-19T09:23:16.000Z</time>
      </trkpt>
      <trkpt lat="44.30611" lon="6.33168">
        <ele>1518.5999755859</ele>
        <time>2016-07-19T09:23:28.000Z</time>
      </trkpt>
      <trkpt lat="44.30616" lon="6.33156">
        <ele>1513.4000244141</ele>
        <time>2016-07-19T09:23:37.000Z</time>
      </trkpt>
      <trkpt lat="44.30617" lon="6.33141">
        <ele>1509</ele>
        <time>2016-07-19T09:23:45.000Z</time>
      </trkpt>
      <trkpt lat="44.30618" lon="6.33123">
        <ele>1504.1999511719</ele>
        <time>2016-07-19T09:23:55.000Z</time>
      </trkpt>
      <trkpt lat="44.30622" lon="6.33109">
        <ele>1500.8000488281</ele>
        <time>2016-07-19T09:24:03.000Z</time>
      </trkpt>
      <trkpt lat="44.30627" lon="6.33097">
        <ele>1498.4000244141</ele>
        <time>2016-07-19T09:24:10.000Z</time>
      </trkpt>
      <trkpt lat="44.30635" lon="6.33084">
        <ele>1496</ele>
        <time>2016-07-19T09:24:18.000Z</time>
      </trkpt>
      <trkpt lat="44.30641" lon="6.33075">
        <ele>1496</ele>
        <time>2016-07-19T09:24:23.000Z</time>
      </trkpt>
      <trkpt lat="44.3065" lon="6.33061">
        <ele>1495.4000244141</ele>
        <time>2016-07-19T09:24:31.000Z</time>
      </trkpt>
      <trkpt lat="44.30656" lon="6.33054">
        <ele>1494.8000488281</ele>
        <time>2016-07-19T09:24:35.000Z</time>
      </trkpt>
      <trkpt lat="44.30665" lon="6.33042">
        <ele>1493.8000488281</ele>
        <time>2016-07-19T09:24:43.000Z</time>
      </trkpt>
      <trkpt lat="44.30674" lon="6.33039">
        <ele>1495.1999511719</ele>
        <time>2016-07-19T09:24:50.000Z</time>
      </trkpt>
      <trkpt lat="44.3068" lon="6.33044">
        <ele>1498</ele>
        <time>2016-07-19T09:24:54.000Z</time>
      </trkpt>
      <trkpt lat="44.30692" lon="6.33051">
        <ele>1503</ele>
        <time>2016-07-19T09:25:02.000Z</time>
      </trkpt>
      <trkpt lat="44.30698" lon="6.3306">
        <ele>1505.8000488281</ele>
        <time>2016-07-19T09:25:09.000Z</time>
      </trkpt>
      <trkpt lat="44.30703" lon="6.33071">
        <ele>1505.5999755859</ele>
        <time>2016-07-19T09:25:16.000Z</time>
      </trkpt>
      <trkpt lat="44.30705" lon="6.33086">
        <ele>1507.5999755859</ele>
        <time>2016-07-19T09:25:23.000Z</time>
      </trkpt>
      <trkpt lat="44.30707" lon="6.33097">
        <ele>1508.5999755859</ele>
        <time>2016-07-19T09:25:29.000Z</time>
      </trkpt>
      <trkpt lat="44.30708" lon="6.33103">
        <ele>1509</ele>
        <time>2016-07-19T09:25:34.000Z</time>
      </trkpt>
      <trkpt lat="44.30709" lon="6.33115">
        <ele>1510.4000244141</ele>
        <time>2016-07-19T09:25:40.000Z</time>
      </trkpt>
      <trkpt lat="44.30709" lon="6.33119">
        <ele>1511</ele>
        <time>2016-07-19T09:25:42.000Z</time>
      </trkpt>
      <trkpt lat="44.3071" lon="6.3313">
        <ele>1512.4000244141</ele>
        <time>2016-07-19T09:25:48.000Z</time>
      </trkpt>
      <trkpt lat="44.30712" lon="6.33149">
        <ele>1514.5999755859</ele>
        <time>2016-07-19T09:25:57.000Z</time>
      </trkpt>
      <trkpt lat="44.30717" lon="6.33165">
        <ele>1515.5999755859</ele>
        <time>2016-07-19T09:26:06.000Z</time>
      </trkpt>
      <trkpt lat="44.30721" lon="6.3318">
        <ele>1517.1999511719</ele>
        <time>2016-07-19T09:26:14.000Z</time>
      </trkpt>
      <trkpt lat="44.30721" lon="6.33182">
        <ele>1517.5999755859</ele>
        <time>2016-07-19T09:26:15.000Z</time>
      </trkpt>
      <trkpt lat="44.30725" lon="6.33194">
        <ele>1519</ele>
        <time>2016-07-19T09:26:22.000Z</time>
      </trkpt>
      <trkpt lat="44.3073" lon="6.3321">
        <ele>1520.5999755859</ele>
        <time>2016-07-19T09:26:30.000Z</time>
      </trkpt>
      <trkpt lat="44.30738" lon="6.33233">
        <ele>1522.4000244141</ele>
        <time>2016-07-19T09:26:42.000Z</time>
      </trkpt>
      <trkpt lat="44.30746" lon="6.33243">
        <ele>1521.5999755859</ele>
        <time>2016-07-19T09:26:49.000Z</time>
      </trkpt>
      <trkpt lat="44.30758" lon="6.33257">
        <ele>1519.5999755859</ele>
        <time>2016-07-19T09:26:59.000Z</time>
      </trkpt>
      <trkpt lat="44.30769" lon="6.3327">
        <ele>1518.1999511719</ele>
        <time>2016-07-19T09:27:08.000Z</time>
      </trkpt>
      <trkpt lat="44.30779" lon="6.3328">
        <ele>1516.1999511719</ele>
        <time>2016-07-19T09:27:16.000Z</time>
      </trkpt>
      <trkpt lat="44.30789" lon="6.33288">
        <ele>1515</ele>
        <time>2016-07-19T09:27:24.000Z</time>
      </trkpt>
      <trkpt lat="44.30797" lon="6.33296">
        <ele>1514.4000244141</ele>
        <time>2016-07-19T09:27:31.000Z</time>
      </trkpt>
      <trkpt lat="44.30803" lon="6.33307">
        <ele>1515</ele>
        <time>2016-07-19T09:27:38.000Z</time>
      </trkpt>
      <trkpt lat="44.30809" lon="6.3332">
        <ele>1515.4000244141</ele>
        <time>2016-07-19T09:27:46.000Z</time>
      </trkpt>
      <trkpt lat="44.30817" lon="6.33334">
        <ele>1514.5999755859</ele>
        <time>2016-07-19T09:27:55.000Z</time>
      </trkpt>
      <trkpt lat="44.3082" lon="6.33353">
        <ele>1515.4000244141</ele>
        <time>2016-07-19T09:28:05.000Z</time>
      </trkpt>
      <trkpt lat="44.30821" lon="6.33371">
        <ele>1517</ele>
        <time>2016-07-19T09:28:14.000Z</time>
      </trkpt>
      <trkpt lat="44.30822" lon="6.33374">
        <ele>1517.1999511719</ele>
        <time>2016-07-19T09:28:17.000Z</time>
      </trkpt>
      <trkpt lat="44.30826" lon="6.33381">
        <ele>1516.8000488281</ele>
        <time>2016-07-19T09:28:22.000Z</time>
      </trkpt>
      <trkpt lat="44.30835" lon="6.33379">
        <ele>1513.4000244141</ele>
        <time>2016-07-19T09:28:29.000Z</time>
      </trkpt>
      <trkpt lat="44.30843" lon="6.33363">
        <ele>1509</ele>
        <time>2016-07-19T09:28:39.000Z</time>
      </trkpt>
      <trkpt lat="44.30847" lon="6.33349">
        <ele>1506.5999755859</ele>
        <time>2016-07-19T09:28:47.000Z</time>
      </trkpt>
      <trkpt lat="44.3085" lon="6.33319">
        <ele>1502.8000488281</ele>
        <time>2016-07-19T09:29:04.000Z</time>
      </trkpt>
      <trkpt lat="44.3085" lon="6.33312">
        <ele>1501.8000488281</ele>
        <time>2016-07-19T09:29:11.000Z</time>
      </trkpt>
      <trkpt lat="44.30847" lon="6.3331">
        <ele>1502</ele>
        <time>2016-07-19T09:29:16.000Z</time>
      </trkpt>
      <trkpt lat="44.30847" lon="6.33308">
        <ele>1501.5999755859</ele>
        <time>2016-07-19T09:29:17.000Z</time>
      </trkpt>
      <trkpt lat="44.3085" lon="6.33306">
        <ele>1500.5999755859</ele>
        <time>2016-07-19T09:29:22.000Z</time>
      </trkpt>
      <trkpt lat="44.3085" lon="6.33304">
        <ele>1499.8000488281</ele>
        <time>2016-07-19T09:29:29.000Z</time>
      </trkpt>
      <trkpt lat="44.30851" lon="6.33305">
        <ele>1499.8000488281</ele>
        <time>2016-07-19T09:29:42.000Z</time>
      </trkpt>
      <trkpt lat="44.30852" lon="6.333">
        <ele>1498.1999511719</ele>
        <time>2016-07-19T09:30:16.000Z</time>
      </trkpt>
      <trkpt lat="44.30853" lon="6.33299">
        <ele>1497.8000488281</ele>
        <time>2016-07-19T09:30:17.000Z</time>
      </trkpt>
      <trkpt lat="44.3086" lon="6.3329">
        <ele>1493.5999755859</ele>
        <time>2016-07-19T09:30:24.000Z</time>
      </trkpt>
      <trkpt lat="44.30867" lon="6.33283">
        <ele>1491</ele>
        <time>2016-07-19T09:30:31.000Z</time>
      </trkpt>
      <trkpt lat="44.30874" lon="6.33279">
        <ele>1490.1999511719</ele>
        <time>2016-07-19T09:30:38.000Z</time>
      </trkpt>
      <trkpt lat="44.30883" lon="6.33278">
        <ele>1490.1999511719</ele>
        <time>2016-07-19T09:30:46.000Z</time>
      </trkpt>
      <trkpt lat="44.30884" lon="6.33278">
        <ele>1490.4000244141</ele>
        <time>2016-07-19T09:30:47.000Z</time>
      </trkpt>
      <trkpt lat="44.30895" lon="6.33279">
        <ele>1490.8000488281</ele>
        <time>2016-07-19T09:30:55.000Z</time>
      </trkpt>
      <trkpt lat="44.30902" lon="6.33282">
        <ele>1491.5999755859</ele>
        <time>2016-07-19T09:31:01.000Z</time>
      </trkpt>
      <trkpt lat="44.30912" lon="6.33281">
        <ele>1491.5999755859</ele>
        <time>2016-07-19T09:31:08.000Z</time>
      </trkpt>
      <trkpt lat="44.30919" lon="6.33281">
        <ele>1492.1999511719</ele>
        <time>2016-07-19T09:31:14.000Z</time>
      </trkpt>
      <trkpt lat="44.30927" lon="6.33282">
        <ele>1493</ele>
        <time>2016-07-19T09:31:20.000Z</time>
      </trkpt>
      <trkpt lat="44.3094" lon="6.33285">
        <ele>1494.4000244141</ele>
        <time>2016-07-19T09:31:29.000Z</time>
      </trkpt>
      <trkpt lat="44.30943" lon="6.33286">
        <ele>1494.5999755859</ele>
        <time>2016-07-19T09:31:31.000Z</time>
      </trkpt>
      <trkpt lat="44.30945" lon="6.33288">
        <ele>1495.1999511719</ele>
        <time>2016-07-19T09:31:36.000Z</time>
      </trkpt>
      <trkpt lat="44.30947" lon="6.3329">
        <ele>1495.5999755859</ele>
        <time>2016-07-19T09:31:40.000Z</time>
      </trkpt>
      <trkpt lat="44.30956" lon="6.33295">
        <ele>1495.8000488281</ele>
        <time>2016-07-19T09:31:47.000Z</time>
      </trkpt>
      <trkpt lat="44.30966" lon="6.33292">
        <ele>1494.5999755859</ele>
        <time>2016-07-19T09:31:54.000Z</time>
      </trkpt>
      <trkpt lat="44.30972" lon="6.33281">
        <ele>1492.4000244141</ele>
        <time>2016-07-19T09:32:01.000Z</time>
      </trkpt>
      <trkpt lat="44.30972" lon="6.33267">
        <ele>1489.8000488281</ele>
        <time>2016-07-19T09:32:09.000Z</time>
      </trkpt>
      <trkpt lat="44.3097" lon="6.33255">
        <ele>1487.8000488281</ele>
        <time>2016-07-19T09:32:16.000Z</time>
      </trkpt>
      <trkpt lat="44.30967" lon="6.33243">
        <ele>1487.1999511719</ele>
        <time>2016-07-19T09:32:24.000Z</time>
      </trkpt>
      <trkpt lat="44.30963" lon="6.33235">
        <ele>1486.5999755859</ele>
        <time>2016-07-19T09:32:30.000Z</time>
      </trkpt>
      <trkpt lat="44.30963" lon="6.33223">
        <ele>1485.4000244141</ele>
        <time>2016-07-19T09:32:37.000Z</time>
      </trkpt>
      <trkpt lat="44.30969" lon="6.33221">
        <ele>1485.5999755859</ele>
        <time>2016-07-19T09:32:43.000Z</time>
      </trkpt>
      <trkpt lat="44.30977" lon="6.33227">
        <ele>1487.4000244141</ele>
        <time>2016-07-19T09:32:50.000Z</time>
      </trkpt>
      <trkpt lat="44.30989" lon="6.33236">
        <ele>1489</ele>
        <time>2016-07-19T09:33:01.000Z</time>
      </trkpt>
      <trkpt lat="44.30994" lon="6.33243">
        <ele>1489.8000488281</ele>
        <time>2016-07-19T09:33:08.000Z</time>
      </trkpt>
      <trkpt lat="44.30995" lon="6.33244">
        <ele>1489.8000488281</ele>
        <time>2016-07-19T09:33:09.000Z</time>
      </trkpt>
      <trkpt lat="44.30999" lon="6.33244">
        <ele>1490.1999511719</ele>
        <time>2016-07-19T09:33:12.000Z</time>
      </trkpt>
      <trkpt lat="44.31002" lon="6.33245">
        <ele>1490.4000244141</ele>
        <time>2016-07-19T09:33:15.000Z</time>
      </trkpt>
      <trkpt lat="44.31003" lon="6.33245">
        <ele>1490.5999755859</ele>
        <time>2016-07-19T09:33:18.000Z</time>
      </trkpt>
      <trkpt lat="44.31009" lon="6.33248">
        <ele>1491.1999511719</ele>
        <time>2016-07-19T09:33:24.000Z</time>
      </trkpt>
      <trkpt lat="44.3101" lon="6.33248">
        <ele>1491.4000244141</ele>
        <time>2016-07-19T09:33:25.000Z</time>
      </trkpt>
      <trkpt lat="44.31019" lon="6.33248">
        <ele>1492.1999511719</ele>
        <time>2016-07-19T09:33:32.000Z</time>
      </trkpt>
      <trkpt lat="44.31029" lon="6.33247">
        <ele>1493</ele>
        <time>2016-07-19T09:33:40.000Z</time>
      </trkpt>
      <trkpt lat="44.31038" lon="6.33245">
        <ele>1492.8000488281</ele>
        <time>2016-07-19T09:33:48.000Z</time>
      </trkpt>
      <trkpt lat="44.31048" lon="6.33227">
        <ele>1493.8000488281</ele>
        <time>2016-07-19T09:34:03.000Z</time>
      </trkpt>
      <trkpt lat="44.3105" lon="6.33215">
        <ele>1494.8000488281</ele>
        <time>2016-07-19T09:34:10.000Z</time>
      </trkpt>
      <trkpt lat="44.31048" lon="6.33204">
        <ele>1495.5999755859</ele>
        <time>2016-07-19T09:34:17.000Z</time>
      </trkpt>
      <trkpt lat="44.31046" lon="6.33194">
        <ele>1496.4000244141</ele>
        <time>2016-07-19T09:34:24.000Z</time>
      </trkpt>
      <trkpt lat="44.31046" lon="6.33193">
        <ele>1496.5999755859</ele>
        <time>2016-07-19T09:34:25.000Z</time>
      </trkpt>
      <trkpt lat="44.31047" lon="6.33193">
        <ele>1496.5999755859</ele>
        <time>2016-07-19T09:34:35.000Z</time>
      </trkpt>
      <trkpt lat="44.31049" lon="6.33198">
        <ele>1496.1999511719</ele>
        <time>2016-07-19T09:35:43.000Z</time>
      </trkpt>
      <trkpt lat="44.3105" lon="6.33199">
        <ele>1496.1999511719</ele>
        <time>2016-07-19T09:35:44.000Z</time>
      </trkpt>
      <trkpt lat="44.31052" lon="6.33196">
        <ele>1496.4000244141</ele>
        <time>2016-07-19T09:35:47.000Z</time>
      </trkpt>
      <trkpt lat="44.31053" lon="6.33192">
        <ele>1496.8000488281</ele>
        <time>2016-07-19T09:35:49.000Z</time>
      </trkpt>
      <trkpt lat="44.31055" lon="6.3318">
        <ele>1497.8000488281</ele>
        <time>2016-07-19T09:35:56.000Z</time>
      </trkpt>
      <trkpt lat="44.31056" lon="6.33173">
        <ele>1498.4000244141</ele>
        <time>2016-07-19T09:36:00.000Z</time>
      </trkpt>
      <trkpt lat="44.3106" lon="6.33163">
        <ele>1497.8000488281</ele>
        <time>2016-07-19T09:36:07.000Z</time>
      </trkpt>
      <trkpt lat="44.31064" lon="6.33152">
        <ele>1497.1999511719</ele>
        <time>2016-07-19T09:36:14.000Z</time>
      </trkpt>
      <trkpt lat="44.31065" lon="6.3315">
        <ele>1497.1999511719</ele>
        <time>2016-07-19T09:36:15.000Z</time>
      </trkpt>
      <trkpt lat="44.31071" lon="6.33142">
        <ele>1496.8000488281</ele>
        <time>2016-07-19T09:36:22.000Z</time>
      </trkpt>
      <trkpt lat="44.3107" lon="6.33141">
        <ele>1496.8000488281</ele>
        <time>2016-07-19T09:36:23.000Z</time>
      </trkpt>
      <trkpt lat="44.3107" lon="6.3314">
        <ele>1496.8000488281</ele>
        <time>2016-07-19T09:36:27.000Z</time>
      </trkpt>
      <trkpt lat="44.31071" lon="6.33138">
        <ele>1496.8000488281</ele>
        <time>2016-07-19T09:36:29.000Z</time>
      </trkpt>
      <trkpt lat="44.31077" lon="6.33134">
        <ele>1496.4000244141</ele>
        <time>2016-07-19T09:36:35.000Z</time>
      </trkpt>
      <trkpt lat="44.31082" lon="6.33126">
        <ele>1496.1999511719</ele>
        <time>2016-07-19T09:36:42.000Z</time>
      </trkpt>
      <trkpt lat="44.31086" lon="6.33122">
        <ele>1496</ele>
        <time>2016-07-19T09:36:46.000Z</time>
      </trkpt>
      <trkpt lat="44.31094" lon="6.33114">
        <ele>1496</ele>
        <time>2016-07-19T09:36:54.000Z</time>
      </trkpt>
      <trkpt lat="44.31096" lon="6.33114">
        <ele>1495.8000488281</ele>
        <time>2016-07-19T09:36:55.000Z</time>
      </trkpt>
      <trkpt lat="44.311" lon="6.3312">
        <ele>1495.1999511719</ele>
        <time>2016-07-19T09:37:00.000Z</time>
      </trkpt>
      <trkpt lat="44.311" lon="6.33122">
        <ele>1495.1999511719</ele>
        <time>2016-07-19T09:37:01.000Z</time>
      </trkpt>
      <trkpt lat="44.31099" lon="6.33133">
        <ele>1494.5999755859</ele>
        <time>2016-07-19T09:37:08.000Z</time>
      </trkpt>
      <trkpt lat="44.31098" lon="6.33137">
        <ele>1494.5999755859</ele>
        <time>2016-07-19T09:37:15.000Z</time>
      </trkpt>
      <trkpt lat="44.31092" lon="6.33146">
        <ele>1494.8000488281</ele>
        <time>2016-07-19T09:37:22.000Z</time>
      </trkpt>
      <trkpt lat="44.31093" lon="6.33146">
        <ele>1494.8000488281</ele>
        <time>2016-07-19T09:37:28.000Z</time>
      </trkpt>
      <trkpt lat="44.31091" lon="6.33154">
        <ele>1495</ele>
        <time>2016-07-19T09:37:33.000Z</time>
      </trkpt>
      <trkpt lat="44.31093" lon="6.33161">
        <ele>1495</ele>
        <time>2016-07-19T09:37:37.000Z</time>
      </trkpt>
      <trkpt lat="44.31096" lon="6.33168">
        <ele>1495</ele>
        <time>2016-07-19T09:37:41.000Z</time>
      </trkpt>
      <trkpt lat="44.311" lon="6.33181">
        <ele>1495</ele>
        <time>2016-07-19T09:37:49.000Z</time>
      </trkpt>
      <trkpt lat="44.31103" lon="6.33191">
        <ele>1495</ele>
        <time>2016-07-19T09:37:56.000Z</time>
      </trkpt>
      <trkpt lat="44.31106" lon="6.33204">
        <ele>1495</ele>
        <time>2016-07-19T09:38:04.000Z</time>
      </trkpt>
      <trkpt lat="44.3111" lon="6.33215">
        <ele>1494.8000488281</ele>
        <time>2016-07-19T09:38:11.000Z</time>
      </trkpt>
      <trkpt lat="44.31115" lon="6.33223">
        <ele>1494.4000244141</ele>
        <time>2016-07-19T09:38:16.000Z</time>
      </trkpt>
      <trkpt lat="44.3112" lon="6.33231">
        <ele>1492.5999755859</ele>
        <time>2016-07-19T09:38:23.000Z</time>
      </trkpt>
      <trkpt lat="44.31123" lon="6.33234">
        <ele>1491.5999755859</ele>
        <time>2016-07-19T09:38:26.000Z</time>
      </trkpt>
      <trkpt lat="44.31131" lon="6.33246">
        <ele>1487.8000488281</ele>
        <time>2016-07-19T09:38:35.000Z</time>
      </trkpt>
      <trkpt lat="44.31132" lon="6.33247">
        <ele>1487.5999755859</ele>
        <time>2016-07-19T09:38:36.000Z</time>
      </trkpt>
      <trkpt lat="44.31134" lon="6.33252">
        <ele>1486.4000244141</ele>
        <time>2016-07-19T09:38:39.000Z</time>
      </trkpt>
      <trkpt lat="44.31138" lon="6.3326">
        <ele>1484.5999755859</ele>
        <time>2016-07-19T09:38:44.000Z</time>
      </trkpt>
      <trkpt lat="44.31139" lon="6.33271">
        <ele>1483.1999511719</ele>
        <time>2016-07-19T09:38:50.000Z</time>
      </trkpt>
      <trkpt lat="44.31138" lon="6.33288">
        <ele>1482.5999755859</ele>
        <time>2016-07-19T09:38:59.000Z</time>
      </trkpt>
      <trkpt lat="44.31136" lon="6.33301">
        <ele>1482.8000488281</ele>
        <time>2016-07-19T09:39:06.000Z</time>
      </trkpt>
      <trkpt lat="44.31132" lon="6.33311">
        <ele>1483.4000244141</ele>
        <time>2016-07-19T09:39:12.000Z</time>
      </trkpt>
      <trkpt lat="44.31132" lon="6.33312">
        <ele>1483.5999755859</ele>
        <time>2016-07-19T09:39:13.000Z</time>
      </trkpt>
      <trkpt lat="44.3113" lon="6.33319">
        <ele>1484.1999511719</ele>
        <time>2016-07-19T09:39:17.000Z</time>
      </trkpt>
      <trkpt lat="44.31128" lon="6.33334">
        <ele>1484.5999755859</ele>
        <time>2016-07-19T09:39:25.000Z</time>
      </trkpt>
      <trkpt lat="44.31129" lon="6.33347">
        <ele>1484.1999511719</ele>
        <time>2016-07-19T09:39:32.000Z</time>
      </trkpt>
      <trkpt lat="44.31129" lon="6.33361">
        <ele>1484</ele>
        <time>2016-07-19T09:39:39.000Z</time>
      </trkpt>
      <trkpt lat="44.31128" lon="6.33366">
        <ele>1484</ele>
        <time>2016-07-19T09:39:42.000Z</time>
      </trkpt>
      <trkpt lat="44.31129" lon="6.33381">
        <ele>1483.5999755859</ele>
        <time>2016-07-19T09:39:50.000Z</time>
      </trkpt>
      <trkpt lat="44.31129" lon="6.33383">
        <ele>1483.4000244141</ele>
        <time>2016-07-19T09:39:51.000Z</time>
      </trkpt>
      <trkpt lat="44.31126" lon="6.33397">
        <ele>1483.8000488281</ele>
        <time>2016-07-19T09:39:59.000Z</time>
      </trkpt>
      <trkpt lat="44.31122" lon="6.33414">
        <ele>1488.8000488281</ele>
        <time>2016-07-19T09:40:09.000Z</time>
      </trkpt>
      <trkpt lat="44.31122" lon="6.33425">
        <ele>1490.1999511719</ele>
        <time>2016-07-19T09:40:15.000Z</time>
      </trkpt>
      <trkpt lat="44.31122" lon="6.33426">
        <ele>1490.1999511719</ele>
        <time>2016-07-19T09:40:16.000Z</time>
      </trkpt>
      <trkpt lat="44.31131" lon="6.33431">
        <ele>1489.5999755859</ele>
        <time>2016-07-19T09:40:24.000Z</time>
      </trkpt>
      <trkpt lat="44.3114" lon="6.33431">
        <ele>1488.4000244141</ele>
        <time>2016-07-19T09:40:31.000Z</time>
      </trkpt>
      <trkpt lat="44.3115" lon="6.3343">
        <ele>1486</ele>
        <time>2016-07-19T09:40:39.000Z</time>
      </trkpt>
      <trkpt lat="44.31161" lon="6.33424">
        <ele>1480.8000488281</ele>
        <time>2016-07-19T09:40:48.000Z</time>
      </trkpt>
      <trkpt lat="44.3117" lon="6.33416">
        <ele>1475.1999511719</ele>
        <time>2016-07-19T09:40:56.000Z</time>
      </trkpt>
      <trkpt lat="44.31188" lon="6.33421">
        <ele>1471</ele>
        <time>2016-07-19T09:41:10.000Z</time>
      </trkpt>
      <trkpt lat="44.31193" lon="6.33427">
        <ele>1471.4000244141</ele>
        <time>2016-07-19T09:41:15.000Z</time>
      </trkpt>
      <trkpt lat="44.31198" lon="6.33431">
        <ele>1470.8000488281</ele>
        <time>2016-07-19T09:41:20.000Z</time>
      </trkpt>
      <trkpt lat="44.31202" lon="6.33434">
        <ele>1471</ele>
        <time>2016-07-19T09:41:25.000Z</time>
      </trkpt>
      <trkpt lat="44.31204" lon="6.33433">
        <ele>1470.1999511719</ele>
        <time>2016-07-19T09:41:29.000Z</time>
      </trkpt>
      <trkpt lat="44.3121" lon="6.33431">
        <ele>1468</ele>
        <time>2016-07-19T09:41:34.000Z</time>
      </trkpt>
      <trkpt lat="44.31222" lon="6.33433">
        <ele>1465.5999755859</ele>
        <time>2016-07-19T09:41:44.000Z</time>
      </trkpt>
      <trkpt lat="44.31228" lon="6.33438">
        <ele>1466</ele>
        <time>2016-07-19T09:41:49.000Z</time>
      </trkpt>
      <trkpt lat="44.31231" lon="6.33445">
        <ele>1467.1999511719</ele>
        <time>2016-07-19T09:41:53.000Z</time>
      </trkpt>
      <trkpt lat="44.31236" lon="6.33457">
        <ele>1469.5999755859</ele>
        <time>2016-07-19T09:42:00.000Z</time>
      </trkpt>
      <trkpt lat="44.31237" lon="6.33459">
        <ele>1469.8000488281</ele>
        <time>2016-07-19T09:42:01.000Z</time>
      </trkpt>
      <trkpt lat="44.31241" lon="6.33462">
        <ele>1469.5999755859</ele>
        <time>2016-07-19T09:42:05.000Z</time>
      </trkpt>
      <trkpt lat="44.31257" lon="6.33464">
        <ele>1466.5999755859</ele>
        <time>2016-07-19T09:42:17.000Z</time>
      </trkpt>
      <trkpt lat="44.3126" lon="6.33467">
        <ele>1467</ele>
        <time>2016-07-19T09:42:23.000Z</time>
      </trkpt>
      <trkpt lat="44.31262" lon="6.33468">
        <ele>1466.8000488281</ele>
        <time>2016-07-19T09:42:37.000Z</time>
      </trkpt>
      <trkpt lat="44.3126" lon="6.33465">
        <ele>1466</ele>
        <time>2016-07-19T09:42:43.000Z</time>
      </trkpt>
      <trkpt lat="44.3126" lon="6.33464">
        <ele>1465.8000488281</ele>
        <time>2016-07-19T09:42:45.000Z</time>
      </trkpt>
      <trkpt lat="44.31261" lon="6.33468">
        <ele>1466.5999755859</ele>
        <time>2016-07-19T09:42:48.000Z</time>
      </trkpt>
      <trkpt lat="44.31266" lon="6.33473">
        <ele>1467.1999511719</ele>
        <time>2016-07-19T09:42:54.000Z</time>
      </trkpt>
      <trkpt lat="44.31272" lon="6.33477">
        <ele>1466.8000488281</ele>
        <time>2016-07-19T09:43:01.000Z</time>
      </trkpt>
      <trkpt lat="44.31275" lon="6.33481">
        <ele>1467.1999511719</ele>
        <time>2016-07-19T09:43:06.000Z</time>
      </trkpt>
      <trkpt lat="44.31282" lon="6.33485">
        <ele>1466.1999511719</ele>
        <time>2016-07-19T09:43:13.000Z</time>
      </trkpt>
      <trkpt lat="44.3128" lon="6.33485">
        <ele>1466.8000488281</ele>
        <time>2016-07-19T09:43:17.000Z</time>
      </trkpt>
      <trkpt lat="44.31278" lon="6.33484">
        <ele>1467.1999511719</ele>
        <time>2016-07-19T09:43:22.000Z</time>
      </trkpt>
      <trkpt lat="44.31282" lon="6.33486">
        <ele>1466.5999755859</ele>
        <time>2016-07-19T09:43:29.000Z</time>
      </trkpt>
      <trkpt lat="44.31291" lon="6.33487">
        <ele>1463.5999755859</ele>
        <time>2016-07-19T09:43:37.000Z</time>
      </trkpt>
      <trkpt lat="44.313" lon="6.33483">
        <ele>1461.1999511719</ele>
        <time>2016-07-19T09:43:44.000Z</time>
      </trkpt>
      <trkpt lat="44.31305" lon="6.33479">
        <ele>1459</ele>
        <time>2016-07-19T09:43:49.000Z</time>
      </trkpt>
      <trkpt lat="44.31315" lon="6.33475">
        <ele>1455.5999755859</ele>
        <time>2016-07-19T09:43:56.000Z</time>
      </trkpt>
      <trkpt lat="44.31317" lon="6.33475">
        <ele>1455.1999511719</ele>
        <time>2016-07-19T09:43:57.000Z</time>
      </trkpt>
      <trkpt lat="44.31321" lon="6.33479">
        <ele>1455.1999511719</ele>
        <time>2016-07-19T09:44:01.000Z</time>
      </trkpt>
      <trkpt lat="44.31324" lon="6.33482">
        <ele>1455</ele>
        <time>2016-07-19T09:44:04.000Z</time>
      </trkpt>
      <trkpt lat="44.3133" lon="6.33494">
        <ele>1454</ele>
        <time>2016-07-19T09:44:12.000Z</time>
      </trkpt>
      <trkpt lat="44.31333" lon="6.33505">
        <ele>1453.8000488281</ele>
        <time>2016-07-19T09:44:18.000Z</time>
      </trkpt>
      <trkpt lat="44.31335" lon="6.33516">
        <ele>1454</ele>
        <time>2016-07-19T09:44:25.000Z</time>
      </trkpt>
      <trkpt lat="44.31335" lon="6.33522">
        <ele>1454</ele>
        <time>2016-07-19T09:44:28.000Z</time>
      </trkpt>
      <trkpt lat="44.31337" lon="6.33531">
        <ele>1454.1999511719</ele>
        <time>2016-07-19T09:44:33.000Z</time>
      </trkpt>
      <trkpt lat="44.31337" lon="6.33534">
        <ele>1454.1999511719</ele>
        <time>2016-07-19T09:44:35.000Z</time>
      </trkpt>
      <trkpt lat="44.31336" lon="6.33541">
        <ele>1455.4000244141</ele>
        <time>2016-07-19T09:44:39.000Z</time>
      </trkpt>
      <trkpt lat="44.31336" lon="6.33545">
        <ele>1456.1999511719</ele>
        <time>2016-07-19T09:44:41.000Z</time>
      </trkpt>
      <trkpt lat="44.31337" lon="6.33556">
        <ele>1457.8000488281</ele>
        <time>2016-07-19T09:44:47.000Z</time>
      </trkpt>
      <trkpt lat="44.31339" lon="6.33566">
        <ele>1458.8000488281</ele>
        <time>2016-07-19T09:44:53.000Z</time>
      </trkpt>
      <trkpt lat="44.3134" lon="6.33568">
        <ele>1458.8000488281</ele>
        <time>2016-07-19T09:44:54.000Z</time>
      </trkpt>
      <trkpt lat="44.31347" lon="6.33607">
        <ele>1461.1999511719</ele>
        <time>2016-07-19T09:45:14.000Z</time>
      </trkpt>
      <trkpt lat="44.31351" lon="6.33616">
        <ele>1460.5999755859</ele>
        <time>2016-07-19T09:45:20.000Z</time>
      </trkpt>
      <trkpt lat="44.31353" lon="6.33617">
        <ele>1460</ele>
        <time>2016-07-19T09:45:22.000Z</time>
      </trkpt>
      <trkpt lat="44.31364" lon="6.33618">
        <ele>1456</ele>
        <time>2016-07-19T09:45:31.000Z</time>
      </trkpt>
      <trkpt lat="44.31368" lon="6.33618">
        <ele>1455.1999511719</ele>
        <time>2016-07-19T09:45:34.000Z</time>
      </trkpt>
      <trkpt lat="44.31372" lon="6.33619">
        <ele>1454.4000244141</ele>
        <time>2016-07-19T09:45:41.000Z</time>
      </trkpt>
      <trkpt lat="44.31374" lon="6.33617">
        <ele>1453.5999755859</ele>
        <time>2016-07-19T09:45:44.000Z</time>
      </trkpt>
      <trkpt lat="44.3138" lon="6.33617">
        <ele>1452.4000244141</ele>
        <time>2016-07-19T09:45:48.000Z</time>
      </trkpt>
      <trkpt lat="44.31392" lon="6.33617">
        <ele>1449.4000244141</ele>
        <time>2016-07-19T09:45:57.000Z</time>
      </trkpt>
      <trkpt lat="44.31403" lon="6.3362">
        <ele>1447.4000244141</ele>
        <time>2016-07-19T09:46:05.000Z</time>
      </trkpt>
      <trkpt lat="44.31409" lon="6.33624">
        <ele>1446.5999755859</ele>
        <time>2016-07-19T09:46:11.000Z</time>
      </trkpt>
      <trkpt lat="44.3141" lon="6.33625">
        <ele>1446.4000244141</ele>
        <time>2016-07-19T09:46:12.000Z</time>
      </trkpt>
      <trkpt lat="44.31416" lon="6.33633">
        <ele>1446.1999511719</ele>
        <time>2016-07-19T09:46:18.000Z</time>
      </trkpt>
      <trkpt lat="44.31416" lon="6.33634">
        <ele>1446.1999511719</ele>
        <time>2016-07-19T09:46:19.000Z</time>
      </trkpt>
      <trkpt lat="44.31419" lon="6.33641">
        <ele>1446.4000244141</ele>
        <time>2016-07-19T09:46:23.000Z</time>
      </trkpt>
      <trkpt lat="44.31421" lon="6.33646">
        <ele>1446.5999755859</ele>
        <time>2016-07-19T09:46:27.000Z</time>
      </trkpt>
      <trkpt lat="44.31428" lon="6.33642">
        <ele>1444.5999755859</ele>
        <time>2016-07-19T09:46:34.000Z</time>
      </trkpt>
      <trkpt lat="44.31429" lon="6.33641">
        <ele>1444.1999511719</ele>
        <time>2016-07-19T09:46:35.000Z</time>
      </trkpt>
      <trkpt lat="44.31433" lon="6.33632">
        <ele>1442.1999511719</ele>
        <time>2016-07-19T09:46:41.000Z</time>
      </trkpt>
      <trkpt lat="44.31434" lon="6.33627">
        <ele>1441</ele>
        <time>2016-07-19T09:46:44.000Z</time>
      </trkpt>
      <trkpt lat="44.3144" lon="6.33616">
        <ele>1437.4000244141</ele>
        <time>2016-07-19T09:46:52.000Z</time>
      </trkpt>
      <trkpt lat="44.31443" lon="6.33611">
        <ele>1435.5999755859</ele>
        <time>2016-07-19T09:46:56.000Z</time>
      </trkpt>
      <trkpt lat="44.31446" lon="6.33607">
        <ele>1434</ele>
        <time>2016-07-19T09:46:59.000Z</time>
      </trkpt>
      <trkpt lat="44.31453" lon="6.33607">
        <ele>1433.8000488281</ele>
        <time>2016-07-19T09:47:05.000Z</time>
      </trkpt>
      <trkpt lat="44.31455" lon="6.33608">
        <ele>1434</ele>
        <time>2016-07-19T09:47:07.000Z</time>
      </trkpt>
      <trkpt lat="44.31457" lon="6.33609">
        <ele>1434.1999511719</ele>
        <time>2016-07-19T09:47:09.000Z</time>
      </trkpt>
      <trkpt lat="44.31464" lon="6.33612">
        <ele>1434.5999755859</ele>
        <time>2016-07-19T09:47:15.000Z</time>
      </trkpt>
      <trkpt lat="44.31472" lon="6.33617">
        <ele>1435.4000244141</ele>
        <time>2016-07-19T09:47:22.000Z</time>
      </trkpt>
      <trkpt lat="44.3148" lon="6.33623">
        <ele>1436.5999755859</ele>
        <time>2016-07-19T09:47:28.000Z</time>
      </trkpt>
      <trkpt lat="44.31488" lon="6.33628">
        <ele>1437.5999755859</ele>
        <time>2016-07-19T09:47:35.000Z</time>
      </trkpt>
      <trkpt lat="44.31495" lon="6.33629">
        <ele>1437.8000488281</ele>
        <time>2016-07-19T09:47:41.000Z</time>
      </trkpt>
      <trkpt lat="44.31496" lon="6.33629">
        <ele>1437.5999755859</ele>
        <time>2016-07-19T09:47:42.000Z</time>
      </trkpt>
      <trkpt lat="44.31497" lon="6.33623">
        <ele>1436.5999755859</ele>
        <time>2016-07-19T09:47:46.000Z</time>
      </trkpt>
      <trkpt lat="44.315" lon="6.33611">
        <ele>1434</ele>
        <time>2016-07-19T09:47:54.000Z</time>
      </trkpt>
      <trkpt lat="44.31503" lon="6.33604">
        <ele>1432.1999511719</ele>
        <time>2016-07-19T09:47:59.000Z</time>
      </trkpt>
      <trkpt lat="44.31504" lon="6.33597">
        <ele>1430.1999511719</ele>
        <time>2016-07-19T09:48:04.000Z</time>
      </trkpt>
      <trkpt lat="44.31508" lon="6.33587">
        <ele>1427.4000244141</ele>
        <time>2016-07-19T09:48:12.000Z</time>
      </trkpt>
      <trkpt lat="44.31512" lon="6.33576">
        <ele>1424.1999511719</ele>
        <time>2016-07-19T09:48:19.000Z</time>
      </trkpt>
      <trkpt lat="44.31512" lon="6.33574">
        <ele>1423.8000488281</ele>
        <time>2016-07-19T09:48:20.000Z</time>
      </trkpt>
      <trkpt lat="44.31516" lon="6.33567">
        <ele>1422</ele>
        <time>2016-07-19T09:48:24.000Z</time>
      </trkpt>
      <trkpt lat="44.31522" lon="6.33556">
        <ele>1420</ele>
        <time>2016-07-19T09:48:31.000Z</time>
      </trkpt>
      <trkpt lat="44.31522" lon="6.33554">
        <ele>1419.8000488281</ele>
        <time>2016-07-19T09:48:32.000Z</time>
      </trkpt>
      <trkpt lat="44.31527" lon="6.33543">
        <ele>1417.4000244141</ele>
        <time>2016-07-19T09:48:39.000Z</time>
      </trkpt>
      <trkpt lat="44.31532" lon="6.33531">
        <ele>1415.4000244141</ele>
        <time>2016-07-19T09:48:46.000Z</time>
      </trkpt>
      <trkpt lat="44.31535" lon="6.33523">
        <ele>1414.4000244141</ele>
        <time>2016-07-19T09:48:51.000Z</time>
      </trkpt>
      <trkpt lat="44.31544" lon="6.33513">
        <ele>1413.4000244141</ele>
        <time>2016-07-19T09:48:58.000Z</time>
      </trkpt>
      <trkpt lat="44.31545" lon="6.33513">
        <ele>1413.4000244141</ele>
        <time>2016-07-19T09:48:59.000Z</time>
      </trkpt>
      <trkpt lat="44.31547" lon="6.33512">
        <ele>1413.1999511719</ele>
        <time>2016-07-19T09:49:04.000Z</time>
      </trkpt>
      <trkpt lat="44.3155" lon="6.33511">
        <ele>1413.4000244141</ele>
        <time>2016-07-19T09:49:08.000Z</time>
      </trkpt>
      <trkpt lat="44.31558" lon="6.33516">
        <ele>1414.4000244141</ele>
        <time>2016-07-19T09:49:14.000Z</time>
      </trkpt>
      <trkpt lat="44.31565" lon="6.33518">
        <ele>1415</ele>
        <time>2016-07-19T09:49:20.000Z</time>
      </trkpt>
      <trkpt lat="44.31573" lon="6.33519">
        <ele>1415.4000244141</ele>
        <time>2016-07-19T09:49:26.000Z</time>
      </trkpt>
      <trkpt lat="44.3158" lon="6.33523">
        <ele>1416.1999511719</ele>
        <time>2016-07-19T09:49:32.000Z</time>
      </trkpt>
      <trkpt lat="44.31589" lon="6.3353">
        <ele>1417.5999755859</ele>
        <time>2016-07-19T09:49:39.000Z</time>
      </trkpt>
      <trkpt lat="44.31595" lon="6.33531">
        <ele>1417.5999755859</ele>
        <time>2016-07-19T09:49:44.000Z</time>
      </trkpt>
      <trkpt lat="44.31601" lon="6.33524">
        <ele>1416.1999511719</ele>
        <time>2016-07-19T09:49:50.000Z</time>
      </trkpt>
      <trkpt lat="44.31605" lon="6.33515">
        <ele>1414.5999755859</ele>
        <time>2016-07-19T09:49:56.000Z</time>
      </trkpt>
      <trkpt lat="44.31606" lon="6.33514">
        <ele>1414.4000244141</ele>
        <time>2016-07-19T09:49:57.000Z</time>
      </trkpt>
      <trkpt lat="44.31614" lon="6.33504">
        <ele>1412.4000244141</ele>
        <time>2016-07-19T09:50:05.000Z</time>
      </trkpt>
      <trkpt lat="44.31624" lon="6.33496">
        <ele>1411</ele>
        <time>2016-07-19T09:50:13.000Z</time>
      </trkpt>
      <trkpt lat="44.31629" lon="6.33495">
        <ele>1410.8000488281</ele>
        <time>2016-07-19T09:50:17.000Z</time>
      </trkpt>
      <trkpt lat="44.3164" lon="6.33489">
        <ele>1410.5999755859</ele>
        <time>2016-07-19T09:50:26.000Z</time>
      </trkpt>
      <trkpt lat="44.31643" lon="6.33483">
        <ele>1410.1999511719</ele>
        <time>2016-07-19T09:50:30.000Z</time>
      </trkpt>
      <trkpt lat="44.31645" lon="6.33472">
        <ele>1408.8000488281</ele>
        <time>2016-07-19T09:50:37.000Z</time>
      </trkpt>
      <trkpt lat="44.31646" lon="6.33469">
        <ele>1408.4000244141</ele>
        <time>2016-07-19T09:50:39.000Z</time>
      </trkpt>
      <trkpt lat="44.31648" lon="6.33452">
        <ele>1406.5999755859</ele>
        <time>2016-07-19T09:50:49.000Z</time>
      </trkpt>
      <trkpt lat="44.3165" lon="6.33443">
        <ele>1405.5999755859</ele>
        <time>2016-07-19T09:50:56.000Z</time>
      </trkpt>
      <trkpt lat="44.31649" lon="6.33433">
        <ele>1404.4000244141</ele>
        <time>2016-07-19T09:51:02.000Z</time>
      </trkpt>
      <trkpt lat="44.31645" lon="6.33419">
        <ele>1402.8000488281</ele>
        <time>2016-07-19T09:51:11.000Z</time>
      </trkpt>
      <trkpt lat="44.3164" lon="6.33413">
        <ele>1401.8000488281</ele>
        <time>2016-07-19T09:51:19.000Z</time>
      </trkpt>
      <trkpt lat="44.3164" lon="6.33412">
        <ele>1401.5999755859</ele>
        <time>2016-07-19T09:51:20.000Z</time>
      </trkpt>
      <trkpt lat="44.31637" lon="6.33405">
        <ele>1401</ele>
        <time>2016-07-19T09:51:24.000Z</time>
      </trkpt>
      <trkpt lat="44.31636" lon="6.33402">
        <ele>1400.5999755859</ele>
        <time>2016-07-19T09:51:26.000Z</time>
      </trkpt>
      <trkpt lat="44.3163" lon="6.33394">
        <ele>1399.5999755859</ele>
        <time>2016-07-19T09:51:33.000Z</time>
      </trkpt>
      <trkpt lat="44.31629" lon="6.33393">
        <ele>1399.5999755859</ele>
        <time>2016-07-19T09:51:34.000Z</time>
      </trkpt>
      <trkpt lat="44.31624" lon="6.33381">
        <ele>1399.5999755859</ele>
        <time>2016-07-19T09:51:41.000Z</time>
      </trkpt>
      <trkpt lat="44.31626" lon="6.33373">
        <ele>1400</ele>
        <time>2016-07-19T09:51:47.000Z</time>
      </trkpt>
      <trkpt lat="44.31641" lon="6.3337">
        <ele>1401.5999755859</ele>
        <time>2016-07-19T09:51:59.000Z</time>
      </trkpt>
      <trkpt lat="44.31649" lon="6.33369">
        <ele>1402.4000244141</ele>
        <time>2016-07-19T09:52:05.000Z</time>
      </trkpt>
      <trkpt lat="44.31653" lon="6.3337">
        <ele>1402.8000488281</ele>
        <time>2016-07-19T09:52:08.000Z</time>
      </trkpt>
      <trkpt lat="44.31655" lon="6.3337">
        <ele>1403</ele>
        <time>2016-07-19T09:52:10.000Z</time>
      </trkpt>
      <trkpt lat="44.31657" lon="6.3337">
        <ele>1403.1999511719</ele>
        <time>2016-07-19T09:52:17.000Z</time>
      </trkpt>
      <trkpt lat="44.31661" lon="6.3337">
        <ele>1403.5999755859</ele>
        <time>2016-07-19T09:52:21.000Z</time>
      </trkpt>
      <trkpt lat="44.31671" lon="6.3337">
        <ele>1404.1999511719</ele>
        <time>2016-07-19T09:52:29.000Z</time>
      </trkpt>
      <trkpt lat="44.31679" lon="6.3337">
        <ele>1403.4000244141</ele>
        <time>2016-07-19T09:52:35.000Z</time>
      </trkpt>
      <trkpt lat="44.31688" lon="6.3337">
        <ele>1402.4000244141</ele>
        <time>2016-07-19T09:52:42.000Z</time>
      </trkpt>
      <trkpt lat="44.31691" lon="6.3337">
        <ele>1402</ele>
        <time>2016-07-19T09:52:45.000Z</time>
      </trkpt>
      <trkpt lat="44.31699" lon="6.33364">
        <ele>1400.4000244141</ele>
        <time>2016-07-19T09:52:51.000Z</time>
      </trkpt>
      <trkpt lat="44.31706" lon="6.33357">
        <ele>1399.1999511719</ele>
        <time>2016-07-19T09:52:57.000Z</time>
      </trkpt>
      <trkpt lat="44.31712" lon="6.3335">
        <ele>1397.8000488281</ele>
        <time>2016-07-19T09:53:03.000Z</time>
      </trkpt>
      <trkpt lat="44.31719" lon="6.33344">
        <ele>1396.8000488281</ele>
        <time>2016-07-19T09:53:08.000Z</time>
      </trkpt>
      <trkpt lat="44.31724" lon="6.33342">
        <ele>1396.4000244141</ele>
        <time>2016-07-19T09:53:13.000Z</time>
      </trkpt>
      <trkpt lat="44.31729" lon="6.33341">
        <ele>1396.1999511719</ele>
        <time>2016-07-19T09:53:18.000Z</time>
      </trkpt>
      <trkpt lat="44.31739" lon="6.33339">
        <ele>1396.1999511719</ele>
        <time>2016-07-19T09:53:26.000Z</time>
      </trkpt>
      <trkpt lat="44.31746" lon="6.33331">
        <ele>1395</ele>
        <time>2016-07-19T09:53:33.000Z</time>
      </trkpt>
      <trkpt lat="44.31749" lon="6.33325">
        <ele>1394.1999511719</ele>
        <time>2016-07-19T09:53:38.000Z</time>
      </trkpt>
      <trkpt lat="44.31749" lon="6.33327">
        <ele>1394.4000244141</ele>
        <time>2016-07-19T09:53:47.000Z</time>
      </trkpt>
      <trkpt lat="44.31751" lon="6.33324">
        <ele>1394.1999511719</ele>
        <time>2016-07-19T09:53:51.000Z</time>
      </trkpt>
      <trkpt lat="44.31766" lon="6.33315">
        <ele>1393</ele>
        <time>2016-07-19T09:54:03.000Z</time>
      </trkpt>
      <trkpt lat="44.31777" lon="6.33309">
        <ele>1392.5999755859</ele>
        <time>2016-07-19T09:54:11.000Z</time>
      </trkpt>
      <trkpt lat="44.31786" lon="6.33308">
        <ele>1394.1999511719</ele>
        <time>2016-07-19T09:54:17.000Z</time>
      </trkpt>
      <trkpt lat="44.31795" lon="6.33305">
        <ele>1395.1999511719</ele>
        <time>2016-07-19T09:54:23.000Z</time>
      </trkpt>
      <trkpt lat="44.31807" lon="6.33304">
        <ele>1396.4000244141</ele>
        <time>2016-07-19T09:54:31.000Z</time>
      </trkpt>
      <trkpt lat="44.31815" lon="6.33299">
        <ele>1397.5999755859</ele>
        <time>2016-07-19T09:54:38.000Z</time>
      </trkpt>
      <trkpt lat="44.31817" lon="6.33291">
        <ele>1398.5999755859</ele>
        <time>2016-07-19T09:54:44.000Z</time>
      </trkpt>
      <trkpt lat="44.31815" lon="6.33289">
        <ele>1398.5999755859</ele>
        <time>2016-07-19T09:54:49.000Z</time>
      </trkpt>
      <trkpt lat="44.31807" lon="6.33286">
        <ele>1398.1999511719</ele>
        <time>2016-07-19T09:54:55.000Z</time>
      </trkpt>
      <trkpt lat="44.31794" lon="6.33282">
        <ele>1397.5999755859</ele>
        <time>2016-07-19T09:55:05.000Z</time>
      </trkpt>
      <trkpt lat="44.31793" lon="6.3328">
        <ele>1397.8000488281</ele>
        <time>2016-07-19T09:55:07.000Z</time>
      </trkpt>
      <trkpt lat="44.31789" lon="6.33276">
        <ele>1397.8000488281</ele>
        <time>2016-07-19T09:55:11.000Z</time>
      </trkpt>
      <trkpt lat="44.31781" lon="6.33271">
        <ele>1397.5999755859</ele>
        <time>2016-07-19T09:55:19.000Z</time>
      </trkpt>
      <trkpt lat="44.31774" lon="6.33272">
        <ele>1396.1999511719</ele>
        <time>2016-07-19T09:55:26.000Z</time>
      </trkpt>
      <trkpt lat="44.31764" lon="6.33272">
        <ele>1394</ele>
        <time>2016-07-19T09:55:35.000Z</time>
      </trkpt>
      <trkpt lat="44.31753" lon="6.33271">
        <ele>1391.8000488281</ele>
        <time>2016-07-19T09:55:44.000Z</time>
      </trkpt>
      <trkpt lat="44.31745" lon="6.33271">
        <ele>1390.1999511719</ele>
        <time>2016-07-19T09:55:50.000Z</time>
      </trkpt>
      <trkpt lat="44.31733" lon="6.33268">
        <ele>1388</ele>
        <time>2016-07-19T09:55:59.000Z</time>
      </trkpt>
      <trkpt lat="44.31721" lon="6.33263">
        <ele>1387.4000244141</ele>
        <time>2016-07-19T09:56:03.000Z</time>
      </trkpt>
      <trkpt lat="44.31711" lon="6.33249">
        <ele>1386</ele>
        <time>2016-07-19T09:56:08.000Z</time>
      </trkpt>
      <trkpt lat="44.31706" lon="6.33227">
        <ele>1386.1999511719</ele>
        <time>2016-07-19T09:56:13.000Z</time>
      </trkpt>
      <trkpt lat="44.31697" lon="6.33202">
        <ele>1386.8000488281</ele>
        <time>2016-07-19T09:56:18.000Z</time>
      </trkpt>
      <trkpt lat="44.31691" lon="6.3318">
        <ele>1387</ele>
        <time>2016-07-19T09:56:24.000Z</time>
      </trkpt>
      <trkpt lat="44.31694" lon="6.33171">
        <ele>1388.8000488281</ele>
        <time>2016-07-19T09:56:28.000Z</time>
      </trkpt>
      <trkpt lat="44.31698" lon="6.33168">
        <ele>1390.4000244141</ele>
        <time>2016-07-19T09:56:32.000Z</time>
      </trkpt>
      <trkpt lat="44.31703" lon="6.33173">
        <ele>1390.8000488281</ele>
        <time>2016-07-19T09:56:37.000Z</time>
      </trkpt>
      <trkpt lat="44.3171" lon="6.3319">
        <ele>1390.5999755859</ele>
        <time>2016-07-19T09:56:47.000Z</time>
      </trkpt>
      <trkpt lat="44.31716" lon="6.33206">
        <ele>1390.5999755859</ele>
        <time>2016-07-19T09:56:57.000Z</time>
      </trkpt>
      <trkpt lat="44.31726" lon="6.33223">
        <ele>1391</ele>
        <time>2016-07-19T09:57:09.000Z</time>
      </trkpt>
      <trkpt lat="44.31738" lon="6.33229">
        <ele>1393</ele>
        <time>2016-07-19T09:57:18.000Z</time>
      </trkpt>
      <trkpt lat="44.31749" lon="6.33224">
        <ele>1395.8000488281</ele>
        <time>2016-07-19T09:57:27.000Z</time>
      </trkpt>
      <trkpt lat="44.31757" lon="6.3322">
        <ele>1398</ele>
        <time>2016-07-19T09:57:34.000Z</time>
      </trkpt>
      <trkpt lat="44.31771" lon="6.33215">
        <ele>1401.8000488281</ele>
        <time>2016-07-19T09:57:45.000Z</time>
      </trkpt>
      <trkpt lat="44.31783" lon="6.33211">
        <ele>1405.5999755859</ele>
        <time>2016-07-19T09:57:55.000Z</time>
      </trkpt>
      <trkpt lat="44.3179" lon="6.33209">
        <ele>1407</ele>
        <time>2016-07-19T09:58:01.000Z</time>
      </trkpt>
      <trkpt lat="44.31802" lon="6.33206">
        <ele>1409.1999511719</ele>
        <time>2016-07-19T09:58:10.000Z</time>
      </trkpt>
      <trkpt lat="44.31816" lon="6.33201">
        <ele>1412.1999511719</ele>
        <time>2016-07-19T09:58:21.000Z</time>
      </trkpt>
      <trkpt lat="44.31828" lon="6.33197">
        <ele>1414.5999755859</ele>
        <time>2016-07-19T09:58:30.000Z</time>
      </trkpt>
      <trkpt lat="44.31843" lon="6.33196">
        <ele>1416.8000488281</ele>
        <time>2016-07-19T09:58:41.000Z</time>
      </trkpt>
      <trkpt lat="44.31855" lon="6.33199">
        <ele>1418</ele>
        <time>2016-07-19T09:58:50.000Z</time>
      </trkpt>
      <trkpt lat="44.31883" lon="6.33195">
        <ele>1422.1999511719</ele>
        <time>2016-07-19T09:59:01.000Z</time>
      </trkpt>
      <trkpt lat="44.31901" lon="6.33192">
        <ele>1424.5999755859</ele>
        <time>2016-07-19T09:59:08.000Z</time>
      </trkpt>
      <trkpt lat="44.31911" lon="6.33191">
        <ele>1425.5999755859</ele>
        <time>2016-07-19T09:59:14.000Z</time>
      </trkpt>
      <trkpt lat="44.31923" lon="6.33189">
        <ele>1427.1999511719</ele>
        <time>2016-07-19T09:59:23.000Z</time>
      </trkpt>
      <trkpt lat="44.31933" lon="6.33187">
        <ele>1428.4000244141</ele>
        <time>2016-07-19T09:59:30.000Z</time>
      </trkpt>
      <trkpt lat="44.31934" lon="6.33188">
        <ele>1428.4000244141</ele>
        <time>2016-07-19T09:59:31.000Z</time>
      </trkpt>
      <trkpt lat="44.31945" lon="6.33191">
        <ele>1429</ele>
        <time>2016-07-19T09:59:39.000Z</time>
      </trkpt>
      <trkpt lat="44.31953" lon="6.33196">
        <ele>1429.4000244141</ele>
        <time>2016-07-19T09:59:46.000Z</time>
      </trkpt>
      <trkpt lat="44.31963" lon="6.33203">
        <ele>1429.5999755859</ele>
        <time>2016-07-19T09:59:54.000Z</time>
      </trkpt>
      <trkpt lat="44.31972" lon="6.33212">
        <ele>1429.5999755859</ele>
        <time>2016-07-19T10:00:03.000Z</time>
      </trkpt>
      <trkpt lat="44.31987" lon="6.33226">
        <ele>1429.4000244141</ele>
        <time>2016-07-19T10:00:15.000Z</time>
      </trkpt>
      <trkpt lat="44.31999" lon="6.33236">
        <ele>1429.8000488281</ele>
        <time>2016-07-19T10:00:25.000Z</time>
      </trkpt>
      <trkpt lat="44.32007" lon="6.33236">
        <ele>1430.8000488281</ele>
        <time>2016-07-19T10:00:31.000Z</time>
      </trkpt>
      <trkpt lat="44.32016" lon="6.33236">
        <ele>1432.1999511719</ele>
        <time>2016-07-19T10:00:38.000Z</time>
      </trkpt>
      <trkpt lat="44.32032" lon="6.33233">
        <ele>1435</ele>
        <time>2016-07-19T10:00:49.000Z</time>
      </trkpt>
      <trkpt lat="44.32056" lon="6.33227">
        <ele>1439.5999755859</ele>
        <time>2016-07-19T10:01:06.000Z</time>
      </trkpt>
      <trkpt lat="44.32067" lon="6.33228">
        <ele>1441.1999511719</ele>
        <time>2016-07-19T10:01:14.000Z</time>
      </trkpt>
      <trkpt lat="44.32073" lon="6.33231">
        <ele>1442.1999511719</ele>
        <time>2016-07-19T10:01:19.000Z</time>
      </trkpt>
      <trkpt lat="44.32084" lon="6.33237">
        <ele>1443.5999755859</ele>
        <time>2016-07-19T10:01:28.000Z</time>
      </trkpt>
      <trkpt lat="44.32096" lon="6.33245">
        <ele>1445.1999511719</ele>
        <time>2016-07-19T10:01:37.000Z</time>
      </trkpt>
      <trkpt lat="44.32106" lon="6.33248">
        <ele>1446.5999755859</ele>
        <time>2016-07-19T10:01:45.000Z</time>
      </trkpt>
      <trkpt lat="44.32121" lon="6.3325">
        <ele>1449.5999755859</ele>
        <time>2016-07-19T10:01:55.000Z</time>
      </trkpt>
      <trkpt lat="44.32128" lon="6.33255">
        <ele>1451.1999511719</ele>
        <time>2016-07-19T10:02:01.000Z</time>
      </trkpt>
      <trkpt lat="44.32139" lon="6.33266">
        <ele>1453.5999755859</ele>
        <time>2016-07-19T10:02:11.000Z</time>
      </trkpt>
      <trkpt lat="44.32148" lon="6.33276">
        <ele>1455.1999511719</ele>
        <time>2016-07-19T10:02:19.000Z</time>
      </trkpt>
      <trkpt lat="44.32157" lon="6.33288">
        <ele>1457</ele>
        <time>2016-07-19T10:02:28.000Z</time>
      </trkpt>
      <trkpt lat="44.32168" lon="6.33295">
        <ele>1459.4000244141</ele>
        <time>2016-07-19T10:02:37.000Z</time>
      </trkpt>
      <trkpt lat="44.32179" lon="6.33295">
        <ele>1462.1999511719</ele>
        <time>2016-07-19T10:02:46.000Z</time>
      </trkpt>
      <trkpt lat="44.32193" lon="6.33294">
        <ele>1463.1999511719</ele>
        <time>2016-07-19T10:02:57.000Z</time>
      </trkpt>
      <trkpt lat="44.32204" lon="6.33293">
        <ele>1464.8000488281</ele>
        <time>2016-07-19T10:03:06.000Z</time>
      </trkpt>
      <trkpt lat="44.32212" lon="6.33293">
        <ele>1466.1999511719</ele>
        <time>2016-07-19T10:03:12.000Z</time>
      </trkpt>
      <trkpt lat="44.32224" lon="6.33291">
        <ele>1468.4000244141</ele>
        <time>2016-07-19T10:03:22.000Z</time>
      </trkpt>
      <trkpt lat="44.32237" lon="6.33289">
        <ele>1470.5999755859</ele>
        <time>2016-07-19T10:03:32.000Z</time>
      </trkpt>
      <trkpt lat="44.32252" lon="6.33289">
        <ele>1473.5999755859</ele>
        <time>2016-07-19T10:03:42.000Z</time>
      </trkpt>
      <trkpt lat="44.32261" lon="6.3329">
        <ele>1474.8000488281</ele>
        <time>2016-07-19T10:03:48.000Z</time>
      </trkpt>
      <trkpt lat="44.32272" lon="6.33285">
        <ele>1474.5999755859</ele>
        <time>2016-07-19T10:03:56.000Z</time>
      </trkpt>
      <trkpt lat="44.32281" lon="6.33271">
        <ele>1472.4000244141</ele>
        <time>2016-07-19T10:04:05.000Z</time>
      </trkpt>
      <trkpt lat="44.32295" lon="6.33264">
        <ele>1473.1999511719</ele>
        <time>2016-07-19T10:04:16.000Z</time>
      </trkpt>
      <trkpt lat="44.3231" lon="6.33262">
        <ele>1475.5999755859</ele>
        <time>2016-07-19T10:04:26.000Z</time>
      </trkpt>
      <trkpt lat="44.32323" lon="6.33256">
        <ele>1475.1999511719</ele>
        <time>2016-07-19T10:04:35.000Z</time>
      </trkpt>
      <trkpt lat="44.32333" lon="6.33247">
        <ele>1473.8000488281</ele>
        <time>2016-07-19T10:04:44.000Z</time>
      </trkpt>
      <trkpt lat="44.32339" lon="6.33243">
        <ele>1473.1999511719</ele>
        <time>2016-07-19T10:04:51.000Z</time>
      </trkpt>
      <trkpt lat="44.32346" lon="6.3324">
        <ele>1473</ele>
        <time>2016-07-19T10:04:58.000Z</time>
      </trkpt>
      <trkpt lat="44.32351" lon="6.33243">
        <ele>1474.4000244141</ele>
        <time>2016-07-19T10:05:04.000Z</time>
      </trkpt>
      <trkpt lat="44.32354" lon="6.33246">
        <ele>1475.5999755859</ele>
        <time>2016-07-19T10:05:07.000Z</time>
      </trkpt>
      <trkpt lat="44.3236" lon="6.33245">
        <ele>1476</ele>
        <time>2016-07-19T10:05:13.000Z</time>
      </trkpt>
      <trkpt lat="44.32374" lon="6.33237">
        <ele>1475.5999755859</ele>
        <time>2016-07-19T10:05:25.000Z</time>
      </trkpt>
      <trkpt lat="44.32383" lon="6.33222">
        <ele>1472.1999511719</ele>
        <time>2016-07-19T10:05:35.000Z</time>
      </trkpt>
      <trkpt lat="44.32392" lon="6.33209">
        <ele>1470.1999511719</ele>
        <time>2016-07-19T10:05:45.000Z</time>
      </trkpt>
      <trkpt lat="44.32403" lon="6.33197">
        <ele>1468.8000488281</ele>
        <time>2016-07-19T10:05:55.000Z</time>
      </trkpt>
      <trkpt lat="44.32411" lon="6.33188">
        <ele>1467.1999511719</ele>
        <time>2016-07-19T10:06:02.000Z</time>
      </trkpt>
      <trkpt lat="44.32417" lon="6.33175">
        <ele>1464.5999755859</ele>
        <time>2016-07-19T10:06:10.000Z</time>
      </trkpt>
      <trkpt lat="44.32416" lon="6.3316">
        <ele>1461.1999511719</ele>
        <time>2016-07-19T10:06:16.000Z</time>
      </trkpt>
      <trkpt lat="44.32414" lon="6.3315">
        <ele>1458.5999755859</ele>
        <time>2016-07-19T10:06:22.000Z</time>
      </trkpt>
      <trkpt lat="44.32412" lon="6.33135">
        <ele>1455.5999755859</ele>
        <time>2016-07-19T10:06:31.000Z</time>
      </trkpt>
      <trkpt lat="44.32409" lon="6.33125">
        <ele>1453.8000488281</ele>
        <time>2016-07-19T10:06:38.000Z</time>
      </trkpt>
      <trkpt lat="44.32406" lon="6.33111">
        <ele>1451.4000244141</ele>
        <time>2016-07-19T10:06:46.000Z</time>
      </trkpt>
      <trkpt lat="44.32402" lon="6.33103">
        <ele>1449.5999755859</ele>
        <time>2016-07-19T10:06:51.000Z</time>
      </trkpt>
      <trkpt lat="44.32396" lon="6.33091">
        <ele>1447.4000244141</ele>
        <time>2016-07-19T10:06:58.000Z</time>
      </trkpt>
      <trkpt lat="44.32388" lon="6.33079">
        <ele>1445</ele>
        <time>2016-07-19T10:07:06.000Z</time>
      </trkpt>
      <trkpt lat="44.32382" lon="6.33073">
        <ele>1443.5999755859</ele>
        <time>2016-07-19T10:07:11.000Z</time>
      </trkpt>
      <trkpt lat="44.32375" lon="6.33069">
        <ele>1442</ele>
        <time>2016-07-19T10:07:16.000Z</time>
      </trkpt>
      <trkpt lat="44.32371" lon="6.33063">
        <ele>1440.8000488281</ele>
        <time>2016-07-19T10:07:20.000Z</time>
      </trkpt>
      <trkpt lat="44.3237" lon="6.33058">
        <ele>1440.1999511719</ele>
        <time>2016-07-19T10:07:22.000Z</time>
      </trkpt>
      <trkpt lat="44.32369" lon="6.33045">
        <ele>1438.1999511719</ele>
        <time>2016-07-19T10:07:28.000Z</time>
      </trkpt>
      <trkpt lat="44.32371" lon="6.33028">
        <ele>1436.1999511719</ele>
        <time>2016-07-19T10:07:36.000Z</time>
      </trkpt>
      <trkpt lat="44.32369" lon="6.33013">
        <ele>1434</ele>
        <time>2016-07-19T10:07:43.000Z</time>
      </trkpt>
      <trkpt lat="44.32364" lon="6.32997">
        <ele>1431.1999511719</ele>
        <time>2016-07-19T10:07:51.000Z</time>
      </trkpt>
      <trkpt lat="44.32363" lon="6.32981">
        <ele>1429</ele>
        <time>2016-07-19T10:07:59.000Z</time>
      </trkpt>
      <trkpt lat="44.32364" lon="6.32974">
        <ele>1428.5999755859</ele>
        <time>2016-07-19T10:08:04.000Z</time>
      </trkpt>
      <trkpt lat="44.32364" lon="6.32973">
        <ele>1428.4000244141</ele>
        <time>2016-07-19T10:08:05.000Z</time>
      </trkpt>
      <trkpt lat="44.32379" lon="6.3296">
        <ele>1429.5999755859</ele>
        <time>2016-07-19T10:08:19.000Z</time>
      </trkpt>
      <trkpt lat="44.32389" lon="6.32955">
        <ele>1430.8000488281</ele>
        <time>2016-07-19T10:08:27.000Z</time>
      </trkpt>
      <trkpt lat="44.32396" lon="6.32955">
        <ele>1431.8000488281</ele>
        <time>2016-07-19T10:08:33.000Z</time>
      </trkpt>
      <trkpt lat="44.32405" lon="6.32957">
        <ele>1433.4000244141</ele>
        <time>2016-07-19T10:08:40.000Z</time>
      </trkpt>
      <trkpt lat="44.32412" lon="6.32959">
        <ele>1434.8000488281</ele>
        <time>2016-07-19T10:08:46.000Z</time>
      </trkpt>
      <trkpt lat="44.32421" lon="6.32965">
        <ele>1436.5999755859</ele>
        <time>2016-07-19T10:08:54.000Z</time>
      </trkpt>
      <trkpt lat="44.3243" lon="6.32973">
        <ele>1438.5999755859</ele>
        <time>2016-07-19T10:09:02.000Z</time>
      </trkpt>
      <trkpt lat="44.3244" lon="6.32977">
        <ele>1440.5999755859</ele>
        <time>2016-07-19T10:09:10.000Z</time>
      </trkpt>
      <trkpt lat="44.32447" lon="6.32974">
        <ele>1441</ele>
        <time>2016-07-19T10:09:14.000Z</time>
      </trkpt>
      <trkpt lat="44.32457" lon="6.32972">
        <ele>1439.5999755859</ele>
        <time>2016-07-19T10:09:21.000Z</time>
      </trkpt>
      <trkpt lat="44.32473" lon="6.32976">
        <ele>1438.4000244141</ele>
        <time>2016-07-19T10:09:31.000Z</time>
      </trkpt>
      <trkpt lat="44.32486" lon="6.32983">
        <ele>1438.1999511719</ele>
        <time>2016-07-19T10:09:39.000Z</time>
      </trkpt>
      <trkpt lat="44.32494" lon="6.3299">
        <ele>1438.1999511719</ele>
        <time>2016-07-19T10:09:45.000Z</time>
      </trkpt>
      <trkpt lat="44.32506" lon="6.32995">
        <ele>1437.5999755859</ele>
        <time>2016-07-19T10:09:53.000Z</time>
      </trkpt>
      <trkpt lat="44.32523" lon="6.32999">
        <ele>1436.4000244141</ele>
        <time>2016-07-19T10:10:05.000Z</time>
      </trkpt>
      <trkpt lat="44.32534" lon="6.32999">
        <ele>1435.5999755859</ele>
        <time>2016-07-19T10:10:13.000Z</time>
      </trkpt>
      <trkpt lat="44.32546" lon="6.32997">
        <ele>1435.1999511719</ele>
        <time>2016-07-19T10:10:21.000Z</time>
      </trkpt>
      <trkpt lat="44.32548" lon="6.32997">
        <ele>1435.1999511719</ele>
        <time>2016-07-19T10:10:22.000Z</time>
      </trkpt>
      <trkpt lat="44.32559" lon="6.33002">
        <ele>1436</ele>
        <time>2016-07-19T10:10:30.000Z</time>
      </trkpt>
      <trkpt lat="44.32565" lon="6.33007">
        <ele>1436.8000488281</ele>
        <time>2016-07-19T10:10:36.000Z</time>
      </trkpt>
      <trkpt lat="44.32566" lon="6.33004">
        <ele>1436.5999755859</ele>
        <time>2016-07-19T10:10:42.000Z</time>
      </trkpt>
      <trkpt lat="44.32564" lon="6.33001">
        <ele>1436.1999511719</ele>
        <time>2016-07-19T10:10:46.000Z</time>
      </trkpt>
      <trkpt lat="44.32562" lon="6.33004">
        <ele>1436.4000244141</ele>
        <time>2016-07-19T10:10:50.000Z</time>
      </trkpt>
      <trkpt lat="44.32557" lon="6.33005">
        <ele>1436.4000244141</ele>
        <time>2016-07-19T10:10:57.000Z</time>
      </trkpt>
      <trkpt lat="44.32557" lon="6.33006">
        <ele>1436.4000244141</ele>
        <time>2016-07-19T10:10:58.000Z</time>
      </trkpt>
      <trkpt lat="44.32555" lon="6.33007">
        <ele>1436.5999755859</ele>
        <time>2016-07-19T10:11:03.000Z</time>
      </trkpt>
      <trkpt lat="44.32554" lon="6.33006">
        <ele>1436.4000244141</ele>
        <time>2016-07-19T10:11:09.000Z</time>
      </trkpt>
      <trkpt lat="44.32561" lon="6.33">
        <ele>1436</ele>
        <time>2016-07-19T10:11:16.000Z</time>
      </trkpt>
      <trkpt lat="44.32563" lon="6.33001">
        <ele>1436.1999511719</ele>
        <time>2016-07-19T10:11:23.000Z</time>
      </trkpt>
      <trkpt lat="44.32562" lon="6.33002">
        <ele>1436.1999511719</ele>
        <time>2016-07-19T10:11:28.000Z</time>
      </trkpt>
      <trkpt lat="44.32563" lon="6.33003">
        <ele>1436.1999511719</ele>
        <time>2016-07-19T10:11:29.000Z</time>
      </trkpt>
      <trkpt lat="44.3257" lon="6.33012">
        <ele>1437.4000244141</ele>
        <time>2016-07-19T10:11:36.000Z</time>
      </trkpt>
      <trkpt lat="44.32581" lon="6.33028">
        <ele>1439.4000244141</ele>
        <time>2016-07-19T10:11:47.000Z</time>
      </trkpt>
      <trkpt lat="44.32592" lon="6.33042">
        <ele>1441.1999511719</ele>
        <time>2016-07-19T10:11:57.000Z</time>
      </trkpt>
      <trkpt lat="44.32598" lon="6.33047">
        <ele>1441.8000488281</ele>
        <time>2016-07-19T10:12:02.000Z</time>
      </trkpt>
      <trkpt lat="44.3261" lon="6.33047">
        <ele>1442.1999511719</ele>
        <time>2016-07-19T10:12:11.000Z</time>
      </trkpt>
      <trkpt lat="44.32615" lon="6.33044">
        <ele>1442.1999511719</ele>
        <time>2016-07-19T10:12:15.000Z</time>
      </trkpt>
      <trkpt lat="44.32618" lon="6.3305">
        <ele>1442.8000488281</ele>
        <time>2016-07-19T10:12:19.000Z</time>
      </trkpt>
      <trkpt lat="44.32618" lon="6.33053">
        <ele>1443.1999511719</ele>
        <time>2016-07-19T10:12:21.000Z</time>
      </trkpt>
      <trkpt lat="44.32615" lon="6.3306">
        <ele>1443.5999755859</ele>
        <time>2016-07-19T10:12:27.000Z</time>
      </trkpt>
      <trkpt lat="44.32615" lon="6.33061">
        <ele>1443.8000488281</ele>
        <time>2016-07-19T10:12:39.000Z</time>
      </trkpt>
      <trkpt lat="44.32618" lon="6.3306">
        <ele>1443.8000488281</ele>
        <time>2016-07-19T10:13:30.000Z</time>
      </trkpt>
      <trkpt lat="44.32623" lon="6.33051">
        <ele>1443.4000244141</ele>
        <time>2016-07-19T10:13:36.000Z</time>
      </trkpt>
      <trkpt lat="44.32623" lon="6.33033">
        <ele>1441.5999755859</ele>
        <time>2016-07-19T10:13:45.000Z</time>
      </trkpt>
      <trkpt lat="44.32621" lon="6.33019">
        <ele>1440</ele>
        <time>2016-07-19T10:13:52.000Z</time>
      </trkpt>
      <trkpt lat="44.32626" lon="6.32974">
        <ele>1438.8000488281</ele>
        <time>2016-07-19T10:14:15.000Z</time>
      </trkpt>
      <trkpt lat="44.32631" lon="6.32968">
        <ele>1440.1999511719</ele>
        <time>2016-07-19T10:14:21.000Z</time>
      </trkpt>
      <trkpt lat="44.32642" lon="6.32953">
        <ele>1443.4000244141</ele>
        <time>2016-07-19T10:14:32.000Z</time>
      </trkpt>
      <trkpt lat="44.32656" lon="6.32936">
        <ele>1447.1999511719</ele>
        <time>2016-07-19T10:14:45.000Z</time>
      </trkpt>
      <trkpt lat="44.32665" lon="6.32928">
        <ele>1448.4000244141</ele>
        <time>2016-07-19T10:14:53.000Z</time>
      </trkpt>
      <trkpt lat="44.32676" lon="6.32915">
        <ele>1450</ele>
        <time>2016-07-19T10:15:03.000Z</time>
      </trkpt>
      <trkpt lat="44.32687" lon="6.32906">
        <ele>1451.5999755859</ele>
        <time>2016-07-19T10:15:12.000Z</time>
      </trkpt>
      <trkpt lat="44.32698" lon="6.32896">
        <ele>1453.1999511719</ele>
        <time>2016-07-19T10:15:21.000Z</time>
      </trkpt>
      <trkpt lat="44.32708" lon="6.32884">
        <ele>1455.8000488281</ele>
        <time>2016-07-19T10:15:30.000Z</time>
      </trkpt>
      <trkpt lat="44.32716" lon="6.32869">
        <ele>1458.1999511719</ele>
        <time>2016-07-19T10:15:39.000Z</time>
      </trkpt>
      <trkpt lat="44.32722" lon="6.32845">
        <ele>1460.4000244141</ele>
        <time>2016-07-19T10:15:51.000Z</time>
      </trkpt>
      <trkpt lat="44.32725" lon="6.32825">
        <ele>1460.4000244141</ele>
        <time>2016-07-19T10:16:02.000Z</time>
      </trkpt>
      <trkpt lat="44.32724" lon="6.32818">
        <ele>1459.8000488281</ele>
        <time>2016-07-19T10:16:11.000Z</time>
      </trkpt>
      <trkpt lat="44.32722" lon="6.32818">
        <ele>1459.5999755859</ele>
        <time>2016-07-19T10:16:17.000Z</time>
      </trkpt>
      <trkpt lat="44.32723" lon="6.32811">
        <ele>1459.8000488281</ele>
        <time>2016-07-19T10:16:55.000Z</time>
      </trkpt>
      <trkpt lat="44.32726" lon="6.32795">
        <ele>1461.4000244141</ele>
        <time>2016-07-19T10:17:04.000Z</time>
      </trkpt>
      <trkpt lat="44.32731" lon="6.32778">
        <ele>1463.4000244141</ele>
        <time>2016-07-19T10:17:14.000Z</time>
      </trkpt>
      <trkpt lat="44.32734" lon="6.32771">
        <ele>1464.1999511719</ele>
        <time>2016-07-19T10:17:20.000Z</time>
      </trkpt>
      <trkpt lat="44.32733" lon="6.3277">
        <ele>1464.1999511719</ele>
        <time>2016-07-19T10:17:28.000Z</time>
      </trkpt>
      <trkpt lat="44.32731" lon="6.32771">
        <ele>1463.8000488281</ele>
        <time>2016-07-19T10:17:34.000Z</time>
      </trkpt>
      <trkpt lat="44.3273" lon="6.32771">
        <ele>1463.8000488281</ele>
        <time>2016-07-19T10:17:40.000Z</time>
      </trkpt>
      <trkpt lat="44.3273" lon="6.32772">
        <ele>1463.5999755859</ele>
        <time>2016-07-19T10:21:16.000Z</time>
      </trkpt>
      <trkpt lat="44.32731" lon="6.32767">
        <ele>1464.1999511719</ele>
        <time>2016-07-19T10:21:20.000Z</time>
      </trkpt>
      <trkpt lat="44.32733" lon="6.32765">
        <ele>1464.4000244141</ele>
        <time>2016-07-19T10:21:22.000Z</time>
      </trkpt>
      <trkpt lat="44.32732" lon="6.32758">
        <ele>1464</ele>
        <time>2016-07-19T10:21:29.000Z</time>
      </trkpt>
      <trkpt lat="44.32734" lon="6.32762">
        <ele>1464.1999511719</ele>
        <time>2016-07-19T10:22:16.000Z</time>
      </trkpt>
      <trkpt lat="44.32735" lon="6.3277">
        <ele>1464.4000244141</ele>
        <time>2016-07-19T10:22:21.000Z</time>
      </trkpt>
      <trkpt lat="44.32733" lon="6.3277">
        <ele>1464.1999511719</ele>
        <time>2016-07-19T10:22:26.000Z</time>
      </trkpt>
      <trkpt lat="44.32732" lon="6.32771">
        <ele>1464</ele>
        <time>2016-07-19T10:22:36.000Z</time>
      </trkpt>
      <trkpt lat="44.32733" lon="6.3277">
        <ele>1464.1999511719</ele>
        <time>2016-07-19T10:22:40.000Z</time>
      </trkpt>
      <trkpt lat="44.32732" lon="6.32765">
        <ele>1464.4000244141</ele>
        <time>2016-07-19T10:24:28.000Z</time>
      </trkpt>
      <trkpt lat="44.32733" lon="6.32764">
        <ele>1464.4000244141</ele>
        <time>2016-07-19T10:24:44.000Z</time>
      </trkpt>
      <trkpt lat="44.32737" lon="6.32768">
        <ele>1464.4000244141</ele>
        <time>2016-07-19T10:24:49.000Z</time>
      </trkpt>
      <trkpt lat="44.32734" lon="6.32779">
        <ele>1463.4000244141</ele>
        <time>2016-07-19T10:24:55.000Z</time>
      </trkpt>
      <trkpt lat="44.32733" lon="6.32781">
        <ele>1463.1999511719</ele>
        <time>2016-07-19T10:24:56.000Z</time>
      </trkpt>
      <trkpt lat="44.32728" lon="6.32796">
        <ele>1461.4000244141</ele>
        <time>2016-07-19T10:25:04.000Z</time>
      </trkpt>
      <trkpt lat="44.3272" lon="6.32809">
        <ele>1459.5999755859</ele>
        <time>2016-07-19T10:25:09.000Z</time>
      </trkpt>
      <trkpt lat="44.32708" lon="6.32813">
        <ele>1458.1999511719</ele>
        <time>2016-07-19T10:25:16.000Z</time>
      </trkpt>
      <trkpt lat="44.32698" lon="6.32809">
        <ele>1457.4000244141</ele>
        <time>2016-07-19T10:25:24.000Z</time>
      </trkpt>
      <trkpt lat="44.32686" lon="6.32803">
        <ele>1458.1999511719</ele>
        <time>2016-07-19T10:25:33.000Z</time>
      </trkpt>
      <trkpt lat="44.3267" lon="6.32795">
        <ele>1458.5999755859</ele>
        <time>2016-07-19T10:25:44.000Z</time>
      </trkpt>
      <trkpt lat="44.32658" lon="6.3279">
        <ele>1458.5999755859</ele>
        <time>2016-07-19T10:25:52.000Z</time>
      </trkpt>
      <trkpt lat="44.32646" lon="6.32787">
        <ele>1458.4000244141</ele>
        <time>2016-07-19T10:26:01.000Z</time>
      </trkpt>
      <trkpt lat="44.32634" lon="6.32785">
        <ele>1458</ele>
        <time>2016-07-19T10:26:09.000Z</time>
      </trkpt>
      <trkpt lat="44.32626" lon="6.32783">
        <ele>1457.8000488281</ele>
        <time>2016-07-19T10:26:15.000Z</time>
      </trkpt>
      <trkpt lat="44.32618" lon="6.32784">
        <ele>1457.4000244141</ele>
        <time>2016-07-19T10:26:21.000Z</time>
      </trkpt>
      <trkpt lat="44.32605" lon="6.32786">
        <ele>1456.1999511719</ele>
        <time>2016-07-19T10:26:31.000Z</time>
      </trkpt>
      <trkpt lat="44.32595" lon="6.32789">
        <ele>1455.1999511719</ele>
        <time>2016-07-19T10:26:39.000Z</time>
      </trkpt>
      <trkpt lat="44.3258" lon="6.32792">
        <ele>1454.4000244141</ele>
        <time>2016-07-19T10:26:50.000Z</time>
      </trkpt>
      <trkpt lat="44.3257" lon="6.32793">
        <ele>1454.1999511719</ele>
        <time>2016-07-19T10:26:58.000Z</time>
      </trkpt>
      <trkpt lat="44.32562" lon="6.32794">
        <ele>1454</ele>
        <time>2016-07-19T10:27:05.000Z</time>
      </trkpt>
      <trkpt lat="44.32549" lon="6.32797">
        <ele>1453.4000244141</ele>
        <time>2016-07-19T10:27:14.000Z</time>
      </trkpt>
      <trkpt lat="44.32537" lon="6.32801">
        <ele>1452.8000488281</ele>
        <time>2016-07-19T10:27:23.000Z</time>
      </trkpt>
      <trkpt lat="44.32528" lon="6.32804">
        <ele>1451.8000488281</ele>
        <time>2016-07-19T10:27:29.000Z</time>
      </trkpt>
      <trkpt lat="44.32517" lon="6.32799">
        <ele>1450.4000244141</ele>
        <time>2016-07-19T10:27:37.000Z</time>
      </trkpt>
      <trkpt lat="44.32518" lon="6.32788">
        <ele>1452</ele>
        <time>2016-07-19T10:27:43.000Z</time>
      </trkpt>
      <trkpt lat="44.32525" lon="6.3278">
        <ele>1454.4000244141</ele>
        <time>2016-07-19T10:27:50.000Z</time>
      </trkpt>
      <trkpt lat="44.32536" lon="6.3277">
        <ele>1456.8000488281</ele>
        <time>2016-07-19T10:27:59.000Z</time>
      </trkpt>
      <trkpt lat="44.32543" lon="6.32766">
        <ele>1457.5999755859</ele>
        <time>2016-07-19T10:28:05.000Z</time>
      </trkpt>
      <trkpt lat="44.32552" lon="6.32761">
        <ele>1458.1999511719</ele>
        <time>2016-07-19T10:28:12.000Z</time>
      </trkpt>
      <trkpt lat="44.32558" lon="6.32756">
        <ele>1459</ele>
        <time>2016-07-19T10:28:19.000Z</time>
      </trkpt>
      <trkpt lat="44.32562" lon="6.32752">
        <ele>1460</ele>
        <time>2016-07-19T10:28:25.000Z</time>
      </trkpt>
      <trkpt lat="44.32568" lon="6.32747">
        <ele>1461</ele>
        <time>2016-07-19T10:28:31.000Z</time>
      </trkpt>
      <trkpt lat="44.3257" lon="6.32736">
        <ele>1463</ele>
        <time>2016-07-19T10:28:38.000Z</time>
      </trkpt>
      <trkpt lat="44.32565" lon="6.32718">
        <ele>1464.8000488281</ele>
        <time>2016-07-19T10:28:48.000Z</time>
      </trkpt>
      <trkpt lat="44.32559" lon="6.32699">
        <ele>1466</ele>
        <time>2016-07-19T10:28:59.000Z</time>
      </trkpt>
      <trkpt lat="44.32552" lon="6.3268">
        <ele>1467.1999511719</ele>
        <time>2016-07-19T10:29:10.000Z</time>
      </trkpt>
      <trkpt lat="44.3255" lon="6.32676">
        <ele>1467.5999755859</ele>
        <time>2016-07-19T10:29:13.000Z</time>
      </trkpt>
      <trkpt lat="44.32548" lon="6.32673">
        <ele>1467.5999755859</ele>
        <time>2016-07-19T10:29:16.000Z</time>
      </trkpt>
      <trkpt lat="44.32538" lon="6.32668">
        <ele>1467.5999755859</ele>
        <time>2016-07-19T10:29:24.000Z</time>
      </trkpt>
      <trkpt lat="44.32534" lon="6.32665">
        <ele>1467.5999755859</ele>
        <time>2016-07-19T10:29:28.000Z</time>
      </trkpt>
      <trkpt lat="44.32531" lon="6.32656">
        <ele>1468.1999511719</ele>
        <time>2016-07-19T10:29:33.000Z</time>
      </trkpt>
      <trkpt lat="44.32528" lon="6.32641">
        <ele>1469.8000488281</ele>
        <time>2016-07-19T10:29:41.000Z</time>
      </trkpt>
      <trkpt lat="44.32532" lon="6.32624">
        <ele>1473.5999755859</ele>
        <time>2016-07-19T10:29:50.000Z</time>
      </trkpt>
      <trkpt lat="44.32539" lon="6.3261">
        <ele>1476.5999755859</ele>
        <time>2016-07-19T10:29:59.000Z</time>
      </trkpt>
      <trkpt lat="44.32543" lon="6.32594">
        <ele>1479.8000488281</ele>
        <time>2016-07-19T10:30:08.000Z</time>
      </trkpt>
      <trkpt lat="44.32543" lon="6.32576">
        <ele>1483.1999511719</ele>
        <time>2016-07-19T10:30:17.000Z</time>
      </trkpt>
      <trkpt lat="44.32541" lon="6.32555">
        <ele>1485.1999511719</ele>
        <time>2016-07-19T10:30:27.000Z</time>
      </trkpt>
      <trkpt lat="44.32539" lon="6.32538">
        <ele>1486.1999511719</ele>
        <time>2016-07-19T10:30:35.000Z</time>
      </trkpt>
      <trkpt lat="44.3254" lon="6.32518">
        <ele>1487.4000244141</ele>
        <time>2016-07-19T10:30:45.000Z</time>
      </trkpt>
      <trkpt lat="44.32547" lon="6.32502">
        <ele>1488</ele>
        <time>2016-07-19T10:30:55.000Z</time>
      </trkpt>
      <trkpt lat="44.32555" lon="6.32485">
        <ele>1490.1999511719</ele>
        <time>2016-07-19T10:31:05.000Z</time>
      </trkpt>
      <trkpt lat="44.32567" lon="6.32468">
        <ele>1491.1999511719</ele>
        <time>2016-07-19T10:31:17.000Z</time>
      </trkpt>
      <trkpt lat="44.3258" lon="6.32448">
        <ele>1491.4000244141</ele>
        <time>2016-07-19T10:31:30.000Z</time>
      </trkpt>
      <trkpt lat="44.32589" lon="6.32434">
        <ele>1494</ele>
        <time>2016-07-19T10:31:39.000Z</time>
      </trkpt>
      <trkpt lat="44.32598" lon="6.32417">
        <ele>1497.4000244141</ele>
        <time>2016-07-19T10:31:50.000Z</time>
      </trkpt>
      <trkpt lat="44.32605" lon="6.32401">
        <ele>1500.1999511719</ele>
        <time>2016-07-19T10:32:00.000Z</time>
      </trkpt>
      <trkpt lat="44.32605" lon="6.32387">
        <ele>1501.4000244141</ele>
        <time>2016-07-19T10:32:08.000Z</time>
      </trkpt>
      <trkpt lat="44.32605" lon="6.32385">
        <ele>1501.4000244141</ele>
        <time>2016-07-19T10:32:09.000Z</time>
      </trkpt>
      <trkpt lat="44.32604" lon="6.32387">
        <ele>1501.1999511719</ele>
        <time>2016-07-19T10:32:15.000Z</time>
      </trkpt>
      <trkpt lat="44.32609" lon="6.32383">
        <ele>1502</ele>
        <time>2016-07-19T10:32:19.000Z</time>
      </trkpt>
      <trkpt lat="44.32611" lon="6.32381">
        <ele>1502.4000244141</ele>
        <time>2016-07-19T10:32:21.000Z</time>
      </trkpt>
      <trkpt lat="44.32618" lon="6.32369">
        <ele>1502.5999755859</ele>
        <time>2016-07-19T10:32:29.000Z</time>
      </trkpt>
      <trkpt lat="44.32622" lon="6.32353">
        <ele>1502.5999755859</ele>
        <time>2016-07-19T10:32:37.000Z</time>
      </trkpt>
      <trkpt lat="44.32623" lon="6.32333">
        <ele>1503.4000244141</ele>
        <time>2016-07-19T10:32:47.000Z</time>
      </trkpt>
      <trkpt lat="44.32624" lon="6.32318">
        <ele>1504.4000244141</ele>
        <time>2016-07-19T10:32:55.000Z</time>
      </trkpt>
      <trkpt lat="44.32625" lon="6.32296">
        <ele>1504.5999755859</ele>
        <time>2016-07-19T10:33:06.000Z</time>
      </trkpt>
      <trkpt lat="44.3262" lon="6.32285">
        <ele>1505.1999511719</ele>
        <time>2016-07-19T10:33:13.000Z</time>
      </trkpt>
      <trkpt lat="44.32613" lon="6.32287">
        <ele>1505.8000488281</ele>
        <time>2016-07-19T10:33:17.000Z</time>
      </trkpt>
      <trkpt lat="44.32603" lon="6.32292">
        <ele>1503.8000488281</ele>
        <time>2016-07-19T10:33:26.000Z</time>
      </trkpt>
      <trkpt lat="44.326" lon="6.32295">
        <ele>1503.4000244141</ele>
        <time>2016-07-19T10:33:32.000Z</time>
      </trkpt>
      <trkpt lat="44.326" lon="6.32297">
        <ele>1503.4000244141</ele>
        <time>2016-07-19T10:33:55.000Z</time>
      </trkpt>
      <trkpt lat="44.32601" lon="6.32298">
        <ele>1503.5999755859</ele>
        <time>2016-07-19T10:34:13.000Z</time>
      </trkpt>
      <trkpt lat="44.32599" lon="6.32298">
        <ele>1503.1999511719</ele>
        <time>2016-07-19T10:34:18.000Z</time>
      </trkpt>
      <trkpt lat="44.32599" lon="6.32299">
        <ele>1503.1999511719</ele>
        <time>2016-07-19T10:34:23.000Z</time>
      </trkpt>
      <trkpt lat="44.32599" lon="6.323">
        <ele>1503.1999511719</ele>
        <time>2016-07-19T10:34:28.000Z</time>
      </trkpt>
      <trkpt lat="44.32597" lon="6.32295">
        <ele>1502.8000488281</ele>
        <time>2016-07-19T10:34:46.000Z</time>
      </trkpt>
      <trkpt lat="44.32597" lon="6.32291">
        <ele>1502.8000488281</ele>
        <time>2016-07-19T10:34:54.000Z</time>
      </trkpt>
      <trkpt lat="44.32598" lon="6.32293">
        <ele>1503</ele>
        <time>2016-07-19T10:35:00.000Z</time>
      </trkpt>
      <trkpt lat="44.32596" lon="6.32285">
        <ele>1502.5999755859</ele>
        <time>2016-07-19T10:35:59.000Z</time>
      </trkpt>
      <trkpt lat="44.32598" lon="6.3229">
        <ele>1502.8000488281</ele>
        <time>2016-07-19T10:36:03.000Z</time>
      </trkpt>
      <trkpt lat="44.32598" lon="6.32294">
        <ele>1503</ele>
        <time>2016-07-19T10:36:11.000Z</time>
      </trkpt>
      <trkpt lat="44.32598" lon="6.32293">
        <ele>1503</ele>
        <time>2016-07-19T10:36:28.000Z</time>
      </trkpt>
      <trkpt lat="44.32596" lon="6.32292">
        <ele>1502.5999755859</ele>
        <time>2016-07-19T10:36:33.000Z</time>
      </trkpt>
      <trkpt lat="44.32596" lon="6.32291">
        <ele>1502.5999755859</ele>
        <time>2016-07-19T10:36:44.000Z</time>
      </trkpt>
      <trkpt lat="44.32594" lon="6.32291">
        <ele>1502.1999511719</ele>
        <time>2016-07-19T10:36:49.000Z</time>
      </trkpt>
      <trkpt lat="44.32595" lon="6.32294">
        <ele>1502.4000244141</ele>
        <time>2016-07-19T10:36:54.000Z</time>
      </trkpt>
      <trkpt lat="44.32595" lon="6.32296">
        <ele>1502.5999755859</ele>
        <time>2016-07-19T10:37:00.000Z</time>
      </trkpt>
      <trkpt lat="44.326" lon="6.32298">
        <ele>1503.4000244141</ele>
        <time>2016-07-19T10:38:33.000Z</time>
      </trkpt>
      <trkpt lat="44.32601" lon="6.32299">
        <ele>1503.5999755859</ele>
        <time>2016-07-19T10:38:40.000Z</time>
      </trkpt>
      <trkpt lat="44.326" lon="6.32299">
        <ele>1503.1999511719</ele>
        <time>2016-07-19T10:38:50.000Z</time>
      </trkpt>
      <trkpt lat="44.32598" lon="6.32297">
        <ele>1503</ele>
        <time>2016-07-19T10:38:55.000Z</time>
      </trkpt>
      <trkpt lat="44.32598" lon="6.32298">
        <ele>1503</ele>
        <time>2016-07-19T10:39:12.000Z</time>
      </trkpt>
      <trkpt lat="44.32601" lon="6.323">
        <ele>1503.5999755859</ele>
        <time>2016-07-19T10:39:16.000Z</time>
      </trkpt>
      <trkpt lat="44.32601" lon="6.32301">
        <ele>1503.5999755859</ele>
        <time>2016-07-19T10:39:22.000Z</time>
      </trkpt>
      <trkpt lat="44.32602" lon="6.32301">
        <ele>1503.8000488281</ele>
        <time>2016-07-19T10:40:20.000Z</time>
      </trkpt>
      <trkpt lat="44.32603" lon="6.32302">
        <ele>1504</ele>
        <time>2016-07-19T10:40:31.000Z</time>
      </trkpt>
      <trkpt lat="44.32599" lon="6.323">
        <ele>1503.1999511719</ele>
        <time>2016-07-19T10:40:44.000Z</time>
      </trkpt>
      <trkpt lat="44.32597" lon="6.32299">
        <ele>1502.8000488281</ele>
        <time>2016-07-19T10:40:51.000Z</time>
      </trkpt>
      <trkpt lat="44.32596" lon="6.32299">
        <ele>1502.8000488281</ele>
        <time>2016-07-19T10:40:57.000Z</time>
      </trkpt>
      <trkpt lat="44.32599" lon="6.32297">
        <ele>1503</ele>
        <time>2016-07-19T10:41:55.000Z</time>
      </trkpt>
      <trkpt lat="44.32601" lon="6.32297">
        <ele>1503.4000244141</ele>
        <time>2016-07-19T10:42:03.000Z</time>
      </trkpt>
      <trkpt lat="44.32599" lon="6.32297">
        <ele>1503</ele>
        <time>2016-07-19T10:42:14.000Z</time>
      </trkpt>
      <trkpt lat="44.32596" lon="6.32296">
        <ele>1502.5999755859</ele>
        <time>2016-07-19T10:42:25.000Z</time>
      </trkpt>
      <trkpt lat="44.32596" lon="6.32295">
        <ele>1502.5999755859</ele>
        <time>2016-07-19T10:42:32.000Z</time>
      </trkpt>
      <trkpt lat="44.32597" lon="6.32295">
        <ele>1502.8000488281</ele>
        <time>2016-07-19T10:42:38.000Z</time>
      </trkpt>
      <trkpt lat="44.32598" lon="6.32294">
        <ele>1503</ele>
        <time>2016-07-19T10:42:51.000Z</time>
      </trkpt>
      <trkpt lat="44.32595" lon="6.32291">
        <ele>1502.4000244141</ele>
        <time>2016-07-19T10:43:12.000Z</time>
      </trkpt>
      <trkpt lat="44.32594" lon="6.3229">
        <ele>1502.1999511719</ele>
        <time>2016-07-19T10:43:17.000Z</time>
      </trkpt>
      <trkpt lat="44.32598" lon="6.32293">
        <ele>1503</ele>
        <time>2016-07-19T10:45:02.000Z</time>
      </trkpt>
      <trkpt lat="44.32596" lon="6.32292">
        <ele>1502.5999755859</ele>
        <time>2016-07-19T10:45:08.000Z</time>
      </trkpt>
      <trkpt lat="44.32597" lon="6.32291">
        <ele>1502.8000488281</ele>
        <time>2016-07-19T10:45:30.000Z</time>
      </trkpt>
      <trkpt lat="44.32599" lon="6.32292">
        <ele>1503.1999511719</ele>
        <time>2016-07-19T10:46:13.000Z</time>
      </trkpt>
      <trkpt lat="44.32597" lon="6.32289">
        <ele>1502.8000488281</ele>
        <time>2016-07-19T10:46:29.000Z</time>
      </trkpt>
      <trkpt lat="44.32651" lon="6.32291">
        <ele>1501.5999755859</ele>
        <time>2016-07-19T11:52:29.000Z</time>
      </trkpt>
      <trkpt lat="44.32652" lon="6.32286">
        <ele>1501.4000244141</ele>
        <time>2016-07-19T11:52:34.000Z</time>
      </trkpt>
      <trkpt lat="44.32645" lon="6.32267">
        <ele>1502.1999511719</ele>
        <time>2016-07-19T11:52:40.000Z</time>
      </trkpt>
      <trkpt lat="44.32645" lon="6.32263">
        <ele>1502.1999511719</ele>
        <time>2016-07-19T11:52:42.000Z</time>
      </trkpt>
      <trkpt lat="44.32649" lon="6.3225">
        <ele>1503.1999511719</ele>
        <time>2016-07-19T11:52:50.000Z</time>
      </trkpt>
      <trkpt lat="44.32656" lon="6.32237">
        <ele>1504.4000244141</ele>
        <time>2016-07-19T11:53:00.000Z</time>
      </trkpt>
      <trkpt lat="44.32666" lon="6.32223">
        <ele>1504.8000488281</ele>
        <time>2016-07-19T11:53:12.000Z</time>
      </trkpt>
      <trkpt lat="44.32674" lon="6.3221">
        <ele>1504.8000488281</ele>
        <time>2016-07-19T11:53:22.000Z</time>
      </trkpt>
      <trkpt lat="44.32677" lon="6.32204">
        <ele>1505.4000244141</ele>
        <time>2016-07-19T11:53:26.000Z</time>
      </trkpt>
      <trkpt lat="44.32684" lon="6.32189">
        <ele>1507.1999511719</ele>
        <time>2016-07-19T11:53:36.000Z</time>
      </trkpt>
      <trkpt lat="44.32692" lon="6.32172">
        <ele>1509.4000244141</ele>
        <time>2016-07-19T11:53:46.000Z</time>
      </trkpt>
      <trkpt lat="44.327" lon="6.32161">
        <ele>1510.1999511719</ele>
        <time>2016-07-19T11:53:54.000Z</time>
      </trkpt>
      <trkpt lat="44.32708" lon="6.3215">
        <ele>1510.8000488281</ele>
        <time>2016-07-19T11:54:02.000Z</time>
      </trkpt>
      <trkpt lat="44.32715" lon="6.32142">
        <ele>1511.5999755859</ele>
        <time>2016-07-19T11:54:09.000Z</time>
      </trkpt>
      <trkpt lat="44.32723" lon="6.32132">
        <ele>1512</ele>
        <time>2016-07-19T11:54:17.000Z</time>
      </trkpt>
      <trkpt lat="44.32733" lon="6.3212">
        <ele>1512.5999755859</ele>
        <time>2016-07-19T11:54:27.000Z</time>
      </trkpt>
      <trkpt lat="44.32742" lon="6.32109">
        <ele>1513</ele>
        <time>2016-07-19T11:54:36.000Z</time>
      </trkpt>
      <trkpt lat="44.32754" lon="6.32097">
        <ele>1515.1999511719</ele>
        <time>2016-07-19T11:54:47.000Z</time>
      </trkpt>
      <trkpt lat="44.32756" lon="6.32095">
        <ele>1515.4000244141</ele>
        <time>2016-07-19T11:54:49.000Z</time>
      </trkpt>
      <trkpt lat="44.32766" lon="6.32087">
        <ele>1517</ele>
        <time>2016-07-19T11:54:58.000Z</time>
      </trkpt>
      <trkpt lat="44.32774" lon="6.32077">
        <ele>1518.8000488281</ele>
        <time>2016-07-19T11:55:06.000Z</time>
      </trkpt>
      <trkpt lat="44.32783" lon="6.32066">
        <ele>1520.1999511719</ele>
        <time>2016-07-19T11:55:15.000Z</time>
      </trkpt>
      <trkpt lat="44.32791" lon="6.32053">
        <ele>1520.1999511719</ele>
        <time>2016-07-19T11:55:24.000Z</time>
      </trkpt>
      <trkpt lat="44.32798" lon="6.3204">
        <ele>1520</ele>
        <time>2016-07-19T11:55:33.000Z</time>
      </trkpt>
      <trkpt lat="44.32803" lon="6.32031">
        <ele>1519.8000488281</ele>
        <time>2016-07-19T11:55:39.000Z</time>
      </trkpt>
      <trkpt lat="44.32808" lon="6.32016">
        <ele>1519.8000488281</ele>
        <time>2016-07-19T11:55:48.000Z</time>
      </trkpt>
      <trkpt lat="44.32802" lon="6.32005">
        <ele>1520.8000488281</ele>
        <time>2016-07-19T11:55:55.000Z</time>
      </trkpt>
      <trkpt lat="44.32794" lon="6.31999">
        <ele>1521.8000488281</ele>
        <time>2016-07-19T11:56:02.000Z</time>
      </trkpt>
      <trkpt lat="44.32783" lon="6.31995">
        <ele>1523.1999511719</ele>
        <time>2016-07-19T11:56:08.000Z</time>
      </trkpt>
      <trkpt lat="44.32772" lon="6.31992">
        <ele>1523.8000488281</ele>
        <time>2016-07-19T11:56:16.000Z</time>
      </trkpt>
      <trkpt lat="44.32764" lon="6.31991">
        <ele>1524.1999511719</ele>
        <time>2016-07-19T11:56:23.000Z</time>
      </trkpt>
      <trkpt lat="44.32751" lon="6.31989">
        <ele>1524.8000488281</ele>
        <time>2016-07-19T11:56:32.000Z</time>
      </trkpt>
      <trkpt lat="44.32737" lon="6.31983">
        <ele>1525.4000244141</ele>
        <time>2016-07-19T11:56:42.000Z</time>
      </trkpt>
      <trkpt lat="44.32723" lon="6.31972">
        <ele>1527.4000244141</ele>
        <time>2016-07-19T11:56:53.000Z</time>
      </trkpt>
      <trkpt lat="44.32718" lon="6.31955">
        <ele>1530.4000244141</ele>
        <time>2016-07-19T11:57:02.000Z</time>
      </trkpt>
      <trkpt lat="44.32721" lon="6.31941">
        <ele>1532.8000488281</ele>
        <time>2016-07-19T11:57:10.000Z</time>
      </trkpt>
      <trkpt lat="44.3273" lon="6.31928">
        <ele>1534.4000244141</ele>
        <time>2016-07-19T11:57:20.000Z</time>
      </trkpt>
      <trkpt lat="44.3274" lon="6.31916">
        <ele>1533.5999755859</ele>
        <time>2016-07-19T11:57:30.000Z</time>
      </trkpt>
      <trkpt lat="44.32751" lon="6.31904">
        <ele>1532.8000488281</ele>
        <time>2016-07-19T11:57:41.000Z</time>
      </trkpt>
      <trkpt lat="44.32762" lon="6.31894">
        <ele>1532.4000244141</ele>
        <time>2016-07-19T11:57:51.000Z</time>
      </trkpt>
      <trkpt lat="44.32773" lon="6.31884">
        <ele>1533.4000244141</ele>
        <time>2016-07-19T11:58:01.000Z</time>
      </trkpt>
      <trkpt lat="44.32783" lon="6.31875">
        <ele>1534</ele>
        <time>2016-07-19T11:58:10.000Z</time>
      </trkpt>
      <trkpt lat="44.32791" lon="6.31867">
        <ele>1534.4000244141</ele>
        <time>2016-07-19T11:58:18.000Z</time>
      </trkpt>
      <trkpt lat="44.32794" lon="6.31864">
        <ele>1534.4000244141</ele>
        <time>2016-07-19T11:58:21.000Z</time>
      </trkpt>
      <trkpt lat="44.32803" lon="6.31851">
        <ele>1535.8000488281</ele>
        <time>2016-07-19T11:58:30.000Z</time>
      </trkpt>
      <trkpt lat="44.32806" lon="6.31841">
        <ele>1537.4000244141</ele>
        <time>2016-07-19T11:58:36.000Z</time>
      </trkpt>
      <trkpt lat="44.3281" lon="6.31826">
        <ele>1540.1999511719</ele>
        <time>2016-07-19T11:58:44.000Z</time>
      </trkpt>
      <trkpt lat="44.32812" lon="6.31819">
        <ele>1541.1999511719</ele>
        <time>2016-07-19T11:58:48.000Z</time>
      </trkpt>
      <trkpt lat="44.32813" lon="6.31814">
        <ele>1542</ele>
        <time>2016-07-19T11:58:51.000Z</time>
      </trkpt>
      <trkpt lat="44.32816" lon="6.31803">
        <ele>1543.5999755859</ele>
        <time>2016-07-19T11:58:58.000Z</time>
      </trkpt>
      <trkpt lat="44.32818" lon="6.31789">
        <ele>1545.5999755859</ele>
        <time>2016-07-19T11:59:05.000Z</time>
      </trkpt>
      <trkpt lat="44.3282" lon="6.31774">
        <ele>1548</ele>
        <time>2016-07-19T11:59:12.000Z</time>
      </trkpt>
      <trkpt lat="44.32822" lon="6.31761">
        <ele>1549.5999755859</ele>
        <time>2016-07-19T11:59:19.000Z</time>
      </trkpt>
      <trkpt lat="44.32823" lon="6.31746">
        <ele>1551.8000488281</ele>
        <time>2016-07-19T11:59:27.000Z</time>
      </trkpt>
      <trkpt lat="44.32823" lon="6.31739">
        <ele>1553</ele>
        <time>2016-07-19T11:59:31.000Z</time>
      </trkpt>
      <trkpt lat="44.32822" lon="6.31723">
        <ele>1555.1999511719</ele>
        <time>2016-07-19T11:59:39.000Z</time>
      </trkpt>
      <trkpt lat="44.32821" lon="6.31711">
        <ele>1556.8000488281</ele>
        <time>2016-07-19T11:59:46.000Z</time>
      </trkpt>
      <trkpt lat="44.3282" lon="6.31698">
        <ele>1558.4000244141</ele>
        <time>2016-07-19T11:59:53.000Z</time>
      </trkpt>
      <trkpt lat="44.32819" lon="6.31691">
        <ele>1559.1999511719</ele>
        <time>2016-07-19T11:59:57.000Z</time>
      </trkpt>
      <trkpt lat="44.32819" lon="6.31677">
        <ele>1559.8000488281</ele>
        <time>2016-07-19T12:00:05.000Z</time>
      </trkpt>
      <trkpt lat="44.3282" lon="6.31659">
        <ele>1559.5999755859</ele>
        <time>2016-07-19T12:00:14.000Z</time>
      </trkpt>
      <trkpt lat="44.32819" lon="6.31647">
        <ele>1560.1999511719</ele>
        <time>2016-07-19T12:00:21.000Z</time>
      </trkpt>
      <trkpt lat="44.32813" lon="6.3164">
        <ele>1561.4000244141</ele>
        <time>2016-07-19T12:00:28.000Z</time>
      </trkpt>
      <trkpt lat="44.32809" lon="6.31642">
        <ele>1563.1999511719</ele>
        <time>2016-07-19T12:00:34.000Z</time>
      </trkpt>
      <trkpt lat="44.32806" lon="6.3165">
        <ele>1564.8000488281</ele>
        <time>2016-07-19T12:00:39.000Z</time>
      </trkpt>
      <trkpt lat="44.32805" lon="6.31659">
        <ele>1565</ele>
        <time>2016-07-19T12:00:44.000Z</time>
      </trkpt>
      <trkpt lat="44.32801" lon="6.31677">
        <ele>1565.4000244141</ele>
        <time>2016-07-19T12:00:55.000Z</time>
      </trkpt>
      <trkpt lat="44.32799" lon="6.31682">
        <ele>1565.5999755859</ele>
        <time>2016-07-19T12:00:58.000Z</time>
      </trkpt>
      <trkpt lat="44.32793" lon="6.31694">
        <ele>1566</ele>
        <time>2016-07-19T12:01:07.000Z</time>
      </trkpt>
      <trkpt lat="44.32788" lon="6.31704">
        <ele>1566.4000244141</ele>
        <time>2016-07-19T12:01:15.000Z</time>
      </trkpt>
      <trkpt lat="44.32782" lon="6.31712">
        <ele>1567.4000244141</ele>
        <time>2016-07-19T12:01:21.000Z</time>
      </trkpt>
      <trkpt lat="44.32776" lon="6.3172">
        <ele>1567.8000488281</ele>
        <time>2016-07-19T12:01:27.000Z</time>
      </trkpt>
      <trkpt lat="44.32764" lon="6.3173">
        <ele>1568.5999755859</ele>
        <time>2016-07-19T12:01:38.000Z</time>
      </trkpt>
      <trkpt lat="44.32754" lon="6.31738">
        <ele>1568.8000488281</ele>
        <time>2016-07-19T12:01:47.000Z</time>
      </trkpt>
      <trkpt lat="44.32744" lon="6.31746">
        <ele>1568.5999755859</ele>
        <time>2016-07-19T12:01:56.000Z</time>
      </trkpt>
      <trkpt lat="44.32737" lon="6.3175">
        <ele>1569</ele>
        <time>2016-07-19T12:02:03.000Z</time>
      </trkpt>
      <trkpt lat="44.32729" lon="6.31757">
        <ele>1569</ele>
        <time>2016-07-19T12:02:10.000Z</time>
      </trkpt>
      <trkpt lat="44.32718" lon="6.31765">
        <ele>1568.8000488281</ele>
        <time>2016-07-19T12:02:19.000Z</time>
      </trkpt>
      <trkpt lat="44.32708" lon="6.31772">
        <ele>1568.5999755859</ele>
        <time>2016-07-19T12:02:27.000Z</time>
      </trkpt>
      <trkpt lat="44.32699" lon="6.31777">
        <ele>1568.8000488281</ele>
        <time>2016-07-19T12:02:34.000Z</time>
      </trkpt>
      <trkpt lat="44.32688" lon="6.31783">
        <ele>1568.5999755859</ele>
        <time>2016-07-19T12:02:42.000Z</time>
      </trkpt>
      <trkpt lat="44.32677" lon="6.3179">
        <ele>1568.1999511719</ele>
        <time>2016-07-19T12:02:51.000Z</time>
      </trkpt>
      <trkpt lat="44.32652" lon="6.31796">
        <ele>1570</ele>
        <time>2016-07-19T12:03:09.000Z</time>
      </trkpt>
      <trkpt lat="44.32643" lon="6.31799">
        <ele>1570.4000244141</ele>
        <time>2016-07-19T12:03:16.000Z</time>
      </trkpt>
      <trkpt lat="44.32634" lon="6.31804">
        <ele>1570.4000244141</ele>
        <time>2016-07-19T12:03:23.000Z</time>
      </trkpt>
      <trkpt lat="44.32623" lon="6.31811">
        <ele>1570.5999755859</ele>
        <time>2016-07-19T12:03:32.000Z</time>
      </trkpt>
      <trkpt lat="44.3261" lon="6.31817">
        <ele>1570.4000244141</ele>
        <time>2016-07-19T12:03:41.000Z</time>
      </trkpt>
      <trkpt lat="44.32599" lon="6.31822">
        <ele>1569.5999755859</ele>
        <time>2016-07-19T12:03:49.000Z</time>
      </trkpt>
      <trkpt lat="44.32596" lon="6.31822">
        <ele>1569.8000488281</ele>
        <time>2016-07-19T12:03:51.000Z</time>
      </trkpt>
      <trkpt lat="44.3259" lon="6.31823">
        <ele>1569.8000488281</ele>
        <time>2016-07-19T12:03:55.000Z</time>
      </trkpt>
      <trkpt lat="44.32581" lon="6.31826">
        <ele>1569.4000244141</ele>
        <time>2016-07-19T12:04:02.000Z</time>
      </trkpt>
      <trkpt lat="44.3258" lon="6.31825">
        <ele>1569.5999755859</ele>
        <time>2016-07-19T12:04:05.000Z</time>
      </trkpt>
      <trkpt lat="44.3257" lon="6.31827">
        <ele>1569.4000244141</ele>
        <time>2016-07-19T12:04:12.000Z</time>
      </trkpt>
      <trkpt lat="44.32554" lon="6.31824">
        <ele>1570.4000244141</ele>
        <time>2016-07-19T12:04:23.000Z</time>
      </trkpt>
      <trkpt lat="44.32539" lon="6.31819">
        <ele>1571.8000488281</ele>
        <time>2016-07-19T12:04:33.000Z</time>
      </trkpt>
      <trkpt lat="44.3252" lon="6.31813">
        <ele>1574.4000244141</ele>
        <time>2016-07-19T12:04:39.000Z</time>
      </trkpt>
      <trkpt lat="44.325" lon="6.31813">
        <ele>1577</ele>
        <time>2016-07-19T12:04:44.000Z</time>
      </trkpt>
      <trkpt lat="44.3248" lon="6.31821">
        <ele>1578.4000244141</ele>
        <time>2016-07-19T12:04:49.000Z</time>
      </trkpt>
      <trkpt lat="44.3246" lon="6.31828">
        <ele>1579.5999755859</ele>
        <time>2016-07-19T12:04:55.000Z</time>
      </trkpt>
      <trkpt lat="44.32442" lon="6.31833">
        <ele>1580.1999511719</ele>
        <time>2016-07-19T12:05:00.000Z</time>
      </trkpt>
      <trkpt lat="44.32425" lon="6.31831">
        <ele>1579.8000488281</ele>
        <time>2016-07-19T12:05:05.000Z</time>
      </trkpt>
      <trkpt lat="44.32423" lon="6.31831">
        <ele>1579.8000488281</ele>
        <time>2016-07-19T12:05:06.000Z</time>
      </trkpt>
      <trkpt lat="44.32418" lon="6.31826">
        <ele>1580.4000244141</ele>
        <time>2016-07-19T12:05:10.000Z</time>
      </trkpt>
      <trkpt lat="44.3241" lon="6.31818">
        <ele>1581.8000488281</ele>
        <time>2016-07-19T12:05:17.000Z</time>
      </trkpt>
      <trkpt lat="44.32407" lon="6.31806">
        <ele>1582.1999511719</ele>
        <time>2016-07-19T12:05:24.000Z</time>
      </trkpt>
      <trkpt lat="44.32407" lon="6.31793">
        <ele>1581.4000244141</ele>
        <time>2016-07-19T12:05:31.000Z</time>
      </trkpt>
      <trkpt lat="44.32408" lon="6.31786">
        <ele>1581</ele>
        <time>2016-07-19T12:05:35.000Z</time>
      </trkpt>
      <trkpt lat="44.32409" lon="6.31777">
        <ele>1580.4000244141</ele>
        <time>2016-07-19T12:05:40.000Z</time>
      </trkpt>
      <trkpt lat="44.3241" lon="6.31772">
        <ele>1580.8000488281</ele>
        <time>2016-07-19T12:05:45.000Z</time>
      </trkpt>
      <trkpt lat="44.32412" lon="6.31766">
        <ele>1581.5999755859</ele>
        <time>2016-07-19T12:06:21.000Z</time>
      </trkpt>
      <trkpt lat="44.32421" lon="6.31756">
        <ele>1584</ele>
        <time>2016-07-19T12:06:29.000Z</time>
      </trkpt>
      <trkpt lat="44.32427" lon="6.31745">
        <ele>1586</ele>
        <time>2016-07-19T12:06:37.000Z</time>
      </trkpt>
      <trkpt lat="44.32433" lon="6.31727">
        <ele>1588.8000488281</ele>
        <time>2016-07-19T12:06:48.000Z</time>
      </trkpt>
      <trkpt lat="44.32437" lon="6.31711">
        <ele>1591.4000244141</ele>
        <time>2016-07-19T12:06:58.000Z</time>
      </trkpt>
      <trkpt lat="44.3244" lon="6.31698">
        <ele>1593</ele>
        <time>2016-07-19T12:07:06.000Z</time>
      </trkpt>
      <trkpt lat="44.32442" lon="6.31691">
        <ele>1594</ele>
        <time>2016-07-19T12:07:11.000Z</time>
      </trkpt>
      <trkpt lat="44.32444" lon="6.31677">
        <ele>1595.5999755859</ele>
        <time>2016-07-19T12:07:18.000Z</time>
      </trkpt>
      <trkpt lat="44.32446" lon="6.31656">
        <ele>1598</ele>
        <time>2016-07-19T12:07:29.000Z</time>
      </trkpt>
      <trkpt lat="44.32444" lon="6.31641">
        <ele>1599.5999755859</ele>
        <time>2016-07-19T12:07:37.000Z</time>
      </trkpt>
      <trkpt lat="44.32437" lon="6.31627">
        <ele>1601.1999511719</ele>
        <time>2016-07-19T12:07:46.000Z</time>
      </trkpt>
      <trkpt lat="44.32432" lon="6.31619">
        <ele>1602.1999511719</ele>
        <time>2016-07-19T12:07:53.000Z</time>
      </trkpt>
      <trkpt lat="44.32423" lon="6.31606">
        <ele>1603.4000244141</ele>
        <time>2016-07-19T12:08:02.000Z</time>
      </trkpt>
      <trkpt lat="44.32419" lon="6.31595">
        <ele>1604.8000488281</ele>
        <time>2016-07-19T12:08:07.000Z</time>
      </trkpt>
      <trkpt lat="44.32417" lon="6.31583">
        <ele>1606.4000244141</ele>
        <time>2016-07-19T12:08:13.000Z</time>
      </trkpt>
      <trkpt lat="44.32419" lon="6.31571">
        <ele>1608.5999755859</ele>
        <time>2016-07-19T12:08:20.000Z</time>
      </trkpt>
      <trkpt lat="44.32422" lon="6.31568">
        <ele>1609.1999511719</ele>
        <time>2016-07-19T12:08:22.000Z</time>
      </trkpt>
      <trkpt lat="44.32427" lon="6.31562">
        <ele>1610.5999755859</ele>
        <time>2016-07-19T12:08:28.000Z</time>
      </trkpt>
      <trkpt lat="44.32431" lon="6.31554">
        <ele>1611.8000488281</ele>
        <time>2016-07-19T12:08:34.000Z</time>
      </trkpt>
      <trkpt lat="44.32432" lon="6.31553">
        <ele>1611.8000488281</ele>
        <time>2016-07-19T12:08:41.000Z</time>
      </trkpt>
      <trkpt lat="44.32435" lon="6.31548">
        <ele>1612.5999755859</ele>
        <time>2016-07-19T12:08:47.000Z</time>
      </trkpt>
      <trkpt lat="44.32443" lon="6.3154">
        <ele>1614.1999511719</ele>
        <time>2016-07-19T12:08:55.000Z</time>
      </trkpt>
      <trkpt lat="44.32449" lon="6.31534">
        <ele>1615.4000244141</ele>
        <time>2016-07-19T12:09:01.000Z</time>
      </trkpt>
      <trkpt lat="44.3245" lon="6.31532">
        <ele>1615.5999755859</ele>
        <time>2016-07-19T12:09:02.000Z</time>
      </trkpt>
      <trkpt lat="44.32453" lon="6.31527">
        <ele>1616.4000244141</ele>
        <time>2016-07-19T12:09:06.000Z</time>
      </trkpt>
      <trkpt lat="44.3246" lon="6.3151">
        <ele>1618.5999755859</ele>
        <time>2016-07-19T12:09:16.000Z</time>
      </trkpt>
      <trkpt lat="44.32464" lon="6.31495">
        <ele>1620.1999511719</ele>
        <time>2016-07-19T12:09:24.000Z</time>
      </trkpt>
      <trkpt lat="44.32468" lon="6.31481">
        <ele>1621</ele>
        <time>2016-07-19T12:09:32.000Z</time>
      </trkpt>
      <trkpt lat="44.32471" lon="6.31467">
        <ele>1620.5999755859</ele>
        <time>2016-07-19T12:09:39.000Z</time>
      </trkpt>
      <trkpt lat="44.32475" lon="6.3145">
        <ele>1620.1999511719</ele>
        <time>2016-07-19T12:09:48.000Z</time>
      </trkpt>
      <trkpt lat="44.32475" lon="6.31448">
        <ele>1620.1999511719</ele>
        <time>2016-07-19T12:09:49.000Z</time>
      </trkpt>
      <trkpt lat="44.32482" lon="6.3143">
        <ele>1620</ele>
        <time>2016-07-19T12:09:59.000Z</time>
      </trkpt>
      <trkpt lat="44.32493" lon="6.31414">
        <ele>1621.8000488281</ele>
        <time>2016-07-19T12:10:10.000Z</time>
      </trkpt>
      <trkpt lat="44.32502" lon="6.31403">
        <ele>1623.1999511719</ele>
        <time>2016-07-19T12:10:19.000Z</time>
      </trkpt>
      <trkpt lat="44.32512" lon="6.31387">
        <ele>1625.5999755859</ele>
        <time>2016-07-19T12:10:30.000Z</time>
      </trkpt>
      <trkpt lat="44.32517" lon="6.31378">
        <ele>1627</ele>
        <time>2016-07-19T12:10:36.000Z</time>
      </trkpt>
      <trkpt lat="44.32527" lon="6.31362">
        <ele>1629.5999755859</ele>
        <time>2016-07-19T12:10:48.000Z</time>
      </trkpt>
      <trkpt lat="44.32529" lon="6.31358">
        <ele>1630</ele>
        <time>2016-07-19T12:10:52.000Z</time>
      </trkpt>
      <trkpt lat="44.32536" lon="6.31347">
        <ele>1631.1999511719</ele>
        <time>2016-07-19T12:11:00.000Z</time>
      </trkpt>
      <trkpt lat="44.3254" lon="6.31333">
        <ele>1632.5999755859</ele>
        <time>2016-07-19T12:11:09.000Z</time>
      </trkpt>
      <trkpt lat="44.32543" lon="6.31315">
        <ele>1634.1999511719</ele>
        <time>2016-07-19T12:11:19.000Z</time>
      </trkpt>
      <trkpt lat="44.32546" lon="6.31302">
        <ele>1635.8000488281</ele>
        <time>2016-07-19T12:11:26.000Z</time>
      </trkpt>
      <trkpt lat="44.32549" lon="6.3129">
        <ele>1637.4000244141</ele>
        <time>2016-07-19T12:11:33.000Z</time>
      </trkpt>
      <trkpt lat="44.32552" lon="6.31274">
        <ele>1639.5999755859</ele>
        <time>2016-07-19T12:11:42.000Z</time>
      </trkpt>
      <trkpt lat="44.32554" lon="6.31264">
        <ele>1641</ele>
        <time>2016-07-19T12:11:48.000Z</time>
      </trkpt>
      <trkpt lat="44.32559" lon="6.31253">
        <ele>1642</ele>
        <time>2016-07-19T12:11:55.000Z</time>
      </trkpt>
      <trkpt lat="44.32565" lon="6.31237">
        <ele>1642.5999755859</ele>
        <time>2016-07-19T12:12:04.000Z</time>
      </trkpt>
      <trkpt lat="44.32569" lon="6.31223">
        <ele>1644</ele>
        <time>2016-07-19T12:12:12.000Z</time>
      </trkpt>
      <trkpt lat="44.32572" lon="6.31206">
        <ele>1646.5999755859</ele>
        <time>2016-07-19T12:12:21.000Z</time>
      </trkpt>
      <trkpt lat="44.32577" lon="6.31194">
        <ele>1648</ele>
        <time>2016-07-19T12:12:28.000Z</time>
      </trkpt>
      <trkpt lat="44.32583" lon="6.31177">
        <ele>1649.4000244141</ele>
        <time>2016-07-19T12:12:38.000Z</time>
      </trkpt>
      <trkpt lat="44.32587" lon="6.31164">
        <ele>1650.5999755859</ele>
        <time>2016-07-19T12:12:46.000Z</time>
      </trkpt>
      <trkpt lat="44.32578" lon="6.31162">
        <ele>1652</ele>
        <time>2016-07-19T12:12:55.000Z</time>
      </trkpt>
      <trkpt lat="44.3257" lon="6.31175">
        <ele>1651.5999755859</ele>
        <time>2016-07-19T12:13:04.000Z</time>
      </trkpt>
      <trkpt lat="44.32559" lon="6.31185">
        <ele>1651.5999755859</ele>
        <time>2016-07-19T12:13:14.000Z</time>
      </trkpt>
      <trkpt lat="44.32552" lon="6.3119">
        <ele>1651.4000244141</ele>
        <time>2016-07-19T12:13:21.000Z</time>
      </trkpt>
      <trkpt lat="44.32543" lon="6.31195">
        <ele>1651.4000244141</ele>
        <time>2016-07-19T12:13:28.000Z</time>
      </trkpt>
      <trkpt lat="44.32538" lon="6.31198">
        <ele>1651.4000244141</ele>
        <time>2016-07-19T12:13:33.000Z</time>
      </trkpt>
      <trkpt lat="44.3253" lon="6.31199">
        <ele>1652.4000244141</ele>
        <time>2016-07-19T12:13:39.000Z</time>
      </trkpt>
      <trkpt lat="44.32524" lon="6.3119">
        <ele>1653.4000244141</ele>
        <time>2016-07-19T12:13:46.000Z</time>
      </trkpt>
      <trkpt lat="44.32528" lon="6.31179">
        <ele>1655.4000244141</ele>
        <time>2016-07-19T12:13:53.000Z</time>
      </trkpt>
      <trkpt lat="44.32537" lon="6.31171">
        <ele>1656.1999511719</ele>
        <time>2016-07-19T12:14:02.000Z</time>
      </trkpt>
      <trkpt lat="44.32544" lon="6.31161">
        <ele>1657</ele>
        <time>2016-07-19T12:14:09.000Z</time>
      </trkpt>
      <trkpt lat="44.32555" lon="6.31146">
        <ele>1657.5999755859</ele>
        <time>2016-07-19T12:14:20.000Z</time>
      </trkpt>
      <trkpt lat="44.32557" lon="6.31142">
        <ele>1657.8000488281</ele>
        <time>2016-07-19T12:14:23.000Z</time>
      </trkpt>
      <trkpt lat="44.32563" lon="6.31135">
        <ele>1658</ele>
        <time>2016-07-19T12:14:28.000Z</time>
      </trkpt>
      <trkpt lat="44.32568" lon="6.31127">
        <ele>1658.4000244141</ele>
        <time>2016-07-19T12:14:34.000Z</time>
      </trkpt>
      <trkpt lat="44.32574" lon="6.31118">
        <ele>1658.8000488281</ele>
        <time>2016-07-19T12:14:40.000Z</time>
      </trkpt>
      <trkpt lat="44.3258" lon="6.3111">
        <ele>1659.1999511719</ele>
        <time>2016-07-19T12:14:46.000Z</time>
      </trkpt>
      <trkpt lat="44.32591" lon="6.31095">
        <ele>1660.8000488281</ele>
        <time>2016-07-19T12:14:57.000Z</time>
      </trkpt>
      <trkpt lat="44.32604" lon="6.31077">
        <ele>1662.5999755859</ele>
        <time>2016-07-19T12:15:10.000Z</time>
      </trkpt>
      <trkpt lat="44.3261" lon="6.31068">
        <ele>1663.5999755859</ele>
        <time>2016-07-19T12:15:17.000Z</time>
      </trkpt>
      <trkpt lat="44.32617" lon="6.31057">
        <ele>1664</ele>
        <time>2016-07-19T12:15:25.000Z</time>
      </trkpt>
      <trkpt lat="44.32623" lon="6.31042">
        <ele>1664.1999511719</ele>
        <time>2016-07-19T12:15:34.000Z</time>
      </trkpt>
      <trkpt lat="44.32627" lon="6.31027">
        <ele>1665</ele>
        <time>2016-07-19T12:15:42.000Z</time>
      </trkpt>
      <trkpt lat="44.32632" lon="6.31004">
        <ele>1666.1999511719</ele>
        <time>2016-07-19T12:15:54.000Z</time>
      </trkpt>
      <trkpt lat="44.32634" lon="6.30996">
        <ele>1667</ele>
        <time>2016-07-19T12:15:59.000Z</time>
      </trkpt>
      <trkpt lat="44.32635" lon="6.30994">
        <ele>1667.5999755859</ele>
        <time>2016-07-19T12:16:00.000Z</time>
      </trkpt>
      <trkpt lat="44.3264" lon="6.3098">
        <ele>1671</ele>
        <time>2016-07-19T12:16:08.000Z</time>
      </trkpt>
      <trkpt lat="44.32648" lon="6.30959">
        <ele>1670.4000244141</ele>
        <time>2016-07-19T12:16:20.000Z</time>
      </trkpt>
      <trkpt lat="44.32652" lon="6.30943">
        <ele>1669.8000488281</ele>
        <time>2016-07-19T12:16:29.000Z</time>
      </trkpt>
      <trkpt lat="44.32654" lon="6.30935">
        <ele>1669.8000488281</ele>
        <time>2016-07-19T12:16:35.000Z</time>
      </trkpt>
      <trkpt lat="44.32661" lon="6.30915">
        <ele>1671.1999511719</ele>
        <time>2016-07-19T12:16:47.000Z</time>
      </trkpt>
      <trkpt lat="44.32672" lon="6.30894">
        <ele>1672.4000244141</ele>
        <time>2016-07-19T12:17:00.000Z</time>
      </trkpt>
      <trkpt lat="44.32686" lon="6.30879">
        <ele>1671.5999755859</ele>
        <time>2016-07-19T12:17:13.000Z</time>
      </trkpt>
      <trkpt lat="44.32698" lon="6.30868">
        <ele>1672.5999755859</ele>
        <time>2016-07-19T12:17:23.000Z</time>
      </trkpt>
      <trkpt lat="44.32711" lon="6.30859">
        <ele>1671.1999511719</ele>
        <time>2016-07-19T12:17:33.000Z</time>
      </trkpt>
      <trkpt lat="44.32725" lon="6.30848">
        <ele>1669.4000244141</ele>
        <time>2016-07-19T12:17:45.000Z</time>
      </trkpt>
      <trkpt lat="44.32737" lon="6.30836">
        <ele>1670.8000488281</ele>
        <time>2016-07-19T12:17:56.000Z</time>
      </trkpt>
      <trkpt lat="44.32743" lon="6.30828">
        <ele>1672.1999511719</ele>
        <time>2016-07-19T12:18:03.000Z</time>
      </trkpt>
      <trkpt lat="44.32744" lon="6.30826">
        <ele>1672.4000244141</ele>
        <time>2016-07-19T12:18:04.000Z</time>
      </trkpt>
      <trkpt lat="44.3275" lon="6.30818">
        <ele>1673.8000488281</ele>
        <time>2016-07-19T12:18:10.000Z</time>
      </trkpt>
      <trkpt lat="44.32763" lon="6.30798">
        <ele>1672.5999755859</ele>
        <time>2016-07-19T12:18:24.000Z</time>
      </trkpt>
      <trkpt lat="44.32767" lon="6.30781">
        <ele>1673.5999755859</ele>
        <time>2016-07-19T12:18:34.000Z</time>
      </trkpt>
      <trkpt lat="44.32771" lon="6.30761">
        <ele>1675</ele>
        <time>2016-07-19T12:18:45.000Z</time>
      </trkpt>
      <trkpt lat="44.32778" lon="6.3074">
        <ele>1677.1999511719</ele>
        <time>2016-07-19T12:18:57.000Z</time>
      </trkpt>
      <trkpt lat="44.32787" lon="6.30725">
        <ele>1677.8000488281</ele>
        <time>2016-07-19T12:19:07.000Z</time>
      </trkpt>
      <trkpt lat="44.32792" lon="6.30717">
        <ele>1677.1999511719</ele>
        <time>2016-07-19T12:19:12.000Z</time>
      </trkpt>
      <trkpt lat="44.32799" lon="6.30705">
        <ele>1676.4000244141</ele>
        <time>2016-07-19T12:19:20.000Z</time>
      </trkpt>
      <trkpt lat="44.32811" lon="6.30694">
        <ele>1676</ele>
        <time>2016-07-19T12:19:30.000Z</time>
      </trkpt>
      <trkpt lat="44.32823" lon="6.30687">
        <ele>1676.4000244141</ele>
        <time>2016-07-19T12:19:40.000Z</time>
      </trkpt>
      <trkpt lat="44.32838" lon="6.30674">
        <ele>1680.4000244141</ele>
        <time>2016-07-19T12:19:53.000Z</time>
      </trkpt>
      <trkpt lat="44.32851" lon="6.3066">
        <ele>1684.1999511719</ele>
        <time>2016-07-19T12:20:05.000Z</time>
      </trkpt>
      <trkpt lat="44.32871" lon="6.30637">
        <ele>1685.4000244141</ele>
        <time>2016-07-19T12:20:24.000Z</time>
      </trkpt>
      <trkpt lat="44.32881" lon="6.30626">
        <ele>1682</ele>
        <time>2016-07-19T12:20:33.000Z</time>
      </trkpt>
      <trkpt lat="44.32892" lon="6.30612">
        <ele>1677.8000488281</ele>
        <time>2016-07-19T12:20:44.000Z</time>
      </trkpt>
      <trkpt lat="44.32898" lon="6.30605">
        <ele>1675.8000488281</ele>
        <time>2016-07-19T12:20:49.000Z</time>
      </trkpt>
      <trkpt lat="44.32901" lon="6.306">
        <ele>1674.8000488281</ele>
        <time>2016-07-19T12:20:53.000Z</time>
      </trkpt>
      <trkpt lat="44.32907" lon="6.30593">
        <ele>1675.4000244141</ele>
        <time>2016-07-19T12:20:58.000Z</time>
      </trkpt>
      <trkpt lat="44.3292" lon="6.30576">
        <ele>1677.1999511719</ele>
        <time>2016-07-19T12:21:11.000Z</time>
      </trkpt>
      <trkpt lat="44.32931" lon="6.30565">
        <ele>1678.1999511719</ele>
        <time>2016-07-19T12:21:21.000Z</time>
      </trkpt>
      <trkpt lat="44.32948" lon="6.30549">
        <ele>1677.8000488281</ele>
        <time>2016-07-19T12:21:37.000Z</time>
      </trkpt>
      <trkpt lat="44.32963" lon="6.30537">
        <ele>1676.8000488281</ele>
        <time>2016-07-19T12:21:50.000Z</time>
      </trkpt>
      <trkpt lat="44.32966" lon="6.30535">
        <ele>1676.5999755859</ele>
        <time>2016-07-19T12:21:52.000Z</time>
      </trkpt>
      <trkpt lat="44.32969" lon="6.30531">
        <ele>1676.1999511719</ele>
        <time>2016-07-19T12:21:56.000Z</time>
      </trkpt>
      <trkpt lat="44.3298" lon="6.30524">
        <ele>1675.5999755859</ele>
        <time>2016-07-19T12:22:05.000Z</time>
      </trkpt>
      <trkpt lat="44.32992" lon="6.30516">
        <ele>1675.8000488281</ele>
        <time>2016-07-19T12:22:18.000Z</time>
      </trkpt>
      <trkpt lat="44.32995" lon="6.30513">
        <ele>1676.1999511719</ele>
        <time>2016-07-19T12:23:09.000Z</time>
      </trkpt>
      <trkpt lat="44.32999" lon="6.3051">
        <ele>1677</ele>
        <time>2016-07-19T12:23:14.000Z</time>
      </trkpt>
      <trkpt lat="44.33009" lon="6.305">
        <ele>1678.5999755859</ele>
        <time>2016-07-19T12:23:24.000Z</time>
      </trkpt>
      <trkpt lat="44.3302" lon="6.30487">
        <ele>1680.5999755859</ele>
        <time>2016-07-19T12:23:35.000Z</time>
      </trkpt>
      <trkpt lat="44.33029" lon="6.30477">
        <ele>1681.5999755859</ele>
        <time>2016-07-19T12:23:44.000Z</time>
      </trkpt>
      <trkpt lat="44.33038" lon="6.30466">
        <ele>1681</ele>
        <time>2016-07-19T12:23:53.000Z</time>
      </trkpt>
      <trkpt lat="44.33045" lon="6.30456">
        <ele>1680.4000244141</ele>
        <time>2016-07-19T12:24:00.000Z</time>
      </trkpt>
      <trkpt lat="44.33057" lon="6.30443">
        <ele>1679.5999755859</ele>
        <time>2016-07-19T12:24:11.000Z</time>
      </trkpt>
      <trkpt lat="44.33065" lon="6.3043">
        <ele>1678.8000488281</ele>
        <time>2016-07-19T12:24:20.000Z</time>
      </trkpt>
      <trkpt lat="44.33073" lon="6.30416">
        <ele>1678.8000488281</ele>
        <time>2016-07-19T12:24:29.000Z</time>
      </trkpt>
      <trkpt lat="44.33074" lon="6.30415">
        <ele>1678.8000488281</ele>
        <time>2016-07-19T12:24:34.000Z</time>
      </trkpt>
      <trkpt lat="44.33074" lon="6.30413">
        <ele>1678.5999755859</ele>
        <time>2016-07-19T12:24:45.000Z</time>
      </trkpt>
      <trkpt lat="44.33075" lon="6.30406">
        <ele>1678.4000244141</ele>
        <time>2016-07-19T12:25:05.000Z</time>
      </trkpt>
      <trkpt lat="44.33075" lon="6.30388">
        <ele>1677.8000488281</ele>
        <time>2016-07-19T12:25:14.000Z</time>
      </trkpt>
      <trkpt lat="44.33071" lon="6.30376">
        <ele>1677</ele>
        <time>2016-07-19T12:25:21.000Z</time>
      </trkpt>
      <trkpt lat="44.33065" lon="6.30361">
        <ele>1676</ele>
        <time>2016-07-19T12:25:30.000Z</time>
      </trkpt>
      <trkpt lat="44.33055" lon="6.30345">
        <ele>1674.5999755859</ele>
        <time>2016-07-19T12:25:41.000Z</time>
      </trkpt>
      <trkpt lat="44.33044" lon="6.30331">
        <ele>1673.4000244141</ele>
        <time>2016-07-19T12:25:51.000Z</time>
      </trkpt>
      <trkpt lat="44.33037" lon="6.30316">
        <ele>1672.5999755859</ele>
        <time>2016-07-19T12:26:00.000Z</time>
      </trkpt>
      <trkpt lat="44.33033" lon="6.30303">
        <ele>1672.8000488281</ele>
        <time>2016-07-19T12:26:09.000Z</time>
      </trkpt>
      <trkpt lat="44.3303" lon="6.30298">
        <ele>1672.8000488281</ele>
        <time>2016-07-19T12:27:18.000Z</time>
      </trkpt>
      <trkpt lat="44.33021" lon="6.30291">
        <ele>1673</ele>
        <time>2016-07-19T12:27:26.000Z</time>
      </trkpt>
      <trkpt lat="44.33008" lon="6.30287">
        <ele>1673</ele>
        <time>2016-07-19T12:27:35.000Z</time>
      </trkpt>
      <trkpt lat="44.32997" lon="6.30286">
        <ele>1672.5999755859</ele>
        <time>2016-07-19T12:27:44.000Z</time>
      </trkpt>
      <trkpt lat="44.32981" lon="6.30285">
        <ele>1671.8000488281</ele>
        <time>2016-07-19T12:27:55.000Z</time>
      </trkpt>
      <trkpt lat="44.32963" lon="6.30285">
        <ele>1670.5999755859</ele>
        <time>2016-07-19T12:28:08.000Z</time>
      </trkpt>
      <trkpt lat="44.32952" lon="6.30284">
        <ele>1670</ele>
        <time>2016-07-19T12:28:16.000Z</time>
      </trkpt>
      <trkpt lat="44.32942" lon="6.30285">
        <ele>1669.5999755859</ele>
        <time>2016-07-19T12:28:23.000Z</time>
      </trkpt>
      <trkpt lat="44.32926" lon="6.30284">
        <ele>1669.4000244141</ele>
        <time>2016-07-19T12:28:34.000Z</time>
      </trkpt>
      <trkpt lat="44.32911" lon="6.30278">
        <ele>1669.5999755859</ele>
        <time>2016-07-19T12:28:45.000Z</time>
      </trkpt>
      <trkpt lat="44.32893" lon="6.30268">
        <ele>1670</ele>
        <time>2016-07-19T12:28:58.000Z</time>
      </trkpt>
      <trkpt lat="44.32883" lon="6.30257">
        <ele>1670.8000488281</ele>
        <time>2016-07-19T12:29:07.000Z</time>
      </trkpt>
      <trkpt lat="44.32878" lon="6.3025">
        <ele>1671.4000244141</ele>
        <time>2016-07-19T12:29:13.000Z</time>
      </trkpt>
      <trkpt lat="44.32868" lon="6.3024">
        <ele>1672.1999511719</ele>
        <time>2016-07-19T12:29:22.000Z</time>
      </trkpt>
      <trkpt lat="44.32863" lon="6.30236">
        <ele>1672.1999511719</ele>
        <time>2016-07-19T12:29:27.000Z</time>
      </trkpt>
      <trkpt lat="44.3285" lon="6.30224">
        <ele>1670.8000488281</ele>
        <time>2016-07-19T12:29:38.000Z</time>
      </trkpt>
      <trkpt lat="44.3284" lon="6.30211">
        <ele>1669.1999511719</ele>
        <time>2016-07-19T12:29:47.000Z</time>
      </trkpt>
      <trkpt lat="44.32829" lon="6.30193">
        <ele>1667.4000244141</ele>
        <time>2016-07-19T12:29:59.000Z</time>
      </trkpt>
      <trkpt lat="44.3282" lon="6.30177">
        <ele>1666.1999511719</ele>
        <time>2016-07-19T12:30:09.000Z</time>
      </trkpt>
      <trkpt lat="44.32814" lon="6.30166">
        <ele>1665.1999511719</ele>
        <time>2016-07-19T12:30:16.000Z</time>
      </trkpt>
      <trkpt lat="44.3281" lon="6.30149">
        <ele>1664.5999755859</ele>
        <time>2016-07-19T12:30:25.000Z</time>
      </trkpt>
      <trkpt lat="44.32811" lon="6.30132">
        <ele>1665.4000244141</ele>
        <time>2016-07-19T12:30:34.000Z</time>
      </trkpt>
      <trkpt lat="44.32812" lon="6.30114">
        <ele>1666.5999755859</ele>
        <time>2016-07-19T12:30:43.000Z</time>
      </trkpt>
      <trkpt lat="44.32811" lon="6.301">
        <ele>1667</ele>
        <time>2016-07-19T12:30:51.000Z</time>
      </trkpt>
      <trkpt lat="44.32812" lon="6.30085">
        <ele>1666.8000488281</ele>
        <time>2016-07-19T12:30:59.000Z</time>
      </trkpt>
      <trkpt lat="44.32821" lon="6.30068">
        <ele>1665.8000488281</ele>
        <time>2016-07-19T12:31:10.000Z</time>
      </trkpt>
      <trkpt lat="44.32828" lon="6.30056">
        <ele>1666.5999755859</ele>
        <time>2016-07-19T12:31:18.000Z</time>
      </trkpt>
      <trkpt lat="44.32829" lon="6.30049">
        <ele>1667.5999755859</ele>
        <time>2016-07-19T12:31:25.000Z</time>
      </trkpt>
      <trkpt lat="44.32829" lon="6.30045">
        <ele>1667.8000488281</ele>
        <time>2016-07-19T12:32:11.000Z</time>
      </trkpt>
      <trkpt lat="44.32828" lon="6.30039">
        <ele>1668.5999755859</ele>
        <time>2016-07-19T12:32:30.000Z</time>
      </trkpt>
      <trkpt lat="44.32828" lon="6.30038">
        <ele>1668.8000488281</ele>
        <time>2016-07-19T12:32:31.000Z</time>
      </trkpt>
      <trkpt lat="44.32824" lon="6.30035">
        <ele>1669</ele>
        <time>2016-07-19T12:32:36.000Z</time>
      </trkpt>
      <trkpt lat="44.32814" lon="6.30031">
        <ele>1669</ele>
        <time>2016-07-19T12:32:44.000Z</time>
      </trkpt>
      <trkpt lat="44.32806" lon="6.30019">
        <ele>1670.1999511719</ele>
        <time>2016-07-19T12:32:53.000Z</time>
      </trkpt>
      <trkpt lat="44.32789" lon="6.30023">
        <ele>1669.1999511719</ele>
        <time>2016-07-19T12:33:07.000Z</time>
      </trkpt>
      <trkpt lat="44.32775" lon="6.3003">
        <ele>1668.1999511719</ele>
        <time>2016-07-19T12:33:18.000Z</time>
      </trkpt>
      <trkpt lat="44.32768" lon="6.30041">
        <ele>1667</ele>
        <time>2016-07-19T12:33:26.000Z</time>
      </trkpt>
      <trkpt lat="44.32759" lon="6.30057">
        <ele>1665.4000244141</ele>
        <time>2016-07-19T12:33:37.000Z</time>
      </trkpt>
      <trkpt lat="44.32748" lon="6.3007">
        <ele>1664.8000488281</ele>
        <time>2016-07-19T12:33:47.000Z</time>
      </trkpt>
      <trkpt lat="44.32736" lon="6.3007">
        <ele>1665.1999511719</ele>
        <time>2016-07-19T12:33:56.000Z</time>
      </trkpt>
      <trkpt lat="44.32716" lon="6.30049">
        <ele>1668</ele>
        <time>2016-07-19T12:34:14.000Z</time>
      </trkpt>
      <trkpt lat="44.32711" lon="6.30038">
        <ele>1669.1999511719</ele>
        <time>2016-07-19T12:34:21.000Z</time>
      </trkpt>
      <trkpt lat="44.32707" lon="6.30022">
        <ele>1671.1999511719</ele>
        <time>2016-07-19T12:34:30.000Z</time>
      </trkpt>
      <trkpt lat="44.327" lon="6.30007">
        <ele>1673</ele>
        <time>2016-07-19T12:34:39.000Z</time>
      </trkpt>
      <trkpt lat="44.32691" lon="6.29992">
        <ele>1676.1999511719</ele>
        <time>2016-07-19T12:34:49.000Z</time>
      </trkpt>
      <trkpt lat="44.32687" lon="6.29977">
        <ele>1679.1999511719</ele>
        <time>2016-07-19T12:34:58.000Z</time>
      </trkpt>
      <trkpt lat="44.32687" lon="6.29965">
        <ele>1680.4000244141</ele>
        <time>2016-07-19T12:35:05.000Z</time>
      </trkpt>
      <trkpt lat="44.32693" lon="6.29949">
        <ele>1680.8000488281</ele>
        <time>2016-07-19T12:35:14.000Z</time>
      </trkpt>
      <trkpt lat="44.32696" lon="6.29938">
        <ele>1681.1999511719</ele>
        <time>2016-07-19T12:35:20.000Z</time>
      </trkpt>
      <trkpt lat="44.32696" lon="6.29935">
        <ele>1681.8000488281</ele>
        <time>2016-07-19T12:35:22.000Z</time>
      </trkpt>
      <trkpt lat="44.32689" lon="6.29926">
        <ele>1684.8000488281</ele>
        <time>2016-07-19T12:35:29.000Z</time>
      </trkpt>
      <trkpt lat="44.32677" lon="6.29927">
        <ele>1688</ele>
        <time>2016-07-19T12:35:38.000Z</time>
      </trkpt>
      <trkpt lat="44.32669" lon="6.29932">
        <ele>1689.5999755859</ele>
        <time>2016-07-19T12:35:45.000Z</time>
      </trkpt>
      <trkpt lat="44.32653" lon="6.29946">
        <ele>1692.1999511719</ele>
        <time>2016-07-19T12:35:59.000Z</time>
      </trkpt>
      <trkpt lat="44.3264" lon="6.29956">
        <ele>1694.1999511719</ele>
        <time>2016-07-19T12:36:10.000Z</time>
      </trkpt>
      <trkpt lat="44.32631" lon="6.29963">
        <ele>1695.5999755859</ele>
        <time>2016-07-19T12:36:18.000Z</time>
      </trkpt>
      <trkpt lat="44.32622" lon="6.29975">
        <ele>1696.4000244141</ele>
        <time>2016-07-19T12:36:27.000Z</time>
      </trkpt>
      <trkpt lat="44.32613" lon="6.29991">
        <ele>1697.4000244141</ele>
        <time>2016-07-19T12:36:38.000Z</time>
      </trkpt>
      <trkpt lat="44.32612" lon="6.29993">
        <ele>1697.4000244141</ele>
        <time>2016-07-19T12:36:44.000Z</time>
      </trkpt>
      <trkpt lat="44.3261" lon="6.29991">
        <ele>1697.8000488281</ele>
        <time>2016-07-19T12:36:49.000Z</time>
      </trkpt>
      <trkpt lat="44.3261" lon="6.29995">
        <ele>1697.5999755859</ele>
        <time>2016-07-19T12:36:55.000Z</time>
      </trkpt>
      <trkpt lat="44.3261" lon="6.29994">
        <ele>1697.5999755859</ele>
        <time>2016-07-19T12:37:08.000Z</time>
      </trkpt>
      <trkpt lat="44.3261" lon="6.29996">
        <ele>1697.5999755859</ele>
        <time>2016-07-19T12:37:09.000Z</time>
      </trkpt>
      <trkpt lat="44.32605" lon="6.29997">
        <ele>1698.4000244141</ele>
        <time>2016-07-19T12:37:17.000Z</time>
      </trkpt>
      <trkpt lat="44.32606" lon="6.29994">
        <ele>1698.5999755859</ele>
        <time>2016-07-19T12:37:22.000Z</time>
      </trkpt>
      <trkpt lat="44.32605" lon="6.29995">
        <ele>1698.8000488281</ele>
        <time>2016-07-19T12:37:31.000Z</time>
      </trkpt>
      <trkpt lat="44.32596" lon="6.29999">
        <ele>1700.4000244141</ele>
        <time>2016-07-19T12:37:38.000Z</time>
      </trkpt>
      <trkpt lat="44.32586" lon="6.30003">
        <ele>1702.4000244141</ele>
        <time>2016-07-19T12:37:46.000Z</time>
      </trkpt>
      <trkpt lat="44.32574" lon="6.3001">
        <ele>1704.5999755859</ele>
        <time>2016-07-19T12:37:55.000Z</time>
      </trkpt>
      <trkpt lat="44.32562" lon="6.30019">
        <ele>1706.4000244141</ele>
        <time>2016-07-19T12:38:05.000Z</time>
      </trkpt>
      <trkpt lat="44.32548" lon="6.30032">
        <ele>1707.4000244141</ele>
        <time>2016-07-19T12:38:17.000Z</time>
      </trkpt>
      <trkpt lat="44.32537" lon="6.30045">
        <ele>1707.8000488281</ele>
        <time>2016-07-19T12:38:27.000Z</time>
      </trkpt>
      <trkpt lat="44.32532" lon="6.30049">
        <ele>1708.4000244141</ele>
        <time>2016-07-19T12:38:32.000Z</time>
      </trkpt>
      <trkpt lat="44.32532" lon="6.3005">
        <ele>1708.4000244141</ele>
        <time>2016-07-19T12:38:42.000Z</time>
      </trkpt>
      <trkpt lat="44.32528" lon="6.30054">
        <ele>1708.1999511719</ele>
        <time>2016-07-19T12:38:48.000Z</time>
      </trkpt>
      <trkpt lat="44.32516" lon="6.30063">
        <ele>1709.1999511719</ele>
        <time>2016-07-19T12:38:58.000Z</time>
      </trkpt>
      <trkpt lat="44.32508" lon="6.30068">
        <ele>1709.8000488281</ele>
        <time>2016-07-19T12:39:04.000Z</time>
      </trkpt>
      <trkpt lat="44.32505" lon="6.30063">
        <ele>1711</ele>
        <time>2016-07-19T12:39:09.000Z</time>
      </trkpt>
      <trkpt lat="44.32508" lon="6.3005">
        <ele>1710.5999755859</ele>
        <time>2016-07-19T12:39:16.000Z</time>
      </trkpt>
      <trkpt lat="44.32508" lon="6.30036">
        <ele>1711</ele>
        <time>2016-07-19T12:39:23.000Z</time>
      </trkpt>
      <trkpt lat="44.32505" lon="6.30019">
        <ele>1713.1999511719</ele>
        <time>2016-07-19T12:39:32.000Z</time>
      </trkpt>
      <trkpt lat="44.32499" lon="6.30001">
        <ele>1715.5999755859</ele>
        <time>2016-07-19T12:39:42.000Z</time>
      </trkpt>
      <trkpt lat="44.32492" lon="6.29993">
        <ele>1716.8000488281</ele>
        <time>2016-07-19T12:39:49.000Z</time>
      </trkpt>
      <trkpt lat="44.32485" lon="6.29982">
        <ele>1718.4000244141</ele>
        <time>2016-07-19T12:39:57.000Z</time>
      </trkpt>
      <trkpt lat="44.32481" lon="6.29971">
        <ele>1719.1999511719</ele>
        <time>2016-07-19T12:40:04.000Z</time>
      </trkpt>
      <trkpt lat="44.32481" lon="6.29956">
        <ele>1719.5999755859</ele>
        <time>2016-07-19T12:40:12.000Z</time>
      </trkpt>
      <trkpt lat="44.3248" lon="6.29955">
        <ele>1719.5999755859</ele>
        <time>2016-07-19T12:40:19.000Z</time>
      </trkpt>
      <trkpt lat="44.32478" lon="6.29947">
        <ele>1720</ele>
        <time>2016-07-19T12:40:32.000Z</time>
      </trkpt>
      <trkpt lat="44.32479" lon="6.29933">
        <ele>1720.5999755859</ele>
        <time>2016-07-19T12:40:38.000Z</time>
      </trkpt>
      <trkpt lat="44.32489" lon="6.29914">
        <ele>1721.1999511719</ele>
        <time>2016-07-19T12:40:43.000Z</time>
      </trkpt>
      <trkpt lat="44.325" lon="6.29888">
        <ele>1722.8000488281</ele>
        <time>2016-07-19T12:40:49.000Z</time>
      </trkpt>
      <trkpt lat="44.32509" lon="6.29862">
        <ele>1725</ele>
        <time>2016-07-19T12:40:55.000Z</time>
      </trkpt>
      <trkpt lat="44.32519" lon="6.29823">
        <ele>1726.4000244141</ele>
        <time>2016-07-19T12:41:04.000Z</time>
      </trkpt>
      <trkpt lat="44.32526" lon="6.29795">
        <ele>1727.8000488281</ele>
        <time>2016-07-19T12:41:10.000Z</time>
      </trkpt>
      <trkpt lat="44.3253" lon="6.2977">
        <ele>1729.1999511719</ele>
        <time>2016-07-19T12:41:15.000Z</time>
      </trkpt>
      <trkpt lat="44.32535" lon="6.2974">
        <ele>1730.8000488281</ele>
        <time>2016-07-19T12:41:21.000Z</time>
      </trkpt>
      <trkpt lat="44.32539" lon="6.29715">
        <ele>1732.1999511719</ele>
        <time>2016-07-19T12:41:26.000Z</time>
      </trkpt>
      <trkpt lat="44.32542" lon="6.2969">
        <ele>1733.8000488281</ele>
        <time>2016-07-19T12:41:31.000Z</time>
      </trkpt>
      <trkpt lat="44.32545" lon="6.2966">
        <ele>1736</ele>
        <time>2016-07-19T12:41:37.000Z</time>
      </trkpt>
      <trkpt lat="44.32547" lon="6.29634">
        <ele>1738.5999755859</ele>
        <time>2016-07-19T12:41:43.000Z</time>
      </trkpt>
      <trkpt lat="44.32549" lon="6.29618">
        <ele>1740</ele>
        <time>2016-07-19T12:41:49.000Z</time>
      </trkpt>
      <trkpt lat="44.32552" lon="6.29597">
        <ele>1742</ele>
        <time>2016-07-19T12:42:00.000Z</time>
      </trkpt>
      <trkpt lat="44.32554" lon="6.29576">
        <ele>1744</ele>
        <time>2016-07-19T12:42:11.000Z</time>
      </trkpt>
      <trkpt lat="44.32555" lon="6.29563">
        <ele>1745.1999511719</ele>
        <time>2016-07-19T12:42:18.000Z</time>
      </trkpt>
      <trkpt lat="44.32556" lon="6.2955">
        <ele>1747.1999511719</ele>
        <time>2016-07-19T12:42:25.000Z</time>
      </trkpt>
      <trkpt lat="44.32558" lon="6.29532">
        <ele>1750</ele>
        <time>2016-07-19T12:42:32.000Z</time>
      </trkpt>
      <trkpt lat="44.32564" lon="6.29508">
        <ele>1753.1999511719</ele>
        <time>2016-07-19T12:42:40.000Z</time>
      </trkpt>
      <trkpt lat="44.32567" lon="6.29499">
        <ele>1754.5999755859</ele>
        <time>2016-07-19T12:42:45.000Z</time>
      </trkpt>
      <trkpt lat="44.32569" lon="6.29487">
        <ele>1756.4000244141</ele>
        <time>2016-07-19T12:42:52.000Z</time>
      </trkpt>
      <trkpt lat="44.32575" lon="6.29472">
        <ele>1758.4000244141</ele>
        <time>2016-07-19T12:43:00.000Z</time>
      </trkpt>
      <trkpt lat="44.32579" lon="6.29454">
        <ele>1760.5999755859</ele>
        <time>2016-07-19T12:43:10.000Z</time>
      </trkpt>
      <trkpt lat="44.32582" lon="6.29437">
        <ele>1762.8000488281</ele>
        <time>2016-07-19T12:43:18.000Z</time>
      </trkpt>
      <trkpt lat="44.32585" lon="6.29424">
        <ele>1764.5999755859</ele>
        <time>2016-07-19T12:43:25.000Z</time>
      </trkpt>
      <trkpt lat="44.32587" lon="6.29404">
        <ele>1767.4000244141</ele>
        <time>2016-07-19T12:43:36.000Z</time>
      </trkpt>
      <trkpt lat="44.32586" lon="6.29385">
        <ele>1769</ele>
        <time>2016-07-19T12:43:46.000Z</time>
      </trkpt>
      <trkpt lat="44.32583" lon="6.29367">
        <ele>1769.5999755859</ele>
        <time>2016-07-19T12:43:55.000Z</time>
      </trkpt>
      <trkpt lat="44.32582" lon="6.29354">
        <ele>1770.5999755859</ele>
        <time>2016-07-19T12:43:59.000Z</time>
      </trkpt>
      <trkpt lat="44.32583" lon="6.29334">
        <ele>1772</ele>
        <time>2016-07-19T12:44:07.000Z</time>
      </trkpt>
      <trkpt lat="44.32588" lon="6.29322">
        <ele>1772.5999755859</ele>
        <time>2016-07-19T12:44:15.000Z</time>
      </trkpt>
      <trkpt lat="44.32594" lon="6.29312">
        <ele>1772.8000488281</ele>
        <time>2016-07-19T12:44:25.000Z</time>
      </trkpt>
      <trkpt lat="44.32593" lon="6.29309">
        <ele>1772.4000244141</ele>
        <time>2016-07-19T12:44:53.000Z</time>
      </trkpt>
      <trkpt lat="44.32594" lon="6.29309">
        <ele>1772.4000244141</ele>
        <time>2016-07-19T12:45:48.000Z</time>
      </trkpt>
      <trkpt lat="44.32596" lon="6.29301">
        <ele>1771.4000244141</ele>
        <time>2016-07-19T12:46:45.000Z</time>
      </trkpt>
      <trkpt lat="44.32599" lon="6.29283">
        <ele>1770.4000244141</ele>
        <time>2016-07-19T12:46:55.000Z</time>
      </trkpt>
      <trkpt lat="44.32603" lon="6.29259">
        <ele>1769.5999755859</ele>
        <time>2016-07-19T12:47:08.000Z</time>
      </trkpt>
      <trkpt lat="44.32606" lon="6.29246">
        <ele>1769.1999511719</ele>
        <time>2016-07-19T12:47:16.000Z</time>
      </trkpt>
      <trkpt lat="44.32606" lon="6.29242">
        <ele>1769.1999511719</ele>
        <time>2016-07-19T12:47:18.000Z</time>
      </trkpt>
      <trkpt lat="44.32608" lon="6.29241">
        <ele>1769.1999511719</ele>
        <time>2016-07-19T12:47:26.000Z</time>
      </trkpt>
      <trkpt lat="44.32611" lon="6.29232">
        <ele>1769</ele>
        <time>2016-07-19T12:47:33.000Z</time>
      </trkpt>
      <trkpt lat="44.32612" lon="6.29231">
        <ele>1769</ele>
        <time>2016-07-19T12:47:34.000Z</time>
      </trkpt>
      <trkpt lat="44.32617" lon="6.29219">
        <ele>1769</ele>
        <time>2016-07-19T12:47:42.000Z</time>
      </trkpt>
      <trkpt lat="44.32621" lon="6.29213">
        <ele>1769</ele>
        <time>2016-07-19T12:47:49.000Z</time>
      </trkpt>
      <trkpt lat="44.32621" lon="6.29214">
        <ele>1769</ele>
        <time>2016-07-19T12:48:21.000Z</time>
      </trkpt>
      <trkpt lat="44.3262" lon="6.29216">
        <ele>1769</ele>
        <time>2016-07-19T12:48:34.000Z</time>
      </trkpt>
      <trkpt lat="44.32622" lon="6.29215">
        <ele>1769</ele>
        <time>2016-07-19T12:49:01.000Z</time>
      </trkpt>
      <trkpt lat="44.32625" lon="6.29207">
        <ele>1769</ele>
        <time>2016-07-19T12:49:06.000Z</time>
      </trkpt>
      <trkpt lat="44.32632" lon="6.2919">
        <ele>1769</ele>
        <time>2016-07-19T12:49:17.000Z</time>
      </trkpt>
      <trkpt lat="44.32638" lon="6.29174">
        <ele>1769</ele>
        <time>2016-07-19T12:49:27.000Z</time>
      </trkpt>
      <trkpt lat="44.32646" lon="6.29161">
        <ele>1766.4000244141</ele>
        <time>2016-07-19T12:49:36.000Z</time>
      </trkpt>
      <trkpt lat="44.32655" lon="6.29151">
        <ele>1763.8000488281</ele>
        <time>2016-07-19T12:49:45.000Z</time>
      </trkpt>
      <trkpt lat="44.32661" lon="6.2914">
        <ele>1761.8000488281</ele>
        <time>2016-07-19T12:49:53.000Z</time>
      </trkpt>
      <trkpt lat="44.32668" lon="6.29129">
        <ele>1760.1999511719</ele>
        <time>2016-07-19T12:50:01.000Z</time>
      </trkpt>
      <trkpt lat="44.32675" lon="6.29115">
        <ele>1758.5999755859</ele>
        <time>2016-07-19T12:50:10.000Z</time>
      </trkpt>
      <trkpt lat="44.3268" lon="6.29102">
        <ele>1757.4000244141</ele>
        <time>2016-07-19T12:50:19.000Z</time>
      </trkpt>
      <trkpt lat="44.32683" lon="6.2909">
        <ele>1756.5999755859</ele>
        <time>2016-07-19T12:50:26.000Z</time>
      </trkpt>
      <trkpt lat="44.32687" lon="6.2908">
        <ele>1755.8000488281</ele>
        <time>2016-07-19T12:50:32.000Z</time>
      </trkpt>
      <trkpt lat="44.32692" lon="6.29069">
        <ele>1754.8000488281</ele>
        <time>2016-07-19T12:50:39.000Z</time>
      </trkpt>
      <trkpt lat="44.32692" lon="6.29065">
        <ele>1754.5999755859</ele>
        <time>2016-07-19T12:50:43.000Z</time>
      </trkpt>
      <trkpt lat="44.32696" lon="6.29059">
        <ele>1753.8000488281</ele>
        <time>2016-07-19T12:50:49.000Z</time>
      </trkpt>
      <trkpt lat="44.32703" lon="6.29049">
        <ele>1753.4000244141</ele>
        <time>2016-07-19T12:50:56.000Z</time>
      </trkpt>
      <trkpt lat="44.32707" lon="6.29043">
        <ele>1753.1999511719</ele>
        <time>2016-07-19T12:51:00.000Z</time>
      </trkpt>
      <trkpt lat="44.32715" lon="6.29028">
        <ele>1752.5999755859</ele>
        <time>2016-07-19T12:51:09.000Z</time>
      </trkpt>
      <trkpt lat="44.32719" lon="6.29015">
        <ele>1751.8000488281</ele>
        <time>2016-07-19T12:51:17.000Z</time>
      </trkpt>
      <trkpt lat="44.32723" lon="6.29002">
        <ele>1750.8000488281</ele>
        <time>2016-07-19T12:51:24.000Z</time>
      </trkpt>
      <trkpt lat="44.32726" lon="6.28988">
        <ele>1748.5999755859</ele>
        <time>2016-07-19T12:51:32.000Z</time>
      </trkpt>
      <trkpt lat="44.32726" lon="6.28975">
        <ele>1746.5999755859</ele>
        <time>2016-07-19T12:51:39.000Z</time>
      </trkpt>
      <trkpt lat="44.32722" lon="6.2896">
        <ele>1744.5999755859</ele>
        <time>2016-07-19T12:51:48.000Z</time>
      </trkpt>
      <trkpt lat="44.32719" lon="6.28949">
        <ele>1743</ele>
        <time>2016-07-19T12:51:55.000Z</time>
      </trkpt>
      <trkpt lat="44.32707" lon="6.28924">
        <ele>1739.8000488281</ele>
        <time>2016-07-19T12:52:12.000Z</time>
      </trkpt>
      <trkpt lat="44.32709" lon="6.28913">
        <ele>1738</ele>
        <time>2016-07-19T12:52:19.000Z</time>
      </trkpt>
      <trkpt lat="44.32715" lon="6.28902">
        <ele>1736.5999755859</ele>
        <time>2016-07-19T12:52:27.000Z</time>
      </trkpt>
      <trkpt lat="44.32722" lon="6.28894">
        <ele>1735.4000244141</ele>
        <time>2016-07-19T12:52:34.000Z</time>
      </trkpt>
      <trkpt lat="44.32731" lon="6.28891">
        <ele>1734.8000488281</ele>
        <time>2016-07-19T12:52:41.000Z</time>
      </trkpt>
      <trkpt lat="44.3274" lon="6.28893">
        <ele>1735</ele>
        <time>2016-07-19T12:52:48.000Z</time>
      </trkpt>
      <trkpt lat="44.32748" lon="6.28889">
        <ele>1734.1999511719</ele>
        <time>2016-07-19T12:52:55.000Z</time>
      </trkpt>
      <trkpt lat="44.32757" lon="6.28883">
        <ele>1733.1999511719</ele>
        <time>2016-07-19T12:53:03.000Z</time>
      </trkpt>
      <trkpt lat="44.32766" lon="6.28872">
        <ele>1731</ele>
        <time>2016-07-19T12:53:13.000Z</time>
      </trkpt>
      <trkpt lat="44.32774" lon="6.28863">
        <ele>1729</ele>
        <time>2016-07-19T12:53:19.000Z</time>
      </trkpt>
      <trkpt lat="44.32783" lon="6.28852">
        <ele>1726.8000488281</ele>
        <time>2016-07-19T12:53:28.000Z</time>
      </trkpt>
      <trkpt lat="44.32794" lon="6.2884">
        <ele>1726.1999511719</ele>
        <time>2016-07-19T12:53:38.000Z</time>
      </trkpt>
      <trkpt lat="44.32803" lon="6.28823">
        <ele>1724</ele>
        <time>2016-07-19T12:53:49.000Z</time>
      </trkpt>
      <trkpt lat="44.32815" lon="6.28784">
        <ele>1720.4000244141</ele>
        <time>2016-07-19T12:54:11.000Z</time>
      </trkpt>
      <trkpt lat="44.32819" lon="6.28773">
        <ele>1719.8000488281</ele>
        <time>2016-07-19T12:54:18.000Z</time>
      </trkpt>
      <trkpt lat="44.3282" lon="6.28772">
        <ele>1719.8000488281</ele>
        <time>2016-07-19T12:54:19.000Z</time>
      </trkpt>
      <trkpt lat="44.32822" lon="6.28763">
        <ele>1719.4000244141</ele>
        <time>2016-07-19T12:54:25.000Z</time>
      </trkpt>
      <trkpt lat="44.32823" lon="6.28761">
        <ele>1719.5999755859</ele>
        <time>2016-07-19T12:54:27.000Z</time>
      </trkpt>
      <trkpt lat="44.32824" lon="6.28759">
        <ele>1719.5999755859</ele>
        <time>2016-07-19T12:54:44.000Z</time>
      </trkpt>
      <trkpt lat="44.32831" lon="6.2875">
        <ele>1720.1999511719</ele>
        <time>2016-07-19T12:54:51.000Z</time>
      </trkpt>
      <trkpt lat="44.32839" lon="6.28742">
        <ele>1720.8000488281</ele>
        <time>2016-07-19T12:54:58.000Z</time>
      </trkpt>
      <trkpt lat="44.32848" lon="6.28733">
        <ele>1721.5999755859</ele>
        <time>2016-07-19T12:55:07.000Z</time>
      </trkpt>
      <trkpt lat="44.3285" lon="6.2873">
        <ele>1721.8000488281</ele>
        <time>2016-07-19T12:55:09.000Z</time>
      </trkpt>
      <trkpt lat="44.32852" lon="6.28724">
        <ele>1721.5999755859</ele>
        <time>2016-07-19T12:55:13.000Z</time>
      </trkpt>
      <trkpt lat="44.32853" lon="6.28722">
        <ele>1721.5999755859</ele>
        <time>2016-07-19T12:55:15.000Z</time>
      </trkpt>
      <trkpt lat="44.32857" lon="6.28716">
        <ele>1721.4000244141</ele>
        <time>2016-07-19T12:55:21.000Z</time>
      </trkpt>
      <trkpt lat="44.32863" lon="6.28704">
        <ele>1720.8000488281</ele>
        <time>2016-07-19T12:55:29.000Z</time>
      </trkpt>
      <trkpt lat="44.32867" lon="6.287">
        <ele>1720.4000244141</ele>
        <time>2016-07-19T12:55:33.000Z</time>
      </trkpt>
      <trkpt lat="44.32878" lon="6.28698">
        <ele>1720.4000244141</ele>
        <time>2016-07-19T12:55:40.000Z</time>
      </trkpt>
      <trkpt lat="44.32883" lon="6.28698">
        <ele>1720.4000244141</ele>
        <time>2016-07-19T12:55:44.000Z</time>
      </trkpt>
      <trkpt lat="44.3289" lon="6.28701">
        <ele>1720.8000488281</ele>
        <time>2016-07-19T12:55:49.000Z</time>
      </trkpt>
      <trkpt lat="44.32903" lon="6.28706">
        <ele>1721.5999755859</ele>
        <time>2016-07-19T12:55:59.000Z</time>
      </trkpt>
      <trkpt lat="44.3291" lon="6.28709">
        <ele>1722</ele>
        <time>2016-07-19T12:56:06.000Z</time>
      </trkpt>
      <trkpt lat="44.32913" lon="6.28708">
        <ele>1722</ele>
        <time>2016-07-19T12:56:08.000Z</time>
      </trkpt>
      <trkpt lat="44.32916" lon="6.28711">
        <ele>1722.4000244141</ele>
        <time>2016-07-19T12:56:11.000Z</time>
      </trkpt>
      <trkpt lat="44.32916" lon="6.28713">
        <ele>1722.5999755859</ele>
        <time>2016-07-19T12:56:20.000Z</time>
      </trkpt>
      <trkpt lat="44.32917" lon="6.28706">
        <ele>1721.8000488281</ele>
        <time>2016-07-19T12:56:49.000Z</time>
      </trkpt>
      <trkpt lat="44.32917" lon="6.28693">
        <ele>1720</ele>
        <time>2016-07-19T12:56:56.000Z</time>
      </trkpt>
      <trkpt lat="44.32916" lon="6.2868">
        <ele>1717.5999755859</ele>
        <time>2016-07-19T12:57:03.000Z</time>
      </trkpt>
      <trkpt lat="44.32914" lon="6.28661">
        <ele>1714.5999755859</ele>
        <time>2016-07-19T12:57:13.000Z</time>
      </trkpt>
      <trkpt lat="44.32917" lon="6.28646">
        <ele>1712</ele>
        <time>2016-07-19T12:57:21.000Z</time>
      </trkpt>
      <trkpt lat="44.32924" lon="6.28628">
        <ele>1707.4000244141</ele>
        <time>2016-07-19T12:57:31.000Z</time>
      </trkpt>
      <trkpt lat="44.32927" lon="6.28615">
        <ele>1705.1999511719</ele>
        <time>2016-07-19T12:57:38.000Z</time>
      </trkpt>
      <trkpt lat="44.32926" lon="6.28597">
        <ele>1702.5999755859</ele>
        <time>2016-07-19T12:57:47.000Z</time>
      </trkpt>
      <trkpt lat="44.32927" lon="6.28578">
        <ele>1699.8000488281</ele>
        <time>2016-07-19T12:57:58.000Z</time>
      </trkpt>
      <trkpt lat="44.32926" lon="6.28569">
        <ele>1698.5999755859</ele>
        <time>2016-07-19T12:58:02.000Z</time>
      </trkpt>
      <trkpt lat="44.32922" lon="6.28552">
        <ele>1695.8000488281</ele>
        <time>2016-07-19T12:58:11.000Z</time>
      </trkpt>
      <trkpt lat="44.32919" lon="6.2853">
        <ele>1692.8000488281</ele>
        <time>2016-07-19T12:58:22.000Z</time>
      </trkpt>
      <trkpt lat="44.32915" lon="6.28508">
        <ele>1691</ele>
        <time>2016-07-19T12:58:34.000Z</time>
      </trkpt>
      <trkpt lat="44.32915" lon="6.28491">
        <ele>1690.1999511719</ele>
        <time>2016-07-19T12:58:43.000Z</time>
      </trkpt>
      <trkpt lat="44.32916" lon="6.28474">
        <ele>1689.4000244141</ele>
        <time>2016-07-19T12:58:52.000Z</time>
      </trkpt>
      <trkpt lat="44.32916" lon="6.2847">
        <ele>1689.4000244141</ele>
        <time>2016-07-19T12:58:54.000Z</time>
      </trkpt>
      <trkpt lat="44.32921" lon="6.28462">
        <ele>1690</ele>
        <time>2016-07-19T12:59:00.000Z</time>
      </trkpt>
      <trkpt lat="44.3293" lon="6.2845">
        <ele>1690</ele>
        <time>2016-07-19T12:59:09.000Z</time>
      </trkpt>
      <trkpt lat="44.32939" lon="6.28434">
        <ele>1688.8000488281</ele>
        <time>2016-07-19T12:59:19.000Z</time>
      </trkpt>
      <trkpt lat="44.32947" lon="6.28419">
        <ele>1687.8000488281</ele>
        <time>2016-07-19T12:59:28.000Z</time>
      </trkpt>
      <trkpt lat="44.32955" lon="6.28409">
        <ele>1687.4000244141</ele>
        <time>2016-07-19T12:59:35.000Z</time>
      </trkpt>
      <trkpt lat="44.32965" lon="6.28393">
        <ele>1687</ele>
        <time>2016-07-19T12:59:45.000Z</time>
      </trkpt>
      <trkpt lat="44.32976" lon="6.2838">
        <ele>1689</ele>
        <time>2016-07-19T12:59:55.000Z</time>
      </trkpt>
      <trkpt lat="44.32985" lon="6.28376">
        <ele>1690.4000244141</ele>
        <time>2016-07-19T13:00:03.000Z</time>
      </trkpt>
      <trkpt lat="44.32997" lon="6.28376">
        <ele>1691.5999755859</ele>
        <time>2016-07-19T13:00:11.000Z</time>
      </trkpt>
      <trkpt lat="44.33005" lon="6.28379">
        <ele>1692.1999511719</ele>
        <time>2016-07-19T13:00:17.000Z</time>
      </trkpt>
      <trkpt lat="44.33008" lon="6.28375">
        <ele>1692.8000488281</ele>
        <time>2016-07-19T13:00:22.000Z</time>
      </trkpt>
      <trkpt lat="44.33008" lon="6.28366">
        <ele>1692.5999755859</ele>
        <time>2016-07-19T13:00:29.000Z</time>
      </trkpt>
      <trkpt lat="44.33004" lon="6.28354">
        <ele>1692.1999511719</ele>
        <time>2016-07-19T13:00:35.000Z</time>
      </trkpt>
      <trkpt lat="44.33005" lon="6.28347">
        <ele>1691.8000488281</ele>
        <time>2016-07-19T13:00:39.000Z</time>
      </trkpt>
      <trkpt lat="44.33007" lon="6.28336">
        <ele>1691.5999755859</ele>
        <time>2016-07-19T13:00:45.000Z</time>
      </trkpt>
      <trkpt lat="44.33012" lon="6.28322">
        <ele>1691.1999511719</ele>
        <time>2016-07-19T13:00:54.000Z</time>
      </trkpt>
      <trkpt lat="44.33008" lon="6.28312">
        <ele>1690.8000488281</ele>
        <time>2016-07-19T13:01:00.000Z</time>
      </trkpt>
      <trkpt lat="44.33007" lon="6.28311">
        <ele>1691</ele>
        <time>2016-07-19T13:01:01.000Z</time>
      </trkpt>
      <trkpt lat="44.33001" lon="6.28301">
        <ele>1693</ele>
        <time>2016-07-19T13:01:08.000Z</time>
      </trkpt>
      <trkpt lat="44.32996" lon="6.28293">
        <ele>1694.4000244141</ele>
        <time>2016-07-19T13:01:15.000Z</time>
      </trkpt>
      <trkpt lat="44.32995" lon="6.2829">
        <ele>1695</ele>
        <time>2016-07-19T13:01:17.000Z</time>
      </trkpt>
      <trkpt lat="44.32996" lon="6.28273">
        <ele>1698</ele>
        <time>2016-07-19T13:01:26.000Z</time>
      </trkpt>
      <trkpt lat="44.32991" lon="6.28264">
        <ele>1699.5999755859</ele>
        <time>2016-07-19T13:01:32.000Z</time>
      </trkpt>
      <trkpt lat="44.32985" lon="6.28252">
        <ele>1701.4000244141</ele>
        <time>2016-07-19T13:01:38.000Z</time>
      </trkpt>
      <trkpt lat="44.32985" lon="6.28237">
        <ele>1703.5999755859</ele>
        <time>2016-07-19T13:01:46.000Z</time>
      </trkpt>
      <trkpt lat="44.32985" lon="6.28232">
        <ele>1704.1999511719</ele>
        <time>2016-07-19T13:01:49.000Z</time>
      </trkpt>
      <trkpt lat="44.32979" lon="6.28233">
        <ele>1704.4000244141</ele>
        <time>2016-07-19T13:01:55.000Z</time>
      </trkpt>
      <trkpt lat="44.32972" lon="6.28234">
        <ele>1704.5999755859</ele>
        <time>2016-07-19T13:02:01.000Z</time>
      </trkpt>
      <trkpt lat="44.32971" lon="6.28234">
        <ele>1704.5999755859</ele>
        <time>2016-07-19T13:02:02.000Z</time>
      </trkpt>
      <trkpt lat="44.32957" lon="6.28228">
        <ele>1706</ele>
        <time>2016-07-19T13:02:12.000Z</time>
      </trkpt>
      <trkpt lat="44.32947" lon="6.28228">
        <ele>1706.4000244141</ele>
        <time>2016-07-19T13:02:19.000Z</time>
      </trkpt>
      <trkpt lat="44.32938" lon="6.28228">
        <ele>1705.1999511719</ele>
        <time>2016-07-19T13:02:26.000Z</time>
      </trkpt>
      <trkpt lat="44.32925" lon="6.28228">
        <ele>1703.8000488281</ele>
        <time>2016-07-19T13:02:35.000Z</time>
      </trkpt>
      <trkpt lat="44.32915" lon="6.28227">
        <ele>1703</ele>
        <time>2016-07-19T13:02:42.000Z</time>
      </trkpt>
      <trkpt lat="44.32902" lon="6.28225">
        <ele>1701.8000488281</ele>
        <time>2016-07-19T13:02:52.000Z</time>
      </trkpt>
      <trkpt lat="44.32888" lon="6.28219">
        <ele>1701</ele>
        <time>2016-07-19T13:03:02.000Z</time>
      </trkpt>
      <trkpt lat="44.32878" lon="6.28216">
        <ele>1700.1999511719</ele>
        <time>2016-07-19T13:03:10.000Z</time>
      </trkpt>
      <trkpt lat="44.32871" lon="6.28213">
        <ele>1699.8000488281</ele>
        <time>2016-07-19T13:03:16.000Z</time>
      </trkpt>
      <trkpt lat="44.32869" lon="6.28221">
        <ele>1698.5999755859</ele>
        <time>2016-07-19T13:03:21.000Z</time>
      </trkpt>
      <trkpt lat="44.32865" lon="6.28244">
        <ele>1695</ele>
        <time>2016-07-19T13:03:32.000Z</time>
      </trkpt>
      <trkpt lat="44.32858" lon="6.28265">
        <ele>1692.5999755859</ele>
        <time>2016-07-19T13:03:43.000Z</time>
      </trkpt>
      <trkpt lat="44.32857" lon="6.28267">
        <ele>1692.4000244141</ele>
        <time>2016-07-19T13:03:44.000Z</time>
      </trkpt>
      <trkpt lat="44.32853" lon="6.28264">
        <ele>1693.4000244141</ele>
        <time>2016-07-19T13:03:48.000Z</time>
      </trkpt>
      <trkpt lat="44.32852" lon="6.28259">
        <ele>1694.1999511719</ele>
        <time>2016-07-19T13:03:51.000Z</time>
      </trkpt>
      <trkpt lat="44.32851" lon="6.28239">
        <ele>1697.1999511719</ele>
        <time>2016-07-19T13:04:01.000Z</time>
      </trkpt>
      <trkpt lat="44.3285" lon="6.28214">
        <ele>1701.5999755859</ele>
        <time>2016-07-19T13:04:13.000Z</time>
      </trkpt>
      <trkpt lat="44.3285" lon="6.2821">
        <ele>1702.1999511719</ele>
        <time>2016-07-19T13:04:15.000Z</time>
      </trkpt>
      <trkpt lat="44.32851" lon="6.28204">
        <ele>1702.8000488281</ele>
        <time>2016-07-19T13:04:19.000Z</time>
      </trkpt>
      <trkpt lat="44.32848" lon="6.28189">
        <ele>1705</ele>
        <time>2016-07-19T13:04:28.000Z</time>
      </trkpt>
      <trkpt lat="44.32847" lon="6.2818">
        <ele>1706.4000244141</ele>
        <time>2016-07-19T13:04:33.000Z</time>
      </trkpt>
      <trkpt lat="44.32848" lon="6.28165">
        <ele>1707.8000488281</ele>
        <time>2016-07-19T13:04:41.000Z</time>
      </trkpt>
      <trkpt lat="44.32846" lon="6.28152">
        <ele>1710</ele>
        <time>2016-07-19T13:04:47.000Z</time>
      </trkpt>
      <trkpt lat="44.32842" lon="6.28142">
        <ele>1712</ele>
        <time>2016-07-19T13:04:53.000Z</time>
      </trkpt>
      <trkpt lat="44.32837" lon="6.28138">
        <ele>1713.5999755859</ele>
        <time>2016-07-19T13:04:58.000Z</time>
      </trkpt>
      <trkpt lat="44.32835" lon="6.28137">
        <ele>1714</ele>
        <time>2016-07-19T13:05:00.000Z</time>
      </trkpt>
      <trkpt lat="44.32829" lon="6.28128">
        <ele>1716.4000244141</ele>
        <time>2016-07-19T13:05:08.000Z</time>
      </trkpt>
      <trkpt lat="44.32825" lon="6.28123">
        <ele>1717.8000488281</ele>
        <time>2016-07-19T13:05:13.000Z</time>
      </trkpt>
      <trkpt lat="44.32826" lon="6.28121">
        <ele>1717.8000488281</ele>
        <time>2016-07-19T13:05:44.000Z</time>
      </trkpt>
      <trkpt lat="44.32826" lon="6.28122">
        <ele>1717.5999755859</ele>
        <time>2016-07-19T13:05:54.000Z</time>
      </trkpt>
      <trkpt lat="44.32825" lon="6.28123">
        <ele>1717.5999755859</ele>
        <time>2016-07-19T13:06:01.000Z</time>
      </trkpt>
      <trkpt lat="44.32821" lon="6.28122">
        <ele>1718.5999755859</ele>
        <time>2016-07-19T13:06:46.000Z</time>
      </trkpt>
      <trkpt lat="44.32822" lon="6.28122">
        <ele>1718.4000244141</ele>
        <time>2016-07-19T13:06:53.000Z</time>
      </trkpt>
      <trkpt lat="44.32823" lon="6.28123">
        <ele>1718.1999511719</ele>
        <time>2016-07-19T13:07:57.000Z</time>
      </trkpt>
      <trkpt lat="44.32822" lon="6.28124">
        <ele>1718.1999511719</ele>
        <time>2016-07-19T13:08:04.000Z</time>
      </trkpt>
      <trkpt lat="44.32822" lon="6.28122">
        <ele>1718.4000244141</ele>
        <time>2016-07-19T13:12:31.000Z</time>
      </trkpt>
      <trkpt lat="44.32822" lon="6.28123">
        <ele>1718.4000244141</ele>
        <time>2016-07-19T13:12:38.000Z</time>
      </trkpt>
      <trkpt lat="44.32824" lon="6.28123">
        <ele>1718</ele>
        <time>2016-07-19T13:14:45.000Z</time>
      </trkpt>
      <trkpt lat="44.32822" lon="6.28124">
        <ele>1718.1999511719</ele>
        <time>2016-07-19T13:15:13.000Z</time>
      </trkpt>
      <trkpt lat="44.32823" lon="6.28123">
        <ele>1718.1999511719</ele>
        <time>2016-07-19T13:15:16.000Z</time>
      </trkpt>
      <trkpt lat="44.32823" lon="6.28124">
        <ele>1718</ele>
        <time>2016-07-19T13:15:33.000Z</time>
      </trkpt>
      <trkpt lat="44.32822" lon="6.28121">
        <ele>1718.5999755859</ele>
        <time>2016-07-19T13:15:59.000Z</time>
      </trkpt>
      <trkpt lat="44.32821" lon="6.28118">
        <ele>1719.1999511719</ele>
        <time>2016-07-19T13:16:10.000Z</time>
      </trkpt>
      <trkpt lat="44.32819" lon="6.28117">
        <ele>1719.5999755859</ele>
        <time>2016-07-19T13:16:11.000Z</time>
      </trkpt>
      <trkpt lat="44.32813" lon="6.28111">
        <ele>1721.5999755859</ele>
        <time>2016-07-19T13:16:18.000Z</time>
      </trkpt>
      <trkpt lat="44.32813" lon="6.28109">
        <ele>1721.8000488281</ele>
        <time>2016-07-19T13:16:19.000Z</time>
      </trkpt>
      <trkpt lat="44.32812" lon="6.28103">
        <ele>1722.8000488281</ele>
        <time>2016-07-19T13:16:23.000Z</time>
      </trkpt>
      <trkpt lat="44.32805" lon="6.28106">
        <ele>1723.8000488281</ele>
        <time>2016-07-19T13:16:29.000Z</time>
      </trkpt>
      <trkpt lat="44.32804" lon="6.28108">
        <ele>1723.8000488281</ele>
        <time>2016-07-19T13:16:30.000Z</time>
      </trkpt>
      <trkpt lat="44.32803" lon="6.28109">
        <ele>1724</ele>
        <time>2016-07-19T13:16:31.000Z</time>
      </trkpt>
      <trkpt lat="44.32798" lon="6.28128">
        <ele>1722.5999755859</ele>
        <time>2016-07-19T13:16:37.000Z</time>
      </trkpt>
      <trkpt lat="44.32793" lon="6.28144">
        <ele>1721.8000488281</ele>
        <time>2016-07-19T13:16:46.000Z</time>
      </trkpt>
      <trkpt lat="44.32788" lon="6.28159">
        <ele>1720.5999755859</ele>
        <time>2016-07-19T13:16:53.000Z</time>
      </trkpt>
      <trkpt lat="44.32783" lon="6.28168">
        <ele>1719.1999511719</ele>
        <time>2016-07-19T13:17:01.000Z</time>
      </trkpt>
      <trkpt lat="44.32782" lon="6.2817">
        <ele>1719</ele>
        <time>2016-07-19T13:17:02.000Z</time>
      </trkpt>
      <trkpt lat="44.32776" lon="6.2818">
        <ele>1718.8000488281</ele>
        <time>2016-07-19T13:17:10.000Z</time>
      </trkpt>
      <trkpt lat="44.32767" lon="6.28188">
        <ele>1719.4000244141</ele>
        <time>2016-07-19T13:17:18.000Z</time>
      </trkpt>
      <trkpt lat="44.32761" lon="6.28194">
        <ele>1720.1999511719</ele>
        <time>2016-07-19T13:17:25.000Z</time>
      </trkpt>
      <trkpt lat="44.32752" lon="6.28201">
        <ele>1721.4000244141</ele>
        <time>2016-07-19T13:17:34.000Z</time>
      </trkpt>
      <trkpt lat="44.32745" lon="6.28206">
        <ele>1720.5999755859</ele>
        <time>2016-07-19T13:17:40.000Z</time>
      </trkpt>
      <trkpt lat="44.32738" lon="6.28214">
        <ele>1718.8000488281</ele>
        <time>2016-07-19T13:17:48.000Z</time>
      </trkpt>
      <trkpt lat="44.32725" lon="6.28216">
        <ele>1720</ele>
        <time>2016-07-19T13:17:59.000Z</time>
      </trkpt>
      <trkpt lat="44.32717" lon="6.28212">
        <ele>1722.4000244141</ele>
        <time>2016-07-19T13:18:06.000Z</time>
      </trkpt>
      <trkpt lat="44.32717" lon="6.28204">
        <ele>1725.5999755859</ele>
        <time>2016-07-19T13:18:13.000Z</time>
      </trkpt>
      <trkpt lat="44.32716" lon="6.28196">
        <ele>1728.1999511719</ele>
        <time>2016-07-19T13:18:17.000Z</time>
      </trkpt>
      <trkpt lat="44.32707" lon="6.28193">
        <ele>1730.5999755859</ele>
        <time>2016-07-19T13:18:23.000Z</time>
      </trkpt>
      <trkpt lat="44.32699" lon="6.28192">
        <ele>1732.4000244141</ele>
        <time>2016-07-19T13:18:29.000Z</time>
      </trkpt>
      <trkpt lat="44.32698" lon="6.28191">
        <ele>1732.5999755859</ele>
        <time>2016-07-19T13:18:30.000Z</time>
      </trkpt>
      <trkpt lat="44.32691" lon="6.28189">
        <ele>1733.1999511719</ele>
        <time>2016-07-19T13:18:35.000Z</time>
      </trkpt>
      <trkpt lat="44.32688" lon="6.28183">
        <ele>1735.5999755859</ele>
        <time>2016-07-19T13:18:40.000Z</time>
      </trkpt>
      <trkpt lat="44.32674" lon="6.28161">
        <ele>1743</ele>
        <time>2016-07-19T13:19:04.000Z</time>
      </trkpt>
      <trkpt lat="44.32665" lon="6.28159">
        <ele>1743.1999511719</ele>
        <time>2016-07-19T13:19:11.000Z</time>
      </trkpt>
      <trkpt lat="44.32656" lon="6.28157">
        <ele>1743.8000488281</ele>
        <time>2016-07-19T13:19:17.000Z</time>
      </trkpt>
      <trkpt lat="44.32647" lon="6.28152">
        <ele>1745</ele>
        <time>2016-07-19T13:19:25.000Z</time>
      </trkpt>
      <trkpt lat="44.3264" lon="6.28147">
        <ele>1746.5999755859</ele>
        <time>2016-07-19T13:19:31.000Z</time>
      </trkpt>
      <trkpt lat="44.32641" lon="6.28143">
        <ele>1747.8000488281</ele>
        <time>2016-07-19T13:19:36.000Z</time>
      </trkpt>
      <trkpt lat="44.32644" lon="6.28138">
        <ele>1749.4000244141</ele>
        <time>2016-07-19T13:19:40.000Z</time>
      </trkpt>
      <trkpt lat="44.3265" lon="6.28122">
        <ele>1754</ele>
        <time>2016-07-19T13:19:50.000Z</time>
      </trkpt>
      <trkpt lat="44.3265" lon="6.28118">
        <ele>1755</ele>
        <time>2016-07-19T13:19:53.000Z</time>
      </trkpt>
      <trkpt lat="44.32645" lon="6.28114">
        <ele>1756</ele>
        <time>2016-07-19T13:19:57.000Z</time>
      </trkpt>
      <trkpt lat="44.32638" lon="6.28107">
        <ele>1757.5999755859</ele>
        <time>2016-07-19T13:20:03.000Z</time>
      </trkpt>
      <trkpt lat="44.32628" lon="6.28096">
        <ele>1760.4000244141</ele>
        <time>2016-07-19T13:20:08.000Z</time>
      </trkpt>
      <trkpt lat="44.32622" lon="6.28088">
        <ele>1762.4000244141</ele>
        <time>2016-07-19T13:20:13.000Z</time>
      </trkpt>
      <trkpt lat="44.32621" lon="6.28087">
        <ele>1762.5999755859</ele>
        <time>2016-07-19T13:20:14.000Z</time>
      </trkpt>
      <trkpt lat="44.32616" lon="6.28085">
        <ele>1763.1999511719</ele>
        <time>2016-07-19T13:20:19.000Z</time>
      </trkpt>
      <trkpt lat="44.32615" lon="6.2808">
        <ele>1764.4000244141</ele>
        <time>2016-07-19T13:20:23.000Z</time>
      </trkpt>
      <trkpt lat="44.32614" lon="6.28073">
        <ele>1766.1999511719</ele>
        <time>2016-07-19T13:20:26.000Z</time>
      </trkpt>
      <trkpt lat="44.32613" lon="6.28072">
        <ele>1766.5999755859</ele>
        <time>2016-07-19T13:20:29.000Z</time>
      </trkpt>
      <trkpt lat="44.32613" lon="6.2806">
        <ele>1769.5999755859</ele>
        <time>2016-07-19T13:20:35.000Z</time>
      </trkpt>
      <trkpt lat="44.32613" lon="6.28058">
        <ele>1770</ele>
        <time>2016-07-19T13:20:36.000Z</time>
      </trkpt>
      <trkpt lat="44.32613" lon="6.28043">
        <ele>1773.5999755859</ele>
        <time>2016-07-19T13:20:44.000Z</time>
      </trkpt>
      <trkpt lat="44.32606" lon="6.28038">
        <ele>1775.1999511719</ele>
        <time>2016-07-19T13:20:50.000Z</time>
      </trkpt>
      <trkpt lat="44.32596" lon="6.28032">
        <ele>1777</ele>
        <time>2016-07-19T13:20:55.000Z</time>
      </trkpt>
      <trkpt lat="44.32588" lon="6.28016">
        <ele>1781</ele>
        <time>2016-07-19T13:21:00.000Z</time>
      </trkpt>
      <trkpt lat="44.32582" lon="6.27996">
        <ele>1785.8000488281</ele>
        <time>2016-07-19T13:21:06.000Z</time>
      </trkpt>
      <trkpt lat="44.32581" lon="6.27985">
        <ele>1788.1999511719</ele>
        <time>2016-07-19T13:21:11.000Z</time>
      </trkpt>
      <trkpt lat="44.32579" lon="6.27972">
        <ele>1791.1999511719</ele>
        <time>2016-07-19T13:21:19.000Z</time>
      </trkpt>
      <trkpt lat="44.3258" lon="6.27961">
        <ele>1793.5999755859</ele>
        <time>2016-07-19T13:21:26.000Z</time>
      </trkpt>
      <trkpt lat="44.3258" lon="6.27952">
        <ele>1795.5999755859</ele>
        <time>2016-07-19T13:21:33.000Z</time>
      </trkpt>
      <trkpt lat="44.3258" lon="6.27951">
        <ele>1795.8000488281</ele>
        <time>2016-07-19T13:21:49.000Z</time>
      </trkpt>
      <trkpt lat="44.32582" lon="6.27933">
        <ele>1798.8000488281</ele>
        <time>2016-07-19T13:21:59.000Z</time>
      </trkpt>
      <trkpt lat="44.32585" lon="6.2791">
        <ele>1802.5999755859</ele>
        <time>2016-07-19T13:22:10.000Z</time>
      </trkpt>
      <trkpt lat="44.32588" lon="6.27892">
        <ele>1804.4000244141</ele>
        <time>2016-07-19T13:22:14.000Z</time>
      </trkpt>
      <trkpt lat="44.32591" lon="6.27869">
        <ele>1804.1999511719</ele>
        <time>2016-07-19T13:22:21.000Z</time>
      </trkpt>
      <trkpt lat="44.32593" lon="6.27856">
        <ele>1805.5999755859</ele>
        <time>2016-07-19T13:22:25.000Z</time>
      </trkpt>
      <trkpt lat="44.32593" lon="6.27848">
        <ele>1806.4000244141</ele>
        <time>2016-07-19T13:22:28.000Z</time>
      </trkpt>
      <trkpt lat="44.32592" lon="6.2783">
        <ele>1808.4000244141</ele>
        <time>2016-07-19T13:22:33.000Z</time>
      </trkpt>
      <trkpt lat="44.32594" lon="6.27815">
        <ele>1810</ele>
        <time>2016-07-19T13:22:40.000Z</time>
      </trkpt>
      <trkpt lat="44.32593" lon="6.27801">
        <ele>1807.5999755859</ele>
        <time>2016-07-19T13:22:48.000Z</time>
      </trkpt>
      <trkpt lat="44.32591" lon="6.27789">
        <ele>1805.4000244141</ele>
        <time>2016-07-19T13:22:55.000Z</time>
      </trkpt>
      <trkpt lat="44.32594" lon="6.27778">
        <ele>1806.8000488281</ele>
        <time>2016-07-19T13:23:01.000Z</time>
      </trkpt>
      <trkpt lat="44.32598" lon="6.27767">
        <ele>1808.8000488281</ele>
        <time>2016-07-19T13:23:08.000Z</time>
      </trkpt>
      <trkpt lat="44.32602" lon="6.27752">
        <ele>1811</ele>
        <time>2016-07-19T13:23:18.000Z</time>
      </trkpt>
      <trkpt lat="44.32605" lon="6.27735">
        <ele>1812.8000488281</ele>
        <time>2016-07-19T13:23:28.000Z</time>
      </trkpt>
      <trkpt lat="44.3261" lon="6.27721">
        <ele>1814</ele>
        <time>2016-07-19T13:23:36.000Z</time>
      </trkpt>
      <trkpt lat="44.32614" lon="6.2771">
        <ele>1815</ele>
        <time>2016-07-19T13:23:43.000Z</time>
      </trkpt>
      <trkpt lat="44.32619" lon="6.27694">
        <ele>1814.1999511719</ele>
        <time>2016-07-19T13:23:53.000Z</time>
      </trkpt>
      <trkpt lat="44.32622" lon="6.2768">
        <ele>1813.4000244141</ele>
        <time>2016-07-19T13:24:02.000Z</time>
      </trkpt>
      <trkpt lat="44.32627" lon="6.27665">
        <ele>1812.4000244141</ele>
        <time>2016-07-19T13:24:11.000Z</time>
      </trkpt>
      <trkpt lat="44.32632" lon="6.2765">
        <ele>1814</ele>
        <time>2016-07-19T13:24:20.000Z</time>
      </trkpt>
      <trkpt lat="44.32639" lon="6.27629">
        <ele>1815.1999511719</ele>
        <time>2016-07-19T13:24:33.000Z</time>
      </trkpt>
      <trkpt lat="44.32646" lon="6.27613">
        <ele>1815.8000488281</ele>
        <time>2016-07-19T13:24:43.000Z</time>
      </trkpt>
      <trkpt lat="44.3265" lon="6.27601">
        <ele>1816.1999511719</ele>
        <time>2016-07-19T13:24:49.000Z</time>
      </trkpt>
      <trkpt lat="44.32658" lon="6.27583">
        <ele>1819</ele>
        <time>2016-07-19T13:25:01.000Z</time>
      </trkpt>
      <trkpt lat="44.32664" lon="6.27563">
        <ele>1822</ele>
        <time>2016-07-19T13:25:11.000Z</time>
      </trkpt>
      <trkpt lat="44.32672" lon="6.27544">
        <ele>1825.5999755859</ele>
        <time>2016-07-19T13:25:23.000Z</time>
      </trkpt>
      <trkpt lat="44.32678" lon="6.27528">
        <ele>1828.5999755859</ele>
        <time>2016-07-19T13:25:33.000Z</time>
      </trkpt>
      <trkpt lat="44.32684" lon="6.27512">
        <ele>1831.1999511719</ele>
        <time>2016-07-19T13:25:41.000Z</time>
      </trkpt>
      <trkpt lat="44.32689" lon="6.27497">
        <ele>1833.8000488281</ele>
        <time>2016-07-19T13:25:50.000Z</time>
      </trkpt>
      <trkpt lat="44.32696" lon="6.27481">
        <ele>1836.5999755859</ele>
        <time>2016-07-19T13:26:00.000Z</time>
      </trkpt>
      <trkpt lat="44.32704" lon="6.27465">
        <ele>1836.4000244141</ele>
        <time>2016-07-19T13:26:10.000Z</time>
      </trkpt>
      <trkpt lat="44.3271" lon="6.27448">
        <ele>1835.5999755859</ele>
        <time>2016-07-19T13:26:20.000Z</time>
      </trkpt>
      <trkpt lat="44.32715" lon="6.27434">
        <ele>1835.1999511719</ele>
        <time>2016-07-19T13:26:30.000Z</time>
      </trkpt>
      <trkpt lat="44.32723" lon="6.27417">
        <ele>1835.1999511719</ele>
        <time>2016-07-19T13:26:40.000Z</time>
      </trkpt>
      <trkpt lat="44.32725" lon="6.2741">
        <ele>1836.4000244141</ele>
        <time>2016-07-19T13:26:43.000Z</time>
      </trkpt>
      <trkpt lat="44.32731" lon="6.27398">
        <ele>1838.8000488281</ele>
        <time>2016-07-19T13:26:50.000Z</time>
      </trkpt>
      <trkpt lat="44.32739" lon="6.27383">
        <ele>1841.4000244141</ele>
        <time>2016-07-19T13:27:01.000Z</time>
      </trkpt>
      <trkpt lat="44.32747" lon="6.27369">
        <ele>1843.8000488281</ele>
        <time>2016-07-19T13:27:11.000Z</time>
      </trkpt>
      <trkpt lat="44.32755" lon="6.27358">
        <ele>1846.1999511719</ele>
        <time>2016-07-19T13:27:19.000Z</time>
      </trkpt>
      <trkpt lat="44.3276" lon="6.27348">
        <ele>1849</ele>
        <time>2016-07-19T13:27:28.000Z</time>
      </trkpt>
      <trkpt lat="44.32763" lon="6.27343">
        <ele>1850.1999511719</ele>
        <time>2016-07-19T13:27:35.000Z</time>
      </trkpt>
      <trkpt lat="44.32762" lon="6.27344">
        <ele>1850</ele>
        <time>2016-07-19T13:27:41.000Z</time>
      </trkpt>
      <trkpt lat="44.32763" lon="6.27341">
        <ele>1850.5999755859</ele>
        <time>2016-07-19T13:27:46.000Z</time>
      </trkpt>
      <trkpt lat="44.32763" lon="6.27344">
        <ele>1850</ele>
        <time>2016-07-19T13:27:54.000Z</time>
      </trkpt>
      <trkpt lat="44.32762" lon="6.27345">
        <ele>1849.8000488281</ele>
        <time>2016-07-19T13:27:58.000Z</time>
      </trkpt>
      <trkpt lat="44.32764" lon="6.27344">
        <ele>1850.1999511719</ele>
        <time>2016-07-19T13:28:02.000Z</time>
      </trkpt>
      <trkpt lat="44.32763" lon="6.27343">
        <ele>1850.1999511719</ele>
        <time>2016-07-19T13:28:18.000Z</time>
      </trkpt>
      <trkpt lat="44.32764" lon="6.27339">
        <ele>1851</ele>
        <time>2016-07-19T13:28:23.000Z</time>
      </trkpt>
      <trkpt lat="44.32764" lon="6.2734">
        <ele>1851</ele>
        <time>2016-07-19T13:28:31.000Z</time>
      </trkpt>
      <trkpt lat="44.32765" lon="6.2734">
        <ele>1851</ele>
        <time>2016-07-19T13:28:37.000Z</time>
      </trkpt>
      <trkpt lat="44.32769" lon="6.27337">
        <ele>1852</ele>
        <time>2016-07-19T13:28:46.000Z</time>
      </trkpt>
      <trkpt lat="44.32771" lon="6.27332">
        <ele>1853.1999511719</ele>
        <time>2016-07-19T13:28:50.000Z</time>
      </trkpt>
      <trkpt lat="44.3277" lon="6.27327">
        <ele>1854.1999511719</ele>
        <time>2016-07-19T13:28:55.000Z</time>
      </trkpt>
      <trkpt lat="44.32776" lon="6.27318">
        <ele>1856.5999755859</ele>
        <time>2016-07-19T13:29:02.000Z</time>
      </trkpt>
      <trkpt lat="44.32783" lon="6.27314">
        <ele>1857.5999755859</ele>
        <time>2016-07-19T13:29:10.000Z</time>
      </trkpt>
      <trkpt lat="44.32785" lon="6.27314">
        <ele>1857.8000488281</ele>
        <time>2016-07-19T13:29:11.000Z</time>
      </trkpt>
      <trkpt lat="44.32786" lon="6.27311">
        <ele>1858.8000488281</ele>
        <time>2016-07-19T13:29:14.000Z</time>
      </trkpt>
      <trkpt lat="44.32784" lon="6.27305">
        <ele>1860.5999755859</ele>
        <time>2016-07-19T13:29:18.000Z</time>
      </trkpt>
      <trkpt lat="44.32789" lon="6.27301">
        <ele>1862.1999511719</ele>
        <time>2016-07-19T13:29:23.000Z</time>
      </trkpt>
      <trkpt lat="44.32793" lon="6.27299">
        <ele>1862.8000488281</ele>
        <time>2016-07-19T13:29:26.000Z</time>
      </trkpt>
      <trkpt lat="44.32796" lon="6.27293">
        <ele>1865</ele>
        <time>2016-07-19T13:29:33.000Z</time>
      </trkpt>
      <trkpt lat="44.32792" lon="6.27286">
        <ele>1866.8000488281</ele>
        <time>2016-07-19T13:29:39.000Z</time>
      </trkpt>
      <trkpt lat="44.32791" lon="6.27282">
        <ele>1868.1999511719</ele>
        <time>2016-07-19T13:29:41.000Z</time>
      </trkpt>
      <trkpt lat="44.32795" lon="6.27277">
        <ele>1869.5999755859</ele>
        <time>2016-07-19T13:29:46.000Z</time>
      </trkpt>
      <trkpt lat="44.328" lon="6.27273">
        <ele>1871</ele>
        <time>2016-07-19T13:29:51.000Z</time>
      </trkpt>
      <trkpt lat="44.32797" lon="6.27262">
        <ele>1874.5999755859</ele>
        <time>2016-07-19T13:30:00.000Z</time>
      </trkpt>
      <trkpt lat="44.32793" lon="6.27252">
        <ele>1877.4000244141</ele>
        <time>2016-07-19T13:30:06.000Z</time>
      </trkpt>
      <trkpt lat="44.32791" lon="6.27232">
        <ele>1884</ele>
        <time>2016-07-19T13:30:18.000Z</time>
      </trkpt>
      <trkpt lat="44.32793" lon="6.27213">
        <ele>1886.5999755859</ele>
        <time>2016-07-19T13:30:29.000Z</time>
      </trkpt>
      <trkpt lat="44.32797" lon="6.27191">
        <ele>1888.8000488281</ele>
        <time>2016-07-19T13:30:41.000Z</time>
      </trkpt>
      <trkpt lat="44.32799" lon="6.27178">
        <ele>1890.1999511719</ele>
        <time>2016-07-19T13:30:49.000Z</time>
      </trkpt>
      <trkpt lat="44.32801" lon="6.27153">
        <ele>1892.5999755859</ele>
        <time>2016-07-19T13:31:02.000Z</time>
      </trkpt>
      <trkpt lat="44.32802" lon="6.2715">
        <ele>1893</ele>
        <time>2016-07-19T13:31:09.000Z</time>
      </trkpt>
      <trkpt lat="44.32801" lon="6.27148">
        <ele>1893</ele>
        <time>2016-07-19T13:31:31.000Z</time>
      </trkpt>
      <trkpt lat="44.32797" lon="6.27134">
        <ele>1893.4000244141</ele>
        <time>2016-07-19T13:31:39.000Z</time>
      </trkpt>
      <trkpt lat="44.32802" lon="6.27126">
        <ele>1894.5999755859</ele>
        <time>2016-07-19T13:31:45.000Z</time>
      </trkpt>
      <trkpt lat="44.32807" lon="6.27116">
        <ele>1895.5999755859</ele>
        <time>2016-07-19T13:31:50.000Z</time>
      </trkpt>
      <trkpt lat="44.32809" lon="6.27098">
        <ele>1897</ele>
        <time>2016-07-19T13:32:00.000Z</time>
      </trkpt>
      <trkpt lat="44.32813" lon="6.27082">
        <ele>1896.4000244141</ele>
        <time>2016-07-19T13:32:07.000Z</time>
      </trkpt>
      <trkpt lat="44.32817" lon="6.27065">
        <ele>1894.4000244141</ele>
        <time>2016-07-19T13:32:16.000Z</time>
      </trkpt>
      <trkpt lat="44.32821" lon="6.27057">
        <ele>1893.8000488281</ele>
        <time>2016-07-19T13:32:23.000Z</time>
      </trkpt>
      <trkpt lat="44.32821" lon="6.27056">
        <ele>1893.5999755859</ele>
        <time>2016-07-19T13:32:31.000Z</time>
      </trkpt>
      <trkpt lat="44.32819" lon="6.27054">
        <ele>1893.5999755859</ele>
        <time>2016-07-19T13:32:36.000Z</time>
      </trkpt>
      <trkpt lat="44.32819" lon="6.27055">
        <ele>1893.5999755859</ele>
        <time>2016-07-19T13:32:46.000Z</time>
      </trkpt>
      <trkpt lat="44.32822" lon="6.27055">
        <ele>1893.5999755859</ele>
        <time>2016-07-19T13:33:08.000Z</time>
      </trkpt>
      <trkpt lat="44.32819" lon="6.27055">
        <ele>1893.8000488281</ele>
        <time>2016-07-19T13:33:40.000Z</time>
      </trkpt>
      <trkpt lat="44.3282" lon="6.27055">
        <ele>1893.5999755859</ele>
        <time>2016-07-19T13:33:45.000Z</time>
      </trkpt>
      <trkpt lat="44.32819" lon="6.27054">
        <ele>1893.5999755859</ele>
        <time>2016-07-19T13:33:49.000Z</time>
      </trkpt>
      <trkpt lat="44.3282" lon="6.27055">
        <ele>1893.5999755859</ele>
        <time>2016-07-19T13:34:01.000Z</time>
      </trkpt>
      <trkpt lat="44.3282" lon="6.27051">
        <ele>1893.4000244141</ele>
        <time>2016-07-19T13:34:53.000Z</time>
      </trkpt>
      <trkpt lat="44.32822" lon="6.27039">
        <ele>1892.5999755859</ele>
        <time>2016-07-19T13:35:01.000Z</time>
      </trkpt>
      <trkpt lat="44.32823" lon="6.27038">
        <ele>1892.4000244141</ele>
        <time>2016-07-19T13:35:03.000Z</time>
      </trkpt>
      <trkpt lat="44.32827" lon="6.2703">
        <ele>1891.8000488281</ele>
        <time>2016-07-19T13:35:10.000Z</time>
      </trkpt>
      <trkpt lat="44.32829" lon="6.27025">
        <ele>1891.1999511719</ele>
        <time>2016-07-19T13:35:13.000Z</time>
      </trkpt>
      <trkpt lat="44.32829" lon="6.27021">
        <ele>1890.4000244141</ele>
        <time>2016-07-19T13:35:16.000Z</time>
      </trkpt>
      <trkpt lat="44.32833" lon="6.27011">
        <ele>1888</ele>
        <time>2016-07-19T13:35:23.000Z</time>
      </trkpt>
      <trkpt lat="44.32833" lon="6.27009">
        <ele>1887.5999755859</ele>
        <time>2016-07-19T13:35:25.000Z</time>
      </trkpt>
      <trkpt lat="44.32833" lon="6.27008">
        <ele>1887.5999755859</ele>
        <time>2016-07-19T13:35:26.000Z</time>
      </trkpt>
      <trkpt lat="44.32836" lon="6.27">
        <ele>1885.8000488281</ele>
        <time>2016-07-19T13:35:31.000Z</time>
      </trkpt>
      <trkpt lat="44.32836" lon="6.26996">
        <ele>1885</ele>
        <time>2016-07-19T13:35:35.000Z</time>
      </trkpt>
      <trkpt lat="44.32836" lon="6.26988">
        <ele>1883.8000488281</ele>
        <time>2016-07-19T13:35:40.000Z</time>
      </trkpt>
      <trkpt lat="44.32837" lon="6.2698">
        <ele>1882.1999511719</ele>
        <time>2016-07-19T13:35:45.000Z</time>
      </trkpt>
      <trkpt lat="44.32838" lon="6.26978">
        <ele>1881.8000488281</ele>
        <time>2016-07-19T13:35:47.000Z</time>
      </trkpt>
      <trkpt lat="44.32841" lon="6.2697">
        <ele>1880.4000244141</ele>
        <time>2016-07-19T13:35:53.000Z</time>
      </trkpt>
      <trkpt lat="44.32845" lon="6.26968">
        <ele>1879.5999755859</ele>
        <time>2016-07-19T13:35:58.000Z</time>
      </trkpt>
      <trkpt lat="44.32846" lon="6.26967">
        <ele>1879.4000244141</ele>
        <time>2016-07-19T13:35:59.000Z</time>
      </trkpt>
      <trkpt lat="44.32847" lon="6.2696">
        <ele>1878.1999511719</ele>
        <time>2016-07-19T13:36:07.000Z</time>
      </trkpt>
      <trkpt lat="44.32846" lon="6.26953">
        <ele>1877.4000244141</ele>
        <time>2016-07-19T13:36:15.000Z</time>
      </trkpt>
      <trkpt lat="44.32849" lon="6.26949">
        <ele>1876</ele>
        <time>2016-07-19T13:36:20.000Z</time>
      </trkpt>
      <trkpt lat="44.32848" lon="6.26947">
        <ele>1876</ele>
        <time>2016-07-19T13:36:26.000Z</time>
      </trkpt>
      <trkpt lat="44.32848" lon="6.26944">
        <ele>1875.5999755859</ele>
        <time>2016-07-19T13:36:34.000Z</time>
      </trkpt>
      <trkpt lat="44.32848" lon="6.26939">
        <ele>1874.8000488281</ele>
        <time>2016-07-19T13:36:39.000Z</time>
      </trkpt>
      <trkpt lat="44.3285" lon="6.26935">
        <ele>1873.5999755859</ele>
        <time>2016-07-19T13:36:45.000Z</time>
      </trkpt>
      <trkpt lat="44.32854" lon="6.26932">
        <ele>1872.4000244141</ele>
        <time>2016-07-19T13:36:52.000Z</time>
      </trkpt>
      <trkpt lat="44.32855" lon="6.26921">
        <ele>1870.5999755859</ele>
        <time>2016-07-19T13:37:00.000Z</time>
      </trkpt>
      <trkpt lat="44.32857" lon="6.26912">
        <ele>1868.5999755859</ele>
        <time>2016-07-19T13:37:08.000Z</time>
      </trkpt>
      <trkpt lat="44.32857" lon="6.2691">
        <ele>1868.4000244141</ele>
        <time>2016-07-19T13:37:09.000Z</time>
      </trkpt>
      <trkpt lat="44.32859" lon="6.26907">
        <ele>1867.8000488281</ele>
        <time>2016-07-19T13:37:12.000Z</time>
      </trkpt>
      <trkpt lat="44.32859" lon="6.26905">
        <ele>1867.1999511719</ele>
        <time>2016-07-19T13:37:14.000Z</time>
      </trkpt>
      <trkpt lat="44.32862" lon="6.269">
        <ele>1866</ele>
        <time>2016-07-19T13:37:23.000Z</time>
      </trkpt>
      <trkpt lat="44.32864" lon="6.2689">
        <ele>1864</ele>
        <time>2016-07-19T13:37:31.000Z</time>
      </trkpt>
      <trkpt lat="44.32864" lon="6.26889">
        <ele>1863.8000488281</ele>
        <time>2016-07-19T13:37:32.000Z</time>
      </trkpt>
      <trkpt lat="44.32869" lon="6.26878">
        <ele>1861.4000244141</ele>
        <time>2016-07-19T13:37:42.000Z</time>
      </trkpt>
      <trkpt lat="44.3287" lon="6.26877">
        <ele>1861.1999511719</ele>
        <time>2016-07-19T13:37:43.000Z</time>
      </trkpt>
      <trkpt lat="44.32873" lon="6.26873">
        <ele>1860.1999511719</ele>
        <time>2016-07-19T13:37:50.000Z</time>
      </trkpt>
      <trkpt lat="44.32877" lon="6.26866">
        <ele>1858.8000488281</ele>
        <time>2016-07-19T13:37:58.000Z</time>
      </trkpt>
      <trkpt lat="44.32878" lon="6.26863">
        <ele>1858.1999511719</ele>
        <time>2016-07-19T13:38:00.000Z</time>
      </trkpt>
      <trkpt lat="44.32879" lon="6.26861">
        <ele>1857.5999755859</ele>
        <time>2016-07-19T13:38:10.000Z</time>
      </trkpt>
      <trkpt lat="44.3288" lon="6.26854">
        <ele>1856.4000244141</ele>
        <time>2016-07-19T13:38:20.000Z</time>
      </trkpt>
      <trkpt lat="44.32881" lon="6.26853">
        <ele>1856.1999511719</ele>
        <time>2016-07-19T13:38:22.000Z</time>
      </trkpt>
      <trkpt lat="44.32884" lon="6.26846">
        <ele>1854.8000488281</ele>
        <time>2016-07-19T13:38:30.000Z</time>
      </trkpt>
      <trkpt lat="44.32884" lon="6.26843">
        <ele>1854.1999511719</ele>
        <time>2016-07-19T13:38:35.000Z</time>
      </trkpt>
      <trkpt lat="44.32885" lon="6.26842">
        <ele>1854</ele>
        <time>2016-07-19T13:38:36.000Z</time>
      </trkpt>
      <trkpt lat="44.32887" lon="6.2684">
        <ele>1853.5999755859</ele>
        <time>2016-07-19T13:38:42.000Z</time>
      </trkpt>
      <trkpt lat="44.3289" lon="6.26836">
        <ele>1852.1999511719</ele>
        <time>2016-07-19T13:38:48.000Z</time>
      </trkpt>
      <trkpt lat="44.32894" lon="6.26834">
        <ele>1851.1999511719</ele>
        <time>2016-07-19T13:38:55.000Z</time>
      </trkpt>
      <trkpt lat="44.32896" lon="6.26836">
        <ele>1851.4000244141</ele>
        <time>2016-07-19T13:39:04.000Z</time>
      </trkpt>
      <trkpt lat="44.32899" lon="6.26838">
        <ele>1851.4000244141</ele>
        <time>2016-07-19T13:39:43.000Z</time>
      </trkpt>
      <trkpt lat="44.329" lon="6.26838">
        <ele>1851.1999511719</ele>
        <time>2016-07-19T13:39:53.000Z</time>
      </trkpt>
      <trkpt lat="44.32903" lon="6.26839">
        <ele>1851.1999511719</ele>
        <time>2016-07-19T13:40:11.000Z</time>
      </trkpt>
      <trkpt lat="44.32907" lon="6.2684">
        <ele>1850.8000488281</ele>
        <time>2016-07-19T13:40:18.000Z</time>
      </trkpt>
      <trkpt lat="44.3291" lon="6.26842">
        <ele>1850.8000488281</ele>
        <time>2016-07-19T13:40:22.000Z</time>
      </trkpt>
      <trkpt lat="44.32911" lon="6.26842">
        <ele>1850.8000488281</ele>
        <time>2016-07-19T13:40:23.000Z</time>
      </trkpt>
      <trkpt lat="44.32914" lon="6.26846">
        <ele>1851.1999511719</ele>
        <time>2016-07-19T13:40:30.000Z</time>
      </trkpt>
      <trkpt lat="44.32915" lon="6.26845">
        <ele>1850.8000488281</ele>
        <time>2016-07-19T13:40:31.000Z</time>
      </trkpt>
      <trkpt lat="44.32912" lon="6.26833">
        <ele>1848.1999511719</ele>
        <time>2016-07-19T13:40:38.000Z</time>
      </trkpt>
      <trkpt lat="44.32913" lon="6.26832">
        <ele>1847.5999755859</ele>
        <time>2016-07-19T13:40:39.000Z</time>
      </trkpt>
      <trkpt lat="44.32916" lon="6.26829">
        <ele>1846.1999511719</ele>
        <time>2016-07-19T13:40:45.000Z</time>
      </trkpt>
      <trkpt lat="44.32923" lon="6.26823">
        <ele>1843.8000488281</ele>
        <time>2016-07-19T13:40:51.000Z</time>
      </trkpt>
      <trkpt lat="44.32934" lon="6.26821">
        <ele>1841.4000244141</ele>
        <time>2016-07-19T13:41:00.000Z</time>
      </trkpt>
      <trkpt lat="44.32935" lon="6.26821">
        <ele>1841.1999511719</ele>
        <time>2016-07-19T13:41:16.000Z</time>
      </trkpt>
      <trkpt lat="44.32939" lon="6.26824">
        <ele>1841.4000244141</ele>
        <time>2016-07-19T13:41:21.000Z</time>
      </trkpt>
      <trkpt lat="44.32945" lon="6.26833">
        <ele>1842.8000488281</ele>
        <time>2016-07-19T13:41:29.000Z</time>
      </trkpt>
      <trkpt lat="44.32952" lon="6.26839">
        <ele>1844.8000488281</ele>
        <time>2016-07-19T13:41:36.000Z</time>
      </trkpt>
      <trkpt lat="44.32957" lon="6.26835">
        <ele>1844.4000244141</ele>
        <time>2016-07-19T13:41:42.000Z</time>
      </trkpt>
      <trkpt lat="44.32957" lon="6.26834">
        <ele>1844.1999511719</ele>
        <time>2016-07-19T13:41:43.000Z</time>
      </trkpt>
      <trkpt lat="44.32959" lon="6.26835">
        <ele>1845</ele>
        <time>2016-07-19T13:41:46.000Z</time>
      </trkpt>
      <trkpt lat="44.32965" lon="6.26837">
        <ele>1846.1999511719</ele>
        <time>2016-07-19T13:41:53.000Z</time>
      </trkpt>
      <trkpt lat="44.32965" lon="6.26836">
        <ele>1846</ele>
        <time>2016-07-19T13:41:54.000Z</time>
      </trkpt>
      <trkpt lat="44.32965" lon="6.26834">
        <ele>1845.4000244141</ele>
        <time>2016-07-19T13:41:56.000Z</time>
      </trkpt>
      <trkpt lat="44.32969" lon="6.26828">
        <ele>1844</ele>
        <time>2016-07-19T13:42:01.000Z</time>
      </trkpt>
      <trkpt lat="44.32973" lon="6.26821">
        <ele>1841.5999755859</ele>
        <time>2016-07-19T13:42:06.000Z</time>
      </trkpt>
      <trkpt lat="44.32971" lon="6.26806">
        <ele>1836.8000488281</ele>
        <time>2016-07-19T13:42:13.000Z</time>
      </trkpt>
      <trkpt lat="44.32972" lon="6.26795">
        <ele>1834</ele>
        <time>2016-07-19T13:42:20.000Z</time>
      </trkpt>
      <trkpt lat="44.32973" lon="6.26791">
        <ele>1833</ele>
        <time>2016-07-19T13:42:23.000Z</time>
      </trkpt>
      <trkpt lat="44.32977" lon="6.26785">
        <ele>1831.8000488281</ele>
        <time>2016-07-19T13:42:28.000Z</time>
      </trkpt>
      <trkpt lat="44.32978" lon="6.26783">
        <ele>1831.4000244141</ele>
        <time>2016-07-19T13:42:30.000Z</time>
      </trkpt>
      <trkpt lat="44.3298" lon="6.2678">
        <ele>1830.8000488281</ele>
        <time>2016-07-19T13:42:33.000Z</time>
      </trkpt>
      <trkpt lat="44.32987" lon="6.26772">
        <ele>1829</ele>
        <time>2016-07-19T13:42:43.000Z</time>
      </trkpt>
      <trkpt lat="44.32994" lon="6.26769">
        <ele>1829</ele>
        <time>2016-07-19T13:42:51.000Z</time>
      </trkpt>
      <trkpt lat="44.32998" lon="6.2677">
        <ele>1829.5999755859</ele>
        <time>2016-07-19T13:42:56.000Z</time>
      </trkpt>
      <trkpt lat="44.33003" lon="6.26773">
        <ele>1830.8000488281</ele>
        <time>2016-07-19T13:43:02.000Z</time>
      </trkpt>
      <trkpt lat="44.33006" lon="6.26771">
        <ele>1830.5999755859</ele>
        <time>2016-07-19T13:43:06.000Z</time>
      </trkpt>
      <trkpt lat="44.33009" lon="6.26764">
        <ele>1829.1999511719</ele>
        <time>2016-07-19T13:43:12.000Z</time>
      </trkpt>
      <trkpt lat="44.33013" lon="6.26759">
        <ele>1828.4000244141</ele>
        <time>2016-07-19T13:43:17.000Z</time>
      </trkpt>
      <trkpt lat="44.33018" lon="6.26752">
        <ele>1827.1999511719</ele>
        <time>2016-07-19T13:43:23.000Z</time>
      </trkpt>
      <trkpt lat="44.33021" lon="6.26732">
        <ele>1822.8000488281</ele>
        <time>2016-07-19T13:43:34.000Z</time>
      </trkpt>
      <trkpt lat="44.33027" lon="6.26721">
        <ele>1820.5999755859</ele>
        <time>2016-07-19T13:43:43.000Z</time>
      </trkpt>
      <trkpt lat="44.33028" lon="6.2672">
        <ele>1820.8000488281</ele>
        <time>2016-07-19T13:43:44.000Z</time>
      </trkpt>
      <trkpt lat="44.33037" lon="6.26685">
        <ele>1815</ele>
        <time>2016-07-19T13:44:12.000Z</time>
      </trkpt>
      <trkpt lat="44.33042" lon="6.26674">
        <ele>1813.4000244141</ele>
        <time>2016-07-19T13:44:20.000Z</time>
      </trkpt>
      <trkpt lat="44.33045" lon="6.26657">
        <ele>1810.4000244141</ele>
        <time>2016-07-19T13:44:31.000Z</time>
      </trkpt>
      <trkpt lat="44.33052" lon="6.2665">
        <ele>1809</ele>
        <time>2016-07-19T13:44:38.000Z</time>
      </trkpt>
      <trkpt lat="44.33053" lon="6.26648">
        <ele>1808.4000244141</ele>
        <time>2016-07-19T13:44:39.000Z</time>
      </trkpt>
      <trkpt lat="44.3306" lon="6.26632">
        <ele>1807.1999511719</ele>
        <time>2016-07-19T13:44:51.000Z</time>
      </trkpt>
      <trkpt lat="44.33061" lon="6.2663">
        <ele>1807.1999511719</ele>
        <time>2016-07-19T13:44:52.000Z</time>
      </trkpt>
      <trkpt lat="44.3307" lon="6.26624">
        <ele>1807.4000244141</ele>
        <time>2016-07-19T13:45:00.000Z</time>
      </trkpt>
      <trkpt lat="44.33078" lon="6.26627">
        <ele>1808.4000244141</ele>
        <time>2016-07-19T13:45:07.000Z</time>
      </trkpt>
      <trkpt lat="44.33083" lon="6.26628">
        <ele>1808.8000488281</ele>
        <time>2016-07-19T13:45:11.000Z</time>
      </trkpt>
      <trkpt lat="44.33084" lon="6.26631">
        <ele>1809.1999511719</ele>
        <time>2016-07-19T13:45:18.000Z</time>
      </trkpt>
      <trkpt lat="44.33085" lon="6.26632">
        <ele>1809.4000244141</ele>
        <time>2016-07-19T13:45:35.000Z</time>
      </trkpt>
      <trkpt lat="44.33088" lon="6.2663">
        <ele>1809.5999755859</ele>
        <time>2016-07-19T13:45:38.000Z</time>
      </trkpt>
      <trkpt lat="44.33092" lon="6.2663">
        <ele>1809.8000488281</ele>
        <time>2016-07-19T13:45:42.000Z</time>
      </trkpt>
      <trkpt lat="44.33096" lon="6.26629">
        <ele>1810</ele>
        <time>2016-07-19T13:45:46.000Z</time>
      </trkpt>
      <trkpt lat="44.33108" lon="6.26623">
        <ele>1808.8000488281</ele>
        <time>2016-07-19T13:45:57.000Z</time>
      </trkpt>
      <trkpt lat="44.33117" lon="6.26622">
        <ele>1808.4000244141</ele>
        <time>2016-07-19T13:46:04.000Z</time>
      </trkpt>
      <trkpt lat="44.33122" lon="6.26617">
        <ele>1808</ele>
        <time>2016-07-19T13:46:12.000Z</time>
      </trkpt>
      <trkpt lat="44.33123" lon="6.26616">
        <ele>1807.8000488281</ele>
        <time>2016-07-19T13:46:13.000Z</time>
      </trkpt>
      <trkpt lat="44.3312" lon="6.26606">
        <ele>1805.5999755859</ele>
        <time>2016-07-19T13:46:21.000Z</time>
      </trkpt>
      <trkpt lat="44.33113" lon="6.26601">
        <ele>1804.4000244141</ele>
        <time>2016-07-19T13:46:28.000Z</time>
      </trkpt>
      <trkpt lat="44.33112" lon="6.266">
        <ele>1804.1999511719</ele>
        <time>2016-07-19T13:46:29.000Z</time>
      </trkpt>
      <trkpt lat="44.33111" lon="6.26598">
        <ele>1803.8000488281</ele>
        <time>2016-07-19T13:46:31.000Z</time>
      </trkpt>
      <trkpt lat="44.33109" lon="6.26595">
        <ele>1803.4000244141</ele>
        <time>2016-07-19T13:46:36.000Z</time>
      </trkpt>
      <trkpt lat="44.33108" lon="6.26595">
        <ele>1803.4000244141</ele>
        <time>2016-07-19T13:46:37.000Z</time>
      </trkpt>
      <trkpt lat="44.33105" lon="6.26589">
        <ele>1802.1999511719</ele>
        <time>2016-07-19T13:46:41.000Z</time>
      </trkpt>
      <trkpt lat="44.33105" lon="6.26573">
        <ele>1799.1999511719</ele>
        <time>2016-07-19T13:46:50.000Z</time>
      </trkpt>
      <trkpt lat="44.33106" lon="6.26559">
        <ele>1796.5999755859</ele>
        <time>2016-07-19T13:46:59.000Z</time>
      </trkpt>
      <trkpt lat="44.33107" lon="6.26546">
        <ele>1795.1999511719</ele>
        <time>2016-07-19T13:47:08.000Z</time>
      </trkpt>
      <trkpt lat="44.33108" lon="6.26533">
        <ele>1794.4000244141</ele>
        <time>2016-07-19T13:47:17.000Z</time>
      </trkpt>
      <trkpt lat="44.33106" lon="6.26518">
        <ele>1793.1999511719</ele>
        <time>2016-07-19T13:47:26.000Z</time>
      </trkpt>
      <trkpt lat="44.33105" lon="6.26513">
        <ele>1792.5999755859</ele>
        <time>2016-07-19T13:47:33.000Z</time>
      </trkpt>
      <trkpt lat="44.33108" lon="6.26509">
        <ele>1792.5999755859</ele>
        <time>2016-07-19T13:47:54.000Z</time>
      </trkpt>
      <trkpt lat="44.33107" lon="6.26502">
        <ele>1792</ele>
        <time>2016-07-19T13:47:58.000Z</time>
      </trkpt>
      <trkpt lat="44.3311" lon="6.26499">
        <ele>1792</ele>
        <time>2016-07-19T13:48:01.000Z</time>
      </trkpt>
      <trkpt lat="44.33117" lon="6.26512">
        <ele>1793.5999755859</ele>
        <time>2016-07-19T13:48:10.000Z</time>
      </trkpt>
      <trkpt lat="44.33119" lon="6.26515">
        <ele>1794</ele>
        <time>2016-07-19T13:48:15.000Z</time>
      </trkpt>
      <trkpt lat="44.33119" lon="6.26514">
        <ele>1794</ele>
        <time>2016-07-19T13:48:26.000Z</time>
      </trkpt>
      <trkpt lat="44.33117" lon="6.26512">
        <ele>1793.5999755859</ele>
        <time>2016-07-19T13:48:32.000Z</time>
      </trkpt>
      <trkpt lat="44.33116" lon="6.26512">
        <ele>1793.5999755859</ele>
        <time>2016-07-19T13:48:40.000Z</time>
      </trkpt>
      <trkpt lat="44.33115" lon="6.2651">
        <ele>1793.4000244141</ele>
        <time>2016-07-19T13:48:48.000Z</time>
      </trkpt>
      <trkpt lat="44.33115" lon="6.26507">
        <ele>1793</ele>
        <time>2016-07-19T13:48:56.000Z</time>
      </trkpt>
      <trkpt lat="44.33119" lon="6.26512">
        <ele>1794</ele>
        <time>2016-07-19T13:49:01.000Z</time>
      </trkpt>
      <trkpt lat="44.33122" lon="6.26518">
        <ele>1794.5999755859</ele>
        <time>2016-07-19T13:49:08.000Z</time>
      </trkpt>
      <trkpt lat="44.33124" lon="6.26521">
        <ele>1795</ele>
        <time>2016-07-19T13:49:16.000Z</time>
      </trkpt>
      <trkpt lat="44.33127" lon="6.26523">
        <ele>1795.5999755859</ele>
        <time>2016-07-19T13:49:30.000Z</time>
      </trkpt>
      <trkpt lat="44.33131" lon="6.26528">
        <ele>1796.4000244141</ele>
        <time>2016-07-19T13:49:38.000Z</time>
      </trkpt>
      <trkpt lat="44.33132" lon="6.26529">
        <ele>1796.5999755859</ele>
        <time>2016-07-19T13:49:39.000Z</time>
      </trkpt>
      <trkpt lat="44.33131" lon="6.26529">
        <ele>1796.4000244141</ele>
        <time>2016-07-19T13:49:50.000Z</time>
      </trkpt>
      <trkpt lat="44.33128" lon="6.26524">
        <ele>1795.8000488281</ele>
        <time>2016-07-19T13:50:06.000Z</time>
      </trkpt>
      <trkpt lat="44.33122" lon="6.26519">
        <ele>1794.8000488281</ele>
        <time>2016-07-19T13:50:13.000Z</time>
      </trkpt>
      <trkpt lat="44.3312" lon="6.26516">
        <ele>1794.1999511719</ele>
        <time>2016-07-19T13:50:17.000Z</time>
      </trkpt>
      <trkpt lat="44.33117" lon="6.26515">
        <ele>1794</ele>
        <time>2016-07-19T13:50:20.000Z</time>
      </trkpt>
      <trkpt lat="44.33121" lon="6.26511">
        <ele>1794</ele>
        <time>2016-07-19T13:50:24.000Z</time>
      </trkpt>
      <trkpt lat="44.33131" lon="6.26499">
        <ele>1794.1999511719</ele>
        <time>2016-07-19T13:50:34.000Z</time>
      </trkpt>
      <trkpt lat="44.33138" lon="6.26488">
        <ele>1792.5999755859</ele>
        <time>2016-07-19T13:50:42.000Z</time>
      </trkpt>
      <trkpt lat="44.33145" lon="6.26475">
        <ele>1791.4000244141</ele>
        <time>2016-07-19T13:50:51.000Z</time>
      </trkpt>
      <trkpt lat="44.3315" lon="6.2647">
        <ele>1791.5999755859</ele>
        <time>2016-07-19T13:50:58.000Z</time>
      </trkpt>
      <trkpt lat="44.3315" lon="6.26471">
        <ele>1791.5999755859</ele>
        <time>2016-07-19T13:51:04.000Z</time>
      </trkpt>
      <trkpt lat="44.33156" lon="6.26472">
        <ele>1791.5999755859</ele>
        <time>2016-07-19T13:51:10.000Z</time>
      </trkpt>
      <trkpt lat="44.33166" lon="6.2647">
        <ele>1791.8000488281</ele>
        <time>2016-07-19T13:51:16.000Z</time>
      </trkpt>
      <trkpt lat="44.33182" lon="6.26469">
        <ele>1792</ele>
        <time>2016-07-19T13:51:26.000Z</time>
      </trkpt>
      <trkpt lat="44.3319" lon="6.26474">
        <ele>1792</ele>
        <time>2016-07-19T13:51:32.000Z</time>
      </trkpt>
      <trkpt lat="44.332" lon="6.2647">
        <ele>1791.1999511719</ele>
        <time>2016-07-19T13:51:37.000Z</time>
      </trkpt>
      <trkpt lat="44.33208" lon="6.26468">
        <ele>1791.1999511719</ele>
        <time>2016-07-19T13:51:42.000Z</time>
      </trkpt>
      <trkpt lat="44.33218" lon="6.26469">
        <ele>1791.8000488281</ele>
        <time>2016-07-19T13:51:52.000Z</time>
      </trkpt>
      <trkpt lat="44.33221" lon="6.2647">
        <ele>1792</ele>
        <time>2016-07-19T13:51:59.000Z</time>
      </trkpt>
      <trkpt lat="44.33222" lon="6.26471">
        <ele>1792</ele>
        <time>2016-07-19T13:52:14.000Z</time>
      </trkpt>
      <trkpt lat="44.33223" lon="6.26471">
        <ele>1792.1999511719</ele>
        <time>2016-07-19T13:52:21.000Z</time>
      </trkpt>
      <trkpt lat="44.33225" lon="6.26469">
        <ele>1792</ele>
        <time>2016-07-19T13:52:25.000Z</time>
      </trkpt>
      <trkpt lat="44.33224" lon="6.2646">
        <ele>1791</ele>
        <time>2016-07-19T13:52:31.000Z</time>
      </trkpt>
      <trkpt lat="44.33228" lon="6.26458">
        <ele>1791</ele>
        <time>2016-07-19T13:52:36.000Z</time>
      </trkpt>
      <trkpt lat="44.33229" lon="6.26458">
        <ele>1791</ele>
        <time>2016-07-19T13:52:38.000Z</time>
      </trkpt>
      <trkpt lat="44.3323" lon="6.26452">
        <ele>1790.5999755859</ele>
        <time>2016-07-19T13:52:42.000Z</time>
      </trkpt>
      <trkpt lat="44.33232" lon="6.26446">
        <ele>1790</ele>
        <time>2016-07-19T13:52:47.000Z</time>
      </trkpt>
      <trkpt lat="44.33232" lon="6.26444">
        <ele>1789.8000488281</ele>
        <time>2016-07-19T13:52:49.000Z</time>
      </trkpt>
      <trkpt lat="44.33239" lon="6.26436">
        <ele>1789.1999511719</ele>
        <time>2016-07-19T13:52:56.000Z</time>
      </trkpt>
      <trkpt lat="44.33246" lon="6.26432">
        <ele>1787.1999511719</ele>
        <time>2016-07-19T13:53:03.000Z</time>
      </trkpt>
      <trkpt lat="44.33257" lon="6.26429">
        <ele>1785.5999755859</ele>
        <time>2016-07-19T13:53:11.000Z</time>
      </trkpt>
      <trkpt lat="44.33269" lon="6.2643">
        <ele>1784.1999511719</ele>
        <time>2016-07-19T13:53:21.000Z</time>
      </trkpt>
      <trkpt lat="44.33279" lon="6.26428">
        <ele>1782.8000488281</ele>
        <time>2016-07-19T13:53:29.000Z</time>
      </trkpt>
      <trkpt lat="44.33285" lon="6.2643">
        <ele>1783.1999511719</ele>
        <time>2016-07-19T13:53:35.000Z</time>
      </trkpt>
      <trkpt lat="44.33297" lon="6.26428">
        <ele>1783</ele>
        <time>2016-07-19T13:53:44.000Z</time>
      </trkpt>
      <trkpt lat="44.33308" lon="6.26423">
        <ele>1782.1999511719</ele>
        <time>2016-07-19T13:53:52.000Z</time>
      </trkpt>
      <trkpt lat="44.3331" lon="6.26423">
        <ele>1782.1999511719</ele>
        <time>2016-07-19T13:53:55.000Z</time>
      </trkpt>
      <trkpt lat="44.33316" lon="6.2642">
        <ele>1781.4000244141</ele>
        <time>2016-07-19T13:54:01.000Z</time>
      </trkpt>
      <trkpt lat="44.33329" lon="6.26417">
        <ele>1780.5999755859</ele>
        <time>2016-07-19T13:54:11.000Z</time>
      </trkpt>
      <trkpt lat="44.33338" lon="6.26415">
        <ele>1780</ele>
        <time>2016-07-19T13:54:18.000Z</time>
      </trkpt>
      <trkpt lat="44.33341" lon="6.26414">
        <ele>1779.8000488281</ele>
        <time>2016-07-19T13:54:20.000Z</time>
      </trkpt>
      <trkpt lat="44.33346" lon="6.26412">
        <ele>1779.1999511719</ele>
        <time>2016-07-19T13:54:24.000Z</time>
      </trkpt>
      <trkpt lat="44.33348" lon="6.26412">
        <ele>1779</ele>
        <time>2016-07-19T13:54:26.000Z</time>
      </trkpt>
      <trkpt lat="44.33357" lon="6.26415">
        <ele>1780</ele>
        <time>2016-07-19T13:54:33.000Z</time>
      </trkpt>
      <trkpt lat="44.33364" lon="6.26419">
        <ele>1780.8000488281</ele>
        <time>2016-07-19T13:54:39.000Z</time>
      </trkpt>
      <trkpt lat="44.3337" lon="6.26421">
        <ele>1780.4000244141</ele>
        <time>2016-07-19T13:54:44.000Z</time>
      </trkpt>
      <trkpt lat="44.33378" lon="6.2642">
        <ele>1778.1999511719</ele>
        <time>2016-07-19T13:54:51.000Z</time>
      </trkpt>
      <trkpt lat="44.33388" lon="6.26419">
        <ele>1776.1999511719</ele>
        <time>2016-07-19T13:54:59.000Z</time>
      </trkpt>
      <trkpt lat="44.33394" lon="6.26421">
        <ele>1775.5999755859</ele>
        <time>2016-07-19T13:55:05.000Z</time>
      </trkpt>
      <trkpt lat="44.33395" lon="6.2642">
        <ele>1775.1999511719</ele>
        <time>2016-07-19T13:55:06.000Z</time>
      </trkpt>
      <trkpt lat="44.33399" lon="6.26416">
        <ele>1773.5999755859</ele>
        <time>2016-07-19T13:55:09.000Z</time>
      </trkpt>
      <trkpt lat="44.33403" lon="6.26408">
        <ele>1770.8000488281</ele>
        <time>2016-07-19T13:55:15.000Z</time>
      </trkpt>
      <trkpt lat="44.33405" lon="6.26408">
        <ele>1770.5999755859</ele>
        <time>2016-07-19T13:55:16.000Z</time>
      </trkpt>
      <trkpt lat="44.33416" lon="6.26412">
        <ele>1769.4000244141</ele>
        <time>2016-07-19T13:55:25.000Z</time>
      </trkpt>
      <trkpt lat="44.33428" lon="6.26414">
        <ele>1767.8000488281</ele>
        <time>2016-07-19T13:55:34.000Z</time>
      </trkpt>
      <trkpt lat="44.33434" lon="6.26419">
        <ele>1767.8000488281</ele>
        <time>2016-07-19T13:55:41.000Z</time>
      </trkpt>
      <trkpt lat="44.33435" lon="6.26424">
        <ele>1768.8000488281</ele>
        <time>2016-07-19T13:55:56.000Z</time>
      </trkpt>
      <trkpt lat="44.33435" lon="6.26429">
        <ele>1770</ele>
        <time>2016-07-19T13:55:59.000Z</time>
      </trkpt>
      <trkpt lat="44.33436" lon="6.2643">
        <ele>1770.1999511719</ele>
        <time>2016-07-19T13:56:00.000Z</time>
      </trkpt>
      <trkpt lat="44.33444" lon="6.26436">
        <ele>1770.1999511719</ele>
        <time>2016-07-19T13:56:07.000Z</time>
      </trkpt>
      <trkpt lat="44.33454" lon="6.26444">
        <ele>1769</ele>
        <time>2016-07-19T13:56:15.000Z</time>
      </trkpt>
      <trkpt lat="44.33466" lon="6.2645">
        <ele>1766.5999755859</ele>
        <time>2016-07-19T13:56:24.000Z</time>
      </trkpt>
      <trkpt lat="44.33475" lon="6.26457">
        <ele>1765</ele>
        <time>2016-07-19T13:56:31.000Z</time>
      </trkpt>
      <trkpt lat="44.33485" lon="6.26468">
        <ele>1764.1999511719</ele>
        <time>2016-07-19T13:56:39.000Z</time>
      </trkpt>
      <trkpt lat="44.33493" lon="6.26481">
        <ele>1764.4000244141</ele>
        <time>2016-07-19T13:56:47.000Z</time>
      </trkpt>
      <trkpt lat="44.33499" lon="6.26492">
        <ele>1764.8000488281</ele>
        <time>2016-07-19T13:56:54.000Z</time>
      </trkpt>
      <trkpt lat="44.33507" lon="6.26503">
        <ele>1764.5999755859</ele>
        <time>2016-07-19T13:57:01.000Z</time>
      </trkpt>
      <trkpt lat="44.33515" lon="6.26509">
        <ele>1763.4000244141</ele>
        <time>2016-07-19T13:57:07.000Z</time>
      </trkpt>
      <trkpt lat="44.33526" lon="6.26518">
        <ele>1761.5999755859</ele>
        <time>2016-07-19T13:57:16.000Z</time>
      </trkpt>
      <trkpt lat="44.33535" lon="6.26527">
        <ele>1760</ele>
        <time>2016-07-19T13:57:24.000Z</time>
      </trkpt>
      <trkpt lat="44.33545" lon="6.26541">
        <ele>1758.1999511719</ele>
        <time>2016-07-19T13:57:33.000Z</time>
      </trkpt>
      <trkpt lat="44.33556" lon="6.2655">
        <ele>1755.4000244141</ele>
        <time>2016-07-19T13:57:42.000Z</time>
      </trkpt>
      <trkpt lat="44.33566" lon="6.26559">
        <ele>1752.8000488281</ele>
        <time>2016-07-19T13:57:50.000Z</time>
      </trkpt>
      <trkpt lat="44.33576" lon="6.26571">
        <ele>1751.1999511719</ele>
        <time>2016-07-19T13:57:57.000Z</time>
      </trkpt>
      <trkpt lat="44.33588" lon="6.26588">
        <ele>1749.1999511719</ele>
        <time>2016-07-19T13:58:08.000Z</time>
      </trkpt>
      <trkpt lat="44.33598" lon="6.266">
        <ele>1747.4000244141</ele>
        <time>2016-07-19T13:58:17.000Z</time>
      </trkpt>
      <trkpt lat="44.33604" lon="6.26611">
        <ele>1747</ele>
        <time>2016-07-19T13:58:24.000Z</time>
      </trkpt>
      <trkpt lat="44.33612" lon="6.2662">
        <ele>1745.1999511719</ele>
        <time>2016-07-19T13:58:30.000Z</time>
      </trkpt>
      <trkpt lat="44.33617" lon="6.26626">
        <ele>1745</ele>
        <time>2016-07-19T13:58:35.000Z</time>
      </trkpt>
      <trkpt lat="44.33626" lon="6.26633">
        <ele>1744.5999755859</ele>
        <time>2016-07-19T13:58:42.000Z</time>
      </trkpt>
      <trkpt lat="44.33638" lon="6.26641">
        <ele>1743.5999755859</ele>
        <time>2016-07-19T13:58:50.000Z</time>
      </trkpt>
      <trkpt lat="44.33649" lon="6.2665">
        <ele>1741.8000488281</ele>
        <time>2016-07-19T13:58:59.000Z</time>
      </trkpt>
      <trkpt lat="44.33669" lon="6.26663">
        <ele>1736.8000488281</ele>
        <time>2016-07-19T13:59:13.000Z</time>
      </trkpt>
      <trkpt lat="44.33679" lon="6.26675">
        <ele>1734</ele>
        <time>2016-07-19T13:59:22.000Z</time>
      </trkpt>
      <trkpt lat="44.33682" lon="6.26681">
        <ele>1733.1999511719</ele>
        <time>2016-07-19T13:59:27.000Z</time>
      </trkpt>
      <trkpt lat="44.33689" lon="6.26697">
        <ele>1731.1999511719</ele>
        <time>2016-07-19T13:59:36.000Z</time>
      </trkpt>
      <trkpt lat="44.33688" lon="6.26703">
        <ele>1731.1999511719</ele>
        <time>2016-07-19T13:59:42.000Z</time>
      </trkpt>
      <trkpt lat="44.33684" lon="6.26716">
        <ele>1731.5999755859</ele>
        <time>2016-07-19T13:59:50.000Z</time>
      </trkpt>
      <trkpt lat="44.33682" lon="6.26731">
        <ele>1734.5999755859</ele>
        <time>2016-07-19T13:59:58.000Z</time>
      </trkpt>
      <trkpt lat="44.33679" lon="6.26747">
        <ele>1734.5999755859</ele>
        <time>2016-07-19T14:00:06.000Z</time>
      </trkpt>
      <trkpt lat="44.33674" lon="6.2676">
        <ele>1735.4000244141</ele>
        <time>2016-07-19T14:00:13.000Z</time>
      </trkpt>
      <trkpt lat="44.33675" lon="6.26762">
        <ele>1735</ele>
        <time>2016-07-19T14:00:14.000Z</time>
      </trkpt>
      <trkpt lat="44.33678" lon="6.26767">
        <ele>1733.4000244141</ele>
        <time>2016-07-19T14:00:17.000Z</time>
      </trkpt>
      <trkpt lat="44.33683" lon="6.26784">
        <ele>1729.4000244141</ele>
        <time>2016-07-19T14:00:26.000Z</time>
      </trkpt>
      <trkpt lat="44.3369" lon="6.268">
        <ele>1725.1999511719</ele>
        <time>2016-07-19T14:00:35.000Z</time>
      </trkpt>
      <trkpt lat="44.33693" lon="6.26817">
        <ele>1722.8000488281</ele>
        <time>2016-07-19T14:00:44.000Z</time>
      </trkpt>
      <trkpt lat="44.33695" lon="6.26834">
        <ele>1721</ele>
        <time>2016-07-19T14:00:52.000Z</time>
      </trkpt>
      <trkpt lat="44.33699" lon="6.26852">
        <ele>1718.5999755859</ele>
        <time>2016-07-19T14:01:01.000Z</time>
      </trkpt>
      <trkpt lat="44.33701" lon="6.26867">
        <ele>1717.1999511719</ele>
        <time>2016-07-19T14:01:08.000Z</time>
      </trkpt>
      <trkpt lat="44.33703" lon="6.26882">
        <ele>1715.8000488281</ele>
        <time>2016-07-19T14:01:15.000Z</time>
      </trkpt>
      <trkpt lat="44.33707" lon="6.26898">
        <ele>1714</ele>
        <time>2016-07-19T14:01:22.000Z</time>
      </trkpt>
      <trkpt lat="44.33709" lon="6.26903">
        <ele>1713.4000244141</ele>
        <time>2016-07-19T14:01:26.000Z</time>
      </trkpt>
      <trkpt lat="44.33713" lon="6.26906">
        <ele>1712</ele>
        <time>2016-07-19T14:01:30.000Z</time>
      </trkpt>
      <trkpt lat="44.33715" lon="6.26914">
        <ele>1711.5999755859</ele>
        <time>2016-07-19T14:01:36.000Z</time>
      </trkpt>
      <trkpt lat="44.33715" lon="6.26916">
        <ele>1711.8000488281</ele>
        <time>2016-07-19T14:01:37.000Z</time>
      </trkpt>
      <trkpt lat="44.33711" lon="6.26934">
        <ele>1713</ele>
        <time>2016-07-19T14:01:46.000Z</time>
      </trkpt>
      <trkpt lat="44.33718" lon="6.26953">
        <ele>1711.1999511719</ele>
        <time>2016-07-19T14:01:56.000Z</time>
      </trkpt>
      <trkpt lat="44.33726" lon="6.2697">
        <ele>1709</ele>
        <time>2016-07-19T14:02:05.000Z</time>
      </trkpt>
      <trkpt lat="44.33735" lon="6.26983">
        <ele>1706.5999755859</ele>
        <time>2016-07-19T14:02:13.000Z</time>
      </trkpt>
      <trkpt lat="44.33744" lon="6.26997">
        <ele>1705</ele>
        <time>2016-07-19T14:02:20.000Z</time>
      </trkpt>
      <trkpt lat="44.33753" lon="6.27006">
        <ele>1702.8000488281</ele>
        <time>2016-07-19T14:02:28.000Z</time>
      </trkpt>
      <trkpt lat="44.33761" lon="6.27015">
        <ele>1701.1999511719</ele>
        <time>2016-07-19T14:02:35.000Z</time>
      </trkpt>
      <trkpt lat="44.33766" lon="6.27029">
        <ele>1700.8000488281</ele>
        <time>2016-07-19T14:02:43.000Z</time>
      </trkpt>
      <trkpt lat="44.33771" lon="6.27045">
        <ele>1700.4000244141</ele>
        <time>2016-07-19T14:02:51.000Z</time>
      </trkpt>
      <trkpt lat="44.33774" lon="6.27058">
        <ele>1700.5999755859</ele>
        <time>2016-07-19T14:02:58.000Z</time>
      </trkpt>
      <trkpt lat="44.33786" lon="6.27082">
        <ele>1699.5999755859</ele>
        <time>2016-07-19T14:03:09.000Z</time>
      </trkpt>
      <trkpt lat="44.33791" lon="6.2709">
        <ele>1698.8000488281</ele>
        <time>2016-07-19T14:03:14.000Z</time>
      </trkpt>
      <trkpt lat="44.33791" lon="6.27093">
        <ele>1699.1999511719</ele>
        <time>2016-07-19T14:03:16.000Z</time>
      </trkpt>
      <trkpt lat="44.33788" lon="6.27111">
        <ele>1702.4000244141</ele>
        <time>2016-07-19T14:03:26.000Z</time>
      </trkpt>
      <trkpt lat="44.33786" lon="6.27123">
        <ele>1704.5999755859</ele>
        <time>2016-07-19T14:03:32.000Z</time>
      </trkpt>
      <trkpt lat="44.33793" lon="6.27136">
        <ele>1703.8000488281</ele>
        <time>2016-07-19T14:03:40.000Z</time>
      </trkpt>
      <trkpt lat="44.33801" lon="6.27151">
        <ele>1702.8000488281</ele>
        <time>2016-07-19T14:03:47.000Z</time>
      </trkpt>
      <trkpt lat="44.33805" lon="6.27164">
        <ele>1702.5999755859</ele>
        <time>2016-07-19T14:03:54.000Z</time>
      </trkpt>
      <trkpt lat="44.33806" lon="6.27166">
        <ele>1702.4000244141</ele>
        <time>2016-07-19T14:03:59.000Z</time>
      </trkpt>
      <trkpt lat="44.33804" lon="6.27167">
        <ele>1703.1999511719</ele>
        <time>2016-07-19T14:04:04.000Z</time>
      </trkpt>
      <trkpt lat="44.33803" lon="6.27165">
        <ele>1703.1999511719</ele>
        <time>2016-07-19T14:04:45.000Z</time>
      </trkpt>
      <trkpt lat="44.33805" lon="6.27163">
        <ele>1702.8000488281</ele>
        <time>2016-07-19T14:05:41.000Z</time>
      </trkpt>
      <trkpt lat="44.33804" lon="6.27165">
        <ele>1703</ele>
        <time>2016-07-19T14:05:44.000Z</time>
      </trkpt>
      <trkpt lat="44.33805" lon="6.27168">
        <ele>1702.8000488281</ele>
        <time>2016-07-19T14:05:58.000Z</time>
      </trkpt>
      <trkpt lat="44.33806" lon="6.27175">
        <ele>1703.1999511719</ele>
        <time>2016-07-19T14:06:05.000Z</time>
      </trkpt>
      <trkpt lat="44.33806" lon="6.27174">
        <ele>1703.1999511719</ele>
        <time>2016-07-19T14:06:13.000Z</time>
      </trkpt>
      <trkpt lat="44.3381" lon="6.27192">
        <ele>1703.5999755859</ele>
        <time>2016-07-19T14:06:25.000Z</time>
      </trkpt>
      <trkpt lat="44.33816" lon="6.27213">
        <ele>1703.4000244141</ele>
        <time>2016-07-19T14:06:36.000Z</time>
      </trkpt>
      <trkpt lat="44.33821" lon="6.2723">
        <ele>1703.5999755859</ele>
        <time>2016-07-19T14:06:44.000Z</time>
      </trkpt>
      <trkpt lat="44.33823" lon="6.27247">
        <ele>1704.1999511719</ele>
        <time>2016-07-19T14:06:52.000Z</time>
      </trkpt>
      <trkpt lat="44.33828" lon="6.27263">
        <ele>1704</ele>
        <time>2016-07-19T14:06:57.000Z</time>
      </trkpt>
      <trkpt lat="44.33831" lon="6.27276">
        <ele>1703.8000488281</ele>
        <time>2016-07-19T14:07:03.000Z</time>
      </trkpt>
      <trkpt lat="44.33835" lon="6.27288">
        <ele>1703.8000488281</ele>
        <time>2016-07-19T14:07:10.000Z</time>
      </trkpt>
      <trkpt lat="44.33841" lon="6.27308">
        <ele>1704</ele>
        <time>2016-07-19T14:07:20.000Z</time>
      </trkpt>
      <trkpt lat="44.33846" lon="6.27327">
        <ele>1704.1999511719</ele>
        <time>2016-07-19T14:07:30.000Z</time>
      </trkpt>
      <trkpt lat="44.33852" lon="6.27345">
        <ele>1703.8000488281</ele>
        <time>2016-07-19T14:07:39.000Z</time>
      </trkpt>
      <trkpt lat="44.33858" lon="6.27361">
        <ele>1703.1999511719</ele>
        <time>2016-07-19T14:07:48.000Z</time>
      </trkpt>
      <trkpt lat="44.33862" lon="6.27392">
        <ele>1705.4000244141</ele>
        <time>2016-07-19T14:08:04.000Z</time>
      </trkpt>
      <trkpt lat="44.33862" lon="6.27396">
        <ele>1705.8000488281</ele>
        <time>2016-07-19T14:08:06.000Z</time>
      </trkpt>
      <trkpt lat="44.33861" lon="6.27418">
        <ele>1709.5999755859</ele>
        <time>2016-07-19T14:08:17.000Z</time>
      </trkpt>
      <trkpt lat="44.33861" lon="6.27432">
        <ele>1712</ele>
        <time>2016-07-19T14:08:25.000Z</time>
      </trkpt>
      <trkpt lat="44.33867" lon="6.27443">
        <ele>1711.8000488281</ele>
        <time>2016-07-19T14:08:32.000Z</time>
      </trkpt>
      <trkpt lat="44.33875" lon="6.2745">
        <ele>1711.8000488281</ele>
        <time>2016-07-19T14:08:39.000Z</time>
      </trkpt>
      <trkpt lat="44.33883" lon="6.27455">
        <ele>1711.4000244141</ele>
        <time>2016-07-19T14:08:47.000Z</time>
      </trkpt>
      <trkpt lat="44.33893" lon="6.27463">
        <ele>1711.1999511719</ele>
        <time>2016-07-19T14:08:56.000Z</time>
      </trkpt>
      <trkpt lat="44.33899" lon="6.27468">
        <ele>1711</ele>
        <time>2016-07-19T14:09:02.000Z</time>
      </trkpt>
      <trkpt lat="44.33907" lon="6.27475">
        <ele>1711</ele>
        <time>2016-07-19T14:09:09.000Z</time>
      </trkpt>
      <trkpt lat="44.33917" lon="6.27484">
        <ele>1711.5999755859</ele>
        <time>2016-07-19T14:09:17.000Z</time>
      </trkpt>
      <trkpt lat="44.33923" lon="6.27492">
        <ele>1712.4000244141</ele>
        <time>2016-07-19T14:09:23.000Z</time>
      </trkpt>
      <trkpt lat="44.33931" lon="6.27502">
        <ele>1713.4000244141</ele>
        <time>2016-07-19T14:09:31.000Z</time>
      </trkpt>
      <trkpt lat="44.3394" lon="6.27512">
        <ele>1714.1999511719</ele>
        <time>2016-07-19T14:09:38.000Z</time>
      </trkpt>
      <trkpt lat="44.33952" lon="6.27523">
        <ele>1715</ele>
        <time>2016-07-19T14:09:47.000Z</time>
      </trkpt>
      <trkpt lat="44.33963" lon="6.27532">
        <ele>1715.4000244141</ele>
        <time>2016-07-19T14:09:56.000Z</time>
      </trkpt>
      <trkpt lat="44.33976" lon="6.27544">
        <ele>1715.8000488281</ele>
        <time>2016-07-19T14:10:06.000Z</time>
      </trkpt>
      <trkpt lat="44.33987" lon="6.27552">
        <ele>1715.8000488281</ele>
        <time>2016-07-19T14:10:12.000Z</time>
      </trkpt>
      <trkpt lat="44.33995" lon="6.27559">
        <ele>1716.1999511719</ele>
        <time>2016-07-19T14:10:18.000Z</time>
      </trkpt>
      <trkpt lat="44.34005" lon="6.2757">
        <ele>1717.5999755859</ele>
        <time>2016-07-19T14:10:25.000Z</time>
      </trkpt>
      <trkpt lat="44.34014" lon="6.2758">
        <ele>1718.8000488281</ele>
        <time>2016-07-19T14:10:33.000Z</time>
      </trkpt>
      <trkpt lat="44.34023" lon="6.27584">
        <ele>1718.5999755859</ele>
        <time>2016-07-19T14:10:41.000Z</time>
      </trkpt>
      <trkpt lat="44.34035" lon="6.2759">
        <ele>1718.5999755859</ele>
        <time>2016-07-19T14:10:50.000Z</time>
      </trkpt>
      <trkpt lat="44.34048" lon="6.27597">
        <ele>1719.1999511719</ele>
        <time>2016-07-19T14:11:00.000Z</time>
      </trkpt>
      <trkpt lat="44.34057" lon="6.276">
        <ele>1719</ele>
        <time>2016-07-19T14:11:07.000Z</time>
      </trkpt>
      <trkpt lat="44.34066" lon="6.27602">
        <ele>1718.5999755859</ele>
        <time>2016-07-19T14:11:13.000Z</time>
      </trkpt>
      <trkpt lat="44.34071" lon="6.27603">
        <ele>1718.1999511719</ele>
        <time>2016-07-19T14:11:17.000Z</time>
      </trkpt>
      <trkpt lat="44.34077" lon="6.27606">
        <ele>1718.1999511719</ele>
        <time>2016-07-19T14:11:22.000Z</time>
      </trkpt>
      <trkpt lat="44.34088" lon="6.27615">
        <ele>1719.8000488281</ele>
        <time>2016-07-19T14:11:30.000Z</time>
      </trkpt>
      <trkpt lat="44.34097" lon="6.27626">
        <ele>1722</ele>
        <time>2016-07-19T14:11:38.000Z</time>
      </trkpt>
      <trkpt lat="44.34105" lon="6.27633">
        <ele>1723.1999511719</ele>
        <time>2016-07-19T14:11:44.000Z</time>
      </trkpt>
      <trkpt lat="44.34107" lon="6.27635">
        <ele>1723.5999755859</ele>
        <time>2016-07-19T14:11:46.000Z</time>
      </trkpt>
      <trkpt lat="44.34117" lon="6.27645">
        <ele>1725.1999511719</ele>
        <time>2016-07-19T14:11:54.000Z</time>
      </trkpt>
      <trkpt lat="44.3412" lon="6.27647">
        <ele>1725.5999755859</ele>
        <time>2016-07-19T14:11:57.000Z</time>
      </trkpt>
      <trkpt lat="44.34126" lon="6.27649">
        <ele>1725.4000244141</ele>
        <time>2016-07-19T14:12:02.000Z</time>
      </trkpt>
      <trkpt lat="44.3413" lon="6.2765">
        <ele>1725.1999511719</ele>
        <time>2016-07-19T14:12:06.000Z</time>
      </trkpt>
      <trkpt lat="44.34138" lon="6.27654">
        <ele>1725.8000488281</ele>
        <time>2016-07-19T14:12:14.000Z</time>
      </trkpt>
      <trkpt lat="44.34147" lon="6.27656">
        <ele>1725.4000244141</ele>
        <time>2016-07-19T14:12:22.000Z</time>
      </trkpt>
      <trkpt lat="44.3415" lon="6.27656">
        <ele>1725.1999511719</ele>
        <time>2016-07-19T14:12:24.000Z</time>
      </trkpt>
      <trkpt lat="44.34155" lon="6.27659">
        <ele>1725.5999755859</ele>
        <time>2016-07-19T14:12:29.000Z</time>
      </trkpt>
      <trkpt lat="44.34163" lon="6.27666">
        <ele>1727</ele>
        <time>2016-07-19T14:12:36.000Z</time>
      </trkpt>
      <trkpt lat="44.34169" lon="6.27675">
        <ele>1729.8000488281</ele>
        <time>2016-07-19T14:12:42.000Z</time>
      </trkpt>
      <trkpt lat="44.34178" lon="6.27685">
        <ele>1732.1999511719</ele>
        <time>2016-07-19T14:12:50.000Z</time>
      </trkpt>
      <trkpt lat="44.34185" lon="6.27685">
        <ele>1731.4000244141</ele>
        <time>2016-07-19T14:12:56.000Z</time>
      </trkpt>
      <trkpt lat="44.34193" lon="6.27682">
        <ele>1729.5999755859</ele>
        <time>2016-07-19T14:13:02.000Z</time>
      </trkpt>
      <trkpt lat="44.34201" lon="6.27683">
        <ele>1729.1999511719</ele>
        <time>2016-07-19T14:13:08.000Z</time>
      </trkpt>
      <trkpt lat="44.34211" lon="6.2769">
        <ele>1731</ele>
        <time>2016-07-19T14:13:15.000Z</time>
      </trkpt>
      <trkpt lat="44.34221" lon="6.27694">
        <ele>1731.8000488281</ele>
        <time>2016-07-19T14:13:22.000Z</time>
      </trkpt>
      <trkpt lat="44.34229" lon="6.27697">
        <ele>1732.4000244141</ele>
        <time>2016-07-19T14:13:28.000Z</time>
      </trkpt>
      <trkpt lat="44.34238" lon="6.27701">
        <ele>1733.1999511719</ele>
        <time>2016-07-19T14:13:34.000Z</time>
      </trkpt>
      <trkpt lat="44.34251" lon="6.27706">
        <ele>1734.1999511719</ele>
        <time>2016-07-19T14:13:43.000Z</time>
      </trkpt>
      <trkpt lat="44.34267" lon="6.2771">
        <ele>1734.1999511719</ele>
        <time>2016-07-19T14:13:54.000Z</time>
      </trkpt>
      <trkpt lat="44.34282" lon="6.27711">
        <ele>1732.5999755859</ele>
        <time>2016-07-19T14:14:05.000Z</time>
      </trkpt>
      <trkpt lat="44.34295" lon="6.2771">
        <ele>1733.1999511719</ele>
        <time>2016-07-19T14:14:14.000Z</time>
      </trkpt>
      <trkpt lat="44.34306" lon="6.27705">
        <ele>1731.5999755859</ele>
        <time>2016-07-19T14:14:23.000Z</time>
      </trkpt>
      <trkpt lat="44.34315" lon="6.27694">
        <ele>1727.1999511719</ele>
        <time>2016-07-19T14:14:32.000Z</time>
      </trkpt>
      <trkpt lat="44.34328" lon="6.27691">
        <ele>1726.5999755859</ele>
        <time>2016-07-19T14:14:41.000Z</time>
      </trkpt>
      <trkpt lat="44.34339" lon="6.27684">
        <ele>1724.5999755859</ele>
        <time>2016-07-19T14:14:49.000Z</time>
      </trkpt>
      <trkpt lat="44.34353" lon="6.27682">
        <ele>1724.5999755859</ele>
        <time>2016-07-19T14:14:58.000Z</time>
      </trkpt>
      <trkpt lat="44.34365" lon="6.27693">
        <ele>1730.1999511719</ele>
        <time>2016-07-19T14:15:08.000Z</time>
      </trkpt>
      <trkpt lat="44.34374" lon="6.27704">
        <ele>1736.4000244141</ele>
        <time>2016-07-19T14:15:16.000Z</time>
      </trkpt>
      <trkpt lat="44.34383" lon="6.27717">
        <ele>1743.4000244141</ele>
        <time>2016-07-19T14:15:25.000Z</time>
      </trkpt>
      <trkpt lat="44.34395" lon="6.27721">
        <ele>1746.1999511719</ele>
        <time>2016-07-19T14:15:33.000Z</time>
      </trkpt>
      <trkpt lat="44.3441" lon="6.27717">
        <ele>1746.1999511719</ele>
        <time>2016-07-19T14:15:44.000Z</time>
      </trkpt>
      <trkpt lat="44.34422" lon="6.27714">
        <ele>1746.1999511719</ele>
        <time>2016-07-19T14:15:53.000Z</time>
      </trkpt>
      <trkpt lat="44.34431" lon="6.27705">
        <ele>1741.8000488281</ele>
        <time>2016-07-19T14:16:01.000Z</time>
      </trkpt>
      <trkpt lat="44.34443" lon="6.27691">
        <ele>1733.4000244141</ele>
        <time>2016-07-19T14:16:12.000Z</time>
      </trkpt>
      <trkpt lat="44.34456" lon="6.27689">
        <ele>1732.4000244141</ele>
        <time>2016-07-19T14:16:21.000Z</time>
      </trkpt>
      <trkpt lat="44.34458" lon="6.2769">
        <ele>1732.8000488281</ele>
        <time>2016-07-19T14:16:22.000Z</time>
      </trkpt>
      <trkpt lat="44.34463" lon="6.27688">
        <ele>1731.8000488281</ele>
        <time>2016-07-19T14:16:26.000Z</time>
      </trkpt>
      <trkpt lat="44.34464" lon="6.27687">
        <ele>1731.1999511719</ele>
        <time>2016-07-19T14:16:27.000Z</time>
      </trkpt>
      <trkpt lat="44.34474" lon="6.27685">
        <ele>1730.1999511719</ele>
        <time>2016-07-19T14:16:34.000Z</time>
      </trkpt>
      <trkpt lat="44.34481" lon="6.27688">
        <ele>1732.5999755859</ele>
        <time>2016-07-19T14:16:40.000Z</time>
      </trkpt>
      <trkpt lat="44.34484" lon="6.27688">
        <ele>1732.4000244141</ele>
        <time>2016-07-19T14:16:44.000Z</time>
      </trkpt>
      <trkpt lat="44.3449" lon="6.27684">
        <ele>1730.5999755859</ele>
        <time>2016-07-19T14:16:49.000Z</time>
      </trkpt>
      <trkpt lat="44.34499" lon="6.27681">
        <ele>1730.1999511719</ele>
        <time>2016-07-19T14:16:55.000Z</time>
      </trkpt>
      <trkpt lat="44.34512" lon="6.27677">
        <ele>1729.1999511719</ele>
        <time>2016-07-19T14:17:04.000Z</time>
      </trkpt>
      <trkpt lat="44.34517" lon="6.27676">
        <ele>1728.8000488281</ele>
        <time>2016-07-19T14:17:07.000Z</time>
      </trkpt>
      <trkpt lat="44.34528" lon="6.2767">
        <ele>1727</ele>
        <time>2016-07-19T14:17:15.000Z</time>
      </trkpt>
      <trkpt lat="44.34537" lon="6.2767">
        <ele>1725.4000244141</ele>
        <time>2016-07-19T14:17:21.000Z</time>
      </trkpt>
      <trkpt lat="44.34541" lon="6.27668">
        <ele>1723.4000244141</ele>
        <time>2016-07-19T14:17:24.000Z</time>
      </trkpt>
      <trkpt lat="44.34548" lon="6.27664">
        <ele>1719.5999755859</ele>
        <time>2016-07-19T14:17:29.000Z</time>
      </trkpt>
      <trkpt lat="44.34559" lon="6.27658">
        <ele>1718.5999755859</ele>
        <time>2016-07-19T14:17:37.000Z</time>
      </trkpt>
      <trkpt lat="44.34565" lon="6.27651">
        <ele>1717.8000488281</ele>
        <time>2016-07-19T14:17:43.000Z</time>
      </trkpt>
      <trkpt lat="44.34571" lon="6.27647">
        <ele>1717.1999511719</ele>
        <time>2016-07-19T14:17:48.000Z</time>
      </trkpt>
      <trkpt lat="44.34577" lon="6.27644">
        <ele>1716.1999511719</ele>
        <time>2016-07-19T14:17:53.000Z</time>
      </trkpt>
      <trkpt lat="44.34578" lon="6.27643">
        <ele>1715.8000488281</ele>
        <time>2016-07-19T14:17:54.000Z</time>
      </trkpt>
      <trkpt lat="44.3458" lon="6.27641">
        <ele>1715.1999511719</ele>
        <time>2016-07-19T14:17:56.000Z</time>
      </trkpt>
      <trkpt lat="44.34581" lon="6.27639">
        <ele>1714.1999511719</ele>
        <time>2016-07-19T14:17:58.000Z</time>
      </trkpt>
      <trkpt lat="44.34591" lon="6.27633">
        <ele>1712.1999511719</ele>
        <time>2016-07-19T14:18:06.000Z</time>
      </trkpt>
      <trkpt lat="44.34596" lon="6.27629">
        <ele>1710.5999755859</ele>
        <time>2016-07-19T14:18:11.000Z</time>
      </trkpt>
      <trkpt lat="44.34604" lon="6.27622">
        <ele>1710.8000488281</ele>
        <time>2016-07-19T14:18:18.000Z</time>
      </trkpt>
      <trkpt lat="44.34605" lon="6.27621">
        <ele>1711</ele>
        <time>2016-07-19T14:18:19.000Z</time>
      </trkpt>
      <trkpt lat="44.34613" lon="6.27616">
        <ele>1711.5999755859</ele>
        <time>2016-07-19T14:18:26.000Z</time>
      </trkpt>
      <trkpt lat="44.34619" lon="6.27612">
        <ele>1709.5999755859</ele>
        <time>2016-07-19T14:18:31.000Z</time>
      </trkpt>
      <trkpt lat="44.34627" lon="6.2761">
        <ele>1706.5999755859</ele>
        <time>2016-07-19T14:18:36.000Z</time>
      </trkpt>
      <trkpt lat="44.34637" lon="6.27609">
        <ele>1703.1999511719</ele>
        <time>2016-07-19T14:18:43.000Z</time>
      </trkpt>
      <trkpt lat="44.34639" lon="6.27609">
        <ele>1702.8000488281</ele>
        <time>2016-07-19T14:18:44.000Z</time>
      </trkpt>
      <trkpt lat="44.34644" lon="6.27609">
        <ele>1701.1999511719</ele>
        <time>2016-07-19T14:18:48.000Z</time>
      </trkpt>
      <trkpt lat="44.34654" lon="6.27606">
        <ele>1697.4000244141</ele>
        <time>2016-07-19T14:18:55.000Z</time>
      </trkpt>
      <trkpt lat="44.34657" lon="6.27605">
        <ele>1696.4000244141</ele>
        <time>2016-07-19T14:18:57.000Z</time>
      </trkpt>
      <trkpt lat="44.34663" lon="6.27604">
        <ele>1696.5999755859</ele>
        <time>2016-07-19T14:19:01.000Z</time>
      </trkpt>
      <trkpt lat="44.34675" lon="6.27604">
        <ele>1696.5999755859</ele>
        <time>2016-07-19T14:19:09.000Z</time>
      </trkpt>
      <trkpt lat="44.34679" lon="6.27604">
        <ele>1696.5999755859</ele>
        <time>2016-07-19T14:19:15.000Z</time>
      </trkpt>
      <trkpt lat="44.34683" lon="6.27603">
        <ele>1696.5999755859</ele>
        <time>2016-07-19T14:19:33.000Z</time>
      </trkpt>
      <trkpt lat="44.34686" lon="6.276">
        <ele>1696.8000488281</ele>
        <time>2016-07-19T14:20:50.000Z</time>
      </trkpt>
      <trkpt lat="44.34686" lon="6.27601">
        <ele>1696.8000488281</ele>
        <time>2016-07-19T14:20:58.000Z</time>
      </trkpt>
      <trkpt lat="44.34687" lon="6.276">
        <ele>1696.8000488281</ele>
        <time>2016-07-19T14:21:08.000Z</time>
      </trkpt>
      <trkpt lat="44.3469" lon="6.27601">
        <ele>1696.8000488281</ele>
        <time>2016-07-19T14:21:13.000Z</time>
      </trkpt>
      <trkpt lat="44.34696" lon="6.27602">
        <ele>1696.8000488281</ele>
        <time>2016-07-19T14:21:20.000Z</time>
      </trkpt>
      <trkpt lat="44.34699" lon="6.27601">
        <ele>1696.4000244141</ele>
        <time>2016-07-19T14:21:23.000Z</time>
      </trkpt>
      <trkpt lat="44.34702" lon="6.27602">
        <ele>1695.4000244141</ele>
        <time>2016-07-19T14:21:28.000Z</time>
      </trkpt>
      <trkpt lat="44.34708" lon="6.27603">
        <ele>1693.8000488281</ele>
        <time>2016-07-19T14:21:35.000Z</time>
      </trkpt>
      <trkpt lat="44.34715" lon="6.27604">
        <ele>1691.5999755859</ele>
        <time>2016-07-19T14:21:42.000Z</time>
      </trkpt>
      <trkpt lat="44.34718" lon="6.27605">
        <ele>1690.5999755859</ele>
        <time>2016-07-19T14:21:45.000Z</time>
      </trkpt>
      <trkpt lat="44.34726" lon="6.27606">
        <ele>1688.1999511719</ele>
        <time>2016-07-19T14:21:52.000Z</time>
      </trkpt>
      <trkpt lat="44.34733" lon="6.27606">
        <ele>1686.1999511719</ele>
        <time>2016-07-19T14:21:59.000Z</time>
      </trkpt>
      <trkpt lat="44.34738" lon="6.27608">
        <ele>1684.4000244141</ele>
        <time>2016-07-19T14:22:05.000Z</time>
      </trkpt>
      <trkpt lat="44.34747" lon="6.27608">
        <ele>1683</ele>
        <time>2016-07-19T14:22:11.000Z</time>
      </trkpt>
      <trkpt lat="44.34753" lon="6.27607">
        <ele>1682.8000488281</ele>
        <time>2016-07-19T14:22:17.000Z</time>
      </trkpt>
      <trkpt lat="44.34761" lon="6.27606">
        <ele>1682.4000244141</ele>
        <time>2016-07-19T14:22:25.000Z</time>
      </trkpt>
      <trkpt lat="44.34764" lon="6.27606">
        <ele>1682.1999511719</ele>
        <time>2016-07-19T14:22:27.000Z</time>
      </trkpt>
      <trkpt lat="44.34773" lon="6.27606">
        <ele>1681.8000488281</ele>
        <time>2016-07-19T14:22:35.000Z</time>
      </trkpt>
      <trkpt lat="44.34778" lon="6.27605">
        <ele>1681.4000244141</ele>
        <time>2016-07-19T14:22:39.000Z</time>
      </trkpt>
      <trkpt lat="44.34785" lon="6.27604">
        <ele>1681.1999511719</ele>
        <time>2016-07-19T14:22:46.000Z</time>
      </trkpt>
      <trkpt lat="44.34793" lon="6.27604">
        <ele>1679.8000488281</ele>
        <time>2016-07-19T14:22:52.000Z</time>
      </trkpt>
      <trkpt lat="44.34794" lon="6.27603">
        <ele>1679.5999755859</ele>
        <time>2016-07-19T14:22:53.000Z</time>
      </trkpt>
      <trkpt lat="44.34813" lon="6.27603">
        <ele>1676.8000488281</ele>
        <time>2016-07-19T14:23:08.000Z</time>
      </trkpt>
      <trkpt lat="44.34822" lon="6.27601">
        <ele>1675.5999755859</ele>
        <time>2016-07-19T14:23:15.000Z</time>
      </trkpt>
      <trkpt lat="44.3483" lon="6.27599">
        <ele>1674.8000488281</ele>
        <time>2016-07-19T14:23:21.000Z</time>
      </trkpt>
      <trkpt lat="44.34842" lon="6.27597">
        <ele>1674</ele>
        <time>2016-07-19T14:23:30.000Z</time>
      </trkpt>
      <trkpt lat="44.34849" lon="6.27593">
        <ele>1673.8000488281</ele>
        <time>2016-07-19T14:23:35.000Z</time>
      </trkpt>
      <trkpt lat="44.34859" lon="6.27589">
        <ele>1673.8000488281</ele>
        <time>2016-07-19T14:23:42.000Z</time>
      </trkpt>
      <trkpt lat="44.34863" lon="6.27586">
        <ele>1673.8000488281</ele>
        <time>2016-07-19T14:23:45.000Z</time>
      </trkpt>
      <trkpt lat="44.34869" lon="6.27584">
        <ele>1674</ele>
        <time>2016-07-19T14:23:49.000Z</time>
      </trkpt>
      <trkpt lat="44.34874" lon="6.27581">
        <ele>1674.5999755859</ele>
        <time>2016-07-19T14:23:53.000Z</time>
      </trkpt>
      <trkpt lat="44.34878" lon="6.27572">
        <ele>1676.5999755859</ele>
        <time>2016-07-19T14:23:59.000Z</time>
      </trkpt>
      <trkpt lat="44.34882" lon="6.27558">
        <ele>1677.8000488281</ele>
        <time>2016-07-19T14:24:07.000Z</time>
      </trkpt>
      <trkpt lat="44.34884" lon="6.27545">
        <ele>1677.5999755859</ele>
        <time>2016-07-19T14:24:14.000Z</time>
      </trkpt>
      <trkpt lat="44.34886" lon="6.27529">
        <ele>1677.4000244141</ele>
        <time>2016-07-19T14:24:23.000Z</time>
      </trkpt>
      <trkpt lat="44.34885" lon="6.27518">
        <ele>1677.8000488281</ele>
        <time>2016-07-19T14:24:30.000Z</time>
      </trkpt>
      <trkpt lat="44.34881" lon="6.27505">
        <ele>1678.5999755859</ele>
        <time>2016-07-19T14:24:38.000Z</time>
      </trkpt>
      <trkpt lat="44.34876" lon="6.27493">
        <ele>1679.8000488281</ele>
        <time>2016-07-19T14:24:46.000Z</time>
      </trkpt>
      <trkpt lat="44.34865" lon="6.27473">
        <ele>1680.8000488281</ele>
        <time>2016-07-19T14:25:01.000Z</time>
      </trkpt>
      <trkpt lat="44.34859" lon="6.27462">
        <ele>1679</ele>
        <time>2016-07-19T14:25:09.000Z</time>
      </trkpt>
      <trkpt lat="44.34852" lon="6.2745">
        <ele>1676.5999755859</ele>
        <time>2016-07-19T14:25:17.000Z</time>
      </trkpt>
      <trkpt lat="44.34845" lon="6.27439">
        <ele>1674.4000244141</ele>
        <time>2016-07-19T14:25:25.000Z</time>
      </trkpt>
      <trkpt lat="44.34839" lon="6.2743">
        <ele>1672.5999755859</ele>
        <time>2016-07-19T14:25:32.000Z</time>
      </trkpt>
      <trkpt lat="44.34836" lon="6.27424">
        <ele>1671.5999755859</ele>
        <time>2016-07-19T14:25:36.000Z</time>
      </trkpt>
      <trkpt lat="44.34831" lon="6.27413">
        <ele>1669.5999755859</ele>
        <time>2016-07-19T14:25:44.000Z</time>
      </trkpt>
      <trkpt lat="44.34829" lon="6.27404">
        <ele>1668.1999511719</ele>
        <time>2016-07-19T14:25:49.000Z</time>
      </trkpt>
      <trkpt lat="44.34829" lon="6.27403">
        <ele>1667.8000488281</ele>
        <time>2016-07-19T14:25:50.000Z</time>
      </trkpt>
      <trkpt lat="44.34829" lon="6.27397">
        <ele>1667</ele>
        <time>2016-07-19T14:25:53.000Z</time>
      </trkpt>
      <trkpt lat="44.34834" lon="6.27385">
        <ele>1662</ele>
        <time>2016-07-19T14:26:02.000Z</time>
      </trkpt>
      <trkpt lat="44.34839" lon="6.2738">
        <ele>1659.8000488281</ele>
        <time>2016-07-19T14:26:07.000Z</time>
      </trkpt>
      <trkpt lat="44.34843" lon="6.27377">
        <ele>1658.8000488281</ele>
        <time>2016-07-19T14:26:11.000Z</time>
      </trkpt>
      <trkpt lat="44.34853" lon="6.27371">
        <ele>1659.8000488281</ele>
        <time>2016-07-19T14:26:19.000Z</time>
      </trkpt>
      <trkpt lat="44.34857" lon="6.27368">
        <ele>1660.1999511719</ele>
        <time>2016-07-19T14:26:24.000Z</time>
      </trkpt>
      <trkpt lat="44.34859" lon="6.27368">
        <ele>1660.5999755859</ele>
        <time>2016-07-19T14:26:25.000Z</time>
      </trkpt>
      <trkpt lat="44.34867" lon="6.27361">
        <ele>1659.5999755859</ele>
        <time>2016-07-19T14:26:32.000Z</time>
      </trkpt>
      <trkpt lat="44.34871" lon="6.27356">
        <ele>1657.1999511719</ele>
        <time>2016-07-19T14:26:37.000Z</time>
      </trkpt>
      <trkpt lat="44.34876" lon="6.27354">
        <ele>1655</ele>
        <time>2016-07-19T14:26:42.000Z</time>
      </trkpt>
      <trkpt lat="44.34885" lon="6.27348">
        <ele>1651</ele>
        <time>2016-07-19T14:26:49.000Z</time>
      </trkpt>
      <trkpt lat="44.34892" lon="6.27345">
        <ele>1648</ele>
        <time>2016-07-19T14:26:56.000Z</time>
      </trkpt>
      <trkpt lat="44.34895" lon="6.27343">
        <ele>1646.8000488281</ele>
        <time>2016-07-19T14:27:00.000Z</time>
      </trkpt>
      <trkpt lat="44.34903" lon="6.27343">
        <ele>1646.1999511719</ele>
        <time>2016-07-19T14:27:07.000Z</time>
      </trkpt>
      <trkpt lat="44.34909" lon="6.27342">
        <ele>1645.8000488281</ele>
        <time>2016-07-19T14:27:11.000Z</time>
      </trkpt>
      <trkpt lat="44.34918" lon="6.27339">
        <ele>1645.1999511719</ele>
        <time>2016-07-19T14:27:19.000Z</time>
      </trkpt>
      <trkpt lat="44.34922" lon="6.27338">
        <ele>1644.8000488281</ele>
        <time>2016-07-19T14:27:22.000Z</time>
      </trkpt>
      <trkpt lat="44.34926" lon="6.27337">
        <ele>1644.5999755859</ele>
        <time>2016-07-19T14:27:26.000Z</time>
      </trkpt>
      <trkpt lat="44.3493" lon="6.27335">
        <ele>1644.1999511719</ele>
        <time>2016-07-19T14:27:29.000Z</time>
      </trkpt>
      <trkpt lat="44.34938" lon="6.27333">
        <ele>1643.5999755859</ele>
        <time>2016-07-19T14:27:36.000Z</time>
      </trkpt>
      <trkpt lat="44.34943" lon="6.27328">
        <ele>1643.4000244141</ele>
        <time>2016-07-19T14:27:41.000Z</time>
      </trkpt>
      <trkpt lat="44.34945" lon="6.27326">
        <ele>1643.1999511719</ele>
        <time>2016-07-19T14:27:43.000Z</time>
      </trkpt>
      <trkpt lat="44.34963" lon="6.27316">
        <ele>1639.5999755859</ele>
        <time>2016-07-19T14:27:58.000Z</time>
      </trkpt>
      <trkpt lat="44.34973" lon="6.2731">
        <ele>1637.1999511719</ele>
        <time>2016-07-19T14:28:06.000Z</time>
      </trkpt>
      <trkpt lat="44.34975" lon="6.27309">
        <ele>1637</ele>
        <time>2016-07-19T14:28:07.000Z</time>
      </trkpt>
      <trkpt lat="44.34982" lon="6.27304">
        <ele>1635.4000244141</ele>
        <time>2016-07-19T14:28:13.000Z</time>
      </trkpt>
      <trkpt lat="44.34994" lon="6.27297">
        <ele>1632.8000488281</ele>
        <time>2016-07-19T14:28:22.000Z</time>
      </trkpt>
      <trkpt lat="44.35002" lon="6.27293">
        <ele>1631</ele>
        <time>2016-07-19T14:28:29.000Z</time>
      </trkpt>
      <trkpt lat="44.35005" lon="6.27292">
        <ele>1630.4000244141</ele>
        <time>2016-07-19T14:28:31.000Z</time>
      </trkpt>
      <trkpt lat="44.35011" lon="6.27289">
        <ele>1629.8000488281</ele>
        <time>2016-07-19T14:28:37.000Z</time>
      </trkpt>
      <trkpt lat="44.35012" lon="6.27289">
        <ele>1629.8000488281</ele>
        <time>2016-07-19T14:28:38.000Z</time>
      </trkpt>
      <trkpt lat="44.35019" lon="6.27287">
        <ele>1630</ele>
        <time>2016-07-19T14:28:44.000Z</time>
      </trkpt>
      <trkpt lat="44.35024" lon="6.27285">
        <ele>1630.1999511719</ele>
        <time>2016-07-19T14:28:49.000Z</time>
      </trkpt>
      <trkpt lat="44.35025" lon="6.27284">
        <ele>1630.1999511719</ele>
        <time>2016-07-19T14:28:50.000Z</time>
      </trkpt>
      <trkpt lat="44.35031" lon="6.2728">
        <ele>1630.8000488281</ele>
        <time>2016-07-19T14:28:55.000Z</time>
      </trkpt>
      <trkpt lat="44.35043" lon="6.27273">
        <ele>1628.8000488281</ele>
        <time>2016-07-19T14:29:06.000Z</time>
      </trkpt>
      <trkpt lat="44.35044" lon="6.27273">
        <ele>1628.5999755859</ele>
        <time>2016-07-19T14:29:07.000Z</time>
      </trkpt>
      <trkpt lat="44.35049" lon="6.27272">
        <ele>1627.5999755859</ele>
        <time>2016-07-19T14:29:12.000Z</time>
      </trkpt>
      <trkpt lat="44.35053" lon="6.27271">
        <ele>1626.4000244141</ele>
        <time>2016-07-19T14:29:16.000Z</time>
      </trkpt>
      <trkpt lat="44.35066" lon="6.27273">
        <ele>1622.5999755859</ele>
        <time>2016-07-19T14:29:26.000Z</time>
      </trkpt>
      <trkpt lat="44.35067" lon="6.27273">
        <ele>1622.1999511719</ele>
        <time>2016-07-19T14:29:27.000Z</time>
      </trkpt>
      <trkpt lat="44.35073" lon="6.27276">
        <ele>1620</ele>
        <time>2016-07-19T14:29:32.000Z</time>
      </trkpt>
      <trkpt lat="44.35081" lon="6.2728">
        <ele>1616.8000488281</ele>
        <time>2016-07-19T14:29:39.000Z</time>
      </trkpt>
      <trkpt lat="44.35092" lon="6.27286">
        <ele>1612.5999755859</ele>
        <time>2016-07-19T14:29:48.000Z</time>
      </trkpt>
      <trkpt lat="44.35101" lon="6.2729">
        <ele>1609.5999755859</ele>
        <time>2016-07-19T14:29:56.000Z</time>
      </trkpt>
      <trkpt lat="44.35111" lon="6.27291">
        <ele>1606.5999755859</ele>
        <time>2016-07-19T14:30:04.000Z</time>
      </trkpt>
      <trkpt lat="44.35114" lon="6.27292">
        <ele>1605.8000488281</ele>
        <time>2016-07-19T14:30:06.000Z</time>
      </trkpt>
      <trkpt lat="44.35119" lon="6.27292">
        <ele>1605.5999755859</ele>
        <time>2016-07-19T14:30:10.000Z</time>
      </trkpt>
      <trkpt lat="44.35123" lon="6.27292">
        <ele>1605.4000244141</ele>
        <time>2016-07-19T14:30:13.000Z</time>
      </trkpt>
      <trkpt lat="44.35133" lon="6.27293">
        <ele>1604.5999755859</ele>
        <time>2016-07-19T14:30:22.000Z</time>
      </trkpt>
      <trkpt lat="44.35141" lon="6.27295">
        <ele>1603.8000488281</ele>
        <time>2016-07-19T14:30:31.000Z</time>
      </trkpt>
      <trkpt lat="44.35151" lon="6.27298">
        <ele>1602.5999755859</ele>
        <time>2016-07-19T14:30:40.000Z</time>
      </trkpt>
      <trkpt lat="44.3516" lon="6.27301">
        <ele>1601.5999755859</ele>
        <time>2016-07-19T14:30:47.000Z</time>
      </trkpt>
      <trkpt lat="44.35175" lon="6.27315">
        <ele>1597.8000488281</ele>
        <time>2016-07-19T14:31:00.000Z</time>
      </trkpt>
      <trkpt lat="44.35183" lon="6.27332">
        <ele>1594.5999755859</ele>
        <time>2016-07-19T14:31:11.000Z</time>
      </trkpt>
      <trkpt lat="44.3519" lon="6.27346">
        <ele>1592.1999511719</ele>
        <time>2016-07-19T14:31:20.000Z</time>
      </trkpt>
      <trkpt lat="44.35196" lon="6.27358">
        <ele>1590</ele>
        <time>2016-07-19T14:31:28.000Z</time>
      </trkpt>
      <trkpt lat="44.35203" lon="6.27368">
        <ele>1588.5999755859</ele>
        <time>2016-07-19T14:31:36.000Z</time>
      </trkpt>
      <trkpt lat="44.35211" lon="6.27374">
        <ele>1588</ele>
        <time>2016-07-19T14:31:43.000Z</time>
      </trkpt>
      <trkpt lat="44.35218" lon="6.27382">
        <ele>1587.1999511719</ele>
        <time>2016-07-19T14:31:50.000Z</time>
      </trkpt>
      <trkpt lat="44.35227" lon="6.27391">
        <ele>1586.1999511719</ele>
        <time>2016-07-19T14:31:58.000Z</time>
      </trkpt>
      <trkpt lat="44.35233" lon="6.27398">
        <ele>1585.5999755859</ele>
        <time>2016-07-19T14:32:04.000Z</time>
      </trkpt>
      <trkpt lat="44.3524" lon="6.27408">
        <ele>1585.1999511719</ele>
        <time>2016-07-19T14:32:12.000Z</time>
      </trkpt>
      <trkpt lat="44.35245" lon="6.27412">
        <ele>1585.1999511719</ele>
        <time>2016-07-19T14:32:16.000Z</time>
      </trkpt>
      <trkpt lat="44.35253" lon="6.2742">
        <ele>1585</ele>
        <time>2016-07-19T14:32:24.000Z</time>
      </trkpt>
      <trkpt lat="44.35257" lon="6.27426">
        <ele>1584.8000488281</ele>
        <time>2016-07-19T14:32:29.000Z</time>
      </trkpt>
      <trkpt lat="44.35259" lon="6.27432">
        <ele>1584.4000244141</ele>
        <time>2016-07-19T14:32:35.000Z</time>
      </trkpt>
      <trkpt lat="44.35261" lon="6.27437">
        <ele>1584.1999511719</ele>
        <time>2016-07-19T14:32:39.000Z</time>
      </trkpt>
      <trkpt lat="44.35265" lon="6.27441">
        <ele>1584</ele>
        <time>2016-07-19T14:32:44.000Z</time>
      </trkpt>
      <trkpt lat="44.35265" lon="6.27443">
        <ele>1584</ele>
        <time>2016-07-19T14:32:45.000Z</time>
      </trkpt>
      <trkpt lat="44.35266" lon="6.27447">
        <ele>1583.5999755859</ele>
        <time>2016-07-19T14:32:48.000Z</time>
      </trkpt>
      <trkpt lat="44.35268" lon="6.27452">
        <ele>1583.4000244141</ele>
        <time>2016-07-19T14:32:51.000Z</time>
      </trkpt>
      <trkpt lat="44.35268" lon="6.27458">
        <ele>1583</ele>
        <time>2016-07-19T14:32:59.000Z</time>
      </trkpt>
      <trkpt lat="44.35269" lon="6.27461">
        <ele>1582.8000488281</ele>
        <time>2016-07-19T14:33:05.000Z</time>
      </trkpt>
      <trkpt lat="44.35269" lon="6.27459">
        <ele>1582.8000488281</ele>
        <time>2016-07-19T14:33:10.000Z</time>
      </trkpt>
      <trkpt lat="44.35274" lon="6.27466">
        <ele>1582.5999755859</ele>
        <time>2016-07-19T14:33:16.000Z</time>
      </trkpt>
      <trkpt lat="44.35279" lon="6.27479">
        <ele>1582</ele>
        <time>2016-07-19T14:33:23.000Z</time>
      </trkpt>
      <trkpt lat="44.35285" lon="6.27494">
        <ele>1580.5999755859</ele>
        <time>2016-07-19T14:33:32.000Z</time>
      </trkpt>
      <trkpt lat="44.35285" lon="6.27498">
        <ele>1580.1999511719</ele>
        <time>2016-07-19T14:33:35.000Z</time>
      </trkpt>
      <trkpt lat="44.35288" lon="6.27506">
        <ele>1579.4000244141</ele>
        <time>2016-07-19T14:33:42.000Z</time>
      </trkpt>
      <trkpt lat="44.35287" lon="6.27507">
        <ele>1579.4000244141</ele>
        <time>2016-07-19T14:34:14.000Z</time>
      </trkpt>
      <trkpt lat="44.35285" lon="6.27507">
        <ele>1579.1999511719</ele>
        <time>2016-07-19T14:34:26.000Z</time>
      </trkpt>
      <trkpt lat="44.35286" lon="6.27508">
        <ele>1579</ele>
        <time>2016-07-19T14:34:28.000Z</time>
      </trkpt>
      <trkpt lat="44.3529" lon="6.27526">
        <ele>1577.1999511719</ele>
        <time>2016-07-19T14:34:37.000Z</time>
      </trkpt>
      <trkpt lat="44.35294" lon="6.27544">
        <ele>1575.5999755859</ele>
        <time>2016-07-19T14:34:46.000Z</time>
      </trkpt>
      <trkpt lat="44.35301" lon="6.27565">
        <ele>1573.8000488281</ele>
        <time>2016-07-19T14:34:57.000Z</time>
      </trkpt>
      <trkpt lat="44.35306" lon="6.2758">
        <ele>1572.4000244141</ele>
        <time>2016-07-19T14:35:05.000Z</time>
      </trkpt>
      <trkpt lat="44.35308" lon="6.27592">
        <ele>1571.1999511719</ele>
        <time>2016-07-19T14:35:11.000Z</time>
      </trkpt>
      <trkpt lat="44.35311" lon="6.27605">
        <ele>1570</ele>
        <time>2016-07-19T14:35:18.000Z</time>
      </trkpt>
      <trkpt lat="44.35312" lon="6.27613">
        <ele>1569.1999511719</ele>
        <time>2016-07-19T14:35:22.000Z</time>
      </trkpt>
      <trkpt lat="44.35315" lon="6.27625">
        <ele>1568.1999511719</ele>
        <time>2016-07-19T14:35:28.000Z</time>
      </trkpt>
      <trkpt lat="44.35314" lon="6.27638">
        <ele>1566.8000488281</ele>
        <time>2016-07-19T14:35:35.000Z</time>
      </trkpt>
      <trkpt lat="44.35307" lon="6.2764">
        <ele>1565.8000488281</ele>
        <time>2016-07-19T14:35:42.000Z</time>
      </trkpt>
      <trkpt lat="44.35307" lon="6.27641">
        <ele>1565.8000488281</ele>
        <time>2016-07-19T14:35:51.000Z</time>
      </trkpt>
      <trkpt lat="44.35308" lon="6.27643">
        <ele>1565.5999755859</ele>
        <time>2016-07-19T14:35:59.000Z</time>
      </trkpt>
      <trkpt lat="44.35298" lon="6.2763">
        <ele>1566.1999511719</ele>
        <time>2016-07-19T14:36:41.000Z</time>
      </trkpt>
      <trkpt lat="44.35293" lon="6.27621">
        <ele>1566.8000488281</ele>
        <time>2016-07-19T14:36:47.000Z</time>
      </trkpt>
      <trkpt lat="44.35287" lon="6.27612">
        <ele>1567.1999511719</ele>
        <time>2016-07-19T14:36:53.000Z</time>
      </trkpt>
      <trkpt lat="44.35279" lon="6.27602">
        <ele>1568</ele>
        <time>2016-07-19T14:37:01.000Z</time>
      </trkpt>
      <trkpt lat="44.35272" lon="6.27596">
        <ele>1569.4000244141</ele>
        <time>2016-07-19T14:37:07.000Z</time>
      </trkpt>
      <trkpt lat="44.35265" lon="6.2759">
        <ele>1570.8000488281</ele>
        <time>2016-07-19T14:37:13.000Z</time>
      </trkpt>
      <trkpt lat="44.35257" lon="6.27583">
        <ele>1572.4000244141</ele>
        <time>2016-07-19T14:37:20.000Z</time>
      </trkpt>
      <trkpt lat="44.35251" lon="6.27578">
        <ele>1573.5999755859</ele>
        <time>2016-07-19T14:37:25.000Z</time>
      </trkpt>
      <trkpt lat="44.35249" lon="6.27576">
        <ele>1574</ele>
        <time>2016-07-19T14:37:31.000Z</time>
      </trkpt>
      <trkpt lat="44.35245" lon="6.27571">
        <ele>1575</ele>
        <time>2016-07-19T14:37:38.000Z</time>
      </trkpt>
      <trkpt lat="44.35237" lon="6.2756">
        <ele>1576.8000488281</ele>
        <time>2016-07-19T14:37:46.000Z</time>
      </trkpt>
      <trkpt lat="44.35232" lon="6.27556">
        <ele>1577.4000244141</ele>
        <time>2016-07-19T14:37:50.000Z</time>
      </trkpt>
      <trkpt lat="44.35223" lon="6.27543">
        <ele>1578.5999755859</ele>
        <time>2016-07-19T14:37:59.000Z</time>
      </trkpt>
      <trkpt lat="44.35211" lon="6.2753">
        <ele>1580</ele>
        <time>2016-07-19T14:38:09.000Z</time>
      </trkpt>
      <trkpt lat="44.3521" lon="6.27529">
        <ele>1580</ele>
        <time>2016-07-19T14:38:10.000Z</time>
      </trkpt>
      <trkpt lat="44.35197" lon="6.27538">
        <ele>1581.5999755859</ele>
        <time>2016-07-19T14:38:22.000Z</time>
      </trkpt>
      <trkpt lat="44.35194" lon="6.27549">
        <ele>1582.5999755859</ele>
        <time>2016-07-19T14:38:29.000Z</time>
      </trkpt>
      <trkpt lat="44.35192" lon="6.27568">
        <ele>1583.1999511719</ele>
        <time>2016-07-19T14:38:34.000Z</time>
      </trkpt>
      <trkpt lat="44.35191" lon="6.27594">
        <ele>1583.5999755859</ele>
        <time>2016-07-19T14:38:39.000Z</time>
      </trkpt>
      <trkpt lat="44.35188" lon="6.27621">
        <ele>1584.8000488281</ele>
        <time>2016-07-19T14:38:43.000Z</time>
      </trkpt>
      <trkpt lat="44.35184" lon="6.27638">
        <ele>1586.8000488281</ele>
        <time>2016-07-19T14:38:46.000Z</time>
      </trkpt>
      <trkpt lat="44.35181" lon="6.27665">
        <ele>1588.4000244141</ele>
        <time>2016-07-19T14:38:50.000Z</time>
      </trkpt>
      <trkpt lat="44.35181" lon="6.27679">
        <ele>1588.5999755859</ele>
        <time>2016-07-19T14:38:52.000Z</time>
      </trkpt>
      <trkpt lat="44.35177" lon="6.27706">
        <ele>1590.1999511719</ele>
        <time>2016-07-19T14:38:56.000Z</time>
      </trkpt>
      <trkpt lat="44.35167" lon="6.27737">
        <ele>1592</ele>
        <time>2016-07-19T14:39:01.000Z</time>
      </trkpt>
      <trkpt lat="44.35147" lon="6.27772">
        <ele>1594.8000488281</ele>
        <time>2016-07-19T14:39:09.000Z</time>
      </trkpt>
      <trkpt lat="44.35141" lon="6.27782">
        <ele>1596.1999511719</ele>
        <time>2016-07-19T14:39:12.000Z</time>
      </trkpt>
      <trkpt lat="44.35133" lon="6.27803">
        <ele>1597.5999755859</ele>
        <time>2016-07-19T14:39:19.000Z</time>
      </trkpt>
      <trkpt lat="44.3513" lon="6.27815">
        <ele>1598</ele>
        <time>2016-07-19T14:39:25.000Z</time>
      </trkpt>
      <trkpt lat="44.35128" lon="6.27826">
        <ele>1597.1999511719</ele>
        <time>2016-07-19T14:39:31.000Z</time>
      </trkpt>
      <trkpt lat="44.35125" lon="6.27839">
        <ele>1596.8000488281</ele>
        <time>2016-07-19T14:39:38.000Z</time>
      </trkpt>
      <trkpt lat="44.35123" lon="6.27848">
        <ele>1596.5999755859</ele>
        <time>2016-07-19T14:39:43.000Z</time>
      </trkpt>
      <trkpt lat="44.35121" lon="6.27857">
        <ele>1596.1999511719</ele>
        <time>2016-07-19T14:39:48.000Z</time>
      </trkpt>
      <trkpt lat="44.3512" lon="6.27859">
        <ele>1596.1999511719</ele>
        <time>2016-07-19T14:39:49.000Z</time>
      </trkpt>
      <trkpt lat="44.35115" lon="6.27875">
        <ele>1596.5999755859</ele>
        <time>2016-07-19T14:39:59.000Z</time>
      </trkpt>
      <trkpt lat="44.35108" lon="6.27891">
        <ele>1595.1999511719</ele>
        <time>2016-07-19T14:40:10.000Z</time>
      </trkpt>
      <trkpt lat="44.35102" lon="6.27905">
        <ele>1590.5999755859</ele>
        <time>2016-07-19T14:40:19.000Z</time>
      </trkpt>
      <trkpt lat="44.35098" lon="6.27911">
        <ele>1588.5999755859</ele>
        <time>2016-07-19T14:40:25.000Z</time>
      </trkpt>
      <trkpt lat="44.35092" lon="6.27921">
        <ele>1585.1999511719</ele>
        <time>2016-07-19T14:40:29.000Z</time>
      </trkpt>
      <trkpt lat="44.3508" lon="6.2793">
        <ele>1582</ele>
        <time>2016-07-19T14:40:35.000Z</time>
      </trkpt>
      <trkpt lat="44.3507" lon="6.27932">
        <ele>1580.8000488281</ele>
        <time>2016-07-19T14:40:41.000Z</time>
      </trkpt>
      <trkpt lat="44.3506" lon="6.27931">
        <ele>1581</ele>
        <time>2016-07-19T14:40:48.000Z</time>
      </trkpt>
      <trkpt lat="44.35052" lon="6.2793">
        <ele>1581</ele>
        <time>2016-07-19T14:40:54.000Z</time>
      </trkpt>
      <trkpt lat="44.35039" lon="6.27926">
        <ele>1582.1999511719</ele>
        <time>2016-07-19T14:41:00.000Z</time>
      </trkpt>
      <trkpt lat="44.35025" lon="6.27922">
        <ele>1583.4000244141</ele>
        <time>2016-07-19T14:41:05.000Z</time>
      </trkpt>
      <trkpt lat="44.35009" lon="6.27916">
        <ele>1586.4000244141</ele>
        <time>2016-07-19T14:41:11.000Z</time>
      </trkpt>
      <trkpt lat="44.34992" lon="6.27907">
        <ele>1590.5999755859</ele>
        <time>2016-07-19T14:41:17.000Z</time>
      </trkpt>
      <trkpt lat="44.34977" lon="6.27893">
        <ele>1595.5999755859</ele>
        <time>2016-07-19T14:41:24.000Z</time>
      </trkpt>
      <trkpt lat="44.34964" lon="6.27878">
        <ele>1598</ele>
        <time>2016-07-19T14:41:30.000Z</time>
      </trkpt>
      <trkpt lat="44.34956" lon="6.27866">
        <ele>1599.8000488281</ele>
        <time>2016-07-19T14:41:34.000Z</time>
      </trkpt>
      <trkpt lat="44.34943" lon="6.27844">
        <ele>1604.1999511719</ele>
        <time>2016-07-19T14:41:40.000Z</time>
      </trkpt>
      <trkpt lat="44.34929" lon="6.27825">
        <ele>1611.5999755859</ele>
        <time>2016-07-19T14:41:46.000Z</time>
      </trkpt>
      <trkpt lat="44.34913" lon="6.2781">
        <ele>1618.5999755859</ele>
        <time>2016-07-19T14:41:52.000Z</time>
      </trkpt>
      <trkpt lat="44.3491" lon="6.27809">
        <ele>1620</ele>
        <time>2016-07-19T14:41:53.000Z</time>
      </trkpt>
      <trkpt lat="44.34902" lon="6.27815">
        <ele>1622.5999755859</ele>
        <time>2016-07-19T14:41:56.000Z</time>
      </trkpt>
      <trkpt lat="44.34901" lon="6.27829">
        <ele>1621.5999755859</ele>
        <time>2016-07-19T14:41:59.000Z</time>
      </trkpt>
      <trkpt lat="44.34902" lon="6.27862">
        <ele>1618.8000488281</ele>
        <time>2016-07-19T14:42:06.000Z</time>
      </trkpt>
      <trkpt lat="44.34903" lon="6.27883">
        <ele>1618.1999511719</ele>
        <time>2016-07-19T14:42:11.000Z</time>
      </trkpt>
      <trkpt lat="44.34902" lon="6.27899">
        <ele>1618</ele>
        <time>2016-07-19T14:42:15.000Z</time>
      </trkpt>
      <trkpt lat="44.34901" lon="6.27907">
        <ele>1617.4000244141</ele>
        <time>2016-07-19T14:42:17.000Z</time>
      </trkpt>
      <trkpt lat="44.34901" lon="6.27935">
        <ele>1614.4000244141</ele>
        <time>2016-07-19T14:42:24.000Z</time>
      </trkpt>
      <trkpt lat="44.349" lon="6.2796">
        <ele>1609.8000488281</ele>
        <time>2016-07-19T14:42:30.000Z</time>
      </trkpt>
      <trkpt lat="44.34902" lon="6.27982">
        <ele>1605.5999755859</ele>
        <time>2016-07-19T14:42:36.000Z</time>
      </trkpt>
      <trkpt lat="44.349" lon="6.27996">
        <ele>1606</ele>
        <time>2016-07-19T14:42:41.000Z</time>
      </trkpt>
      <trkpt lat="44.34893" lon="6.28006">
        <ele>1608.5999755859</ele>
        <time>2016-07-19T14:42:49.000Z</time>
      </trkpt>
      <trkpt lat="44.34881" lon="6.28013">
        <ele>1612.8000488281</ele>
        <time>2016-07-19T14:42:58.000Z</time>
      </trkpt>
      <trkpt lat="44.34867" lon="6.28014">
        <ele>1618.1999511719</ele>
        <time>2016-07-19T14:43:08.000Z</time>
      </trkpt>
      <trkpt lat="44.34851" lon="6.28016">
        <ele>1625</ele>
        <time>2016-07-19T14:43:19.000Z</time>
      </trkpt>
      <trkpt lat="44.34839" lon="6.28017">
        <ele>1630.8000488281</ele>
        <time>2016-07-19T14:43:28.000Z</time>
      </trkpt>
      <trkpt lat="44.34826" lon="6.28021">
        <ele>1636.1999511719</ele>
        <time>2016-07-19T14:43:37.000Z</time>
      </trkpt>
      <trkpt lat="44.34823" lon="6.28032">
        <ele>1638</ele>
        <time>2016-07-19T14:43:43.000Z</time>
      </trkpt>
      <trkpt lat="44.34831" lon="6.28068">
        <ele>1635.4000244141</ele>
        <time>2016-07-19T14:44:02.000Z</time>
      </trkpt>
      <trkpt lat="44.3484" lon="6.2808">
        <ele>1634</ele>
        <time>2016-07-19T14:44:11.000Z</time>
      </trkpt>
      <trkpt lat="44.34845" lon="6.28092">
        <ele>1634</ele>
        <time>2016-07-19T14:44:19.000Z</time>
      </trkpt>
      <trkpt lat="44.34846" lon="6.28093">
        <ele>1634</ele>
        <time>2016-07-19T14:44:20.000Z</time>
      </trkpt>
      <trkpt lat="44.34853" lon="6.28106">
        <ele>1633</ele>
        <time>2016-07-19T14:44:29.000Z</time>
      </trkpt>
      <trkpt lat="44.34861" lon="6.2812">
        <ele>1632.4000244141</ele>
        <time>2016-07-19T14:44:39.000Z</time>
      </trkpt>
      <trkpt lat="44.34869" lon="6.28132">
        <ele>1632</ele>
        <time>2016-07-19T14:44:47.000Z</time>
      </trkpt>
      <trkpt lat="44.34876" lon="6.28142">
        <ele>1631.1999511719</ele>
        <time>2016-07-19T14:44:54.000Z</time>
      </trkpt>
      <trkpt lat="44.34884" lon="6.28153">
        <ele>1630.5999755859</ele>
        <time>2016-07-19T14:44:59.000Z</time>
      </trkpt>
      <trkpt lat="44.34901" lon="6.28176">
        <ele>1629.4000244141</ele>
        <time>2016-07-19T14:45:06.000Z</time>
      </trkpt>
      <trkpt lat="44.34914" lon="6.28192">
        <ele>1628.1999511719</ele>
        <time>2016-07-19T14:45:11.000Z</time>
      </trkpt>
      <trkpt lat="44.3493" lon="6.2821">
        <ele>1626.1999511719</ele>
        <time>2016-07-19T14:45:17.000Z</time>
      </trkpt>
      <trkpt lat="44.34946" lon="6.28229">
        <ele>1624.4000244141</ele>
        <time>2016-07-19T14:45:23.000Z</time>
      </trkpt>
      <trkpt lat="44.34959" lon="6.28243">
        <ele>1622.5999755859</ele>
        <time>2016-07-19T14:45:28.000Z</time>
      </trkpt>
      <trkpt lat="44.34971" lon="6.28264">
        <ele>1621.4000244141</ele>
        <time>2016-07-19T14:45:34.000Z</time>
      </trkpt>
      <trkpt lat="44.34977" lon="6.28288">
        <ele>1621</ele>
        <time>2016-07-19T14:45:40.000Z</time>
      </trkpt>
      <trkpt lat="44.34977" lon="6.28304">
        <ele>1621.5999755859</ele>
        <time>2016-07-19T14:45:46.000Z</time>
      </trkpt>
      <trkpt lat="44.34974" lon="6.28325">
        <ele>1620.8000488281</ele>
        <time>2016-07-19T14:45:56.000Z</time>
      </trkpt>
      <trkpt lat="44.34965" lon="6.2836">
        <ele>1616</ele>
        <time>2016-07-19T14:46:14.000Z</time>
      </trkpt>
      <trkpt lat="44.34957" lon="6.28367">
        <ele>1615</ele>
        <time>2016-07-19T14:46:21.000Z</time>
      </trkpt>
      <trkpt lat="44.34947" lon="6.28373">
        <ele>1614.5999755859</ele>
        <time>2016-07-19T14:46:29.000Z</time>
      </trkpt>
      <trkpt lat="44.34934" lon="6.28378">
        <ele>1616.1999511719</ele>
        <time>2016-07-19T14:46:38.000Z</time>
      </trkpt>
      <trkpt lat="44.34921" lon="6.28384">
        <ele>1617</ele>
        <time>2016-07-19T14:46:47.000Z</time>
      </trkpt>
      <trkpt lat="44.34908" lon="6.28386">
        <ele>1618.4000244141</ele>
        <time>2016-07-19T14:46:56.000Z</time>
      </trkpt>
      <trkpt lat="44.34893" lon="6.28392">
        <ele>1619</ele>
        <time>2016-07-19T14:47:07.000Z</time>
      </trkpt>
      <trkpt lat="44.34881" lon="6.28397">
        <ele>1619.1999511719</ele>
        <time>2016-07-19T14:47:15.000Z</time>
      </trkpt>
      <trkpt lat="44.34871" lon="6.28401">
        <ele>1618.8000488281</ele>
        <time>2016-07-19T14:47:23.000Z</time>
      </trkpt>
      <trkpt lat="44.34859" lon="6.28411">
        <ele>1614.1999511719</ele>
        <time>2016-07-19T14:47:33.000Z</time>
      </trkpt>
      <trkpt lat="44.34849" lon="6.2842">
        <ele>1609.4000244141</ele>
        <time>2016-07-19T14:47:41.000Z</time>
      </trkpt>
      <trkpt lat="44.34839" lon="6.28426">
        <ele>1605.8000488281</ele>
        <time>2016-07-19T14:47:48.000Z</time>
      </trkpt>
      <trkpt lat="44.3481" lon="6.28443">
        <ele>1598</ele>
        <time>2016-07-19T14:48:09.000Z</time>
      </trkpt>
      <trkpt lat="44.348" lon="6.28447">
        <ele>1597.8000488281</ele>
        <time>2016-07-19T14:48:16.000Z</time>
      </trkpt>
      <trkpt lat="44.34786" lon="6.2845">
        <ele>1598.4000244141</ele>
        <time>2016-07-19T14:48:25.000Z</time>
      </trkpt>
      <trkpt lat="44.34774" lon="6.28448">
        <ele>1600</ele>
        <time>2016-07-19T14:48:33.000Z</time>
      </trkpt>
      <trkpt lat="44.34761" lon="6.28443">
        <ele>1602.1999511719</ele>
        <time>2016-07-19T14:48:42.000Z</time>
      </trkpt>
      <trkpt lat="44.3475" lon="6.28437">
        <ele>1605</ele>
        <time>2016-07-19T14:48:50.000Z</time>
      </trkpt>
      <trkpt lat="44.3474" lon="6.28432">
        <ele>1607</ele>
        <time>2016-07-19T14:48:57.000Z</time>
      </trkpt>
      <trkpt lat="44.34728" lon="6.28427">
        <ele>1609.4000244141</ele>
        <time>2016-07-19T14:49:05.000Z</time>
      </trkpt>
      <trkpt lat="44.34724" lon="6.28423">
        <ele>1610.8000488281</ele>
        <time>2016-07-19T14:49:11.000Z</time>
      </trkpt>
      <trkpt lat="44.34721" lon="6.28422">
        <ele>1612</ele>
        <time>2016-07-19T14:49:36.000Z</time>
      </trkpt>
      <trkpt lat="44.3472" lon="6.28419">
        <ele>1612.5999755859</ele>
        <time>2016-07-19T14:49:58.000Z</time>
      </trkpt>
      <trkpt lat="44.34717" lon="6.28417">
        <ele>1613.4000244141</ele>
        <time>2016-07-19T14:50:38.000Z</time>
      </trkpt>
      <trkpt lat="44.34709" lon="6.28427">
        <ele>1616</ele>
        <time>2016-07-19T14:50:45.000Z</time>
      </trkpt>
      <trkpt lat="44.34703" lon="6.28439">
        <ele>1617.4000244141</ele>
        <time>2016-07-19T14:50:51.000Z</time>
      </trkpt>
      <trkpt lat="44.34701" lon="6.28453">
        <ele>1617.8000488281</ele>
        <time>2016-07-19T14:50:58.000Z</time>
      </trkpt>
      <trkpt lat="44.34701" lon="6.28462">
        <ele>1617.4000244141</ele>
        <time>2016-07-19T14:51:03.000Z</time>
      </trkpt>
      <trkpt lat="44.34705" lon="6.28476">
        <ele>1615.5999755859</ele>
        <time>2016-07-19T14:51:10.000Z</time>
      </trkpt>
      <trkpt lat="44.34709" lon="6.28493">
        <ele>1612.1999511719</ele>
        <time>2016-07-19T14:51:18.000Z</time>
      </trkpt>
      <trkpt lat="44.34713" lon="6.28514">
        <ele>1608.1999511719</ele>
        <time>2016-07-19T14:51:28.000Z</time>
      </trkpt>
      <trkpt lat="44.34716" lon="6.28529">
        <ele>1605.1999511719</ele>
        <time>2016-07-19T14:51:36.000Z</time>
      </trkpt>
      <trkpt lat="44.34719" lon="6.28545">
        <ele>1602</ele>
        <time>2016-07-19T14:51:44.000Z</time>
      </trkpt>
      <trkpt lat="44.34721" lon="6.28559">
        <ele>1599.4000244141</ele>
        <time>2016-07-19T14:51:50.000Z</time>
      </trkpt>
      <trkpt lat="44.34721" lon="6.28573">
        <ele>1596.5999755859</ele>
        <time>2016-07-19T14:51:55.000Z</time>
      </trkpt>
      <trkpt lat="44.34715" lon="6.28589">
        <ele>1594.1999511719</ele>
        <time>2016-07-19T14:52:04.000Z</time>
      </trkpt>
      <trkpt lat="44.34708" lon="6.28598">
        <ele>1593</ele>
        <time>2016-07-19T14:52:11.000Z</time>
      </trkpt>
      <trkpt lat="44.34699" lon="6.28609">
        <ele>1592.4000244141</ele>
        <time>2016-07-19T14:52:19.000Z</time>
      </trkpt>
      <trkpt lat="44.34689" lon="6.28617">
        <ele>1592.8000488281</ele>
        <time>2016-07-19T14:52:27.000Z</time>
      </trkpt>
      <trkpt lat="44.34681" lon="6.28625">
        <ele>1593.1999511719</ele>
        <time>2016-07-19T14:52:34.000Z</time>
      </trkpt>
      <trkpt lat="44.34668" lon="6.28636">
        <ele>1592</ele>
        <time>2016-07-19T14:52:44.000Z</time>
      </trkpt>
      <trkpt lat="44.34656" lon="6.28646">
        <ele>1590.4000244141</ele>
        <time>2016-07-19T14:52:53.000Z</time>
      </trkpt>
      <trkpt lat="44.34644" lon="6.28656">
        <ele>1590</ele>
        <time>2016-07-19T14:53:02.000Z</time>
      </trkpt>
      <trkpt lat="44.34631" lon="6.28667">
        <ele>1589.4000244141</ele>
        <time>2016-07-19T14:53:12.000Z</time>
      </trkpt>
      <trkpt lat="44.3462" lon="6.28676">
        <ele>1589.5999755859</ele>
        <time>2016-07-19T14:53:20.000Z</time>
      </trkpt>
      <trkpt lat="44.34611" lon="6.28684">
        <ele>1589.1999511719</ele>
        <time>2016-07-19T14:53:27.000Z</time>
      </trkpt>
      <trkpt lat="44.34602" lon="6.28696">
        <ele>1587.8000488281</ele>
        <time>2016-07-19T14:53:36.000Z</time>
      </trkpt>
      <trkpt lat="44.34592" lon="6.28714">
        <ele>1583.8000488281</ele>
        <time>2016-07-19T14:53:47.000Z</time>
      </trkpt>
      <trkpt lat="44.34585" lon="6.28735">
        <ele>1579.1999511719</ele>
        <time>2016-07-19T14:53:58.000Z</time>
      </trkpt>
      <trkpt lat="44.34579" lon="6.28747">
        <ele>1578.4000244141</ele>
        <time>2016-07-19T14:54:05.000Z</time>
      </trkpt>
      <trkpt lat="44.34554" lon="6.28764">
        <ele>1581.4000244141</ele>
        <time>2016-07-19T14:54:24.000Z</time>
      </trkpt>
      <trkpt lat="44.34543" lon="6.28767">
        <ele>1584.4000244141</ele>
        <time>2016-07-19T14:54:32.000Z</time>
      </trkpt>
      <trkpt lat="44.34529" lon="6.28774">
        <ele>1587.8000488281</ele>
        <time>2016-07-19T14:54:42.000Z</time>
      </trkpt>
      <trkpt lat="44.34514" lon="6.28779">
        <ele>1591</ele>
        <time>2016-07-19T14:54:52.000Z</time>
      </trkpt>
      <trkpt lat="44.345" lon="6.2878">
        <ele>1594.1999511719</ele>
        <time>2016-07-19T14:55:02.000Z</time>
      </trkpt>
      <trkpt lat="44.34489" lon="6.28786">
        <ele>1599.4000244141</ele>
        <time>2016-07-19T14:55:10.000Z</time>
      </trkpt>
      <trkpt lat="44.34484" lon="6.28799">
        <ele>1603</ele>
        <time>2016-07-19T14:55:17.000Z</time>
      </trkpt>
      <trkpt lat="44.34489" lon="6.28818">
        <ele>1604</ele>
        <time>2016-07-19T14:55:26.000Z</time>
      </trkpt>
      <trkpt lat="44.34499" lon="6.28833">
        <ele>1601.4000244141</ele>
        <time>2016-07-19T14:55:36.000Z</time>
      </trkpt>
      <trkpt lat="44.34515" lon="6.28848">
        <ele>1597.1999511719</ele>
        <time>2016-07-19T14:55:48.000Z</time>
      </trkpt>
      <trkpt lat="44.34526" lon="6.2886">
        <ele>1594</ele>
        <time>2016-07-19T14:55:57.000Z</time>
      </trkpt>
      <trkpt lat="44.3454" lon="6.28877">
        <ele>1591.5999755859</ele>
        <time>2016-07-19T14:56:09.000Z</time>
      </trkpt>
      <trkpt lat="44.34544" lon="6.28884">
        <ele>1591.4000244141</ele>
        <time>2016-07-19T14:56:15.000Z</time>
      </trkpt>
      <trkpt lat="44.34547" lon="6.28889">
        <ele>1591.1999511719</ele>
        <time>2016-07-19T14:56:20.000Z</time>
      </trkpt>
      <trkpt lat="44.34554" lon="6.28903">
        <ele>1590.5999755859</ele>
        <time>2016-07-19T14:56:28.000Z</time>
      </trkpt>
      <trkpt lat="44.34558" lon="6.28923">
        <ele>1591</ele>
        <time>2016-07-19T14:56:38.000Z</time>
      </trkpt>
      <trkpt lat="44.34556" lon="6.28935">
        <ele>1591.8000488281</ele>
        <time>2016-07-19T14:56:44.000Z</time>
      </trkpt>
      <trkpt lat="44.3455" lon="6.28947">
        <ele>1593.1999511719</ele>
        <time>2016-07-19T14:56:51.000Z</time>
      </trkpt>
      <trkpt lat="44.34528" lon="6.28969">
        <ele>1599.4000244141</ele>
        <time>2016-07-19T14:57:11.000Z</time>
      </trkpt>
      <trkpt lat="44.34517" lon="6.28981">
        <ele>1603.8000488281</ele>
        <time>2016-07-19T14:57:20.000Z</time>
      </trkpt>
      <trkpt lat="44.34508" lon="6.28988">
        <ele>1609.1999511719</ele>
        <time>2016-07-19T14:57:27.000Z</time>
      </trkpt>
      <trkpt lat="44.34494" lon="6.29001">
        <ele>1618</ele>
        <time>2016-07-19T14:57:38.000Z</time>
      </trkpt>
      <trkpt lat="44.3449" lon="6.29013">
        <ele>1623</ele>
        <time>2016-07-19T14:57:45.000Z</time>
      </trkpt>
      <trkpt lat="44.34491" lon="6.29022">
        <ele>1625</ele>
        <time>2016-07-19T14:57:49.000Z</time>
      </trkpt>
      <trkpt lat="44.34499" lon="6.29031">
        <ele>1624</ele>
        <time>2016-07-19T14:57:57.000Z</time>
      </trkpt>
      <trkpt lat="44.34507" lon="6.29034">
        <ele>1621.4000244141</ele>
        <time>2016-07-19T14:58:04.000Z</time>
      </trkpt>
      <trkpt lat="44.34517" lon="6.29039">
        <ele>1618.4000244141</ele>
        <time>2016-07-19T14:58:12.000Z</time>
      </trkpt>
      <trkpt lat="44.34529" lon="6.29045">
        <ele>1615.1999511719</ele>
        <time>2016-07-19T14:58:21.000Z</time>
      </trkpt>
      <trkpt lat="44.34537" lon="6.29049">
        <ele>1614.1999511719</ele>
        <time>2016-07-19T14:58:27.000Z</time>
      </trkpt>
      <trkpt lat="44.34549" lon="6.29054">
        <ele>1612.8000488281</ele>
        <time>2016-07-19T14:58:36.000Z</time>
      </trkpt>
      <trkpt lat="44.34561" lon="6.29058">
        <ele>1611.5999755859</ele>
        <time>2016-07-19T14:58:44.000Z</time>
      </trkpt>
      <trkpt lat="44.34577" lon="6.29065">
        <ele>1610</ele>
        <time>2016-07-19T14:58:50.000Z</time>
      </trkpt>
      <trkpt lat="44.34595" lon="6.29078">
        <ele>1608.8000488281</ele>
        <time>2016-07-19T14:58:57.000Z</time>
      </trkpt>
      <trkpt lat="44.34615" lon="6.29122">
        <ele>1613.1999511719</ele>
        <time>2016-07-19T14:59:10.000Z</time>
      </trkpt>
      <trkpt lat="44.34617" lon="6.29152">
        <ele>1617.5999755859</ele>
        <time>2016-07-19T14:59:17.000Z</time>
      </trkpt>
      <trkpt lat="44.34617" lon="6.29177">
        <ele>1618.5999755859</ele>
        <time>2016-07-19T14:59:23.000Z</time>
      </trkpt>
      <trkpt lat="44.34618" lon="6.29203">
        <ele>1619.1999511719</ele>
        <time>2016-07-19T14:59:30.000Z</time>
      </trkpt>
      <trkpt lat="44.34619" lon="6.29214">
        <ele>1619.5999755859</ele>
        <time>2016-07-19T14:59:35.000Z</time>
      </trkpt>
      <trkpt lat="44.34621" lon="6.2923">
        <ele>1619.5999755859</ele>
        <time>2016-07-19T14:59:44.000Z</time>
      </trkpt>
      <trkpt lat="44.34624" lon="6.29241">
        <ele>1619.8000488281</ele>
        <time>2016-07-19T14:59:50.000Z</time>
      </trkpt>
      <trkpt lat="44.34631" lon="6.29257">
        <ele>1619.4000244141</ele>
        <time>2016-07-19T14:59:59.000Z</time>
      </trkpt>
      <trkpt lat="44.34643" lon="6.29261">
        <ele>1617.5999755859</ele>
        <time>2016-07-19T15:00:08.000Z</time>
      </trkpt>
      <trkpt lat="44.34649" lon="6.2926">
        <ele>1616.4000244141</ele>
        <time>2016-07-19T15:00:13.000Z</time>
      </trkpt>
      <trkpt lat="44.34662" lon="6.29255">
        <ele>1613.4000244141</ele>
        <time>2016-07-19T15:00:23.000Z</time>
      </trkpt>
      <trkpt lat="44.34673" lon="6.29245">
        <ele>1610.4000244141</ele>
        <time>2016-07-19T15:00:32.000Z</time>
      </trkpt>
      <trkpt lat="44.3468" lon="6.2924">
        <ele>1608.4000244141</ele>
        <time>2016-07-19T15:00:38.000Z</time>
      </trkpt>
      <trkpt lat="44.34685" lon="6.29237">
        <ele>1607.1999511719</ele>
        <time>2016-07-19T15:00:45.000Z</time>
      </trkpt>
      <trkpt lat="44.34708" lon="6.29235">
        <ele>1604</ele>
        <time>2016-07-19T15:01:02.000Z</time>
      </trkpt>
      <trkpt lat="44.34722" lon="6.29236">
        <ele>1604</ele>
        <time>2016-07-19T15:01:11.000Z</time>
      </trkpt>
      <trkpt lat="44.34735" lon="6.29241">
        <ele>1604</ele>
        <time>2016-07-19T15:01:18.000Z</time>
      </trkpt>
      <trkpt lat="44.34739" lon="6.29248">
        <ele>1604.1999511719</ele>
        <time>2016-07-19T15:01:23.000Z</time>
      </trkpt>
      <trkpt lat="44.34747" lon="6.29258">
        <ele>1604.4000244141</ele>
        <time>2016-07-19T15:01:30.000Z</time>
      </trkpt>
      <trkpt lat="44.34756" lon="6.29268">
        <ele>1604.5999755859</ele>
        <time>2016-07-19T15:01:37.000Z</time>
      </trkpt>
      <trkpt lat="44.3476" lon="6.29274">
        <ele>1604.8000488281</ele>
        <time>2016-07-19T15:01:42.000Z</time>
      </trkpt>
      <trkpt lat="44.34767" lon="6.29288">
        <ele>1605.1999511719</ele>
        <time>2016-07-19T15:01:50.000Z</time>
      </trkpt>
      <trkpt lat="44.34768" lon="6.29308">
        <ele>1606.4000244141</ele>
        <time>2016-07-19T15:02:00.000Z</time>
      </trkpt>
      <trkpt lat="44.34765" lon="6.29321">
        <ele>1606.8000488281</ele>
        <time>2016-07-19T15:02:06.000Z</time>
      </trkpt>
      <trkpt lat="44.34764" lon="6.2933">
        <ele>1606.8000488281</ele>
        <time>2016-07-19T15:02:10.000Z</time>
      </trkpt>
      <trkpt lat="44.34761" lon="6.29347">
        <ele>1606.8000488281</ele>
        <time>2016-07-19T15:02:16.000Z</time>
      </trkpt>
      <trkpt lat="44.34759" lon="6.2936">
        <ele>1606.8000488281</ele>
        <time>2016-07-19T15:02:22.000Z</time>
      </trkpt>
      <trkpt lat="44.34756" lon="6.29372">
        <ele>1606.8000488281</ele>
        <time>2016-07-19T15:02:28.000Z</time>
      </trkpt>
      <trkpt lat="44.34754" lon="6.29389">
        <ele>1607.8000488281</ele>
        <time>2016-07-19T15:02:36.000Z</time>
      </trkpt>
      <trkpt lat="44.34753" lon="6.29407">
        <ele>1608.1999511719</ele>
        <time>2016-07-19T15:02:44.000Z</time>
      </trkpt>
      <trkpt lat="44.34751" lon="6.29419">
        <ele>1608.4000244141</ele>
        <time>2016-07-19T15:02:50.000Z</time>
      </trkpt>
      <trkpt lat="44.34747" lon="6.29432">
        <ele>1608.5999755859</ele>
        <time>2016-07-19T15:02:57.000Z</time>
      </trkpt>
      <trkpt lat="44.34743" lon="6.29435">
        <ele>1609</ele>
        <time>2016-07-19T15:03:04.000Z</time>
      </trkpt>
      <trkpt lat="44.34745" lon="6.29433">
        <ele>1608.8000488281</ele>
        <time>2016-07-19T15:03:12.000Z</time>
      </trkpt>
      <trkpt lat="44.34744" lon="6.29427">
        <ele>1609</ele>
        <time>2016-07-19T15:03:17.000Z</time>
      </trkpt>
      <trkpt lat="44.34745" lon="6.29425">
        <ele>1609</ele>
        <time>2016-07-19T15:03:26.000Z</time>
      </trkpt>
      <trkpt lat="44.3474" lon="6.29422">
        <ele>1609.5999755859</ele>
        <time>2016-07-19T15:08:31.000Z</time>
      </trkpt>
      <trkpt lat="44.34753" lon="6.29422">
        <ele>1608</ele>
        <time>2016-07-19T15:09:59.000Z</time>
      </trkpt>
      <trkpt lat="44.34747" lon="6.2943">
        <ele>1608.5999755859</ele>
        <time>2016-07-19T15:10:03.000Z</time>
      </trkpt>
      <trkpt lat="44.34748" lon="6.29435">
        <ele>1608.4000244141</ele>
        <time>2016-07-19T15:10:06.000Z</time>
      </trkpt>
      <trkpt lat="44.34747" lon="6.29439">
        <ele>1608.5999755859</ele>
        <time>2016-07-19T15:10:11.000Z</time>
      </trkpt>
      <trkpt lat="44.34749" lon="6.29439">
        <ele>1608.1999511719</ele>
        <time>2016-07-19T15:10:15.000Z</time>
      </trkpt>
      <trkpt lat="44.34749" lon="6.29438">
        <ele>1608.1999511719</ele>
        <time>2016-07-19T15:10:22.000Z</time>
      </trkpt>
      <trkpt lat="44.34751" lon="6.29438">
        <ele>1608.1999511719</ele>
        <time>2016-07-19T15:10:28.000Z</time>
      </trkpt>
      <trkpt lat="44.34756" lon="6.29439">
        <ele>1607.5999755859</ele>
        <time>2016-07-19T15:10:35.000Z</time>
      </trkpt>
      <trkpt lat="44.34756" lon="6.29432">
        <ele>1607.4000244141</ele>
        <time>2016-07-19T15:10:39.000Z</time>
      </trkpt>
      <trkpt lat="44.34756" lon="6.29424">
        <ele>1607.5999755859</ele>
        <time>2016-07-19T15:10:45.000Z</time>
      </trkpt>
      <trkpt lat="44.34754" lon="6.2942">
        <ele>1608</ele>
        <time>2016-07-19T15:10:50.000Z</time>
      </trkpt>
      <trkpt lat="44.34753" lon="6.29417">
        <ele>1608</ele>
        <time>2016-07-19T15:10:53.000Z</time>
      </trkpt>
      <trkpt lat="44.34752" lon="6.29419">
        <ele>1608.1999511719</ele>
        <time>2016-07-19T15:11:00.000Z</time>
      </trkpt>
      <trkpt lat="44.34751" lon="6.2942">
        <ele>1608.4000244141</ele>
        <time>2016-07-19T15:11:08.000Z</time>
      </trkpt>
      <trkpt lat="44.34751" lon="6.29424">
        <ele>1608.1999511719</ele>
        <time>2016-07-19T15:11:23.000Z</time>
      </trkpt>
      <trkpt lat="44.34749" lon="6.2943">
        <ele>1608.4000244141</ele>
        <time>2016-07-19T15:11:28.000Z</time>
      </trkpt>
      <trkpt lat="44.34749" lon="6.29441">
        <ele>1608.4000244141</ele>
        <time>2016-07-19T15:11:35.000Z</time>
      </trkpt>
      <trkpt lat="44.34749" lon="6.29444">
        <ele>1608.1999511719</ele>
        <time>2016-07-19T15:11:37.000Z</time>
      </trkpt>
      <trkpt lat="44.34749" lon="6.29452">
        <ele>1608.1999511719</ele>
        <time>2016-07-19T15:11:42.000Z</time>
      </trkpt>
      <trkpt lat="44.34749" lon="6.29451">
        <ele>1608.1999511719</ele>
        <time>2016-07-19T15:11:50.000Z</time>
      </trkpt>
      <trkpt lat="44.34748" lon="6.29453">
        <ele>1608.1999511719</ele>
        <time>2016-07-19T15:11:53.000Z</time>
      </trkpt>
      <trkpt lat="44.34747" lon="6.29459">
        <ele>1608.4000244141</ele>
        <time>2016-07-19T15:11:57.000Z</time>
      </trkpt>
      <trkpt lat="44.34743" lon="6.29473">
        <ele>1608.5999755859</ele>
        <time>2016-07-19T15:12:05.000Z</time>
      </trkpt>
      <trkpt lat="44.34742" lon="6.29487">
        <ele>1608.4000244141</ele>
        <time>2016-07-19T15:12:12.000Z</time>
      </trkpt>
      <trkpt lat="44.34739" lon="6.29503">
        <ele>1608</ele>
        <time>2016-07-19T15:12:21.000Z</time>
      </trkpt>
      <trkpt lat="44.34738" lon="6.29506">
        <ele>1607.8000488281</ele>
        <time>2016-07-19T15:12:23.000Z</time>
      </trkpt>
      <trkpt lat="44.34737" lon="6.29511">
        <ele>1607.8000488281</ele>
        <time>2016-07-19T15:12:29.000Z</time>
      </trkpt>
      <trkpt lat="44.34735" lon="6.29518">
        <ele>1607.5999755859</ele>
        <time>2016-07-19T15:12:35.000Z</time>
      </trkpt>
      <trkpt lat="44.34733" lon="6.29526">
        <ele>1607.1999511719</ele>
        <time>2016-07-19T15:12:41.000Z</time>
      </trkpt>
      <trkpt lat="44.3473" lon="6.29539">
        <ele>1606.5999755859</ele>
        <time>2016-07-19T15:12:49.000Z</time>
      </trkpt>
      <trkpt lat="44.3473" lon="6.2954">
        <ele>1606.5999755859</ele>
        <time>2016-07-19T15:12:50.000Z</time>
      </trkpt>
      <trkpt lat="44.34716" lon="6.29551">
        <ele>1607.1999511719</ele>
        <time>2016-07-19T15:13:05.000Z</time>
      </trkpt>
      <trkpt lat="44.3471" lon="6.29553">
        <ele>1607.5999755859</ele>
        <time>2016-07-19T15:13:24.000Z</time>
      </trkpt>
      <trkpt lat="44.34701" lon="6.29554">
        <ele>1608.4000244141</ele>
        <time>2016-07-19T15:13:31.000Z</time>
      </trkpt>
      <trkpt lat="44.34694" lon="6.29563">
        <ele>1609.4000244141</ele>
        <time>2016-07-19T15:13:38.000Z</time>
      </trkpt>
      <trkpt lat="44.34684" lon="6.29578">
        <ele>1612.4000244141</ele>
        <time>2016-07-19T15:13:48.000Z</time>
      </trkpt>
      <trkpt lat="44.34677" lon="6.2959">
        <ele>1614.8000488281</ele>
        <time>2016-07-19T15:13:57.000Z</time>
      </trkpt>
      <trkpt lat="44.34675" lon="6.29593">
        <ele>1615.1999511719</ele>
        <time>2016-07-19T15:13:59.000Z</time>
      </trkpt>
      <trkpt lat="44.34675" lon="6.29594">
        <ele>1615.1999511719</ele>
        <time>2016-07-19T15:14:06.000Z</time>
      </trkpt>
      <trkpt lat="44.34674" lon="6.29595">
        <ele>1615.5999755859</ele>
        <time>2016-07-19T15:14:11.000Z</time>
      </trkpt>
      <trkpt lat="44.3467" lon="6.29608">
        <ele>1616.4000244141</ele>
        <time>2016-07-19T15:14:19.000Z</time>
      </trkpt>
      <trkpt lat="44.34665" lon="6.29625">
        <ele>1617.1999511719</ele>
        <time>2016-07-19T15:14:28.000Z</time>
      </trkpt>
      <trkpt lat="44.34661" lon="6.29641">
        <ele>1618</ele>
        <time>2016-07-19T15:14:37.000Z</time>
      </trkpt>
      <trkpt lat="44.34657" lon="6.29656">
        <ele>1619</ele>
        <time>2016-07-19T15:14:45.000Z</time>
      </trkpt>
      <trkpt lat="44.34652" lon="6.29694">
        <ele>1619.8000488281</ele>
        <time>2016-07-19T15:15:15.000Z</time>
      </trkpt>
      <trkpt lat="44.34654" lon="6.2969">
        <ele>1619.1999511719</ele>
        <time>2016-07-19T15:15:31.000Z</time>
      </trkpt>
      <trkpt lat="44.34656" lon="6.29676">
        <ele>1619</ele>
        <time>2016-07-19T15:15:39.000Z</time>
      </trkpt>
      <trkpt lat="44.34658" lon="6.29666">
        <ele>1618.4000244141</ele>
        <time>2016-07-19T15:15:44.000Z</time>
      </trkpt>
      <trkpt lat="44.34662" lon="6.29666">
        <ele>1616.8000488281</ele>
        <time>2016-07-19T15:15:49.000Z</time>
      </trkpt>
      <trkpt lat="44.34663" lon="6.29668">
        <ele>1616.5999755859</ele>
        <time>2016-07-19T15:15:50.000Z</time>
      </trkpt>
      <trkpt lat="44.34666" lon="6.2972">
        <ele>1613.1999511719</ele>
        <time>2016-07-19T15:16:16.000Z</time>
      </trkpt>
      <trkpt lat="44.34668" lon="6.2974">
        <ele>1611.5999755859</ele>
        <time>2016-07-19T15:16:25.000Z</time>
      </trkpt>
      <trkpt lat="44.34673" lon="6.29758">
        <ele>1610</ele>
        <time>2016-07-19T15:16:34.000Z</time>
      </trkpt>
      <trkpt lat="44.34677" lon="6.29782">
        <ele>1608.5999755859</ele>
        <time>2016-07-19T15:16:45.000Z</time>
      </trkpt>
      <trkpt lat="44.34677" lon="6.29799">
        <ele>1608.4000244141</ele>
        <time>2016-07-19T15:16:53.000Z</time>
      </trkpt>
      <trkpt lat="44.34676" lon="6.29813">
        <ele>1608.5999755859</ele>
        <time>2016-07-19T15:17:00.000Z</time>
      </trkpt>
      <trkpt lat="44.34675" lon="6.29829">
        <ele>1608.1999511719</ele>
        <time>2016-07-19T15:17:07.000Z</time>
      </trkpt>
      <trkpt lat="44.34674" lon="6.29845">
        <ele>1607.8000488281</ele>
        <time>2016-07-19T15:17:15.000Z</time>
      </trkpt>
      <trkpt lat="44.34673" lon="6.29864">
        <ele>1607.4000244141</ele>
        <time>2016-07-19T15:17:23.000Z</time>
      </trkpt>
      <trkpt lat="44.34672" lon="6.29879">
        <ele>1607.8000488281</ele>
        <time>2016-07-19T15:17:30.000Z</time>
      </trkpt>
      <trkpt lat="44.34668" lon="6.29894">
        <ele>1609.5999755859</ele>
        <time>2016-07-19T15:17:38.000Z</time>
      </trkpt>
      <trkpt lat="44.34665" lon="6.2991">
        <ele>1612.4000244141</ele>
        <time>2016-07-19T15:17:46.000Z</time>
      </trkpt>
      <trkpt lat="44.34663" lon="6.29925">
        <ele>1614.8000488281</ele>
        <time>2016-07-19T15:17:53.000Z</time>
      </trkpt>
      <trkpt lat="44.34664" lon="6.29932">
        <ele>1615.4000244141</ele>
        <time>2016-07-19T15:17:56.000Z</time>
      </trkpt>
      <trkpt lat="44.34666" lon="6.2994">
        <ele>1615.4000244141</ele>
        <time>2016-07-19T15:18:01.000Z</time>
      </trkpt>
      <trkpt lat="44.3467" lon="6.29949">
        <ele>1615.1999511719</ele>
        <time>2016-07-19T15:18:06.000Z</time>
      </trkpt>
      <trkpt lat="44.3467" lon="6.29951">
        <ele>1615.1999511719</ele>
        <time>2016-07-19T15:18:08.000Z</time>
      </trkpt>
      <trkpt lat="44.34679" lon="6.2996">
        <ele>1613.1999511719</ele>
        <time>2016-07-19T15:18:16.000Z</time>
      </trkpt>
      <trkpt lat="44.34686" lon="6.29966">
        <ele>1611.5999755859</ele>
        <time>2016-07-19T15:18:22.000Z</time>
      </trkpt>
      <trkpt lat="44.34694" lon="6.29973">
        <ele>1609.4000244141</ele>
        <time>2016-07-19T15:18:29.000Z</time>
      </trkpt>
      <trkpt lat="44.34702" lon="6.29977">
        <ele>1607.5999755859</ele>
        <time>2016-07-19T15:18:35.000Z</time>
      </trkpt>
      <trkpt lat="44.34711" lon="6.29983">
        <ele>1605.5999755859</ele>
        <time>2016-07-19T15:18:42.000Z</time>
      </trkpt>
      <trkpt lat="44.34719" lon="6.29988">
        <ele>1604.4000244141</ele>
        <time>2016-07-19T15:18:48.000Z</time>
      </trkpt>
      <trkpt lat="44.34729" lon="6.29992">
        <ele>1602.4000244141</ele>
        <time>2016-07-19T15:18:55.000Z</time>
      </trkpt>
      <trkpt lat="44.3474" lon="6.29997">
        <ele>1600</ele>
        <time>2016-07-19T15:19:03.000Z</time>
      </trkpt>
      <trkpt lat="44.34751" lon="6.30002">
        <ele>1598</ele>
        <time>2016-07-19T15:19:11.000Z</time>
      </trkpt>
      <trkpt lat="44.34762" lon="6.3001">
        <ele>1596.4000244141</ele>
        <time>2016-07-19T15:19:19.000Z</time>
      </trkpt>
      <trkpt lat="44.34772" lon="6.30017">
        <ele>1595</ele>
        <time>2016-07-19T15:19:26.000Z</time>
      </trkpt>
      <trkpt lat="44.34776" lon="6.3002">
        <ele>1594.5999755859</ele>
        <time>2016-07-19T15:19:30.000Z</time>
      </trkpt>
      <trkpt lat="44.34785" lon="6.30025">
        <ele>1593.4000244141</ele>
        <time>2016-07-19T15:19:36.000Z</time>
      </trkpt>
      <trkpt lat="44.34796" lon="6.30026">
        <ele>1591.5999755859</ele>
        <time>2016-07-19T15:19:43.000Z</time>
      </trkpt>
      <trkpt lat="44.34806" lon="6.30029">
        <ele>1590.4000244141</ele>
        <time>2016-07-19T15:19:50.000Z</time>
      </trkpt>
      <trkpt lat="44.34807" lon="6.3003">
        <ele>1590.4000244141</ele>
        <time>2016-07-19T15:19:57.000Z</time>
      </trkpt>
      <trkpt lat="44.34813" lon="6.30032">
        <ele>1589.8000488281</ele>
        <time>2016-07-19T15:20:14.000Z</time>
      </trkpt>
      <trkpt lat="44.34819" lon="6.30034">
        <ele>1589</ele>
        <time>2016-07-19T15:20:21.000Z</time>
      </trkpt>
      <trkpt lat="44.34824" lon="6.30037">
        <ele>1588.8000488281</ele>
        <time>2016-07-19T15:20:37.000Z</time>
      </trkpt>
      <trkpt lat="44.34833" lon="6.30042">
        <ele>1588.1999511719</ele>
        <time>2016-07-19T15:20:45.000Z</time>
      </trkpt>
      <trkpt lat="44.34841" lon="6.30047">
        <ele>1587.8000488281</ele>
        <time>2016-07-19T15:20:52.000Z</time>
      </trkpt>
      <trkpt lat="44.34852" lon="6.30052">
        <ele>1587</ele>
        <time>2016-07-19T15:21:00.000Z</time>
      </trkpt>
      <trkpt lat="44.34866" lon="6.30054">
        <ele>1584.4000244141</ele>
        <time>2016-07-19T15:21:09.000Z</time>
      </trkpt>
      <trkpt lat="44.34876" lon="6.30056">
        <ele>1583</ele>
        <time>2016-07-19T15:21:15.000Z</time>
      </trkpt>
      <trkpt lat="44.34886" lon="6.30061">
        <ele>1582.4000244141</ele>
        <time>2016-07-19T15:21:22.000Z</time>
      </trkpt>
      <trkpt lat="44.34894" lon="6.30065">
        <ele>1581.5999755859</ele>
        <time>2016-07-19T15:21:28.000Z</time>
      </trkpt>
      <trkpt lat="44.34904" lon="6.3007">
        <ele>1580</ele>
        <time>2016-07-19T15:21:35.000Z</time>
      </trkpt>
      <trkpt lat="44.34905" lon="6.30071">
        <ele>1579.8000488281</ele>
        <time>2016-07-19T15:21:36.000Z</time>
      </trkpt>
      <trkpt lat="44.34915" lon="6.30076">
        <ele>1578.4000244141</ele>
        <time>2016-07-19T15:21:43.000Z</time>
      </trkpt>
      <trkpt lat="44.34927" lon="6.30085">
        <ele>1577</ele>
        <time>2016-07-19T15:21:51.000Z</time>
      </trkpt>
      <trkpt lat="44.34939" lon="6.30114">
        <ele>1577.5999755859</ele>
        <time>2016-07-19T15:22:06.000Z</time>
      </trkpt>
      <trkpt lat="44.3494" lon="6.3012">
        <ele>1578</ele>
        <time>2016-07-19T15:22:11.000Z</time>
      </trkpt>
      <trkpt lat="44.34944" lon="6.30129">
        <ele>1578</ele>
        <time>2016-07-19T15:22:25.000Z</time>
      </trkpt>
      <trkpt lat="44.34949" lon="6.30146">
        <ele>1578.5999755859</ele>
        <time>2016-07-19T15:22:34.000Z</time>
      </trkpt>
      <trkpt lat="44.3495" lon="6.30159">
        <ele>1578.1999511719</ele>
        <time>2016-07-19T15:22:41.000Z</time>
      </trkpt>
      <trkpt lat="44.3495" lon="6.30174">
        <ele>1578</ele>
        <time>2016-07-19T15:22:48.000Z</time>
      </trkpt>
      <trkpt lat="44.34953" lon="6.30192">
        <ele>1577</ele>
        <time>2016-07-19T15:22:57.000Z</time>
      </trkpt>
      <trkpt lat="44.34955" lon="6.30209">
        <ele>1576</ele>
        <time>2016-07-19T15:23:05.000Z</time>
      </trkpt>
      <trkpt lat="44.34957" lon="6.30218">
        <ele>1575.5999755859</ele>
        <time>2016-07-19T15:23:09.000Z</time>
      </trkpt>
      <trkpt lat="44.3496" lon="6.30238">
        <ele>1574.5999755859</ele>
        <time>2016-07-19T15:23:18.000Z</time>
      </trkpt>
      <trkpt lat="44.34962" lon="6.30253">
        <ele>1573.8000488281</ele>
        <time>2016-07-19T15:23:25.000Z</time>
      </trkpt>
      <trkpt lat="44.34965" lon="6.30268">
        <ele>1572.5999755859</ele>
        <time>2016-07-19T15:23:32.000Z</time>
      </trkpt>
      <trkpt lat="44.34965" lon="6.3027">
        <ele>1572.5999755859</ele>
        <time>2016-07-19T15:23:33.000Z</time>
      </trkpt>
      <trkpt lat="44.34966" lon="6.30283">
        <ele>1571.8000488281</ele>
        <time>2016-07-19T15:23:40.000Z</time>
      </trkpt>
      <trkpt lat="44.34969" lon="6.30292">
        <ele>1571</ele>
        <time>2016-07-19T15:23:45.000Z</time>
      </trkpt>
      <trkpt lat="44.34974" lon="6.30306">
        <ele>1569.5999755859</ele>
        <time>2016-07-19T15:23:52.000Z</time>
      </trkpt>
      <trkpt lat="44.34978" lon="6.30328">
        <ele>1567.5999755859</ele>
        <time>2016-07-19T15:24:02.000Z</time>
      </trkpt>
      <trkpt lat="44.34982" lon="6.30348">
        <ele>1566</ele>
        <time>2016-07-19T15:24:11.000Z</time>
      </trkpt>
      <trkpt lat="44.34985" lon="6.30364">
        <ele>1564.1999511719</ele>
        <time>2016-07-19T15:24:18.000Z</time>
      </trkpt>
      <trkpt lat="44.34989" lon="6.30379">
        <ele>1562.1999511719</ele>
        <time>2016-07-19T15:24:25.000Z</time>
      </trkpt>
      <trkpt lat="44.34995" lon="6.30394">
        <ele>1560</ele>
        <time>2016-07-19T15:24:33.000Z</time>
      </trkpt>
      <trkpt lat="44.34997" lon="6.30398">
        <ele>1559.5999755859</ele>
        <time>2016-07-19T15:24:35.000Z</time>
      </trkpt>
      <trkpt lat="44.35002" lon="6.30414">
        <ele>1557.8000488281</ele>
        <time>2016-07-19T15:24:43.000Z</time>
      </trkpt>
      <trkpt lat="44.35007" lon="6.30427">
        <ele>1556.4000244141</ele>
        <time>2016-07-19T15:24:50.000Z</time>
      </trkpt>
      <trkpt lat="44.35013" lon="6.30441">
        <ele>1554.8000488281</ele>
        <time>2016-07-19T15:24:58.000Z</time>
      </trkpt>
      <trkpt lat="44.35016" lon="6.30453">
        <ele>1553.5999755859</ele>
        <time>2016-07-19T15:25:04.000Z</time>
      </trkpt>
      <trkpt lat="44.35017" lon="6.30465">
        <ele>1552.5999755859</ele>
        <time>2016-07-19T15:25:10.000Z</time>
      </trkpt>
      <trkpt lat="44.35017" lon="6.30472">
        <ele>1551.8000488281</ele>
        <time>2016-07-19T15:25:14.000Z</time>
      </trkpt>
      <trkpt lat="44.35018" lon="6.3048">
        <ele>1551</ele>
        <time>2016-07-19T15:25:18.000Z</time>
      </trkpt>
      <trkpt lat="44.35019" lon="6.30493">
        <ele>1550</ele>
        <time>2016-07-19T15:25:24.000Z</time>
      </trkpt>
      <trkpt lat="44.35019" lon="6.30501">
        <ele>1549.4000244141</ele>
        <time>2016-07-19T15:25:28.000Z</time>
      </trkpt>
      <trkpt lat="44.3502" lon="6.30514">
        <ele>1548.4000244141</ele>
        <time>2016-07-19T15:25:34.000Z</time>
      </trkpt>
      <trkpt lat="44.35024" lon="6.30526">
        <ele>1547.1999511719</ele>
        <time>2016-07-19T15:25:39.000Z</time>
      </trkpt>
      <trkpt lat="44.35028" lon="6.30538">
        <ele>1546</ele>
        <time>2016-07-19T15:25:44.000Z</time>
      </trkpt>
      <trkpt lat="44.35029" lon="6.3054">
        <ele>1545.8000488281</ele>
        <time>2016-07-19T15:25:45.000Z</time>
      </trkpt>
      <trkpt lat="44.35032" lon="6.30547">
        <ele>1545.1999511719</ele>
        <time>2016-07-19T15:25:49.000Z</time>
      </trkpt>
      <trkpt lat="44.35039" lon="6.30561">
        <ele>1544</ele>
        <time>2016-07-19T15:25:56.000Z</time>
      </trkpt>
      <trkpt lat="44.35043" lon="6.30572">
        <ele>1543.1999511719</ele>
        <time>2016-07-19T15:26:01.000Z</time>
      </trkpt>
      <trkpt lat="44.35049" lon="6.30601">
        <ele>1540.8000488281</ele>
        <time>2016-07-19T15:26:13.000Z</time>
      </trkpt>
      <trkpt lat="44.35045" lon="6.30619">
        <ele>1539.5999755859</ele>
        <time>2016-07-19T15:26:21.000Z</time>
      </trkpt>
      <trkpt lat="44.3504" lon="6.30636">
        <ele>1538.5999755859</ele>
        <time>2016-07-19T15:26:29.000Z</time>
      </trkpt>
      <trkpt lat="44.35036" lon="6.30651">
        <ele>1537.8000488281</ele>
        <time>2016-07-19T15:26:36.000Z</time>
      </trkpt>
      <trkpt lat="44.35034" lon="6.30666">
        <ele>1539</ele>
        <time>2016-07-19T15:26:43.000Z</time>
      </trkpt>
      <trkpt lat="44.35035" lon="6.3068">
        <ele>1540</ele>
        <time>2016-07-19T15:26:49.000Z</time>
      </trkpt>
      <trkpt lat="44.3503" lon="6.30694">
        <ele>1541.5999755859</ele>
        <time>2016-07-19T15:26:56.000Z</time>
      </trkpt>
      <trkpt lat="44.35028" lon="6.30697">
        <ele>1542.4000244141</ele>
        <time>2016-07-19T15:27:03.000Z</time>
      </trkpt>
      <trkpt lat="44.35022" lon="6.30706">
        <ele>1544.4000244141</ele>
        <time>2016-07-19T15:27:32.000Z</time>
      </trkpt>
      <trkpt lat="44.35015" lon="6.30718">
        <ele>1546.5999755859</ele>
        <time>2016-07-19T15:27:39.000Z</time>
      </trkpt>
      <trkpt lat="44.3501" lon="6.30728">
        <ele>1547.4000244141</ele>
        <time>2016-07-19T15:27:45.000Z</time>
      </trkpt>
      <trkpt lat="44.35004" lon="6.30741">
        <ele>1549.4000244141</ele>
        <time>2016-07-19T15:27:53.000Z</time>
      </trkpt>
      <trkpt lat="44.35001" lon="6.30758">
        <ele>1551</ele>
        <time>2016-07-19T15:27:58.000Z</time>
      </trkpt>
      <trkpt lat="44.35005" lon="6.30779">
        <ele>1551.8000488281</ele>
        <time>2016-07-19T15:28:04.000Z</time>
      </trkpt>
      <trkpt lat="44.35012" lon="6.30796">
        <ele>1551.8000488281</ele>
        <time>2016-07-19T15:28:10.000Z</time>
      </trkpt>
      <trkpt lat="44.35017" lon="6.30813">
        <ele>1551</ele>
        <time>2016-07-19T15:28:15.000Z</time>
      </trkpt>
      <trkpt lat="44.35018" lon="6.3083">
        <ele>1551.8000488281</ele>
        <time>2016-07-19T15:28:20.000Z</time>
      </trkpt>
      <trkpt lat="44.35018" lon="6.30846">
        <ele>1552.4000244141</ele>
        <time>2016-07-19T15:28:25.000Z</time>
      </trkpt>
      <trkpt lat="44.35017" lon="6.30861">
        <ele>1553.1999511719</ele>
        <time>2016-07-19T15:28:30.000Z</time>
      </trkpt>
      <trkpt lat="44.35017" lon="6.30862">
        <ele>1553.4000244141</ele>
        <time>2016-07-19T15:28:31.000Z</time>
      </trkpt>
      <trkpt lat="44.35016" lon="6.30869">
        <ele>1553.8000488281</ele>
        <time>2016-07-19T15:28:35.000Z</time>
      </trkpt>
      <trkpt lat="44.35013" lon="6.30887">
        <ele>1554.5999755859</ele>
        <time>2016-07-19T15:28:44.000Z</time>
      </trkpt>
      <trkpt lat="44.3501" lon="6.30898">
        <ele>1554.8000488281</ele>
        <time>2016-07-19T15:28:50.000Z</time>
      </trkpt>
      <trkpt lat="44.35" lon="6.30911">
        <ele>1553.8000488281</ele>
        <time>2016-07-19T15:28:59.000Z</time>
      </trkpt>
      <trkpt lat="44.34992" lon="6.30917">
        <ele>1553.5999755859</ele>
        <time>2016-07-19T15:29:06.000Z</time>
      </trkpt>
      <trkpt lat="44.34987" lon="6.30919">
        <ele>1553.4000244141</ele>
        <time>2016-07-19T15:29:09.000Z</time>
      </trkpt>
      <trkpt lat="44.34977" lon="6.30922">
        <ele>1553.5999755859</ele>
        <time>2016-07-19T15:29:14.000Z</time>
      </trkpt>
      <trkpt lat="44.34955" lon="6.3093">
        <ele>1553.1999511719</ele>
        <time>2016-07-19T15:29:22.000Z</time>
      </trkpt>
      <trkpt lat="44.34938" lon="6.30939">
        <ele>1553.8000488281</ele>
        <time>2016-07-19T15:29:28.000Z</time>
      </trkpt>
      <trkpt lat="44.3492" lon="6.30948">
        <ele>1555</ele>
        <time>2016-07-19T15:29:34.000Z</time>
      </trkpt>
      <trkpt lat="44.34902" lon="6.30956">
        <ele>1554.5999755859</ele>
        <time>2016-07-19T15:29:40.000Z</time>
      </trkpt>
      <trkpt lat="44.34891" lon="6.30952">
        <ele>1556</ele>
        <time>2016-07-19T15:29:44.000Z</time>
      </trkpt>
      <trkpt lat="44.34884" lon="6.30937">
        <ele>1559.8000488281</ele>
        <time>2016-07-19T15:29:49.000Z</time>
      </trkpt>
      <trkpt lat="44.34877" lon="6.30928">
        <ele>1561.8000488281</ele>
        <time>2016-07-19T15:29:52.000Z</time>
      </trkpt>
      <trkpt lat="44.34862" lon="6.30932">
        <ele>1562.1999511719</ele>
        <time>2016-07-19T15:29:58.000Z</time>
      </trkpt>
      <trkpt lat="44.34844" lon="6.30951">
        <ele>1561</ele>
        <time>2016-07-19T15:30:13.000Z</time>
      </trkpt>
      <trkpt lat="44.34841" lon="6.30949">
        <ele>1561.8000488281</ele>
        <time>2016-07-19T15:30:15.000Z</time>
      </trkpt>
      <trkpt lat="44.34833" lon="6.30931">
        <ele>1567</ele>
        <time>2016-07-19T15:30:26.000Z</time>
      </trkpt>
      <trkpt lat="44.34832" lon="6.30929">
        <ele>1567.4000244141</ele>
        <time>2016-07-19T15:30:27.000Z</time>
      </trkpt>
      <trkpt lat="44.34822" lon="6.30915">
        <ele>1572</ele>
        <time>2016-07-19T15:30:37.000Z</time>
      </trkpt>
      <trkpt lat="44.34812" lon="6.30902">
        <ele>1576.1999511719</ele>
        <time>2016-07-19T15:30:46.000Z</time>
      </trkpt>
      <trkpt lat="44.34807" lon="6.30897">
        <ele>1577.8000488281</ele>
        <time>2016-07-19T15:30:50.000Z</time>
      </trkpt>
      <trkpt lat="44.348" lon="6.30888">
        <ele>1579</ele>
        <time>2016-07-19T15:30:56.000Z</time>
      </trkpt>
      <trkpt lat="44.3479" lon="6.30874">
        <ele>1580.5999755859</ele>
        <time>2016-07-19T15:31:07.000Z</time>
      </trkpt>
      <trkpt lat="44.34783" lon="6.30865">
        <ele>1581.5999755859</ele>
        <time>2016-07-19T15:31:14.000Z</time>
      </trkpt>
      <trkpt lat="44.34777" lon="6.30856">
        <ele>1580.8000488281</ele>
        <time>2016-07-19T15:31:20.000Z</time>
      </trkpt>
      <trkpt lat="44.34766" lon="6.30841">
        <ele>1577.1999511719</ele>
        <time>2016-07-19T15:31:30.000Z</time>
      </trkpt>
      <trkpt lat="44.34757" lon="6.30823">
        <ele>1574.4000244141</ele>
        <time>2016-07-19T15:31:36.000Z</time>
      </trkpt>
      <trkpt lat="44.34747" lon="6.30803">
        <ele>1573</ele>
        <time>2016-07-19T15:31:43.000Z</time>
      </trkpt>
      <trkpt lat="44.34731" lon="6.30786">
        <ele>1571.5999755859</ele>
        <time>2016-07-19T15:31:50.000Z</time>
      </trkpt>
      <trkpt lat="44.34715" lon="6.30771">
        <ele>1569.1999511719</ele>
        <time>2016-07-19T15:31:57.000Z</time>
      </trkpt>
      <trkpt lat="44.34714" lon="6.30769">
        <ele>1569.4000244141</ele>
        <time>2016-07-19T15:31:58.000Z</time>
      </trkpt>
      <trkpt lat="44.34699" lon="6.3075">
        <ele>1568.5999755859</ele>
        <time>2016-07-19T15:32:12.000Z</time>
      </trkpt>
      <trkpt lat="44.34695" lon="6.30739">
        <ele>1569</ele>
        <time>2016-07-19T15:32:19.000Z</time>
      </trkpt>
      <trkpt lat="44.34689" lon="6.30726">
        <ele>1569.4000244141</ele>
        <time>2016-07-19T15:32:26.000Z</time>
      </trkpt>
      <trkpt lat="44.34684" lon="6.30713">
        <ele>1570.1999511719</ele>
        <time>2016-07-19T15:32:33.000Z</time>
      </trkpt>
      <trkpt lat="44.34678" lon="6.30697">
        <ele>1571</ele>
        <time>2016-07-19T15:32:42.000Z</time>
      </trkpt>
      <trkpt lat="44.34675" lon="6.30688">
        <ele>1571.5999755859</ele>
        <time>2016-07-19T15:32:47.000Z</time>
      </trkpt>
      <trkpt lat="44.34672" lon="6.30682">
        <ele>1572</ele>
        <time>2016-07-19T15:32:51.000Z</time>
      </trkpt>
      <trkpt lat="44.34668" lon="6.3066">
        <ele>1574.5999755859</ele>
        <time>2016-07-19T15:32:58.000Z</time>
      </trkpt>
      <trkpt lat="44.34668" lon="6.30648">
        <ele>1576.8000488281</ele>
        <time>2016-07-19T15:33:03.000Z</time>
      </trkpt>
      <trkpt lat="44.34674" lon="6.30634">
        <ele>1582</ele>
        <time>2016-07-19T15:33:11.000Z</time>
      </trkpt>
      <trkpt lat="44.3468" lon="6.30622">
        <ele>1585.8000488281</ele>
        <time>2016-07-19T15:33:17.000Z</time>
      </trkpt>
      <trkpt lat="44.3468" lon="6.3062">
        <ele>1586</ele>
        <time>2016-07-19T15:33:18.000Z</time>
      </trkpt>
      <trkpt lat="44.34684" lon="6.30609">
        <ele>1587.8000488281</ele>
        <time>2016-07-19T15:33:24.000Z</time>
      </trkpt>
      <trkpt lat="44.34684" lon="6.30607">
        <ele>1588</ele>
        <time>2016-07-19T15:33:25.000Z</time>
      </trkpt>
      <trkpt lat="44.34684" lon="6.30601">
        <ele>1588.5999755859</ele>
        <time>2016-07-19T15:33:28.000Z</time>
      </trkpt>
      <trkpt lat="44.34683" lon="6.30594">
        <ele>1588.8000488281</ele>
        <time>2016-07-19T15:33:32.000Z</time>
      </trkpt>
      <trkpt lat="44.34683" lon="6.3059">
        <ele>1589.1999511719</ele>
        <time>2016-07-19T15:33:34.000Z</time>
      </trkpt>
      <trkpt lat="44.34682" lon="6.30579">
        <ele>1590</ele>
        <time>2016-07-19T15:33:41.000Z</time>
      </trkpt>
      <trkpt lat="44.3468" lon="6.30566">
        <ele>1590.8000488281</ele>
        <time>2016-07-19T15:33:48.000Z</time>
      </trkpt>
      <trkpt lat="44.34671" lon="6.30521">
        <ele>1592.8000488281</ele>
        <time>2016-07-19T15:34:14.000Z</time>
      </trkpt>
      <trkpt lat="44.34671" lon="6.30511">
        <ele>1593.4000244141</ele>
        <time>2016-07-19T15:34:20.000Z</time>
      </trkpt>
      <trkpt lat="44.34667" lon="6.30495">
        <ele>1593.5999755859</ele>
        <time>2016-07-19T15:34:28.000Z</time>
      </trkpt>
      <trkpt lat="44.34661" lon="6.30483">
        <ele>1593.1999511719</ele>
        <time>2016-07-19T15:34:35.000Z</time>
      </trkpt>
      <trkpt lat="44.34653" lon="6.30469">
        <ele>1592.8000488281</ele>
        <time>2016-07-19T15:34:43.000Z</time>
      </trkpt>
      <trkpt lat="44.34646" lon="6.30457">
        <ele>1592.8000488281</ele>
        <time>2016-07-19T15:34:50.000Z</time>
      </trkpt>
      <trkpt lat="44.34641" lon="6.3044">
        <ele>1593</ele>
        <time>2016-07-19T15:34:59.000Z</time>
      </trkpt>
      <trkpt lat="44.34636" lon="6.30421">
        <ele>1594</ele>
        <time>2016-07-19T15:35:09.000Z</time>
      </trkpt>
      <trkpt lat="44.34635" lon="6.30412">
        <ele>1594.1999511719</ele>
        <time>2016-07-19T15:35:14.000Z</time>
      </trkpt>
      <trkpt lat="44.3463" lon="6.30391">
        <ele>1595</ele>
        <time>2016-07-19T15:35:24.000Z</time>
      </trkpt>
      <trkpt lat="44.34625" lon="6.30376">
        <ele>1595.8000488281</ele>
        <time>2016-07-19T15:35:32.000Z</time>
      </trkpt>
      <trkpt lat="44.34618" lon="6.3036">
        <ele>1596.5999755859</ele>
        <time>2016-07-19T15:35:41.000Z</time>
      </trkpt>
      <trkpt lat="44.34613" lon="6.30349">
        <ele>1597.4000244141</ele>
        <time>2016-07-19T15:35:47.000Z</time>
      </trkpt>
      <trkpt lat="44.34603" lon="6.30326">
        <ele>1602</ele>
        <time>2016-07-19T15:36:01.000Z</time>
      </trkpt>
      <trkpt lat="44.34602" lon="6.30324">
        <ele>1602.4000244141</ele>
        <time>2016-07-19T15:36:02.000Z</time>
      </trkpt>
      <trkpt lat="44.34599" lon="6.30317">
        <ele>1603.8000488281</ele>
        <time>2016-07-19T15:36:06.000Z</time>
      </trkpt>
      <trkpt lat="44.34598" lon="6.30315">
        <ele>1604.1999511719</ele>
        <time>2016-07-19T15:36:07.000Z</time>
      </trkpt>
      <trkpt lat="44.34591" lon="6.30302">
        <ele>1605.5999755859</ele>
        <time>2016-07-19T15:36:15.000Z</time>
      </trkpt>
      <trkpt lat="44.3459" lon="6.30301">
        <ele>1605.8000488281</ele>
        <time>2016-07-19T15:36:16.000Z</time>
      </trkpt>
      <trkpt lat="44.34584" lon="6.3029">
        <ele>1606.5999755859</ele>
        <time>2016-07-19T15:36:22.000Z</time>
      </trkpt>
      <trkpt lat="44.34577" lon="6.30279">
        <ele>1607.8000488281</ele>
        <time>2016-07-19T15:36:29.000Z</time>
      </trkpt>
      <trkpt lat="44.3457" lon="6.30269">
        <ele>1609</ele>
        <time>2016-07-19T15:36:35.000Z</time>
      </trkpt>
      <trkpt lat="44.34559" lon="6.30253">
        <ele>1611.5999755859</ele>
        <time>2016-07-19T15:36:45.000Z</time>
      </trkpt>
      <trkpt lat="44.34548" lon="6.3024">
        <ele>1613.8000488281</ele>
        <time>2016-07-19T15:36:54.000Z</time>
      </trkpt>
      <trkpt lat="44.34537" lon="6.30227">
        <ele>1615.8000488281</ele>
        <time>2016-07-19T15:37:03.000Z</time>
      </trkpt>
      <trkpt lat="44.34526" lon="6.30225">
        <ele>1618.4000244141</ele>
        <time>2016-07-19T15:37:11.000Z</time>
      </trkpt>
      <trkpt lat="44.34523" lon="6.30224">
        <ele>1620</ele>
        <time>2016-07-19T15:37:14.000Z</time>
      </trkpt>
      <trkpt lat="44.3452" lon="6.30225">
        <ele>1621.5999755859</ele>
        <time>2016-07-19T15:37:19.000Z</time>
      </trkpt>
      <trkpt lat="44.3452" lon="6.30226">
        <ele>1621.4000244141</ele>
        <time>2016-07-19T15:37:22.000Z</time>
      </trkpt>
      <trkpt lat="44.34523" lon="6.30232">
        <ele>1620.4000244141</ele>
        <time>2016-07-19T15:37:26.000Z</time>
      </trkpt>
      <trkpt lat="44.34524" lon="6.30243">
        <ele>1620</ele>
        <time>2016-07-19T15:37:31.000Z</time>
      </trkpt>
      <trkpt lat="44.34527" lon="6.30257">
        <ele>1618.8000488281</ele>
        <time>2016-07-19T15:37:37.000Z</time>
      </trkpt>
      <trkpt lat="44.34532" lon="6.30269">
        <ele>1617.1999511719</ele>
        <time>2016-07-19T15:37:43.000Z</time>
      </trkpt>
      <trkpt lat="44.34539" lon="6.30282">
        <ele>1616.1999511719</ele>
        <time>2016-07-19T15:37:50.000Z</time>
      </trkpt>
      <trkpt lat="44.3454" lon="6.30286">
        <ele>1616</ele>
        <time>2016-07-19T15:37:52.000Z</time>
      </trkpt>
      <trkpt lat="44.34541" lon="6.30294">
        <ele>1616.1999511719</ele>
        <time>2016-07-19T15:37:58.000Z</time>
      </trkpt>
      <trkpt lat="44.34543" lon="6.30304">
        <ele>1616</ele>
        <time>2016-07-19T15:38:03.000Z</time>
      </trkpt>
      <trkpt lat="44.34544" lon="6.30306">
        <ele>1616</ele>
        <time>2016-07-19T15:38:04.000Z</time>
      </trkpt>
      <trkpt lat="44.34547" lon="6.30314">
        <ele>1615.4000244141</ele>
        <time>2016-07-19T15:38:08.000Z</time>
      </trkpt>
      <trkpt lat="44.34552" lon="6.30328">
        <ele>1612.8000488281</ele>
        <time>2016-07-19T15:38:16.000Z</time>
      </trkpt>
      <trkpt lat="44.34555" lon="6.3034">
        <ele>1611</ele>
        <time>2016-07-19T15:38:22.000Z</time>
      </trkpt>
      <trkpt lat="44.34555" lon="6.30347">
        <ele>1610.8000488281</ele>
        <time>2016-07-19T15:38:26.000Z</time>
      </trkpt>
      <trkpt lat="44.34557" lon="6.30355">
        <ele>1610</ele>
        <time>2016-07-19T15:38:31.000Z</time>
      </trkpt>
      <trkpt lat="44.34557" lon="6.30357">
        <ele>1609.8000488281</ele>
        <time>2016-07-19T15:38:32.000Z</time>
      </trkpt>
      <trkpt lat="44.34561" lon="6.30368">
        <ele>1608.1999511719</ele>
        <time>2016-07-19T15:38:38.000Z</time>
      </trkpt>
      <trkpt lat="44.34562" lon="6.3037">
        <ele>1608</ele>
        <time>2016-07-19T15:38:39.000Z</time>
      </trkpt>
      <trkpt lat="44.34563" lon="6.30382">
        <ele>1607.1999511719</ele>
        <time>2016-07-19T15:38:46.000Z</time>
      </trkpt>
      <trkpt lat="44.34565" lon="6.30388">
        <ele>1606.4000244141</ele>
        <time>2016-07-19T15:38:50.000Z</time>
      </trkpt>
      <trkpt lat="44.34565" lon="6.304">
        <ele>1605.8000488281</ele>
        <time>2016-07-19T15:38:56.000Z</time>
      </trkpt>
      <trkpt lat="44.34565" lon="6.30402">
        <ele>1605.5999755859</ele>
        <time>2016-07-19T15:38:57.000Z</time>
      </trkpt>
      <trkpt lat="44.34566" lon="6.30412">
        <ele>1604.8000488281</ele>
        <time>2016-07-19T15:39:03.000Z</time>
      </trkpt>
      <trkpt lat="44.34565" lon="6.30416">
        <ele>1604.5999755859</ele>
        <time>2016-07-19T15:39:05.000Z</time>
      </trkpt>
      <trkpt lat="44.34568" lon="6.30432">
        <ele>1602.1999511719</ele>
        <time>2016-07-19T15:39:11.000Z</time>
      </trkpt>
      <trkpt lat="44.3457" lon="6.30442">
        <ele>1600.1999511719</ele>
        <time>2016-07-19T15:39:15.000Z</time>
      </trkpt>
      <trkpt lat="44.34568" lon="6.30446">
        <ele>1600</ele>
        <time>2016-07-19T15:39:17.000Z</time>
      </trkpt>
      <trkpt lat="44.34566" lon="6.30455">
        <ele>1598.8000488281</ele>
        <time>2016-07-19T15:39:21.000Z</time>
      </trkpt>
      <trkpt lat="44.34565" lon="6.30471">
        <ele>1596.1999511719</ele>
        <time>2016-07-19T15:39:28.000Z</time>
      </trkpt>
      <trkpt lat="44.34563" lon="6.30486">
        <ele>1594.1999511719</ele>
        <time>2016-07-19T15:39:35.000Z</time>
      </trkpt>
      <trkpt lat="44.34561" lon="6.30495">
        <ele>1593.4000244141</ele>
        <time>2016-07-19T15:39:40.000Z</time>
      </trkpt>
      <trkpt lat="44.3456" lon="6.30497">
        <ele>1593.4000244141</ele>
        <time>2016-07-19T15:39:41.000Z</time>
      </trkpt>
      <trkpt lat="44.34559" lon="6.30502">
        <ele>1593</ele>
        <time>2016-07-19T15:39:44.000Z</time>
      </trkpt>
      <trkpt lat="44.34555" lon="6.30533">
        <ele>1587.4000244141</ele>
        <time>2016-07-19T15:39:59.000Z</time>
      </trkpt>
      <trkpt lat="44.34551" lon="6.30544">
        <ele>1585.1999511719</ele>
        <time>2016-07-19T15:40:06.000Z</time>
      </trkpt>
      <trkpt lat="44.3455" lon="6.30549">
        <ele>1584.1999511719</ele>
        <time>2016-07-19T15:40:13.000Z</time>
      </trkpt>
      <trkpt lat="44.34548" lon="6.30559">
        <ele>1582.1999511719</ele>
        <time>2016-07-19T15:40:19.000Z</time>
      </trkpt>
      <trkpt lat="44.34548" lon="6.30569">
        <ele>1580.1999511719</ele>
        <time>2016-07-19T15:40:24.000Z</time>
      </trkpt>
      <trkpt lat="44.34549" lon="6.3058">
        <ele>1577.8000488281</ele>
        <time>2016-07-19T15:40:30.000Z</time>
      </trkpt>
      <trkpt lat="44.34549" lon="6.30582">
        <ele>1577.1999511719</ele>
        <time>2016-07-19T15:40:31.000Z</time>
      </trkpt>
      <trkpt lat="44.3455" lon="6.30585">
        <ele>1576.4000244141</ele>
        <time>2016-07-19T15:40:32.000Z</time>
      </trkpt>
      <trkpt lat="44.34551" lon="6.30594">
        <ele>1573.5999755859</ele>
        <time>2016-07-19T15:40:36.000Z</time>
      </trkpt>
      <trkpt lat="44.34551" lon="6.30599">
        <ele>1572.1999511719</ele>
        <time>2016-07-19T15:40:38.000Z</time>
      </trkpt>
      <trkpt lat="44.34551" lon="6.30605">
        <ele>1570.4000244141</ele>
        <time>2016-07-19T15:40:41.000Z</time>
      </trkpt>
      <trkpt lat="44.34551" lon="6.30614">
        <ele>1568</ele>
        <time>2016-07-19T15:40:45.000Z</time>
      </trkpt>
      <trkpt lat="44.34549" lon="6.30623">
        <ele>1565.4000244141</ele>
        <time>2016-07-19T15:40:49.000Z</time>
      </trkpt>
      <trkpt lat="44.34548" lon="6.30627">
        <ele>1564.4000244141</ele>
        <time>2016-07-19T15:40:51.000Z</time>
      </trkpt>
      <trkpt lat="44.3455" lon="6.30644">
        <ele>1559.4000244141</ele>
        <time>2016-07-19T15:41:00.000Z</time>
      </trkpt>
      <trkpt lat="44.34551" lon="6.3066">
        <ele>1554.8000488281</ele>
        <time>2016-07-19T15:41:09.000Z</time>
      </trkpt>
      <trkpt lat="44.34552" lon="6.30677">
        <ele>1550.4000244141</ele>
        <time>2016-07-19T15:41:17.000Z</time>
      </trkpt>
      <trkpt lat="44.34553" lon="6.30679">
        <ele>1549.8000488281</ele>
        <time>2016-07-19T15:41:18.000Z</time>
      </trkpt>
      <trkpt lat="44.34555" lon="6.30687">
        <ele>1547.4000244141</ele>
        <time>2016-07-19T15:41:23.000Z</time>
      </trkpt>
      <trkpt lat="44.34556" lon="6.30702">
        <ele>1543.4000244141</ele>
        <time>2016-07-19T15:41:31.000Z</time>
      </trkpt>
      <trkpt lat="44.34558" lon="6.30714">
        <ele>1540.1999511719</ele>
        <time>2016-07-19T15:41:38.000Z</time>
      </trkpt>
      <trkpt lat="44.3456" lon="6.30724">
        <ele>1537.5999755859</ele>
        <time>2016-07-19T15:41:44.000Z</time>
      </trkpt>
      <trkpt lat="44.34563" lon="6.30737">
        <ele>1534</ele>
        <time>2016-07-19T15:41:51.000Z</time>
      </trkpt>
      <trkpt lat="44.34563" lon="6.30739">
        <ele>1533.4000244141</ele>
        <time>2016-07-19T15:41:52.000Z</time>
      </trkpt>
      <trkpt lat="44.34565" lon="6.30754">
        <ele>1529.4000244141</ele>
        <time>2016-07-19T15:42:00.000Z</time>
      </trkpt>
      <trkpt lat="44.34566" lon="6.30768">
        <ele>1525.4000244141</ele>
        <time>2016-07-19T15:42:09.000Z</time>
      </trkpt>
      <trkpt lat="44.34566" lon="6.3077">
        <ele>1525.1999511719</ele>
        <time>2016-07-19T15:42:10.000Z</time>
      </trkpt>
      <trkpt lat="44.34566" lon="6.30782">
        <ele>1523</ele>
        <time>2016-07-19T15:42:18.000Z</time>
      </trkpt>
      <trkpt lat="44.34566" lon="6.30783">
        <ele>1522.8000488281</ele>
        <time>2016-07-19T15:42:19.000Z</time>
      </trkpt>
      <trkpt lat="44.34566" lon="6.30786">
        <ele>1522.1999511719</ele>
        <time>2016-07-19T15:42:21.000Z</time>
      </trkpt>
      <trkpt lat="44.34562" lon="6.30796">
        <ele>1521.1999511719</ele>
        <time>2016-07-19T15:42:29.000Z</time>
      </trkpt>
      <trkpt lat="44.34561" lon="6.308">
        <ele>1520.4000244141</ele>
        <time>2016-07-19T15:42:33.000Z</time>
      </trkpt>
      <trkpt lat="44.34562" lon="6.3081">
        <ele>1518.4000244141</ele>
        <time>2016-07-19T15:42:39.000Z</time>
      </trkpt>
      <trkpt lat="44.34565" lon="6.30818">
        <ele>1516.8000488281</ele>
        <time>2016-07-19T15:42:45.000Z</time>
      </trkpt>
      <trkpt lat="44.34566" lon="6.30822">
        <ele>1515.8000488281</ele>
        <time>2016-07-19T15:42:48.000Z</time>
      </trkpt>
      <trkpt lat="44.34569" lon="6.30833">
        <ele>1513.5999755859</ele>
        <time>2016-07-19T15:42:55.000Z</time>
      </trkpt>
      <trkpt lat="44.34571" lon="6.30845">
        <ele>1511</ele>
        <time>2016-07-19T15:43:02.000Z</time>
      </trkpt>
      <trkpt lat="44.34571" lon="6.30847">
        <ele>1510.5999755859</ele>
        <time>2016-07-19T15:43:03.000Z</time>
      </trkpt>
      <trkpt lat="44.34576" lon="6.30862">
        <ele>1507</ele>
        <time>2016-07-19T15:43:11.000Z</time>
      </trkpt>
      <trkpt lat="44.34577" lon="6.30865">
        <ele>1506.1999511719</ele>
        <time>2016-07-19T15:43:13.000Z</time>
      </trkpt>
      <trkpt lat="44.34581" lon="6.30874">
        <ele>1503.5999755859</ele>
        <time>2016-07-19T15:43:20.000Z</time>
      </trkpt>
      <trkpt lat="44.34581" lon="6.30875">
        <ele>1503.4000244141</ele>
        <time>2016-07-19T15:43:21.000Z</time>
      </trkpt>
      <trkpt lat="44.34583" lon="6.3088">
        <ele>1501.8000488281</ele>
        <time>2016-07-19T15:43:25.000Z</time>
      </trkpt>
      <trkpt lat="44.34584" lon="6.30887">
        <ele>1500</ele>
        <time>2016-07-19T15:43:29.000Z</time>
      </trkpt>
      <trkpt lat="44.34584" lon="6.3089">
        <ele>1499.4000244141</ele>
        <time>2016-07-19T15:43:31.000Z</time>
      </trkpt>
      <trkpt lat="44.34586" lon="6.30897">
        <ele>1497.4000244141</ele>
        <time>2016-07-19T15:43:37.000Z</time>
      </trkpt>
      <trkpt lat="44.34586" lon="6.309">
        <ele>1496.8000488281</ele>
        <time>2016-07-19T15:43:40.000Z</time>
      </trkpt>
      <trkpt lat="44.34588" lon="6.30909">
        <ele>1495.1999511719</ele>
        <time>2016-07-19T15:43:46.000Z</time>
      </trkpt>
      <trkpt lat="44.34587" lon="6.30913">
        <ele>1494.4000244141</ele>
        <time>2016-07-19T15:43:48.000Z</time>
      </trkpt>
      <trkpt lat="44.34582" lon="6.30925">
        <ele>1492.4000244141</ele>
        <time>2016-07-19T15:43:56.000Z</time>
      </trkpt>
      <trkpt lat="44.34579" lon="6.3093">
        <ele>1491.8000488281</ele>
        <time>2016-07-19T15:43:59.000Z</time>
      </trkpt>
      <trkpt lat="44.34573" lon="6.30938">
        <ele>1490.5999755859</ele>
        <time>2016-07-19T15:44:06.000Z</time>
      </trkpt>
      <trkpt lat="44.3457" lon="6.30949">
        <ele>1486.5999755859</ele>
        <time>2016-07-19T15:44:13.000Z</time>
      </trkpt>
      <trkpt lat="44.34565" lon="6.30962">
        <ele>1482</ele>
        <time>2016-07-19T15:44:21.000Z</time>
      </trkpt>
      <trkpt lat="44.3456" lon="6.30969">
        <ele>1479</ele>
        <time>2016-07-19T15:44:27.000Z</time>
      </trkpt>
      <trkpt lat="44.34554" lon="6.30979">
        <ele>1475</ele>
        <time>2016-07-19T15:44:35.000Z</time>
      </trkpt>
      <trkpt lat="44.34552" lon="6.30982">
        <ele>1474</ele>
        <time>2016-07-19T15:44:38.000Z</time>
      </trkpt>
      <trkpt lat="44.34551" lon="6.30994">
        <ele>1471.4000244141</ele>
        <time>2016-07-19T15:44:47.000Z</time>
      </trkpt>
      <trkpt lat="44.3455" lon="6.30999">
        <ele>1470.1999511719</ele>
        <time>2016-07-19T15:44:51.000Z</time>
      </trkpt>
      <trkpt lat="44.34547" lon="6.31015">
        <ele>1465.5999755859</ele>
        <time>2016-07-19T15:45:01.000Z</time>
      </trkpt>
      <trkpt lat="44.34543" lon="6.31026">
        <ele>1461.8000488281</ele>
        <time>2016-07-19T15:45:08.000Z</time>
      </trkpt>
      <trkpt lat="44.34539" lon="6.31034">
        <ele>1459</ele>
        <time>2016-07-19T15:45:14.000Z</time>
      </trkpt>
      <trkpt lat="44.34532" lon="6.31041">
        <ele>1456</ele>
        <time>2016-07-19T15:45:22.000Z</time>
      </trkpt>
      <trkpt lat="44.34527" lon="6.31048">
        <ele>1454</ele>
        <time>2016-07-19T15:45:27.000Z</time>
      </trkpt>
      <trkpt lat="44.34519" lon="6.31055">
        <ele>1452.1999511719</ele>
        <time>2016-07-19T15:45:35.000Z</time>
      </trkpt>
      <trkpt lat="44.34514" lon="6.31063">
        <ele>1450.5999755859</ele>
        <time>2016-07-19T15:45:41.000Z</time>
      </trkpt>
      <trkpt lat="44.34513" lon="6.31066">
        <ele>1450</ele>
        <time>2016-07-19T15:45:43.000Z</time>
      </trkpt>
      <trkpt lat="44.34514" lon="6.31079">
        <ele>1447.1999511719</ele>
        <time>2016-07-19T15:45:51.000Z</time>
      </trkpt>
      <trkpt lat="44.34513" lon="6.31087">
        <ele>1445.5999755859</ele>
        <time>2016-07-19T15:45:57.000Z</time>
      </trkpt>
      <trkpt lat="44.34511" lon="6.31096">
        <ele>1443.5999755859</ele>
        <time>2016-07-19T15:46:03.000Z</time>
      </trkpt>
      <trkpt lat="44.3451" lon="6.31102">
        <ele>1442.4000244141</ele>
        <time>2016-07-19T15:46:07.000Z</time>
      </trkpt>
      <trkpt lat="44.34503" lon="6.3111">
        <ele>1440.8000488281</ele>
        <time>2016-07-19T15:46:14.000Z</time>
      </trkpt>
      <trkpt lat="44.34498" lon="6.31113">
        <ele>1440.4000244141</ele>
        <time>2016-07-19T15:46:19.000Z</time>
      </trkpt>
      <trkpt lat="44.34492" lon="6.31119">
        <ele>1439</ele>
        <time>2016-07-19T15:46:25.000Z</time>
      </trkpt>
      <trkpt lat="44.3449" lon="6.31123">
        <ele>1438.4000244141</ele>
        <time>2016-07-19T15:46:27.000Z</time>
      </trkpt>
      <trkpt lat="44.34487" lon="6.31126">
        <ele>1437.5999755859</ele>
        <time>2016-07-19T15:46:30.000Z</time>
      </trkpt>
      <trkpt lat="44.3448" lon="6.31135">
        <ele>1435.4000244141</ele>
        <time>2016-07-19T15:46:37.000Z</time>
      </trkpt>
      <trkpt lat="44.34478" lon="6.31141">
        <ele>1434</ele>
        <time>2016-07-19T15:46:41.000Z</time>
      </trkpt>
      <trkpt lat="44.34474" lon="6.31147">
        <ele>1432.5999755859</ele>
        <time>2016-07-19T15:46:47.000Z</time>
      </trkpt>
      <trkpt lat="44.34474" lon="6.31149">
        <ele>1432.4000244141</ele>
        <time>2016-07-19T15:46:48.000Z</time>
      </trkpt>
      <trkpt lat="44.34471" lon="6.31164">
        <ele>1429.5999755859</ele>
        <time>2016-07-19T15:46:57.000Z</time>
      </trkpt>
      <trkpt lat="44.34467" lon="6.31174">
        <ele>1427.5999755859</ele>
        <time>2016-07-19T15:47:03.000Z</time>
      </trkpt>
      <trkpt lat="44.34462" lon="6.31182">
        <ele>1425.8000488281</ele>
        <time>2016-07-19T15:47:10.000Z</time>
      </trkpt>
      <trkpt lat="44.34457" lon="6.31189">
        <ele>1424.1999511719</ele>
        <time>2016-07-19T15:47:16.000Z</time>
      </trkpt>
      <trkpt lat="44.34451" lon="6.31197">
        <ele>1422.1999511719</ele>
        <time>2016-07-19T15:47:23.000Z</time>
      </trkpt>
      <trkpt lat="44.34446" lon="6.31201">
        <ele>1421.1999511719</ele>
        <time>2016-07-19T15:47:27.000Z</time>
      </trkpt>
      <trkpt lat="44.34438" lon="6.31204">
        <ele>1420.5999755859</ele>
        <time>2016-07-19T15:47:34.000Z</time>
      </trkpt>
      <trkpt lat="44.34436" lon="6.31205">
        <ele>1420.4000244141</ele>
        <time>2016-07-19T15:47:36.000Z</time>
      </trkpt>
      <trkpt lat="44.34431" lon="6.31204">
        <ele>1420.5999755859</ele>
        <time>2016-07-19T15:47:43.000Z</time>
      </trkpt>
      <trkpt lat="44.34426" lon="6.31208">
        <ele>1419.8000488281</ele>
        <time>2016-07-19T15:47:49.000Z</time>
      </trkpt>
      <trkpt lat="44.34425" lon="6.31209">
        <ele>1419.5999755859</ele>
        <time>2016-07-19T15:47:50.000Z</time>
      </trkpt>
      <trkpt lat="44.34424" lon="6.31211">
        <ele>1419</ele>
        <time>2016-07-19T15:47:52.000Z</time>
      </trkpt>
      <trkpt lat="44.34419" lon="6.31218">
        <ele>1417</ele>
        <time>2016-07-19T15:47:59.000Z</time>
      </trkpt>
      <trkpt lat="44.34419" lon="6.31219">
        <ele>1416.5999755859</ele>
        <time>2016-07-19T15:48:00.000Z</time>
      </trkpt>
      <trkpt lat="44.34419" lon="6.31233">
        <ele>1413</ele>
        <time>2016-07-19T15:48:08.000Z</time>
      </trkpt>
      <trkpt lat="44.34419" lon="6.31239">
        <ele>1411.8000488281</ele>
        <time>2016-07-19T15:48:11.000Z</time>
      </trkpt>
      <trkpt lat="44.34419" lon="6.31244">
        <ele>1410.5999755859</ele>
        <time>2016-07-19T15:48:15.000Z</time>
      </trkpt>
      <trkpt lat="44.3442" lon="6.31255">
        <ele>1408.4000244141</ele>
        <time>2016-07-19T15:48:21.000Z</time>
      </trkpt>
      <trkpt lat="44.34421" lon="6.31262">
        <ele>1406.8000488281</ele>
        <time>2016-07-19T15:48:26.000Z</time>
      </trkpt>
      <trkpt lat="44.34424" lon="6.31276">
        <ele>1404</ele>
        <time>2016-07-19T15:48:34.000Z</time>
      </trkpt>
      <trkpt lat="44.34423" lon="6.31286">
        <ele>1401.8000488281</ele>
        <time>2016-07-19T15:48:41.000Z</time>
      </trkpt>
      <trkpt lat="44.34423" lon="6.31289">
        <ele>1401.1999511719</ele>
        <time>2016-07-19T15:48:43.000Z</time>
      </trkpt>
      <trkpt lat="44.34426" lon="6.31301">
        <ele>1398.4000244141</ele>
        <time>2016-07-19T15:48:50.000Z</time>
      </trkpt>
      <trkpt lat="44.34426" lon="6.31304">
        <ele>1397.8000488281</ele>
        <time>2016-07-19T15:48:51.000Z</time>
      </trkpt>
      <trkpt lat="44.34422" lon="6.31312">
        <ele>1395.5999755859</ele>
        <time>2016-07-19T15:48:58.000Z</time>
      </trkpt>
      <trkpt lat="44.3442" lon="6.3132">
        <ele>1393.4000244141</ele>
        <time>2016-07-19T15:49:03.000Z</time>
      </trkpt>
      <trkpt lat="44.34416" lon="6.31326">
        <ele>1392</ele>
        <time>2016-07-19T15:49:07.000Z</time>
      </trkpt>
      <trkpt lat="44.3441" lon="6.31332">
        <ele>1390</ele>
        <time>2016-07-19T15:49:14.000Z</time>
      </trkpt>
      <trkpt lat="44.34405" lon="6.31336">
        <ele>1388.8000488281</ele>
        <time>2016-07-19T15:49:19.000Z</time>
      </trkpt>
      <trkpt lat="44.34402" lon="6.31345">
        <ele>1386.5999755859</ele>
        <time>2016-07-19T15:49:26.000Z</time>
      </trkpt>
      <trkpt lat="44.344" lon="6.31346">
        <ele>1386.1999511719</ele>
        <time>2016-07-19T15:49:28.000Z</time>
      </trkpt>
      <trkpt lat="44.34398" lon="6.31347">
        <ele>1385.8000488281</ele>
        <time>2016-07-19T15:49:30.000Z</time>
      </trkpt>
      <trkpt lat="44.3439" lon="6.31357">
        <ele>1383.1999511719</ele>
        <time>2016-07-19T15:49:40.000Z</time>
      </trkpt>
      <trkpt lat="44.34387" lon="6.31363">
        <ele>1381.5999755859</ele>
        <time>2016-07-19T15:49:47.000Z</time>
      </trkpt>
      <trkpt lat="44.34383" lon="6.31371">
        <ele>1379.8000488281</ele>
        <time>2016-07-19T15:49:53.000Z</time>
      </trkpt>
      <trkpt lat="44.34382" lon="6.31376">
        <ele>1378.5999755859</ele>
        <time>2016-07-19T15:49:58.000Z</time>
      </trkpt>
      <trkpt lat="44.34382" lon="6.31382">
        <ele>1377.4000244141</ele>
        <time>2016-07-19T15:50:02.000Z</time>
      </trkpt>
      <trkpt lat="44.34382" lon="6.31383">
        <ele>1377.1999511719</ele>
        <time>2016-07-19T15:50:04.000Z</time>
      </trkpt>
      <trkpt lat="44.34381" lon="6.31387">
        <ele>1376.1999511719</ele>
        <time>2016-07-19T15:50:08.000Z</time>
      </trkpt>
      <trkpt lat="44.34381" lon="6.31395">
        <ele>1374.4000244141</ele>
        <time>2016-07-19T15:50:15.000Z</time>
      </trkpt>
      <trkpt lat="44.34379" lon="6.31399">
        <ele>1373.5999755859</ele>
        <time>2016-07-19T15:50:17.000Z</time>
      </trkpt>
      <trkpt lat="44.34376" lon="6.31404">
        <ele>1372</ele>
        <time>2016-07-19T15:50:22.000Z</time>
      </trkpt>
      <trkpt lat="44.34372" lon="6.3141">
        <ele>1370.1999511719</ele>
        <time>2016-07-19T15:50:29.000Z</time>
      </trkpt>
      <trkpt lat="44.34371" lon="6.31415">
        <ele>1369.1999511719</ele>
        <time>2016-07-19T15:50:33.000Z</time>
      </trkpt>
      <trkpt lat="44.3437" lon="6.3142">
        <ele>1368</ele>
        <time>2016-07-19T15:50:37.000Z</time>
      </trkpt>
      <trkpt lat="44.3437" lon="6.31425">
        <ele>1366.5999755859</ele>
        <time>2016-07-19T15:50:44.000Z</time>
      </trkpt>
      <trkpt lat="44.34369" lon="6.31429">
        <ele>1365.5999755859</ele>
        <time>2016-07-19T15:50:49.000Z</time>
      </trkpt>
      <trkpt lat="44.34369" lon="6.3143">
        <ele>1365.1999511719</ele>
        <time>2016-07-19T15:50:50.000Z</time>
      </trkpt>
      <trkpt lat="44.34368" lon="6.3144">
        <ele>1362.8000488281</ele>
        <time>2016-07-19T15:50:59.000Z</time>
      </trkpt>
      <trkpt lat="44.34367" lon="6.31442">
        <ele>1362.4000244141</ele>
        <time>2016-07-19T15:51:01.000Z</time>
      </trkpt>
      <trkpt lat="44.34364" lon="6.31448">
        <ele>1360.8000488281</ele>
        <time>2016-07-19T15:51:06.000Z</time>
      </trkpt>
      <trkpt lat="44.34363" lon="6.31452">
        <ele>1359.5999755859</ele>
        <time>2016-07-19T15:51:09.000Z</time>
      </trkpt>
      <trkpt lat="44.34358" lon="6.31458">
        <ele>1357.5999755859</ele>
        <time>2016-07-19T15:51:15.000Z</time>
      </trkpt>
      <trkpt lat="44.34353" lon="6.31468">
        <ele>1354.8000488281</ele>
        <time>2016-07-19T15:51:22.000Z</time>
      </trkpt>
      <trkpt lat="44.34345" lon="6.31478">
        <ele>1351.8000488281</ele>
        <time>2016-07-19T15:51:31.000Z</time>
      </trkpt>
      <trkpt lat="44.34339" lon="6.31486">
        <ele>1350</ele>
        <time>2016-07-19T15:51:38.000Z</time>
      </trkpt>
      <trkpt lat="44.34336" lon="6.31486">
        <ele>1349.5999755859</ele>
        <time>2016-07-19T15:51:51.000Z</time>
      </trkpt>
      <trkpt lat="44.34329" lon="6.31493">
        <ele>1348</ele>
        <time>2016-07-19T15:51:58.000Z</time>
      </trkpt>
      <trkpt lat="44.34323" lon="6.31502">
        <ele>1346</ele>
        <time>2016-07-19T15:52:05.000Z</time>
      </trkpt>
      <trkpt lat="44.34319" lon="6.31511">
        <ele>1344</ele>
        <time>2016-07-19T15:52:12.000Z</time>
      </trkpt>
      <trkpt lat="44.34319" lon="6.31512">
        <ele>1343.8000488281</ele>
        <time>2016-07-19T15:52:13.000Z</time>
      </trkpt>
      <trkpt lat="44.34316" lon="6.31516">
        <ele>1343</ele>
        <time>2016-07-19T15:52:16.000Z</time>
      </trkpt>
      <trkpt lat="44.34311" lon="6.31525">
        <ele>1340.5999755859</ele>
        <time>2016-07-19T15:52:24.000Z</time>
      </trkpt>
      <trkpt lat="44.3431" lon="6.31526">
        <ele>1340.4000244141</ele>
        <time>2016-07-19T15:52:25.000Z</time>
      </trkpt>
      <trkpt lat="44.34308" lon="6.31535">
        <ele>1338.4000244141</ele>
        <time>2016-07-19T15:52:32.000Z</time>
      </trkpt>
      <trkpt lat="44.34306" lon="6.31539">
        <ele>1337.4000244141</ele>
        <time>2016-07-19T15:52:35.000Z</time>
      </trkpt>
      <trkpt lat="44.34301" lon="6.31549">
        <ele>1335</ele>
        <time>2016-07-19T15:52:43.000Z</time>
      </trkpt>
      <trkpt lat="44.343" lon="6.3155">
        <ele>1334.8000488281</ele>
        <time>2016-07-19T15:52:44.000Z</time>
      </trkpt>
      <trkpt lat="44.34295" lon="6.31552">
        <ele>1333.5999755859</ele>
        <time>2016-07-19T15:52:49.000Z</time>
      </trkpt>
      <trkpt lat="44.34293" lon="6.31554">
        <ele>1333</ele>
        <time>2016-07-19T15:52:52.000Z</time>
      </trkpt>
      <trkpt lat="44.3429" lon="6.31557">
        <ele>1332.1999511719</ele>
        <time>2016-07-19T15:52:56.000Z</time>
      </trkpt>
      <trkpt lat="44.34287" lon="6.3156">
        <ele>1331.1999511719</ele>
        <time>2016-07-19T15:53:00.000Z</time>
      </trkpt>
      <trkpt lat="44.3428" lon="6.31569">
        <ele>1328.8000488281</ele>
        <time>2016-07-19T15:53:08.000Z</time>
      </trkpt>
      <trkpt lat="44.34276" lon="6.31575">
        <ele>1327.1999511719</ele>
        <time>2016-07-19T15:53:14.000Z</time>
      </trkpt>
      <trkpt lat="44.3427" lon="6.31585">
        <ele>1325.1999511719</ele>
        <time>2016-07-19T15:53:20.000Z</time>
      </trkpt>
      <trkpt lat="44.34269" lon="6.31587">
        <ele>1324.5999755859</ele>
        <time>2016-07-19T15:53:22.000Z</time>
      </trkpt>
      <trkpt lat="44.3427" lon="6.31594">
        <ele>1322.8000488281</ele>
        <time>2016-07-19T15:53:27.000Z</time>
      </trkpt>
      <trkpt lat="44.34269" lon="6.31601">
        <ele>1321</ele>
        <time>2016-07-19T15:53:32.000Z</time>
      </trkpt>
      <trkpt lat="44.34269" lon="6.31602">
        <ele>1320.5999755859</ele>
        <time>2016-07-19T15:53:33.000Z</time>
      </trkpt>
      <trkpt lat="44.3427" lon="6.31603">
        <ele>1320.1999511719</ele>
        <time>2016-07-19T15:53:34.000Z</time>
      </trkpt>
      <trkpt lat="44.34269" lon="6.3161">
        <ele>1318.5999755859</ele>
        <time>2016-07-19T15:53:38.000Z</time>
      </trkpt>
      <trkpt lat="44.34269" lon="6.31623">
        <ele>1315.1999511719</ele>
        <time>2016-07-19T15:53:47.000Z</time>
      </trkpt>
      <trkpt lat="44.34268" lon="6.31625">
        <ele>1314.5999755859</ele>
        <time>2016-07-19T15:53:48.000Z</time>
      </trkpt>
      <trkpt lat="44.34269" lon="6.31632">
        <ele>1312.8000488281</ele>
        <time>2016-07-19T15:53:52.000Z</time>
      </trkpt>
      <trkpt lat="44.34268" lon="6.31636">
        <ele>1311.5999755859</ele>
        <time>2016-07-19T15:53:55.000Z</time>
      </trkpt>
      <trkpt lat="44.3427" lon="6.31643">
        <ele>1309.8000488281</ele>
        <time>2016-07-19T15:54:00.000Z</time>
      </trkpt>
      <trkpt lat="44.34271" lon="6.31647">
        <ele>1308.5999755859</ele>
        <time>2016-07-19T15:54:03.000Z</time>
      </trkpt>
      <trkpt lat="44.34272" lon="6.31651">
        <ele>1307.5999755859</ele>
        <time>2016-07-19T15:54:06.000Z</time>
      </trkpt>
      <trkpt lat="44.34274" lon="6.31657">
        <ele>1305.5999755859</ele>
        <time>2016-07-19T15:54:11.000Z</time>
      </trkpt>
      <trkpt lat="44.34277" lon="6.31662">
        <ele>1304.1999511719</ele>
        <time>2016-07-19T15:54:16.000Z</time>
      </trkpt>
      <trkpt lat="44.34282" lon="6.31669">
        <ele>1301.8000488281</ele>
        <time>2016-07-19T15:54:22.000Z</time>
      </trkpt>
      <trkpt lat="44.34286" lon="6.31679">
        <ele>1299.5999755859</ele>
        <time>2016-07-19T15:54:28.000Z</time>
      </trkpt>
      <trkpt lat="44.34287" lon="6.31688">
        <ele>1297.1999511719</ele>
        <time>2016-07-19T15:54:33.000Z</time>
      </trkpt>
      <trkpt lat="44.34288" lon="6.3169">
        <ele>1296.8000488281</ele>
        <time>2016-07-19T15:54:34.000Z</time>
      </trkpt>
      <trkpt lat="44.3429" lon="6.31702">
        <ele>1293.5999755859</ele>
        <time>2016-07-19T15:54:41.000Z</time>
      </trkpt>
      <trkpt lat="44.34292" lon="6.31708">
        <ele>1292.1999511719</ele>
        <time>2016-07-19T15:54:46.000Z</time>
      </trkpt>
      <trkpt lat="44.34293" lon="6.31713">
        <ele>1290.8000488281</ele>
        <time>2016-07-19T15:54:50.000Z</time>
      </trkpt>
      <trkpt lat="44.34298" lon="6.31724">
        <ele>1288.4000244141</ele>
        <time>2016-07-19T15:54:58.000Z</time>
      </trkpt>
      <trkpt lat="44.34304" lon="6.31732">
        <ele>1286.5999755859</ele>
        <time>2016-07-19T15:55:06.000Z</time>
      </trkpt>
      <trkpt lat="44.34309" lon="6.31732">
        <ele>1287</ele>
        <time>2016-07-19T15:55:10.000Z</time>
      </trkpt>
      <trkpt lat="44.34315" lon="6.31737">
        <ele>1286.1999511719</ele>
        <time>2016-07-19T15:55:17.000Z</time>
      </trkpt>
      <trkpt lat="44.34318" lon="6.31739">
        <ele>1285.8000488281</ele>
        <time>2016-07-19T15:55:21.000Z</time>
      </trkpt>
      <trkpt lat="44.34322" lon="6.31741">
        <ele>1285.8000488281</ele>
        <time>2016-07-19T15:55:25.000Z</time>
      </trkpt>
      <trkpt lat="44.34327" lon="6.31741">
        <ele>1286.1999511719</ele>
        <time>2016-07-19T15:55:29.000Z</time>
      </trkpt>
      <trkpt lat="44.34335" lon="6.31747">
        <ele>1285.1999511719</ele>
        <time>2016-07-19T15:55:36.000Z</time>
      </trkpt>
      <trkpt lat="44.34338" lon="6.31751">
        <ele>1284.1999511719</ele>
        <time>2016-07-19T15:55:39.000Z</time>
      </trkpt>
      <trkpt lat="44.34337" lon="6.31763">
        <ele>1281</ele>
        <time>2016-07-19T15:55:46.000Z</time>
      </trkpt>
      <trkpt lat="44.34337" lon="6.31772">
        <ele>1278.8000488281</ele>
        <time>2016-07-19T15:55:51.000Z</time>
      </trkpt>
      <trkpt lat="44.34332" lon="6.31785">
        <ele>1275</ele>
        <time>2016-07-19T15:56:00.000Z</time>
      </trkpt>
      <trkpt lat="44.34323" lon="6.31786">
        <ele>1274</ele>
        <time>2016-07-19T15:56:07.000Z</time>
      </trkpt>
      <trkpt lat="44.34319" lon="6.31786">
        <ele>1273.5999755859</ele>
        <time>2016-07-19T15:56:10.000Z</time>
      </trkpt>
      <trkpt lat="44.34308" lon="6.3179">
        <ele>1271.5999755859</ele>
        <time>2016-07-19T15:56:19.000Z</time>
      </trkpt>
      <trkpt lat="44.34307" lon="6.31791">
        <ele>1271.1999511719</ele>
        <time>2016-07-19T15:56:25.000Z</time>
      </trkpt>
      <trkpt lat="44.34311" lon="6.31795">
        <ele>1270.4000244141</ele>
        <time>2016-07-19T15:57:04.000Z</time>
      </trkpt>
      <trkpt lat="44.34315" lon="6.31802">
        <ele>1269</ele>
        <time>2016-07-19T15:57:09.000Z</time>
      </trkpt>
      <trkpt lat="44.34317" lon="6.31807">
        <ele>1268</ele>
        <time>2016-07-19T15:57:12.000Z</time>
      </trkpt>
      <trkpt lat="44.34322" lon="6.31818">
        <ele>1265.4000244141</ele>
        <time>2016-07-19T15:57:20.000Z</time>
      </trkpt>
      <trkpt lat="44.34328" lon="6.31827">
        <ele>1263.4000244141</ele>
        <time>2016-07-19T15:57:27.000Z</time>
      </trkpt>
      <trkpt lat="44.34332" lon="6.31837">
        <ele>1261.1999511719</ele>
        <time>2016-07-19T15:57:33.000Z</time>
      </trkpt>
      <trkpt lat="44.34333" lon="6.31847">
        <ele>1258.5999755859</ele>
        <time>2016-07-19T15:57:39.000Z</time>
      </trkpt>
      <trkpt lat="44.34325" lon="6.31856">
        <ele>1255.5999755859</ele>
        <time>2016-07-19T15:57:48.000Z</time>
      </trkpt>
      <trkpt lat="44.3431" lon="6.31869">
        <ele>1252.1999511719</ele>
        <time>2016-07-19T15:58:02.000Z</time>
      </trkpt>
      <trkpt lat="44.3431" lon="6.31872">
        <ele>1251.5999755859</ele>
        <time>2016-07-19T15:58:03.000Z</time>
      </trkpt>
      <trkpt lat="44.34313" lon="6.31882">
        <ele>1249.1999511719</ele>
        <time>2016-07-19T15:58:09.000Z</time>
      </trkpt>
      <trkpt lat="44.34313" lon="6.31884">
        <ele>1249</ele>
        <time>2016-07-19T15:58:10.000Z</time>
      </trkpt>
      <trkpt lat="44.34313" lon="6.31887">
        <ele>1248.4000244141</ele>
        <time>2016-07-19T15:58:12.000Z</time>
      </trkpt>
      <trkpt lat="44.34314" lon="6.31895">
        <ele>1246.5999755859</ele>
        <time>2016-07-19T15:58:16.000Z</time>
      </trkpt>
      <trkpt lat="44.34317" lon="6.31905">
        <ele>1244</ele>
        <time>2016-07-19T15:58:23.000Z</time>
      </trkpt>
      <trkpt lat="44.34319" lon="6.31913">
        <ele>1241.8000488281</ele>
        <time>2016-07-19T15:58:28.000Z</time>
      </trkpt>
      <trkpt lat="44.34324" lon="6.31925">
        <ele>1238.8000488281</ele>
        <time>2016-07-19T15:58:35.000Z</time>
      </trkpt>
      <trkpt lat="44.34328" lon="6.31938">
        <ele>1235.4000244141</ele>
        <time>2016-07-19T15:58:43.000Z</time>
      </trkpt>
      <trkpt lat="44.34329" lon="6.31957">
        <ele>1230.8000488281</ele>
        <time>2016-07-19T15:58:54.000Z</time>
      </trkpt>
      <trkpt lat="44.34324" lon="6.31967">
        <ele>1228.5999755859</ele>
        <time>2016-07-19T15:59:00.000Z</time>
      </trkpt>
      <trkpt lat="44.34318" lon="6.31975">
        <ele>1226.8000488281</ele>
        <time>2016-07-19T15:59:06.000Z</time>
      </trkpt>
      <trkpt lat="44.34313" lon="6.31984">
        <ele>1224.8000488281</ele>
        <time>2016-07-19T15:59:13.000Z</time>
      </trkpt>
      <trkpt lat="44.34308" lon="6.31992">
        <ele>1223</ele>
        <time>2016-07-19T15:59:20.000Z</time>
      </trkpt>
      <trkpt lat="44.34306" lon="6.31996">
        <ele>1222</ele>
        <time>2016-07-19T15:59:27.000Z</time>
      </trkpt>
      <trkpt lat="44.34304" lon="6.32004">
        <ele>1220.4000244141</ele>
        <time>2016-07-19T15:59:35.000Z</time>
      </trkpt>
      <trkpt lat="44.34302" lon="6.3202">
        <ele>1217.8000488281</ele>
        <time>2016-07-19T15:59:45.000Z</time>
      </trkpt>
      <trkpt lat="44.34301" lon="6.32023">
        <ele>1217.4000244141</ele>
        <time>2016-07-19T15:59:47.000Z</time>
      </trkpt>
      <trkpt lat="44.34298" lon="6.32032">
        <ele>1216</ele>
        <time>2016-07-19T15:59:55.000Z</time>
      </trkpt>
      <trkpt lat="44.34296" lon="6.32043">
        <ele>1214.4000244141</ele>
        <time>2016-07-19T16:00:03.000Z</time>
      </trkpt>
      <trkpt lat="44.34293" lon="6.32054">
        <ele>1212.5999755859</ele>
        <time>2016-07-19T16:00:10.000Z</time>
      </trkpt>
      <trkpt lat="44.34294" lon="6.32066">
        <ele>1210.8000488281</ele>
        <time>2016-07-19T16:00:17.000Z</time>
      </trkpt>
      <trkpt lat="44.34294" lon="6.3207">
        <ele>1210</ele>
        <time>2016-07-19T16:00:20.000Z</time>
      </trkpt>
      <trkpt lat="44.34289" lon="6.32083">
        <ele>1208.1999511719</ele>
        <time>2016-07-19T16:00:29.000Z</time>
      </trkpt>
      <trkpt lat="44.34284" lon="6.32091">
        <ele>1207.1999511719</ele>
        <time>2016-07-19T16:00:36.000Z</time>
      </trkpt>
      <trkpt lat="44.34282" lon="6.32104">
        <ele>1205.1999511719</ele>
        <time>2016-07-19T16:00:44.000Z</time>
      </trkpt>
      <trkpt lat="44.34281" lon="6.32105">
        <ele>1205</ele>
        <time>2016-07-19T16:00:45.000Z</time>
      </trkpt>
      <trkpt lat="44.3428" lon="6.32107">
        <ele>1204.8000488281</ele>
        <time>2016-07-19T16:00:46.000Z</time>
      </trkpt>
      <trkpt lat="44.34272" lon="6.32109">
        <ele>1204.8000488281</ele>
        <time>2016-07-19T16:00:52.000Z</time>
      </trkpt>
      <trkpt lat="44.34271" lon="6.32111">
        <ele>1204.5999755859</ele>
        <time>2016-07-19T16:00:54.000Z</time>
      </trkpt>
      <trkpt lat="44.34266" lon="6.32118">
        <ele>1203.5999755859</ele>
        <time>2016-07-19T16:01:01.000Z</time>
      </trkpt>
      <trkpt lat="44.34259" lon="6.32132">
        <ele>1201.1999511719</ele>
        <time>2016-07-19T16:01:10.000Z</time>
      </trkpt>
      <trkpt lat="44.34257" lon="6.32141">
        <ele>1199</ele>
        <time>2016-07-19T16:01:16.000Z</time>
      </trkpt>
      <trkpt lat="44.34254" lon="6.32145">
        <ele>1197.8000488281</ele>
        <time>2016-07-19T16:01:20.000Z</time>
      </trkpt>
      <trkpt lat="44.34245" lon="6.32138">
        <ele>1199.1999511719</ele>
        <time>2016-07-19T16:01:28.000Z</time>
      </trkpt>
      <trkpt lat="44.34241" lon="6.32135">
        <ele>1199.8000488281</ele>
        <time>2016-07-19T16:01:32.000Z</time>
      </trkpt>
      <trkpt lat="44.34232" lon="6.32138">
        <ele>1199</ele>
        <time>2016-07-19T16:01:39.000Z</time>
      </trkpt>
      <trkpt lat="44.34228" lon="6.32143">
        <ele>1197.8000488281</ele>
        <time>2016-07-19T16:01:44.000Z</time>
      </trkpt>
      <trkpt lat="44.34223" lon="6.32141">
        <ele>1198</ele>
        <time>2016-07-19T16:01:48.000Z</time>
      </trkpt>
      <trkpt lat="44.34223" lon="6.32138">
        <ele>1198.8000488281</ele>
        <time>2016-07-19T16:02:28.000Z</time>
      </trkpt>
      <trkpt lat="44.34225" lon="6.32139">
        <ele>1198.5999755859</ele>
        <time>2016-07-19T16:02:38.000Z</time>
      </trkpt>
      <trkpt lat="44.34223" lon="6.32139">
        <ele>1198.4000244141</ele>
        <time>2016-07-19T16:02:58.000Z</time>
      </trkpt>
      <trkpt lat="44.34223" lon="6.32161">
        <ele>1194.5999755859</ele>
        <time>2016-07-19T16:03:10.000Z</time>
      </trkpt>
      <trkpt lat="44.34224" lon="6.32172">
        <ele>1193</ele>
        <time>2016-07-19T16:03:16.000Z</time>
      </trkpt>
      <trkpt lat="44.34225" lon="6.32174">
        <ele>1192.8000488281</ele>
        <time>2016-07-19T16:03:17.000Z</time>
      </trkpt>
      <trkpt lat="44.34226" lon="6.32182">
        <ele>1191.5999755859</ele>
        <time>2016-07-19T16:03:21.000Z</time>
      </trkpt>
      <trkpt lat="44.34226" lon="6.32194">
        <ele>1189.4000244141</ele>
        <time>2016-07-19T16:03:28.000Z</time>
      </trkpt>
      <trkpt lat="44.34226" lon="6.32202">
        <ele>1188</ele>
        <time>2016-07-19T16:03:32.000Z</time>
      </trkpt>
      <trkpt lat="44.34227" lon="6.32214">
        <ele>1186.1999511719</ele>
        <time>2016-07-19T16:03:38.000Z</time>
      </trkpt>
      <trkpt lat="44.34228" lon="6.32227">
        <ele>1184</ele>
        <time>2016-07-19T16:03:45.000Z</time>
      </trkpt>
      <trkpt lat="44.34227" lon="6.32229">
        <ele>1183.5999755859</ele>
        <time>2016-07-19T16:03:46.000Z</time>
      </trkpt>
      <trkpt lat="44.34227" lon="6.32233">
        <ele>1183.1999511719</ele>
        <time>2016-07-19T16:03:48.000Z</time>
      </trkpt>
      <trkpt lat="44.34227" lon="6.32242">
        <ele>1182.1999511719</ele>
        <time>2016-07-19T16:03:53.000Z</time>
      </trkpt>
      <trkpt lat="44.34228" lon="6.32254">
        <ele>1180.8000488281</ele>
        <time>2016-07-19T16:03:59.000Z</time>
      </trkpt>
      <trkpt lat="44.34226" lon="6.32266">
        <ele>1179.8000488281</ele>
        <time>2016-07-19T16:04:05.000Z</time>
      </trkpt>
      <trkpt lat="44.34226" lon="6.32268">
        <ele>1179.5999755859</ele>
        <time>2016-07-19T16:04:06.000Z</time>
      </trkpt>
      <trkpt lat="44.34225" lon="6.32278">
        <ele>1178.5999755859</ele>
        <time>2016-07-19T16:04:12.000Z</time>
      </trkpt>
      <trkpt lat="44.34225" lon="6.32291">
        <ele>1177.5999755859</ele>
        <time>2016-07-19T16:04:19.000Z</time>
      </trkpt>
      <trkpt lat="44.34227" lon="6.323">
        <ele>1176.8000488281</ele>
        <time>2016-07-19T16:04:24.000Z</time>
      </trkpt>
      <trkpt lat="44.34233" lon="6.32304">
        <ele>1176.8000488281</ele>
        <time>2016-07-19T16:04:30.000Z</time>
      </trkpt>
      <trkpt lat="44.34232" lon="6.32305">
        <ele>1176.5999755859</ele>
        <time>2016-07-19T16:04:37.000Z</time>
      </trkpt>
      <trkpt lat="44.34235" lon="6.32306">
        <ele>1176.5999755859</ele>
        <time>2016-07-19T16:04:43.000Z</time>
      </trkpt>
      <trkpt lat="44.34236" lon="6.32305">
        <ele>1176.5999755859</ele>
        <time>2016-07-19T16:04:44.000Z</time>
      </trkpt>
      <trkpt lat="44.34241" lon="6.32308">
        <ele>1176.5999755859</ele>
        <time>2016-07-19T16:04:50.000Z</time>
      </trkpt>
      <trkpt lat="44.34242" lon="6.32309">
        <ele>1176.4000244141</ele>
        <time>2016-07-19T16:04:57.000Z</time>
      </trkpt>
      <trkpt lat="44.3425" lon="6.32317">
        <ele>1176</ele>
        <time>2016-07-19T16:05:05.000Z</time>
      </trkpt>
      <trkpt lat="44.34257" lon="6.32325">
        <ele>1175.4000244141</ele>
        <time>2016-07-19T16:05:11.000Z</time>
      </trkpt>
      <trkpt lat="44.34267" lon="6.32337">
        <ele>1174.8000488281</ele>
        <time>2016-07-19T16:05:19.000Z</time>
      </trkpt>
      <trkpt lat="44.34277" lon="6.32348">
        <ele>1174</ele>
        <time>2016-07-19T16:05:27.000Z</time>
      </trkpt>
      <trkpt lat="44.34286" lon="6.32363">
        <ele>1173</ele>
        <time>2016-07-19T16:05:36.000Z</time>
      </trkpt>
      <trkpt lat="44.34288" lon="6.32367">
        <ele>1172.8000488281</ele>
        <time>2016-07-19T16:05:42.000Z</time>
      </trkpt>
      <trkpt lat="44.34292" lon="6.32371">
        <ele>1172.4000244141</ele>
        <time>2016-07-19T16:05:47.000Z</time>
      </trkpt>
      <trkpt lat="44.34299" lon="6.32377">
        <ele>1172.1999511719</ele>
        <time>2016-07-19T16:05:52.000Z</time>
      </trkpt>
      <trkpt lat="44.34301" lon="6.32379">
        <ele>1172</ele>
        <time>2016-07-19T16:05:54.000Z</time>
      </trkpt>
      <trkpt lat="44.34307" lon="6.32386">
        <ele>1171.5999755859</ele>
        <time>2016-07-19T16:05:58.000Z</time>
      </trkpt>
      <trkpt lat="44.34314" lon="6.32393">
        <ele>1171.1999511719</ele>
        <time>2016-07-19T16:06:03.000Z</time>
      </trkpt>
      <trkpt lat="44.34321" lon="6.32398">
        <ele>1170.8000488281</ele>
        <time>2016-07-19T16:06:09.000Z</time>
      </trkpt>
      <trkpt lat="44.34331" lon="6.32403">
        <ele>1170.4000244141</ele>
        <time>2016-07-19T16:06:16.000Z</time>
      </trkpt>
      <trkpt lat="44.34334" lon="6.32405">
        <ele>1170.1999511719</ele>
        <time>2016-07-19T16:06:18.000Z</time>
      </trkpt>
      <trkpt lat="44.3434" lon="6.3241">
        <ele>1169.8000488281</ele>
        <time>2016-07-19T16:06:22.000Z</time>
      </trkpt>
      <trkpt lat="44.34343" lon="6.32415">
        <ele>1169.4000244141</ele>
        <time>2016-07-19T16:06:25.000Z</time>
      </trkpt>
      <trkpt lat="44.34351" lon="6.32432">
        <ele>1167.4000244141</ele>
        <time>2016-07-19T16:06:34.000Z</time>
      </trkpt>
      <trkpt lat="44.34355" lon="6.32448">
        <ele>1165.5999755859</ele>
        <time>2016-07-19T16:06:41.000Z</time>
      </trkpt>
      <trkpt lat="44.34356" lon="6.32468">
        <ele>1163.1999511719</ele>
        <time>2016-07-19T16:06:50.000Z</time>
      </trkpt>
      <trkpt lat="44.34333" lon="6.32482">
        <ele>1161</ele>
        <time>2016-07-19T16:07:05.000Z</time>
      </trkpt>
      <trkpt lat="44.34316" lon="6.3251">
        <ele>1157.1999511719</ele>
        <time>2016-07-19T16:07:21.000Z</time>
      </trkpt>
      <trkpt lat="44.34318" lon="6.32527">
        <ele>1155.8000488281</ele>
        <time>2016-07-19T16:07:28.000Z</time>
      </trkpt>
      <trkpt lat="44.34319" lon="6.32529">
        <ele>1155.5999755859</ele>
        <time>2016-07-19T16:07:29.000Z</time>
      </trkpt>
      <trkpt lat="44.34325" lon="6.32546">
        <ele>1154.1999511719</ele>
        <time>2016-07-19T16:07:36.000Z</time>
      </trkpt>
      <trkpt lat="44.3433" lon="6.32565">
        <ele>1152.8000488281</ele>
        <time>2016-07-19T16:07:44.000Z</time>
      </trkpt>
      <trkpt lat="44.34343" lon="6.32604">
        <ele>1150.5999755859</ele>
        <time>2016-07-19T16:08:02.000Z</time>
      </trkpt>
      <trkpt lat="44.34346" lon="6.3262">
        <ele>1149.8000488281</ele>
        <time>2016-07-19T16:08:09.000Z</time>
      </trkpt>
      <trkpt lat="44.34349" lon="6.3265">
        <ele>1148.1999511719</ele>
        <time>2016-07-19T16:08:22.000Z</time>
      </trkpt>
      <trkpt lat="44.34352" lon="6.32668">
        <ele>1147.1999511719</ele>
        <time>2016-07-19T16:08:31.000Z</time>
      </trkpt>
      <trkpt lat="44.34356" lon="6.32689">
        <ele>1146.1999511719</ele>
        <time>2016-07-19T16:08:40.000Z</time>
      </trkpt>
      <trkpt lat="44.34361" lon="6.32713">
        <ele>1145</ele>
        <time>2016-07-19T16:08:51.000Z</time>
      </trkpt>
      <trkpt lat="44.34367" lon="6.32732">
        <ele>1144</ele>
        <time>2016-07-19T16:09:00.000Z</time>
      </trkpt>
      <trkpt lat="44.34374" lon="6.32757">
        <ele>1142.8000488281</ele>
        <time>2016-07-19T16:09:13.000Z</time>
      </trkpt>
      <trkpt lat="44.3438" lon="6.32777">
        <ele>1141.8000488281</ele>
        <time>2016-07-19T16:09:23.000Z</time>
      </trkpt>
      <trkpt lat="44.34387" lon="6.32802">
        <ele>1140.5999755859</ele>
        <time>2016-07-19T16:09:35.000Z</time>
      </trkpt>
      <trkpt lat="44.34392" lon="6.32819">
        <ele>1140</ele>
        <time>2016-07-19T16:09:43.000Z</time>
      </trkpt>
      <trkpt lat="44.34397" lon="6.3284">
        <ele>1139.5999755859</ele>
        <time>2016-07-19T16:09:54.000Z</time>
      </trkpt>
      <trkpt lat="44.34404" lon="6.32862">
        <ele>1139.4000244141</ele>
        <time>2016-07-19T16:10:05.000Z</time>
      </trkpt>
      <trkpt lat="44.34411" lon="6.32883">
        <ele>1138.8000488281</ele>
        <time>2016-07-19T16:10:15.000Z</time>
      </trkpt>
      <trkpt lat="44.34418" lon="6.32907">
        <ele>1138.5999755859</ele>
        <time>2016-07-19T16:10:28.000Z</time>
      </trkpt>
      <trkpt lat="44.34427" lon="6.3293">
        <ele>1138.4000244141</ele>
        <time>2016-07-19T16:10:40.000Z</time>
      </trkpt>
      <trkpt lat="44.34436" lon="6.32951">
        <ele>1138.1999511719</ele>
        <time>2016-07-19T16:10:51.000Z</time>
      </trkpt>
      <trkpt lat="44.34441" lon="6.32961">
        <ele>1138.1999511719</ele>
        <time>2016-07-19T16:10:57.000Z</time>
      </trkpt>
      <trkpt lat="44.3445" lon="6.32975">
        <ele>1138.1999511719</ele>
        <time>2016-07-19T16:11:06.000Z</time>
      </trkpt>
      <trkpt lat="44.34461" lon="6.32988">
        <ele>1138.8000488281</ele>
        <time>2016-07-19T16:11:13.000Z</time>
      </trkpt>
      <trkpt lat="44.34471" lon="6.32999">
        <ele>1139.1999511719</ele>
        <time>2016-07-19T16:11:19.000Z</time>
      </trkpt>
      <trkpt lat="44.34483" lon="6.33015">
        <ele>1139.5999755859</ele>
        <time>2016-07-19T16:11:30.000Z</time>
      </trkpt>
      <trkpt lat="44.3449" lon="6.33017">
        <ele>1140.1999511719</ele>
        <time>2016-07-19T16:11:35.000Z</time>
      </trkpt>
      <trkpt lat="44.34501" lon="6.3301">
        <ele>1140.8000488281</ele>
        <time>2016-07-19T16:11:42.000Z</time>
      </trkpt>
      <trkpt lat="44.34513" lon="6.32997">
        <ele>1141.8000488281</ele>
        <time>2016-07-19T16:11:52.000Z</time>
      </trkpt>
      <trkpt lat="44.34533" lon="6.32967">
        <ele>1143</ele>
        <time>2016-07-19T16:12:11.000Z</time>
      </trkpt>
      <trkpt lat="44.34539" lon="6.3296">
        <ele>1143</ele>
        <time>2016-07-19T16:12:17.000Z</time>
      </trkpt>
      <trkpt lat="44.34542" lon="6.32949">
        <ele>1143.1999511719</ele>
        <time>2016-07-19T16:12:23.000Z</time>
      </trkpt>
      <trkpt lat="44.34542" lon="6.32946">
        <ele>1143.1999511719</ele>
        <time>2016-07-19T16:12:25.000Z</time>
      </trkpt>
      <trkpt lat="44.34534" lon="6.32936">
        <ele>1143.4000244141</ele>
        <time>2016-07-19T16:12:32.000Z</time>
      </trkpt>
      <trkpt lat="44.34524" lon="6.32923">
        <ele>1143.1999511719</ele>
        <time>2016-07-19T16:12:41.000Z</time>
      </trkpt>
      <trkpt lat="44.34515" lon="6.32922">
        <ele>1142.8000488281</ele>
        <time>2016-07-19T16:12:47.000Z</time>
      </trkpt>
      <trkpt lat="44.34515" lon="6.32919">
        <ele>1142.8000488281</ele>
        <time>2016-07-19T16:12:55.000Z</time>
      </trkpt>
      <trkpt lat="44.34515" lon="6.32917">
        <ele>1142.8000488281</ele>
        <time>2016-07-19T16:13:03.000Z</time>
      </trkpt>
      <trkpt lat="44.34514" lon="6.32916">
        <ele>1142.8000488281</ele>
        <time>2016-07-19T16:13:07.000Z</time>
      </trkpt>
      <trkpt lat="44.34515" lon="6.32916">
        <ele>1142.8000488281</ele>
        <time>2016-07-19T16:13:14.000Z</time>
      </trkpt>
      <trkpt lat="44.34514" lon="6.32917">
        <ele>1142.8000488281</ele>
        <time>2016-07-19T16:13:18.000Z</time>
      </trkpt>
      <trkpt lat="44.34515" lon="6.32917">
        <ele>1142.8000488281</ele>
        <time>2016-07-19T16:13:25.000Z</time>
      </trkpt>
      <trkpt lat="44.34515" lon="6.32925">
        <ele>1142.8000488281</ele>
        <time>2016-07-19T16:13:34.000Z</time>
      </trkpt>
      <trkpt lat="44.34511" lon="6.3292">
        <ele>1142.5999755859</ele>
        <time>2016-07-19T16:13:38.000Z</time>
      </trkpt>
      <trkpt lat="44.3451" lon="6.32919">
        <ele>1142.4000244141</ele>
        <time>2016-07-19T16:13:40.000Z</time>
      </trkpt>
      <trkpt lat="44.34507" lon="6.32914">
        <ele>1142.4000244141</ele>
        <time>2016-07-19T16:13:43.000Z</time>
      </trkpt>
      <trkpt lat="44.34506" lon="6.3291">
        <ele>1142.4000244141</ele>
        <time>2016-07-19T16:13:50.000Z</time>
      </trkpt>
      <trkpt lat="44.34505" lon="6.32912">
        <ele>1142.1999511719</ele>
        <time>2016-07-19T16:13:55.000Z</time>
      </trkpt>
      <trkpt lat="44.34503" lon="6.32915">
        <ele>1142.1999511719</ele>
        <time>2016-07-19T16:14:04.000Z</time>
      </trkpt>
      <trkpt lat="44.34494" lon="6.32912">
        <ele>1141.5999755859</ele>
        <time>2016-07-19T16:14:11.000Z</time>
      </trkpt>
      <trkpt lat="44.34486" lon="6.32912">
        <ele>1141.1999511719</ele>
        <time>2016-07-19T16:14:17.000Z</time>
      </trkpt>
      <trkpt lat="44.34487" lon="6.3291">
        <ele>1141.1999511719</ele>
        <time>2016-07-19T16:14:28.000Z</time>
      </trkpt>
      <trkpt lat="44.34488" lon="6.32909">
        <ele>1141.1999511719</ele>
        <time>2016-07-19T16:14:29.000Z</time>
      </trkpt>
      <trkpt lat="44.34489" lon="6.3291">
        <ele>1141.4000244141</ele>
        <time>2016-07-19T16:14:34.000Z</time>
      </trkpt>
      <trkpt lat="44.34488" lon="6.32907">
        <ele>1141.4000244141</ele>
        <time>2016-07-19T16:14:40.000Z</time>
      </trkpt>
      <trkpt lat="44.34487" lon="6.32906">
        <ele>1141.1999511719</ele>
        <time>2016-07-19T16:14:45.000Z</time>
      </trkpt>
      <trkpt lat="44.34489" lon="6.32907">
        <ele>1141.4000244141</ele>
        <time>2016-07-19T16:14:49.000Z</time>
      </trkpt>
      <trkpt lat="44.34488" lon="6.32907">
        <ele>1141.4000244141</ele>
        <time>2016-07-19T16:15:14.000Z</time>
      </trkpt>
      <trkpt lat="44.34487" lon="6.32906">
        <ele>1141.1999511719</ele>
        <time>2016-07-19T16:15:36.000Z</time>
      </trkpt>
      <trkpt lat="44.34485" lon="6.32906">
        <ele>1141.1999511719</ele>
        <time>2016-07-19T16:16:13.000Z</time>
      </trkpt>
      <trkpt lat="44.34485" lon="6.32904">
        <ele>1141.1999511719</ele>
        <time>2016-07-19T16:19:52.000Z</time>
      </trkpt>
      <trkpt lat="44.34485" lon="6.32905">
        <ele>1141.1999511719</ele>
        <time>2016-07-19T16:21:08.000Z</time>
      </trkpt>
      <trkpt lat="44.34488" lon="6.3291">
        <ele>1141.1999511719</ele>
        <time>2016-07-19T16:21:18.000Z</time>
      </trkpt>
      <trkpt lat="44.34496" lon="6.32911">
        <ele>1141.8000488281</ele>
        <time>2016-07-19T16:21:25.000Z</time>
      </trkpt>
      <trkpt lat="44.34499" lon="6.32912">
        <ele>1142</ele>
        <time>2016-07-19T16:21:31.000Z</time>
      </trkpt>
      <trkpt lat="44.34499" lon="6.32914">
        <ele>1141.8000488281</ele>
        <time>2016-07-19T16:21:36.000Z</time>
      </trkpt>
      <trkpt lat="44.345" lon="6.32914">
        <ele>1142</ele>
        <time>2016-07-19T16:21:50.000Z</time>
      </trkpt>
      <trkpt lat="44.34503" lon="6.32916">
        <ele>1142</ele>
        <time>2016-07-19T16:21:57.000Z</time>
      </trkpt>
      <trkpt lat="44.3451" lon="6.32926">
        <ele>1142.4000244141</ele>
        <time>2016-07-19T16:22:06.000Z</time>
      </trkpt>
      <trkpt lat="44.34513" lon="6.32929">
        <ele>1142.5999755859</ele>
        <time>2016-07-19T16:22:13.000Z</time>
      </trkpt>
      <trkpt lat="44.34514" lon="6.32921">
        <ele>1142.8000488281</ele>
        <time>2016-07-19T16:22:19.000Z</time>
      </trkpt>
      <trkpt lat="44.34513" lon="6.32917">
        <ele>1142.5999755859</ele>
        <time>2016-07-19T16:22:27.000Z</time>
      </trkpt>
      <trkpt lat="44.34513" lon="6.3292">
        <ele>1142.5999755859</ele>
        <time>2016-07-19T16:22:49.000Z</time>
      </trkpt>
      <trkpt lat="44.34518" lon="6.32924">
        <ele>1143</ele>
        <time>2016-07-19T16:22:54.000Z</time>
      </trkpt>
      <trkpt lat="44.34532" lon="6.32924">
        <ele>1143.5999755859</ele>
        <time>2016-07-19T16:23:09.000Z</time>
      </trkpt>
      <trkpt lat="44.34531" lon="6.32923">
        <ele>1143.5999755859</ele>
        <time>2016-07-19T16:23:10.000Z</time>
      </trkpt>
      <trkpt lat="44.34531" lon="6.32921">
        <ele>1143.5999755859</ele>
        <time>2016-07-19T16:23:14.000Z</time>
      </trkpt>
      <trkpt lat="44.34532" lon="6.32921">
        <ele>1143.5999755859</ele>
        <time>2016-07-19T16:23:20.000Z</time>
      </trkpt>
      <trkpt lat="44.34534" lon="6.32921">
        <ele>1143.5999755859</ele>
        <time>2016-07-19T16:23:22.000Z</time>
      </trkpt>
      <trkpt lat="44.34535" lon="6.32929">
        <ele>1143.5999755859</ele>
        <time>2016-07-19T16:23:25.000Z</time>
      </trkpt>
      <trkpt lat="44.34536" lon="6.32937">
        <ele>1143.4000244141</ele>
        <time>2016-07-19T16:23:30.000Z</time>
      </trkpt>
      <trkpt lat="44.34539" lon="6.32944">
        <ele>1143.1999511719</ele>
        <time>2016-07-19T16:23:34.000Z</time>
      </trkpt>
      <trkpt lat="44.3454" lon="6.32947">
        <ele>1143.1999511719</ele>
        <time>2016-07-19T16:23:35.000Z</time>
      </trkpt>
      <trkpt lat="44.34538" lon="6.32959">
        <ele>1143</ele>
        <time>2016-07-19T16:23:42.000Z</time>
      </trkpt>
      <trkpt lat="44.34529" lon="6.32972">
        <ele>1143</ele>
        <time>2016-07-19T16:23:50.000Z</time>
      </trkpt>
      <trkpt lat="44.34519" lon="6.32988">
        <ele>1142.1999511719</ele>
        <time>2016-07-19T16:24:01.000Z</time>
      </trkpt>
      <trkpt lat="44.3451" lon="6.32999">
        <ele>1141.5999755859</ele>
        <time>2016-07-19T16:24:10.000Z</time>
      </trkpt>
      <trkpt lat="44.345" lon="6.33011">
        <ele>1140.8000488281</ele>
        <time>2016-07-19T16:24:19.000Z</time>
      </trkpt>
      <trkpt lat="44.34491" lon="6.3302">
        <ele>1140.1999511719</ele>
        <time>2016-07-19T16:24:27.000Z</time>
      </trkpt>
      <trkpt lat="44.34478" lon="6.33031">
        <ele>1139.1999511719</ele>
        <time>2016-07-19T16:24:38.000Z</time>
      </trkpt>
      <trkpt lat="44.3447" lon="6.33046">
        <ele>1138.5999755859</ele>
        <time>2016-07-19T16:24:48.000Z</time>
      </trkpt>
      <trkpt lat="44.34473" lon="6.33068">
        <ele>1138.1999511719</ele>
        <time>2016-07-19T16:24:59.000Z</time>
      </trkpt>
      <trkpt lat="44.34474" lon="6.33094">
        <ele>1136.8000488281</ele>
        <time>2016-07-19T16:25:12.000Z</time>
      </trkpt>
      <trkpt lat="44.34479" lon="6.33114">
        <ele>1136.4000244141</ele>
        <time>2016-07-19T16:25:22.000Z</time>
      </trkpt>
      <trkpt lat="44.34483" lon="6.33129">
        <ele>1136</ele>
        <time>2016-07-19T16:25:30.000Z</time>
      </trkpt>
      <trkpt lat="44.34488" lon="6.33148">
        <ele>1135.4000244141</ele>
        <time>2016-07-19T16:25:40.000Z</time>
      </trkpt>
      <trkpt lat="44.34491" lon="6.33165">
        <ele>1134.1999511719</ele>
        <time>2016-07-19T16:25:49.000Z</time>
      </trkpt>
      <trkpt lat="44.34493" lon="6.33184">
        <ele>1133</ele>
        <time>2016-07-19T16:25:59.000Z</time>
      </trkpt>
      <trkpt lat="44.345" lon="6.33202">
        <ele>1132</ele>
        <time>2016-07-19T16:26:08.000Z</time>
      </trkpt>
      <trkpt lat="44.34506" lon="6.3321">
        <ele>1131.8000488281</ele>
        <time>2016-07-19T16:26:14.000Z</time>
      </trkpt>
      <trkpt lat="44.34512" lon="6.33228">
        <ele>1131.1999511719</ele>
        <time>2016-07-19T16:26:24.000Z</time>
      </trkpt>
      <trkpt lat="44.34515" lon="6.33242">
        <ele>1130.5999755859</ele>
        <time>2016-07-19T16:26:30.000Z</time>
      </trkpt>
      <trkpt lat="44.34517" lon="6.33259">
        <ele>1129.8000488281</ele>
        <time>2016-07-19T16:26:38.000Z</time>
      </trkpt>
      <trkpt lat="44.34517" lon="6.33274">
        <ele>1129</ele>
        <time>2016-07-19T16:26:45.000Z</time>
      </trkpt>
      <trkpt lat="44.34504" lon="6.33302">
        <ele>1127.8000488281</ele>
        <time>2016-07-19T16:27:02.000Z</time>
      </trkpt>
      <trkpt lat="44.3449" lon="6.33314">
        <ele>1127</ele>
        <time>2016-07-19T16:27:13.000Z</time>
      </trkpt>
      <trkpt lat="44.34474" lon="6.33321">
        <ele>1126.5999755859</ele>
        <time>2016-07-19T16:27:24.000Z</time>
      </trkpt>
      <trkpt lat="44.34458" lon="6.33325">
        <ele>1126.4000244141</ele>
        <time>2016-07-19T16:27:34.000Z</time>
      </trkpt>
      <trkpt lat="44.34444" lon="6.33336">
        <ele>1126.5999755859</ele>
        <time>2016-07-19T16:27:44.000Z</time>
      </trkpt>
      <trkpt lat="44.34445" lon="6.33367">
        <ele>1125.8000488281</ele>
        <time>2016-07-19T16:28:02.000Z</time>
      </trkpt>
      <trkpt lat="44.34454" lon="6.33383">
        <ele>1125.1999511719</ele>
        <time>2016-07-19T16:28:12.000Z</time>
      </trkpt>
      <trkpt lat="44.3446" lon="6.33397">
        <ele>1124.5999755859</ele>
        <time>2016-07-19T16:28:20.000Z</time>
      </trkpt>
      <trkpt lat="44.34461" lon="6.33401">
        <ele>1124.5999755859</ele>
        <time>2016-07-19T16:28:23.000Z</time>
      </trkpt>
      <trkpt lat="44.34468" lon="6.33423">
        <ele>1123.8000488281</ele>
        <time>2016-07-19T16:28:34.000Z</time>
      </trkpt>
      <trkpt lat="44.34476" lon="6.33444">
        <ele>1123.1999511719</ele>
        <time>2016-07-19T16:28:45.000Z</time>
      </trkpt>
      <trkpt lat="44.34483" lon="6.33468">
        <ele>1122.4000244141</ele>
        <time>2016-07-19T16:29:00.000Z</time>
      </trkpt>
      <trkpt lat="44.34489" lon="6.33482">
        <ele>1122</ele>
        <time>2016-07-19T16:29:08.000Z</time>
      </trkpt>
      <trkpt lat="44.34494" lon="6.33497">
        <ele>1121.8000488281</ele>
        <time>2016-07-19T16:29:17.000Z</time>
      </trkpt>
      <trkpt lat="44.34497" lon="6.33509">
        <ele>1121.8000488281</ele>
        <time>2016-07-19T16:29:24.000Z</time>
      </trkpt>
      <trkpt lat="44.34502" lon="6.33524">
        <ele>1121.5999755859</ele>
        <time>2016-07-19T16:29:32.000Z</time>
      </trkpt>
      <trkpt lat="44.34505" lon="6.33536">
        <ele>1121.5999755859</ele>
        <time>2016-07-19T16:29:38.000Z</time>
      </trkpt>
      <trkpt lat="44.34508" lon="6.33545">
        <ele>1121.4000244141</ele>
        <time>2016-07-19T16:29:44.000Z</time>
      </trkpt>
      <trkpt lat="44.34514" lon="6.33569">
        <ele>1121</ele>
        <time>2016-07-19T16:29:55.000Z</time>
      </trkpt>
      <trkpt lat="44.34524" lon="6.33612">
        <ele>1121</ele>
        <time>2016-07-19T16:30:17.000Z</time>
      </trkpt>
      <trkpt lat="44.34529" lon="6.33635">
        <ele>1121</ele>
        <time>2016-07-19T16:30:28.000Z</time>
      </trkpt>
      <trkpt lat="44.34535" lon="6.33654">
        <ele>1121.1999511719</ele>
        <time>2016-07-19T16:30:38.000Z</time>
      </trkpt>
      <trkpt lat="44.3454" lon="6.33669">
        <ele>1121.5999755859</ele>
        <time>2016-07-19T16:30:45.000Z</time>
      </trkpt>
      <trkpt lat="44.34546" lon="6.33686">
        <ele>1122</ele>
        <time>2016-07-19T16:30:55.000Z</time>
      </trkpt>
      <trkpt lat="44.34552" lon="6.33717">
        <ele>1122.5999755859</ele>
        <time>2016-07-19T16:31:10.000Z</time>
      </trkpt>
      <trkpt lat="44.34555" lon="6.33727">
        <ele>1123</ele>
        <time>2016-07-19T16:31:15.000Z</time>
      </trkpt>
    </trkseg>
  </trk>
</gpx>